<?xml version="1.0" encoding="UTF-8" standalone="no" ?>
<gpx xmlns="http://www.topografix.com/GPX/1/1" xmlns:xsi="http://www.w3.org/2001/XMLSchema-instance" xsi:schemaLocation="http://www.topografix.com/GPX/1/1 http://www.topografix.com/GPX/1/1/gpx.xsd" version="1.1" creator="VisuGPX - https://www.visugpx.com">
  <metadata>
    <name>LTH-sortie en foret d\'Andaines, sous la neige</name>
    <desc><![CDATA[la foret, sous la neige]]></desc>
  </metadata>
  <trk>
    <name><![CDATA[LTH-sortie en foret d\'Andaines, sous la neige_1]]></name>
    <trkseg>
      <trkpt lat="48.60022" lon="-0.35049">
        <ele>228.600006</ele>
        <time>2012-02-04T12:05:21Z</time>
      </trkpt>
      <trkpt lat="48.60022" lon="-0.35049">
        <ele>228.700012</ele>
        <time>2012-02-04T12:05:22Z</time>
      </trkpt>
      <trkpt lat="48.60012" lon="-0.35063">
        <ele>232</ele>
        <time>2012-02-04T12:05:35Z</time>
      </trkpt>
      <trkpt lat="48.60008" lon="-0.35056">
        <ele>232.3</ele>
        <time>2012-02-04T12:05:38Z</time>
      </trkpt>
      <trkpt lat="48.60004" lon="-0.35045">
        <ele>232.3</ele>
        <time>2012-02-04T12:05:41Z</time>
      </trkpt>
      <trkpt lat="48.60002" lon="-0.35035">
        <ele>232</ele>
        <time>2012-02-04T12:05:44Z</time>
      </trkpt>
      <trkpt lat="48.6" lon="-0.35023">
        <ele>231.4</ele>
        <time>2012-02-04T12:05:47Z</time>
      </trkpt>
      <trkpt lat="48.59996" lon="-0.35012">
        <ele>230.7</ele>
        <time>2012-02-04T12:05:50Z</time>
      </trkpt>
      <trkpt lat="48.59993" lon="-0.35">
        <ele>230.2</ele>
        <time>2012-02-04T12:05:53Z</time>
      </trkpt>
      <trkpt lat="48.59991" lon="-0.34991">
        <ele>229.9</ele>
        <time>2012-02-04T12:05:55Z</time>
      </trkpt>
      <trkpt lat="48.59988" lon="-0.34981">
        <ele>229.8</ele>
        <time>2012-02-04T12:05:57Z</time>
      </trkpt>
      <trkpt lat="48.59985" lon="-0.34971">
        <ele>229.9</ele>
        <time>2012-02-04T12:05:59Z</time>
      </trkpt>
      <trkpt lat="48.59981" lon="-0.34961">
        <ele>230.3</ele>
        <time>2012-02-04T12:06:01Z</time>
      </trkpt>
      <trkpt lat="48.59977" lon="-0.3495">
        <ele>230.8</ele>
        <time>2012-02-04T12:06:03Z</time>
      </trkpt>
      <trkpt lat="48.59974" lon="-0.34941">
        <ele>231.2</ele>
        <time>2012-02-04T12:06:05Z</time>
      </trkpt>
      <trkpt lat="48.59971" lon="-0.34932">
        <ele>231.5</ele>
        <time>2012-02-04T12:06:07Z</time>
      </trkpt>
      <trkpt lat="48.59967" lon="-0.34921">
        <ele>231.8</ele>
        <time>2012-02-04T12:06:10Z</time>
      </trkpt>
      <trkpt lat="48.59963" lon="-0.34909">
        <ele>231.9</ele>
        <time>2012-02-04T12:06:13Z</time>
      </trkpt>
      <trkpt lat="48.59959" lon="-0.34897">
        <ele>231.7</ele>
        <time>2012-02-04T12:06:16Z</time>
      </trkpt>
      <trkpt lat="48.59955" lon="-0.34886">
        <ele>231.3</ele>
        <time>2012-02-04T12:06:19Z</time>
      </trkpt>
      <trkpt lat="48.59951" lon="-0.34876">
        <ele>231</ele>
        <time>2012-02-04T12:06:21Z</time>
      </trkpt>
      <trkpt lat="48.59948" lon="-0.34868">
        <ele>230.7</ele>
        <time>2012-02-04T12:06:23Z</time>
      </trkpt>
      <trkpt lat="48.59946" lon="-0.34864">
        <ele>230.5</ele>
        <time>2012-02-04T12:06:24Z</time>
      </trkpt>
      <trkpt lat="48.59935" lon="-0.34857">
        <ele>229.4</ele>
        <time>2012-02-04T12:06:28Z</time>
      </trkpt>
      <trkpt lat="48.59929" lon="-0.34864">
        <ele>228.9</ele>
        <time>2012-02-04T12:06:30Z</time>
      </trkpt>
      <trkpt lat="48.59923" lon="-0.3487">
        <ele>228.4</ele>
        <time>2012-02-04T12:06:32Z</time>
      </trkpt>
      <trkpt lat="48.59916" lon="-0.34877">
        <ele>228.1</ele>
        <time>2012-02-04T12:06:34Z</time>
      </trkpt>
      <trkpt lat="48.59909" lon="-0.34884">
        <ele>227.8</ele>
        <time>2012-02-04T12:06:36Z</time>
      </trkpt>
      <trkpt lat="48.59902" lon="-0.34891">
        <ele>227.6</ele>
        <time>2012-02-04T12:06:38Z</time>
      </trkpt>
      <trkpt lat="48.59895" lon="-0.34898">
        <ele>227.5</ele>
        <time>2012-02-04T12:06:40Z</time>
      </trkpt>
      <trkpt lat="48.59887" lon="-0.34905">
        <ele>227.4</ele>
        <time>2012-02-04T12:06:42Z</time>
      </trkpt>
      <trkpt lat="48.59883" lon="-0.34908">
        <ele>227.4</ele>
        <time>2012-02-04T12:06:43Z</time>
      </trkpt>
      <trkpt lat="48.59879" lon="-0.34912">
        <ele>227.4</ele>
        <time>2012-02-04T12:06:44Z</time>
      </trkpt>
      <trkpt lat="48.59875" lon="-0.34915">
        <ele>227.3</ele>
        <time>2012-02-04T12:06:45Z</time>
      </trkpt>
      <trkpt lat="48.5987" lon="-0.34919">
        <ele>227.3</ele>
        <time>2012-02-04T12:06:46Z</time>
      </trkpt>
      <trkpt lat="48.59865" lon="-0.34923">
        <ele>227.3</ele>
        <time>2012-02-04T12:06:47Z</time>
      </trkpt>
      <trkpt lat="48.59861" lon="-0.34927">
        <ele>227.2</ele>
        <time>2012-02-04T12:06:48Z</time>
      </trkpt>
      <trkpt lat="48.59856" lon="-0.34931">
        <ele>227.2</ele>
        <time>2012-02-04T12:06:49Z</time>
      </trkpt>
      <trkpt lat="48.59851" lon="-0.34936">
        <ele>227.1</ele>
        <time>2012-02-04T12:06:50Z</time>
      </trkpt>
      <trkpt lat="48.59846" lon="-0.3494">
        <ele>227</ele>
        <time>2012-02-04T12:06:51Z</time>
      </trkpt>
      <trkpt lat="48.59841" lon="-0.34945">
        <ele>226.9</ele>
        <time>2012-02-04T12:06:52Z</time>
      </trkpt>
      <trkpt lat="48.59836" lon="-0.34949">
        <ele>226.8</ele>
        <time>2012-02-04T12:06:53Z</time>
      </trkpt>
      <trkpt lat="48.59831" lon="-0.34954">
        <ele>226.7</ele>
        <time>2012-02-04T12:06:54Z</time>
      </trkpt>
      <trkpt lat="48.59826" lon="-0.34959">
        <ele>226.5</ele>
        <time>2012-02-04T12:06:55Z</time>
      </trkpt>
      <trkpt lat="48.5982" lon="-0.34963">
        <ele>226.4</ele>
        <time>2012-02-04T12:06:56Z</time>
      </trkpt>
      <trkpt lat="48.59815" lon="-0.34968">
        <ele>226.3</ele>
        <time>2012-02-04T12:06:57Z</time>
      </trkpt>
      <trkpt lat="48.59809" lon="-0.34974">
        <ele>226.1</ele>
        <time>2012-02-04T12:06:58Z</time>
      </trkpt>
      <trkpt lat="48.59804" lon="-0.34979">
        <ele>226</ele>
        <time>2012-02-04T12:06:59Z</time>
      </trkpt>
      <trkpt lat="48.59798" lon="-0.34985">
        <ele>225.9</ele>
        <time>2012-02-04T12:07:00Z</time>
      </trkpt>
      <trkpt lat="48.59793" lon="-0.34991">
        <ele>225.8</ele>
        <time>2012-02-04T12:07:01Z</time>
      </trkpt>
      <trkpt lat="48.59787" lon="-0.34998">
        <ele>225.7</ele>
        <time>2012-02-04T12:07:02Z</time>
      </trkpt>
      <trkpt lat="48.59782" lon="-0.35004">
        <ele>225.5</ele>
        <time>2012-02-04T12:07:03Z</time>
      </trkpt>
      <trkpt lat="48.59777" lon="-0.35011">
        <ele>225.3</ele>
        <time>2012-02-04T12:07:04Z</time>
      </trkpt>
      <trkpt lat="48.59772" lon="-0.35018">
        <ele>225.2</ele>
        <time>2012-02-04T12:07:05Z</time>
      </trkpt>
      <trkpt lat="48.59767" lon="-0.35025">
        <ele>225</ele>
        <time>2012-02-04T12:07:06Z</time>
      </trkpt>
      <trkpt lat="48.59762" lon="-0.35032">
        <ele>224.8</ele>
        <time>2012-02-04T12:07:07Z</time>
      </trkpt>
      <trkpt lat="48.59757" lon="-0.3504">
        <ele>224.6</ele>
        <time>2012-02-04T12:07:08Z</time>
      </trkpt>
      <trkpt lat="48.59753" lon="-0.35048">
        <ele>224.4</ele>
        <time>2012-02-04T12:07:09Z</time>
      </trkpt>
      <trkpt lat="48.59748" lon="-0.35057">
        <ele>224.1</ele>
        <time>2012-02-04T12:07:10Z</time>
      </trkpt>
      <trkpt lat="48.59744" lon="-0.35065">
        <ele>223.8</ele>
        <time>2012-02-04T12:07:11Z</time>
      </trkpt>
      <trkpt lat="48.59739" lon="-0.35073">
        <ele>223.5</ele>
        <time>2012-02-04T12:07:12Z</time>
      </trkpt>
      <trkpt lat="48.59735" lon="-0.35081">
        <ele>223.2</ele>
        <time>2012-02-04T12:07:13Z</time>
      </trkpt>
      <trkpt lat="48.59731" lon="-0.3509">
        <ele>222.9</ele>
        <time>2012-02-04T12:07:14Z</time>
      </trkpt>
      <trkpt lat="48.59728" lon="-0.351">
        <ele>222.7</ele>
        <time>2012-02-04T12:07:15Z</time>
      </trkpt>
      <trkpt lat="48.59724" lon="-0.35109">
        <ele>222.4</ele>
        <time>2012-02-04T12:07:16Z</time>
      </trkpt>
      <trkpt lat="48.5972" lon="-0.35117">
        <ele>222.2</ele>
        <time>2012-02-04T12:07:17Z</time>
      </trkpt>
      <trkpt lat="48.59716" lon="-0.35126">
        <ele>222</ele>
        <time>2012-02-04T12:07:18Z</time>
      </trkpt>
      <trkpt lat="48.59711" lon="-0.35133">
        <ele>221.9</ele>
        <time>2012-02-04T12:07:19Z</time>
      </trkpt>
      <trkpt lat="48.59707" lon="-0.35141">
        <ele>221.7</ele>
        <time>2012-02-04T12:07:20Z</time>
      </trkpt>
      <trkpt lat="48.59702" lon="-0.35148">
        <ele>221.6</ele>
        <time>2012-02-04T12:07:21Z</time>
      </trkpt>
      <trkpt lat="48.59697" lon="-0.35155">
        <ele>221.4</ele>
        <time>2012-02-04T12:07:22Z</time>
      </trkpt>
      <trkpt lat="48.59692" lon="-0.35163">
        <ele>221.3</ele>
        <time>2012-02-04T12:07:23Z</time>
      </trkpt>
      <trkpt lat="48.59688" lon="-0.35169">
        <ele>221.3</ele>
        <time>2012-02-04T12:07:24Z</time>
      </trkpt>
      <trkpt lat="48.59683" lon="-0.35175">
        <ele>221.3</ele>
        <time>2012-02-04T12:07:25Z</time>
      </trkpt>
      <trkpt lat="48.59679" lon="-0.35181">
        <ele>221.3</ele>
        <time>2012-02-04T12:07:26Z</time>
      </trkpt>
      <trkpt lat="48.59675" lon="-0.35187">
        <ele>221.3</ele>
        <time>2012-02-04T12:07:27Z</time>
      </trkpt>
      <trkpt lat="48.59671" lon="-0.35192">
        <ele>221.3</ele>
        <time>2012-02-04T12:07:28Z</time>
      </trkpt>
      <trkpt lat="48.59667" lon="-0.35198">
        <ele>221.3</ele>
        <time>2012-02-04T12:07:29Z</time>
      </trkpt>
      <trkpt lat="48.59663" lon="-0.35203">
        <ele>221.3</ele>
        <time>2012-02-04T12:07:30Z</time>
      </trkpt>
      <trkpt lat="48.59659" lon="-0.35208">
        <ele>221.3</ele>
        <time>2012-02-04T12:07:31Z</time>
      </trkpt>
      <trkpt lat="48.59655" lon="-0.35213">
        <ele>221.4</ele>
        <time>2012-02-04T12:07:32Z</time>
      </trkpt>
      <trkpt lat="48.59651" lon="-0.35218">
        <ele>221.5</ele>
        <time>2012-02-04T12:07:33Z</time>
      </trkpt>
      <trkpt lat="48.59647" lon="-0.35223">
        <ele>221.6</ele>
        <time>2012-02-04T12:07:34Z</time>
      </trkpt>
      <trkpt lat="48.59644" lon="-0.35229">
        <ele>221.8</ele>
        <time>2012-02-04T12:07:35Z</time>
      </trkpt>
      <trkpt lat="48.59637" lon="-0.35238">
        <ele>222.2</ele>
        <time>2012-02-04T12:07:37Z</time>
      </trkpt>
      <trkpt lat="48.5963" lon="-0.35246">
        <ele>222.7</ele>
        <time>2012-02-04T12:07:39Z</time>
      </trkpt>
      <trkpt lat="48.59624" lon="-0.35255">
        <ele>223.3</ele>
        <time>2012-02-04T12:07:41Z</time>
      </trkpt>
      <trkpt lat="48.59617" lon="-0.35262">
        <ele>224.1</ele>
        <time>2012-02-04T12:07:43Z</time>
      </trkpt>
      <trkpt lat="48.59611" lon="-0.3527">
        <ele>225</ele>
        <time>2012-02-04T12:07:45Z</time>
      </trkpt>
      <trkpt lat="48.59605" lon="-0.35277">
        <ele>225.8</ele>
        <time>2012-02-04T12:07:47Z</time>
      </trkpt>
      <trkpt lat="48.596" lon="-0.35285">
        <ele>226.5</ele>
        <time>2012-02-04T12:07:49Z</time>
      </trkpt>
      <trkpt lat="48.59593" lon="-0.35293">
        <ele>227.1</ele>
        <time>2012-02-04T12:07:51Z</time>
      </trkpt>
      <trkpt lat="48.59587" lon="-0.35301">
        <ele>227.6</ele>
        <time>2012-02-04T12:07:53Z</time>
      </trkpt>
      <trkpt lat="48.5958" lon="-0.35309">
        <ele>227.9</ele>
        <time>2012-02-04T12:07:55Z</time>
      </trkpt>
      <trkpt lat="48.59576" lon="-0.35313">
        <ele>228.1</ele>
        <time>2012-02-04T12:07:56Z</time>
      </trkpt>
      <trkpt lat="48.59572" lon="-0.35317">
        <ele>228.2</ele>
        <time>2012-02-04T12:07:57Z</time>
      </trkpt>
      <trkpt lat="48.59568" lon="-0.35321">
        <ele>228.3</ele>
        <time>2012-02-04T12:07:58Z</time>
      </trkpt>
      <trkpt lat="48.59564" lon="-0.35325">
        <ele>228.4</ele>
        <time>2012-02-04T12:07:59Z</time>
      </trkpt>
      <trkpt lat="48.5956" lon="-0.35328">
        <ele>228.4</ele>
        <time>2012-02-04T12:08:00Z</time>
      </trkpt>
      <trkpt lat="48.59556" lon="-0.35332">
        <ele>228.5</ele>
        <time>2012-02-04T12:08:01Z</time>
      </trkpt>
      <trkpt lat="48.59552" lon="-0.35335">
        <ele>228.5</ele>
        <time>2012-02-04T12:08:02Z</time>
      </trkpt>
      <trkpt lat="48.59547" lon="-0.35339">
        <ele>228.5</ele>
        <time>2012-02-04T12:08:03Z</time>
      </trkpt>
      <trkpt lat="48.59543" lon="-0.35342">
        <ele>228.5</ele>
        <time>2012-02-04T12:08:04Z</time>
      </trkpt>
      <trkpt lat="48.59538" lon="-0.35344">
        <ele>228.5</ele>
        <time>2012-02-04T12:08:05Z</time>
      </trkpt>
      <trkpt lat="48.59533" lon="-0.35347">
        <ele>228.5</ele>
        <time>2012-02-04T12:08:06Z</time>
      </trkpt>
      <trkpt lat="48.59528" lon="-0.35349">
        <ele>228.4</ele>
        <time>2012-02-04T12:08:07Z</time>
      </trkpt>
      <trkpt lat="48.59523" lon="-0.35351">
        <ele>228.4</ele>
        <time>2012-02-04T12:08:08Z</time>
      </trkpt>
      <trkpt lat="48.59518" lon="-0.35353">
        <ele>228.3</ele>
        <time>2012-02-04T12:08:09Z</time>
      </trkpt>
      <trkpt lat="48.59512" lon="-0.35355">
        <ele>228.2</ele>
        <time>2012-02-04T12:08:10Z</time>
      </trkpt>
      <trkpt lat="48.59507" lon="-0.35357">
        <ele>228</ele>
        <time>2012-02-04T12:08:11Z</time>
      </trkpt>
      <trkpt lat="48.59502" lon="-0.35359">
        <ele>227.9</ele>
        <time>2012-02-04T12:08:12Z</time>
      </trkpt>
      <trkpt lat="48.59497" lon="-0.35362">
        <ele>227.7</ele>
        <time>2012-02-04T12:08:13Z</time>
      </trkpt>
      <trkpt lat="48.59492" lon="-0.35364">
        <ele>227.6</ele>
        <time>2012-02-04T12:08:14Z</time>
      </trkpt>
      <trkpt lat="48.59487" lon="-0.35367">
        <ele>227.5</ele>
        <time>2012-02-04T12:08:15Z</time>
      </trkpt>
      <trkpt lat="48.59482" lon="-0.3537">
        <ele>227.3</ele>
        <time>2012-02-04T12:08:16Z</time>
      </trkpt>
      <trkpt lat="48.59477" lon="-0.35373">
        <ele>227.2</ele>
        <time>2012-02-04T12:08:17Z</time>
      </trkpt>
      <trkpt lat="48.59472" lon="-0.35376">
        <ele>227.2</ele>
        <time>2012-02-04T12:08:18Z</time>
      </trkpt>
      <trkpt lat="48.59468" lon="-0.3538">
        <ele>227.2</ele>
        <time>2012-02-04T12:08:19Z</time>
      </trkpt>
      <trkpt lat="48.59464" lon="-0.35385">
        <ele>227.2</ele>
        <time>2012-02-04T12:08:20Z</time>
      </trkpt>
      <trkpt lat="48.5946" lon="-0.3539">
        <ele>227.3</ele>
        <time>2012-02-04T12:08:21Z</time>
      </trkpt>
      <trkpt lat="48.59457" lon="-0.35396">
        <ele>227.4</ele>
        <time>2012-02-04T12:08:22Z</time>
      </trkpt>
      <trkpt lat="48.59453" lon="-0.35403">
        <ele>227.5</ele>
        <time>2012-02-04T12:08:23Z</time>
      </trkpt>
      <trkpt lat="48.5945" lon="-0.35409">
        <ele>227.6</ele>
        <time>2012-02-04T12:08:24Z</time>
      </trkpt>
      <trkpt lat="48.59447" lon="-0.35415">
        <ele>227.7</ele>
        <time>2012-02-04T12:08:25Z</time>
      </trkpt>
      <trkpt lat="48.59444" lon="-0.3542">
        <ele>227.9</ele>
        <time>2012-02-04T12:08:26Z</time>
      </trkpt>
      <trkpt lat="48.5944" lon="-0.35426">
        <ele>228</ele>
        <time>2012-02-04T12:08:27Z</time>
      </trkpt>
      <trkpt lat="48.59437" lon="-0.35431">
        <ele>228.1</ele>
        <time>2012-02-04T12:08:28Z</time>
      </trkpt>
      <trkpt lat="48.59434" lon="-0.35436">
        <ele>228.3</ele>
        <time>2012-02-04T12:08:29Z</time>
      </trkpt>
      <trkpt lat="48.5943" lon="-0.35441">
        <ele>228.4</ele>
        <time>2012-02-04T12:08:30Z</time>
      </trkpt>
      <trkpt lat="48.59427" lon="-0.35446">
        <ele>228.5</ele>
        <time>2012-02-04T12:08:31Z</time>
      </trkpt>
      <trkpt lat="48.59424" lon="-0.35452">
        <ele>228.6</ele>
        <time>2012-02-04T12:08:32Z</time>
      </trkpt>
      <trkpt lat="48.59421" lon="-0.35457">
        <ele>228.8</ele>
        <time>2012-02-04T12:08:33Z</time>
      </trkpt>
      <trkpt lat="48.59414" lon="-0.35467">
        <ele>229.1</ele>
        <time>2012-02-04T12:08:35Z</time>
      </trkpt>
      <trkpt lat="48.59408" lon="-0.35476">
        <ele>229.5</ele>
        <time>2012-02-04T12:08:37Z</time>
      </trkpt>
      <trkpt lat="48.59402" lon="-0.35485">
        <ele>230</ele>
        <time>2012-02-04T12:08:39Z</time>
      </trkpt>
      <trkpt lat="48.59396" lon="-0.35495">
        <ele>230.4</ele>
        <time>2012-02-04T12:08:41Z</time>
      </trkpt>
      <trkpt lat="48.5939" lon="-0.35503">
        <ele>230.8</ele>
        <time>2012-02-04T12:08:43Z</time>
      </trkpt>
      <trkpt lat="48.59383" lon="-0.35512">
        <ele>231.1</ele>
        <time>2012-02-04T12:08:45Z</time>
      </trkpt>
      <trkpt lat="48.59377" lon="-0.3552">
        <ele>231.4</ele>
        <time>2012-02-04T12:08:47Z</time>
      </trkpt>
      <trkpt lat="48.59369" lon="-0.35526">
        <ele>231.7</ele>
        <time>2012-02-04T12:08:49Z</time>
      </trkpt>
      <trkpt lat="48.59365" lon="-0.35528">
        <ele>231.8</ele>
        <time>2012-02-04T12:08:50Z</time>
      </trkpt>
      <trkpt lat="48.5936" lon="-0.3553">
        <ele>231.8</ele>
        <time>2012-02-04T12:08:51Z</time>
      </trkpt>
      <trkpt lat="48.59355" lon="-0.35532">
        <ele>231.8</ele>
        <time>2012-02-04T12:08:52Z</time>
      </trkpt>
      <trkpt lat="48.5935" lon="-0.35535">
        <ele>231.7</ele>
        <time>2012-02-04T12:08:53Z</time>
      </trkpt>
      <trkpt lat="48.59345" lon="-0.35537">
        <ele>231.6</ele>
        <time>2012-02-04T12:08:54Z</time>
      </trkpt>
      <trkpt lat="48.5934" lon="-0.35539">
        <ele>231.4</ele>
        <time>2012-02-04T12:08:55Z</time>
      </trkpt>
      <trkpt lat="48.59334" lon="-0.35541">
        <ele>231.3</ele>
        <time>2012-02-04T12:08:56Z</time>
      </trkpt>
      <trkpt lat="48.59329" lon="-0.35544">
        <ele>231.1</ele>
        <time>2012-02-04T12:08:57Z</time>
      </trkpt>
      <trkpt lat="48.59323" lon="-0.35547">
        <ele>230.8</ele>
        <time>2012-02-04T12:08:58Z</time>
      </trkpt>
      <trkpt lat="48.59317" lon="-0.3555">
        <ele>230.6</ele>
        <time>2012-02-04T12:08:59Z</time>
      </trkpt>
      <trkpt lat="48.59312" lon="-0.35553">
        <ele>230.3</ele>
        <time>2012-02-04T12:09:00Z</time>
      </trkpt>
      <trkpt lat="48.59306" lon="-0.35557">
        <ele>230.1</ele>
        <time>2012-02-04T12:09:01Z</time>
      </trkpt>
      <trkpt lat="48.593" lon="-0.3556">
        <ele>229.8</ele>
        <time>2012-02-04T12:09:02Z</time>
      </trkpt>
      <trkpt lat="48.59293" lon="-0.35564">
        <ele>229.5</ele>
        <time>2012-02-04T12:09:03Z</time>
      </trkpt>
      <trkpt lat="48.59287" lon="-0.35567">
        <ele>229.3</ele>
        <time>2012-02-04T12:09:04Z</time>
      </trkpt>
      <trkpt lat="48.59282" lon="-0.3557">
        <ele>229.1</ele>
        <time>2012-02-04T12:09:05Z</time>
      </trkpt>
      <trkpt lat="48.59276" lon="-0.35573">
        <ele>228.9</ele>
        <time>2012-02-04T12:09:06Z</time>
      </trkpt>
      <trkpt lat="48.59271" lon="-0.35576">
        <ele>228.8</ele>
        <time>2012-02-04T12:09:07Z</time>
      </trkpt>
      <trkpt lat="48.59267" lon="-0.35579">
        <ele>228.6</ele>
        <time>2012-02-04T12:09:08Z</time>
      </trkpt>
      <trkpt lat="48.59262" lon="-0.35582">
        <ele>228.5</ele>
        <time>2012-02-04T12:09:09Z</time>
      </trkpt>
      <trkpt lat="48.59259" lon="-0.35587">
        <ele>228.4</ele>
        <time>2012-02-04T12:09:10Z</time>
      </trkpt>
      <trkpt lat="48.59255" lon="-0.35592">
        <ele>228.3</ele>
        <time>2012-02-04T12:09:11Z</time>
      </trkpt>
      <trkpt lat="48.59252" lon="-0.35598">
        <ele>228.2</ele>
        <time>2012-02-04T12:09:12Z</time>
      </trkpt>
      <trkpt lat="48.59249" lon="-0.35604">
        <ele>228.2</ele>
        <time>2012-02-04T12:09:13Z</time>
      </trkpt>
      <trkpt lat="48.59246" lon="-0.3561">
        <ele>228.2</ele>
        <time>2012-02-04T12:09:14Z</time>
      </trkpt>
      <trkpt lat="48.59243" lon="-0.35616">
        <ele>228.4</ele>
        <time>2012-02-04T12:09:15Z</time>
      </trkpt>
      <trkpt lat="48.5924" lon="-0.35622">
        <ele>228.5</ele>
        <time>2012-02-04T12:09:16Z</time>
      </trkpt>
      <trkpt lat="48.59237" lon="-0.35628">
        <ele>228.8</ele>
        <time>2012-02-04T12:09:17Z</time>
      </trkpt>
      <trkpt lat="48.59235" lon="-0.35635">
        <ele>229.2</ele>
        <time>2012-02-04T12:09:18Z</time>
      </trkpt>
      <trkpt lat="48.59231" lon="-0.35647">
        <ele>229.7</ele>
        <time>2012-02-04T12:09:20Z</time>
      </trkpt>
      <trkpt lat="48.59229" lon="-0.35658">
        <ele>230.3</ele>
        <time>2012-02-04T12:09:22Z</time>
      </trkpt>
      <trkpt lat="48.59223" lon="-0.35665">
        <ele>230.8</ele>
        <time>2012-02-04T12:09:24Z</time>
      </trkpt>
      <trkpt lat="48.59216" lon="-0.35668">
        <ele>231.3</ele>
        <time>2012-02-04T12:09:26Z</time>
      </trkpt>
      <trkpt lat="48.59209" lon="-0.35674">
        <ele>231.9</ele>
        <time>2012-02-04T12:09:28Z</time>
      </trkpt>
      <trkpt lat="48.59201" lon="-0.3568">
        <ele>232.4</ele>
        <time>2012-02-04T12:09:30Z</time>
      </trkpt>
      <trkpt lat="48.59198" lon="-0.35683">
        <ele>232.6</ele>
        <time>2012-02-04T12:09:31Z</time>
      </trkpt>
      <trkpt lat="48.59189" lon="-0.35688">
        <ele>233.1</ele>
        <time>2012-02-04T12:09:33Z</time>
      </trkpt>
      <trkpt lat="48.59181" lon="-0.35694">
        <ele>233.8</ele>
        <time>2012-02-04T12:09:35Z</time>
      </trkpt>
      <trkpt lat="48.59173" lon="-0.35699">
        <ele>234.5</ele>
        <time>2012-02-04T12:09:37Z</time>
      </trkpt>
      <trkpt lat="48.59166" lon="-0.35705">
        <ele>235.2</ele>
        <time>2012-02-04T12:09:39Z</time>
      </trkpt>
      <trkpt lat="48.59159" lon="-0.35711">
        <ele>235.8</ele>
        <time>2012-02-04T12:09:41Z</time>
      </trkpt>
      <trkpt lat="48.59152" lon="-0.35716">
        <ele>236.2</ele>
        <time>2012-02-04T12:09:43Z</time>
      </trkpt>
      <trkpt lat="48.59144" lon="-0.35719">
        <ele>236.2</ele>
        <time>2012-02-04T12:09:45Z</time>
      </trkpt>
      <trkpt lat="48.59135" lon="-0.35723">
        <ele>236</ele>
        <time>2012-02-04T12:09:47Z</time>
      </trkpt>
      <trkpt lat="48.59127" lon="-0.35727">
        <ele>235.7</ele>
        <time>2012-02-04T12:09:49Z</time>
      </trkpt>
      <trkpt lat="48.59123" lon="-0.35729">
        <ele>235.6</ele>
        <time>2012-02-04T12:09:50Z</time>
      </trkpt>
      <trkpt lat="48.59118" lon="-0.3573">
        <ele>235.4</ele>
        <time>2012-02-04T12:09:51Z</time>
      </trkpt>
      <trkpt lat="48.59114" lon="-0.3573">
        <ele>235.1</ele>
        <time>2012-02-04T12:09:52Z</time>
      </trkpt>
      <trkpt lat="48.59105" lon="-0.35734">
        <ele>234.6</ele>
        <time>2012-02-04T12:09:54Z</time>
      </trkpt>
      <trkpt lat="48.59097" lon="-0.35738">
        <ele>234.5</ele>
        <time>2012-02-04T12:09:56Z</time>
      </trkpt>
      <trkpt lat="48.59093" lon="-0.3574">
        <ele>234.4</ele>
        <time>2012-02-04T12:09:57Z</time>
      </trkpt>
      <trkpt lat="48.59088" lon="-0.35741">
        <ele>234.5</ele>
        <time>2012-02-04T12:09:58Z</time>
      </trkpt>
      <trkpt lat="48.59083" lon="-0.35743">
        <ele>234.7</ele>
        <time>2012-02-04T12:09:59Z</time>
      </trkpt>
      <trkpt lat="48.59079" lon="-0.35745">
        <ele>234.9</ele>
        <time>2012-02-04T12:10:00Z</time>
      </trkpt>
      <trkpt lat="48.59075" lon="-0.35748">
        <ele>235.1</ele>
        <time>2012-02-04T12:10:01Z</time>
      </trkpt>
      <trkpt lat="48.59066" lon="-0.35752">
        <ele>235.2</ele>
        <time>2012-02-04T12:10:03Z</time>
      </trkpt>
      <trkpt lat="48.59058" lon="-0.35755">
        <ele>235.2</ele>
        <time>2012-02-04T12:10:05Z</time>
      </trkpt>
      <trkpt lat="48.5905" lon="-0.35759">
        <ele>235</ele>
        <time>2012-02-04T12:10:07Z</time>
      </trkpt>
      <trkpt lat="48.59042" lon="-0.35765">
        <ele>234.8</ele>
        <time>2012-02-04T12:10:09Z</time>
      </trkpt>
      <trkpt lat="48.59033" lon="-0.35768">
        <ele>235</ele>
        <time>2012-02-04T12:10:11Z</time>
      </trkpt>
      <trkpt lat="48.59029" lon="-0.35769">
        <ele>235.1</ele>
        <time>2012-02-04T12:10:12Z</time>
      </trkpt>
      <trkpt lat="48.59024" lon="-0.35771">
        <ele>235.1</ele>
        <time>2012-02-04T12:10:13Z</time>
      </trkpt>
      <trkpt lat="48.59016" lon="-0.35774">
        <ele>235.2</ele>
        <time>2012-02-04T12:10:15Z</time>
      </trkpt>
      <trkpt lat="48.59008" lon="-0.35779">
        <ele>235.3</ele>
        <time>2012-02-04T12:10:17Z</time>
      </trkpt>
      <trkpt lat="48.59" lon="-0.35783">
        <ele>235.5</ele>
        <time>2012-02-04T12:10:19Z</time>
      </trkpt>
      <trkpt lat="48.58993" lon="-0.35788">
        <ele>235.7</ele>
        <time>2012-02-04T12:10:21Z</time>
      </trkpt>
      <trkpt lat="48.58988" lon="-0.35796">
        <ele>235.8</ele>
        <time>2012-02-04T12:10:23Z</time>
      </trkpt>
      <trkpt lat="48.58984" lon="-0.35804">
        <ele>236.1</ele>
        <time>2012-02-04T12:10:25Z</time>
      </trkpt>
      <trkpt lat="48.58978" lon="-0.3581">
        <ele>236.3</ele>
        <time>2012-02-04T12:10:27Z</time>
      </trkpt>
      <trkpt lat="48.58967" lon="-0.35819">
        <ele>237</ele>
        <time>2012-02-04T12:10:30Z</time>
      </trkpt>
      <trkpt lat="48.58962" lon="-0.35819">
        <ele>238.8</ele>
        <time>2012-02-04T12:10:32Z</time>
      </trkpt>
      <trkpt lat="48.58955" lon="-0.35833">
        <ele>241.7</ele>
        <time>2012-02-04T12:10:37Z</time>
      </trkpt>
      <trkpt lat="48.58954" lon="-0.35844">
        <ele>242.4</ele>
        <time>2012-02-04T12:10:39Z</time>
      </trkpt>
      <trkpt lat="48.58954" lon="-0.35854">
        <ele>242.4</ele>
        <time>2012-02-04T12:10:41Z</time>
      </trkpt>
      <trkpt lat="48.58955" lon="-0.35865">
        <ele>241.9</ele>
        <time>2012-02-04T12:10:43Z</time>
      </trkpt>
      <trkpt lat="48.58957" lon="-0.35876">
        <ele>241.4</ele>
        <time>2012-02-04T12:10:45Z</time>
      </trkpt>
      <trkpt lat="48.5896" lon="-0.35886">
        <ele>239.8</ele>
        <time>2012-02-04T12:10:47Z</time>
      </trkpt>
      <trkpt lat="48.58962" lon="-0.35898">
        <ele>233.3</ele>
        <time>2012-02-04T12:10:55Z</time>
      </trkpt>
      <trkpt lat="48.58957" lon="-0.35903">
        <ele>232.5</ele>
        <time>2012-02-04T12:10:57Z</time>
      </trkpt>
      <trkpt lat="48.58949" lon="-0.35906">
        <ele>231.9</ele>
        <time>2012-02-04T12:10:59Z</time>
      </trkpt>
      <trkpt lat="48.58944" lon="-0.35907">
        <ele>231.7</ele>
        <time>2012-02-04T12:11:00Z</time>
      </trkpt>
      <trkpt lat="48.58939" lon="-0.35907">
        <ele>231.5</ele>
        <time>2012-02-04T12:11:01Z</time>
      </trkpt>
      <trkpt lat="48.58934" lon="-0.35906">
        <ele>231.4</ele>
        <time>2012-02-04T12:11:02Z</time>
      </trkpt>
      <trkpt lat="48.58928" lon="-0.35906">
        <ele>231.3</ele>
        <time>2012-02-04T12:11:03Z</time>
      </trkpt>
      <trkpt lat="48.58921" lon="-0.35904">
        <ele>231.2</ele>
        <time>2012-02-04T12:11:05Z</time>
      </trkpt>
      <trkpt lat="48.58912" lon="-0.35905">
        <ele>230.7</ele>
        <time>2012-02-04T12:11:08Z</time>
      </trkpt>
      <trkpt lat="48.58908" lon="-0.35912">
        <ele>230.2</ele>
        <time>2012-02-04T12:11:10Z</time>
      </trkpt>
      <trkpt lat="48.58904" lon="-0.35922">
        <ele>229.7</ele>
        <time>2012-02-04T12:11:12Z</time>
      </trkpt>
      <trkpt lat="48.589" lon="-0.35934">
        <ele>229.2</ele>
        <time>2012-02-04T12:11:14Z</time>
      </trkpt>
      <trkpt lat="48.58898" lon="-0.3594">
        <ele>228.9</ele>
        <time>2012-02-04T12:11:15Z</time>
      </trkpt>
      <trkpt lat="48.58896" lon="-0.35947">
        <ele>228.7</ele>
        <time>2012-02-04T12:11:16Z</time>
      </trkpt>
      <trkpt lat="48.58893" lon="-0.35954">
        <ele>228.5</ele>
        <time>2012-02-04T12:11:17Z</time>
      </trkpt>
      <trkpt lat="48.58891" lon="-0.35961">
        <ele>228.2</ele>
        <time>2012-02-04T12:11:18Z</time>
      </trkpt>
      <trkpt lat="48.58888" lon="-0.35968">
        <ele>227.8</ele>
        <time>2012-02-04T12:11:19Z</time>
      </trkpt>
      <trkpt lat="48.58886" lon="-0.35976">
        <ele>227.5</ele>
        <time>2012-02-04T12:11:20Z</time>
      </trkpt>
      <trkpt lat="48.58883" lon="-0.35984">
        <ele>227.1</ele>
        <time>2012-02-04T12:11:21Z</time>
      </trkpt>
      <trkpt lat="48.5888" lon="-0.35991">
        <ele>226.6</ele>
        <time>2012-02-04T12:11:22Z</time>
      </trkpt>
      <trkpt lat="48.58877" lon="-0.35999">
        <ele>226.2</ele>
        <time>2012-02-04T12:11:23Z</time>
      </trkpt>
      <trkpt lat="48.58874" lon="-0.36007">
        <ele>225.8</ele>
        <time>2012-02-04T12:11:24Z</time>
      </trkpt>
      <trkpt lat="48.58871" lon="-0.36016">
        <ele>225.4</ele>
        <time>2012-02-04T12:11:25Z</time>
      </trkpt>
      <trkpt lat="48.58867" lon="-0.36024">
        <ele>224.9</ele>
        <time>2012-02-04T12:11:26Z</time>
      </trkpt>
      <trkpt lat="48.58864" lon="-0.36033">
        <ele>224.5</ele>
        <time>2012-02-04T12:11:27Z</time>
      </trkpt>
      <trkpt lat="48.58861" lon="-0.36042">
        <ele>224</ele>
        <time>2012-02-04T12:11:28Z</time>
      </trkpt>
      <trkpt lat="48.58857" lon="-0.36051">
        <ele>223.4</ele>
        <time>2012-02-04T12:11:29Z</time>
      </trkpt>
      <trkpt lat="48.58854" lon="-0.36061">
        <ele>222.9</ele>
        <time>2012-02-04T12:11:30Z</time>
      </trkpt>
      <trkpt lat="48.5885" lon="-0.3607">
        <ele>222.2</ele>
        <time>2012-02-04T12:11:31Z</time>
      </trkpt>
      <trkpt lat="48.58847" lon="-0.3608">
        <ele>221.6</ele>
        <time>2012-02-04T12:11:32Z</time>
      </trkpt>
      <trkpt lat="48.58843" lon="-0.36089">
        <ele>221</ele>
        <time>2012-02-04T12:11:33Z</time>
      </trkpt>
      <trkpt lat="48.58839" lon="-0.36099">
        <ele>220.3</ele>
        <time>2012-02-04T12:11:34Z</time>
      </trkpt>
      <trkpt lat="48.58836" lon="-0.36108">
        <ele>219.7</ele>
        <time>2012-02-04T12:11:35Z</time>
      </trkpt>
      <trkpt lat="48.58832" lon="-0.36118">
        <ele>219</ele>
        <time>2012-02-04T12:11:36Z</time>
      </trkpt>
      <trkpt lat="48.58829" lon="-0.36128">
        <ele>218.3</ele>
        <time>2012-02-04T12:11:37Z</time>
      </trkpt>
      <trkpt lat="48.58825" lon="-0.36137">
        <ele>217.6</ele>
        <time>2012-02-04T12:11:38Z</time>
      </trkpt>
      <trkpt lat="48.58821" lon="-0.36147">
        <ele>216.9</ele>
        <time>2012-02-04T12:11:39Z</time>
      </trkpt>
      <trkpt lat="48.58817" lon="-0.36156">
        <ele>216.3</ele>
        <time>2012-02-04T12:11:40Z</time>
      </trkpt>
      <trkpt lat="48.58813" lon="-0.36165">
        <ele>215.6</ele>
        <time>2012-02-04T12:11:41Z</time>
      </trkpt>
      <trkpt lat="48.58808" lon="-0.36174">
        <ele>214.9</ele>
        <time>2012-02-04T12:11:42Z</time>
      </trkpt>
      <trkpt lat="48.58804" lon="-0.36183">
        <ele>214.3</ele>
        <time>2012-02-04T12:11:43Z</time>
      </trkpt>
      <trkpt lat="48.58799" lon="-0.36192">
        <ele>213.6</ele>
        <time>2012-02-04T12:11:44Z</time>
      </trkpt>
      <trkpt lat="48.58794" lon="-0.36201">
        <ele>212.9</ele>
        <time>2012-02-04T12:11:45Z</time>
      </trkpt>
      <trkpt lat="48.5879" lon="-0.3621">
        <ele>212.2</ele>
        <time>2012-02-04T12:11:46Z</time>
      </trkpt>
      <trkpt lat="48.58785" lon="-0.36219">
        <ele>211.5</ele>
        <time>2012-02-04T12:11:47Z</time>
      </trkpt>
      <trkpt lat="48.58781" lon="-0.36228">
        <ele>210.7</ele>
        <time>2012-02-04T12:11:48Z</time>
      </trkpt>
      <trkpt lat="48.58776" lon="-0.36237">
        <ele>210</ele>
        <time>2012-02-04T12:11:49Z</time>
      </trkpt>
      <trkpt lat="48.58772" lon="-0.36246">
        <ele>209.3</ele>
        <time>2012-02-04T12:11:50Z</time>
      </trkpt>
      <trkpt lat="48.58767" lon="-0.36254">
        <ele>208.6</ele>
        <time>2012-02-04T12:11:51Z</time>
      </trkpt>
      <trkpt lat="48.58762" lon="-0.36263">
        <ele>208</ele>
        <time>2012-02-04T12:11:52Z</time>
      </trkpt>
      <trkpt lat="48.58758" lon="-0.36272">
        <ele>207.5</ele>
        <time>2012-02-04T12:11:53Z</time>
      </trkpt>
      <trkpt lat="48.58753" lon="-0.36281">
        <ele>206.9</ele>
        <time>2012-02-04T12:11:54Z</time>
      </trkpt>
      <trkpt lat="48.58748" lon="-0.3629">
        <ele>206.3</ele>
        <time>2012-02-04T12:11:55Z</time>
      </trkpt>
      <trkpt lat="48.58743" lon="-0.36299">
        <ele>205.7</ele>
        <time>2012-02-04T12:11:56Z</time>
      </trkpt>
      <trkpt lat="48.58738" lon="-0.36309">
        <ele>205.1</ele>
        <time>2012-02-04T12:11:57Z</time>
      </trkpt>
      <trkpt lat="48.58733" lon="-0.36318">
        <ele>204.4</ele>
        <time>2012-02-04T12:11:58Z</time>
      </trkpt>
      <trkpt lat="48.58728" lon="-0.36328">
        <ele>203.7</ele>
        <time>2012-02-04T12:11:59Z</time>
      </trkpt>
      <trkpt lat="48.58723" lon="-0.36337">
        <ele>203</ele>
        <time>2012-02-04T12:12:00Z</time>
      </trkpt>
      <trkpt lat="48.58717" lon="-0.36347">
        <ele>202.3</ele>
        <time>2012-02-04T12:12:01Z</time>
      </trkpt>
      <trkpt lat="48.58712" lon="-0.36356">
        <ele>201.6</ele>
        <time>2012-02-04T12:12:02Z</time>
      </trkpt>
      <trkpt lat="48.58707" lon="-0.36365">
        <ele>201</ele>
        <time>2012-02-04T12:12:03Z</time>
      </trkpt>
      <trkpt lat="48.58703" lon="-0.36374">
        <ele>200.3</ele>
        <time>2012-02-04T12:12:04Z</time>
      </trkpt>
      <trkpt lat="48.58698" lon="-0.36383">
        <ele>199.7</ele>
        <time>2012-02-04T12:12:05Z</time>
      </trkpt>
      <trkpt lat="48.58694" lon="-0.3639">
        <ele>199.1</ele>
        <time>2012-02-04T12:12:06Z</time>
      </trkpt>
      <trkpt lat="48.5869" lon="-0.36397">
        <ele>198.6</ele>
        <time>2012-02-04T12:12:07Z</time>
      </trkpt>
      <trkpt lat="48.58686" lon="-0.36403">
        <ele>198</ele>
        <time>2012-02-04T12:12:08Z</time>
      </trkpt>
      <trkpt lat="48.58683" lon="-0.36408">
        <ele>197.5</ele>
        <time>2012-02-04T12:12:09Z</time>
      </trkpt>
      <trkpt lat="48.58677" lon="-0.36417">
        <ele>196.6</ele>
        <time>2012-02-04T12:12:11Z</time>
      </trkpt>
      <trkpt lat="48.58672" lon="-0.36422">
        <ele>195.9</ele>
        <time>2012-02-04T12:12:13Z</time>
      </trkpt>
      <trkpt lat="48.58667" lon="-0.36428">
        <ele>195.4</ele>
        <time>2012-02-04T12:12:15Z</time>
      </trkpt>
      <trkpt lat="48.58666" lon="-0.36438">
        <ele>195</ele>
        <time>2012-02-04T12:12:17Z</time>
      </trkpt>
      <trkpt lat="48.58668" lon="-0.3645">
        <ele>194.7</ele>
        <time>2012-02-04T12:12:19Z</time>
      </trkpt>
      <trkpt lat="48.58669" lon="-0.36457">
        <ele>194.5</ele>
        <time>2012-02-04T12:12:20Z</time>
      </trkpt>
      <trkpt lat="48.58671" lon="-0.36463">
        <ele>194.4</ele>
        <time>2012-02-04T12:12:21Z</time>
      </trkpt>
      <trkpt lat="48.58674" lon="-0.36469">
        <ele>194.3</ele>
        <time>2012-02-04T12:12:22Z</time>
      </trkpt>
      <trkpt lat="48.58678" lon="-0.36474">
        <ele>194.2</ele>
        <time>2012-02-04T12:12:23Z</time>
      </trkpt>
      <trkpt lat="48.58682" lon="-0.36479">
        <ele>194.4</ele>
        <time>2012-02-04T12:12:24Z</time>
      </trkpt>
      <trkpt lat="48.58687" lon="-0.36483">
        <ele>194.3</ele>
        <time>2012-02-04T12:12:25Z</time>
      </trkpt>
      <trkpt lat="48.58691" lon="-0.36487">
        <ele>194.2</ele>
        <time>2012-02-04T12:12:26Z</time>
      </trkpt>
      <trkpt lat="48.58696" lon="-0.36491">
        <ele>194.3</ele>
        <time>2012-02-04T12:12:27Z</time>
      </trkpt>
      <trkpt lat="48.58701" lon="-0.36495">
        <ele>194.5</ele>
        <time>2012-02-04T12:12:28Z</time>
      </trkpt>
      <trkpt lat="48.58705" lon="-0.36499">
        <ele>194.1</ele>
        <time>2012-02-04T12:12:29Z</time>
      </trkpt>
      <trkpt lat="48.5871" lon="-0.36503">
        <ele>193.9</ele>
        <time>2012-02-04T12:12:30Z</time>
      </trkpt>
      <trkpt lat="48.58715" lon="-0.36506">
        <ele>193.7</ele>
        <time>2012-02-04T12:12:31Z</time>
      </trkpt>
      <trkpt lat="48.5872" lon="-0.3651">
        <ele>193.8</ele>
        <time>2012-02-04T12:12:32Z</time>
      </trkpt>
      <trkpt lat="48.58725" lon="-0.36513">
        <ele>194</ele>
        <time>2012-02-04T12:12:33Z</time>
      </trkpt>
      <trkpt lat="48.5873" lon="-0.36516">
        <ele>194</ele>
        <time>2012-02-04T12:12:34Z</time>
      </trkpt>
      <trkpt lat="48.58735" lon="-0.36519">
        <ele>194</ele>
        <time>2012-02-04T12:12:35Z</time>
      </trkpt>
      <trkpt lat="48.5874" lon="-0.36522">
        <ele>194.1</ele>
        <time>2012-02-04T12:12:36Z</time>
      </trkpt>
      <trkpt lat="48.58745" lon="-0.36524">
        <ele>194</ele>
        <time>2012-02-04T12:12:37Z</time>
      </trkpt>
      <trkpt lat="48.5875" lon="-0.36527">
        <ele>194</ele>
        <time>2012-02-04T12:12:38Z</time>
      </trkpt>
      <trkpt lat="48.58755" lon="-0.3653">
        <ele>194.1</ele>
        <time>2012-02-04T12:12:39Z</time>
      </trkpt>
      <trkpt lat="48.58759" lon="-0.36532">
        <ele>194.1</ele>
        <time>2012-02-04T12:12:40Z</time>
      </trkpt>
      <trkpt lat="48.58764" lon="-0.36534">
        <ele>194.1</ele>
        <time>2012-02-04T12:12:41Z</time>
      </trkpt>
      <trkpt lat="48.58769" lon="-0.36536">
        <ele>194.1</ele>
        <time>2012-02-04T12:12:42Z</time>
      </trkpt>
      <trkpt lat="48.58774" lon="-0.36537">
        <ele>194.1</ele>
        <time>2012-02-04T12:12:43Z</time>
      </trkpt>
      <trkpt lat="48.58779" lon="-0.36539">
        <ele>193.8</ele>
        <time>2012-02-04T12:12:44Z</time>
      </trkpt>
      <trkpt lat="48.58783" lon="-0.3654">
        <ele>193.6</ele>
        <time>2012-02-04T12:12:45Z</time>
      </trkpt>
      <trkpt lat="48.58788" lon="-0.36542">
        <ele>193.6</ele>
        <time>2012-02-04T12:12:46Z</time>
      </trkpt>
      <trkpt lat="48.58793" lon="-0.36543">
        <ele>193.6</ele>
        <time>2012-02-04T12:12:47Z</time>
      </trkpt>
      <trkpt lat="48.58798" lon="-0.36544">
        <ele>193.8</ele>
        <time>2012-02-04T12:12:48Z</time>
      </trkpt>
      <trkpt lat="48.58803" lon="-0.36545">
        <ele>194</ele>
        <time>2012-02-04T12:12:49Z</time>
      </trkpt>
      <trkpt lat="48.58808" lon="-0.36546">
        <ele>194.2</ele>
        <time>2012-02-04T12:12:50Z</time>
      </trkpt>
      <trkpt lat="48.58812" lon="-0.36548">
        <ele>194.4</ele>
        <time>2012-02-04T12:12:51Z</time>
      </trkpt>
      <trkpt lat="48.58817" lon="-0.3655">
        <ele>194.6</ele>
        <time>2012-02-04T12:12:52Z</time>
      </trkpt>
      <trkpt lat="48.58822" lon="-0.36552">
        <ele>194.9</ele>
        <time>2012-02-04T12:12:53Z</time>
      </trkpt>
      <trkpt lat="48.58827" lon="-0.36554">
        <ele>195.2</ele>
        <time>2012-02-04T12:12:54Z</time>
      </trkpt>
      <trkpt lat="48.58831" lon="-0.36555">
        <ele>195.4</ele>
        <time>2012-02-04T12:12:55Z</time>
      </trkpt>
      <trkpt lat="48.58836" lon="-0.36557">
        <ele>195.6</ele>
        <time>2012-02-04T12:12:56Z</time>
      </trkpt>
      <trkpt lat="48.5884" lon="-0.36558">
        <ele>195.7</ele>
        <time>2012-02-04T12:12:57Z</time>
      </trkpt>
      <trkpt lat="48.58845" lon="-0.3656">
        <ele>196.1</ele>
        <time>2012-02-04T12:12:58Z</time>
      </trkpt>
      <trkpt lat="48.58849" lon="-0.36561">
        <ele>196.4</ele>
        <time>2012-02-04T12:12:59Z</time>
      </trkpt>
      <trkpt lat="48.58854" lon="-0.36563">
        <ele>196.6</ele>
        <time>2012-02-04T12:13:00Z</time>
      </trkpt>
      <trkpt lat="48.58862" lon="-0.36565">
        <ele>196.9</ele>
        <time>2012-02-04T12:13:02Z</time>
      </trkpt>
      <trkpt lat="48.58871" lon="-0.36568">
        <ele>196.9</ele>
        <time>2012-02-04T12:13:04Z</time>
      </trkpt>
      <trkpt lat="48.58879" lon="-0.3657">
        <ele>197.4</ele>
        <time>2012-02-04T12:13:06Z</time>
      </trkpt>
      <trkpt lat="48.58887" lon="-0.36572">
        <ele>197.7</ele>
        <time>2012-02-04T12:13:08Z</time>
      </trkpt>
      <trkpt lat="48.58896" lon="-0.36574">
        <ele>198.2</ele>
        <time>2012-02-04T12:13:10Z</time>
      </trkpt>
      <trkpt lat="48.58904" lon="-0.36577">
        <ele>198.4</ele>
        <time>2012-02-04T12:13:12Z</time>
      </trkpt>
      <trkpt lat="48.5891" lon="-0.36583">
        <ele>198.4</ele>
        <time>2012-02-04T12:13:14Z</time>
      </trkpt>
      <trkpt lat="48.58913" lon="-0.36594">
        <ele>198.3</ele>
        <time>2012-02-04T12:13:16Z</time>
      </trkpt>
      <trkpt lat="48.58915" lon="-0.36606">
        <ele>198.2</ele>
        <time>2012-02-04T12:13:18Z</time>
      </trkpt>
      <trkpt lat="48.58918" lon="-0.36619">
        <ele>197.8</ele>
        <time>2012-02-04T12:13:20Z</time>
      </trkpt>
      <trkpt lat="48.58922" lon="-0.36628">
        <ele>197.7</ele>
        <time>2012-02-04T12:13:22Z</time>
      </trkpt>
      <trkpt lat="48.58928" lon="-0.36635">
        <ele>197.7</ele>
        <time>2012-02-04T12:13:24Z</time>
      </trkpt>
      <trkpt lat="48.58934" lon="-0.36642">
        <ele>197.7</ele>
        <time>2012-02-04T12:13:26Z</time>
      </trkpt>
      <trkpt lat="48.58941" lon="-0.3665">
        <ele>197.1</ele>
        <time>2012-02-04T12:13:28Z</time>
      </trkpt>
      <trkpt lat="48.58947" lon="-0.3666">
        <ele>197</ele>
        <time>2012-02-04T12:13:30Z</time>
      </trkpt>
      <trkpt lat="48.58953" lon="-0.36669">
        <ele>197.1</ele>
        <time>2012-02-04T12:13:32Z</time>
      </trkpt>
      <trkpt lat="48.5896" lon="-0.36678">
        <ele>197.2</ele>
        <time>2012-02-04T12:13:34Z</time>
      </trkpt>
      <trkpt lat="48.58963" lon="-0.36682">
        <ele>197.2</ele>
        <time>2012-02-04T12:13:35Z</time>
      </trkpt>
      <trkpt lat="48.58967" lon="-0.36699">
        <ele>197.4</ele>
        <time>2012-02-04T12:13:39Z</time>
      </trkpt>
      <trkpt lat="48.58969" lon="-0.3671">
        <ele>197</ele>
        <time>2012-02-04T12:13:42Z</time>
      </trkpt>
      <trkpt lat="48.58977" lon="-0.36714">
        <ele>196.9</ele>
        <time>2012-02-04T12:13:45Z</time>
      </trkpt>
      <trkpt lat="48.58983" lon="-0.36712">
        <ele>196.7</ele>
        <time>2012-02-04T12:13:47Z</time>
      </trkpt>
      <trkpt lat="48.58989" lon="-0.36711">
        <ele>197.6</ele>
        <time>2012-02-04T12:13:49Z</time>
      </trkpt>
      <trkpt lat="48.58996" lon="-0.36716">
        <ele>198</ele>
        <time>2012-02-04T12:13:51Z</time>
      </trkpt>
      <trkpt lat="48.59003" lon="-0.36723">
        <ele>198.2</ele>
        <time>2012-02-04T12:13:53Z</time>
      </trkpt>
      <trkpt lat="48.59009" lon="-0.36732">
        <ele>198.4</ele>
        <time>2012-02-04T12:13:55Z</time>
      </trkpt>
      <trkpt lat="48.59015" lon="-0.36742">
        <ele>198.6</ele>
        <time>2012-02-04T12:13:57Z</time>
      </trkpt>
      <trkpt lat="48.5902" lon="-0.36753">
        <ele>198</ele>
        <time>2012-02-04T12:13:59Z</time>
      </trkpt>
      <trkpt lat="48.59024" lon="-0.36764">
        <ele>198.4</ele>
        <time>2012-02-04T12:14:01Z</time>
      </trkpt>
      <trkpt lat="48.59028" lon="-0.36776">
        <ele>198.4</ele>
        <time>2012-02-04T12:14:03Z</time>
      </trkpt>
      <trkpt lat="48.59032" lon="-0.36787">
        <ele>198.6</ele>
        <time>2012-02-04T12:14:05Z</time>
      </trkpt>
      <trkpt lat="48.59037" lon="-0.36798">
        <ele>198.7</ele>
        <time>2012-02-04T12:14:07Z</time>
      </trkpt>
      <trkpt lat="48.59039" lon="-0.36804">
        <ele>198.7</ele>
        <time>2012-02-04T12:14:08Z</time>
      </trkpt>
      <trkpt lat="48.59045" lon="-0.36814">
        <ele>198.5</ele>
        <time>2012-02-04T12:14:10Z</time>
      </trkpt>
      <trkpt lat="48.59052" lon="-0.36823">
        <ele>198.6</ele>
        <time>2012-02-04T12:14:12Z</time>
      </trkpt>
      <trkpt lat="48.5906" lon="-0.36828">
        <ele>198.6</ele>
        <time>2012-02-04T12:14:14Z</time>
      </trkpt>
      <trkpt lat="48.59067" lon="-0.36832">
        <ele>198.3</ele>
        <time>2012-02-04T12:14:16Z</time>
      </trkpt>
      <trkpt lat="48.59074" lon="-0.36835">
        <ele>198.2</ele>
        <time>2012-02-04T12:14:18Z</time>
      </trkpt>
      <trkpt lat="48.59082" lon="-0.36838">
        <ele>198.2</ele>
        <time>2012-02-04T12:14:20Z</time>
      </trkpt>
      <trkpt lat="48.59091" lon="-0.3684">
        <ele>198</ele>
        <time>2012-02-04T12:14:22Z</time>
      </trkpt>
      <trkpt lat="48.59095" lon="-0.36841">
        <ele>197.9</ele>
        <time>2012-02-04T12:14:23Z</time>
      </trkpt>
      <trkpt lat="48.59104" lon="-0.36844">
        <ele>197.3</ele>
        <time>2012-02-04T12:14:25Z</time>
      </trkpt>
      <trkpt lat="48.59113" lon="-0.36847">
        <ele>197</ele>
        <time>2012-02-04T12:14:27Z</time>
      </trkpt>
      <trkpt lat="48.59119" lon="-0.3685">
        <ele>197.3</ele>
        <time>2012-02-04T12:14:29Z</time>
      </trkpt>
      <trkpt lat="48.59124" lon="-0.3686">
        <ele>196.9</ele>
        <time>2012-02-04T12:14:33Z</time>
      </trkpt>
      <trkpt lat="48.59128" lon="-0.36869">
        <ele>196.8</ele>
        <time>2012-02-04T12:14:35Z</time>
      </trkpt>
      <trkpt lat="48.59131" lon="-0.36873">
        <ele>196.6</ele>
        <time>2012-02-04T12:14:36Z</time>
      </trkpt>
      <trkpt lat="48.59138" lon="-0.36887">
        <ele>196.5</ele>
        <time>2012-02-04T12:14:39Z</time>
      </trkpt>
      <trkpt lat="48.59142" lon="-0.36897">
        <ele>196</ele>
        <time>2012-02-04T12:14:41Z</time>
      </trkpt>
      <trkpt lat="48.59147" lon="-0.36906">
        <ele>195.6</ele>
        <time>2012-02-04T12:14:43Z</time>
      </trkpt>
      <trkpt lat="48.5915" lon="-0.36915">
        <ele>195.7</ele>
        <time>2012-02-04T12:14:45Z</time>
      </trkpt>
      <trkpt lat="48.59152" lon="-0.36926">
        <ele>196</ele>
        <time>2012-02-04T12:14:47Z</time>
      </trkpt>
      <trkpt lat="48.59153" lon="-0.36938">
        <ele>196</ele>
        <time>2012-02-04T12:14:49Z</time>
      </trkpt>
      <trkpt lat="48.59156" lon="-0.36949">
        <ele>196</ele>
        <time>2012-02-04T12:14:51Z</time>
      </trkpt>
      <trkpt lat="48.59157" lon="-0.36961">
        <ele>196.8</ele>
        <time>2012-02-04T12:14:53Z</time>
      </trkpt>
      <trkpt lat="48.59159" lon="-0.36974">
        <ele>196.7</ele>
        <time>2012-02-04T12:14:55Z</time>
      </trkpt>
      <trkpt lat="48.5916" lon="-0.36986">
        <ele>196.4</ele>
        <time>2012-02-04T12:14:57Z</time>
      </trkpt>
      <trkpt lat="48.59161" lon="-0.36998">
        <ele>196.6</ele>
        <time>2012-02-04T12:14:59Z</time>
      </trkpt>
      <trkpt lat="48.59162" lon="-0.37011">
        <ele>196.9</ele>
        <time>2012-02-04T12:15:02Z</time>
      </trkpt>
      <trkpt lat="48.59157" lon="-0.37022">
        <ele>195.8</ele>
        <time>2012-02-04T12:15:44Z</time>
      </trkpt>
      <trkpt lat="48.59157" lon="-0.37022">
        <ele>195.7</ele>
        <time>2012-02-04T12:15:45Z</time>
      </trkpt>
      <trkpt lat="48.59162" lon="-0.37045">
        <ele>195.6</ele>
        <time>2012-02-04T12:16:15Z</time>
      </trkpt>
      <trkpt lat="48.59165" lon="-0.37055">
        <ele>195.5</ele>
        <time>2012-02-04T12:16:17Z</time>
      </trkpt>
      <trkpt lat="48.59169" lon="-0.37064">
        <ele>195.7</ele>
        <time>2012-02-04T12:16:19Z</time>
      </trkpt>
      <trkpt lat="48.59172" lon="-0.37071">
        <ele>195.9</ele>
        <time>2012-02-04T12:16:21Z</time>
      </trkpt>
      <trkpt lat="48.59176" lon="-0.3708">
        <ele>196.1</ele>
        <time>2012-02-04T12:16:23Z</time>
      </trkpt>
      <trkpt lat="48.5918" lon="-0.37088">
        <ele>196.3</ele>
        <time>2012-02-04T12:16:25Z</time>
      </trkpt>
      <trkpt lat="48.59184" lon="-0.37096">
        <ele>196.5</ele>
        <time>2012-02-04T12:16:27Z</time>
      </trkpt>
      <trkpt lat="48.59189" lon="-0.37104">
        <ele>196.5</ele>
        <time>2012-02-04T12:16:29Z</time>
      </trkpt>
      <trkpt lat="48.59194" lon="-0.37111">
        <ele>196.4</ele>
        <time>2012-02-04T12:16:31Z</time>
      </trkpt>
      <trkpt lat="48.59199" lon="-0.37117">
        <ele>196.5</ele>
        <time>2012-02-04T12:16:33Z</time>
      </trkpt>
      <trkpt lat="48.59204" lon="-0.37123">
        <ele>196.4</ele>
        <time>2012-02-04T12:16:35Z</time>
      </trkpt>
      <trkpt lat="48.5921" lon="-0.3713">
        <ele>196.2</ele>
        <time>2012-02-04T12:16:37Z</time>
      </trkpt>
      <trkpt lat="48.59218" lon="-0.37135">
        <ele>196</ele>
        <time>2012-02-04T12:16:39Z</time>
      </trkpt>
      <trkpt lat="48.59226" lon="-0.37138">
        <ele>195.8</ele>
        <time>2012-02-04T12:16:41Z</time>
      </trkpt>
      <trkpt lat="48.59234" lon="-0.37141">
        <ele>195.9</ele>
        <time>2012-02-04T12:16:43Z</time>
      </trkpt>
      <trkpt lat="48.59242" lon="-0.37145">
        <ele>195.9</ele>
        <time>2012-02-04T12:16:45Z</time>
      </trkpt>
      <trkpt lat="48.59245" lon="-0.37148">
        <ele>195.8</ele>
        <time>2012-02-04T12:16:46Z</time>
      </trkpt>
      <trkpt lat="48.59255" lon="-0.37154">
        <ele>196.2</ele>
        <time>2012-02-04T12:16:49Z</time>
      </trkpt>
      <trkpt lat="48.59262" lon="-0.3716">
        <ele>196.4</ele>
        <time>2012-02-04T12:16:51Z</time>
      </trkpt>
      <trkpt lat="48.59269" lon="-0.37166">
        <ele>196.2</ele>
        <time>2012-02-04T12:16:53Z</time>
      </trkpt>
      <trkpt lat="48.59277" lon="-0.37172">
        <ele>196.5</ele>
        <time>2012-02-04T12:16:55Z</time>
      </trkpt>
      <trkpt lat="48.59284" lon="-0.37179">
        <ele>196.4</ele>
        <time>2012-02-04T12:16:57Z</time>
      </trkpt>
      <trkpt lat="48.59292" lon="-0.37186">
        <ele>196.8</ele>
        <time>2012-02-04T12:16:59Z</time>
      </trkpt>
      <trkpt lat="48.593" lon="-0.37192">
        <ele>196.8</ele>
        <time>2012-02-04T12:17:01Z</time>
      </trkpt>
      <trkpt lat="48.59307" lon="-0.372">
        <ele>196.9</ele>
        <time>2012-02-04T12:17:03Z</time>
      </trkpt>
      <trkpt lat="48.59314" lon="-0.37207">
        <ele>197.1</ele>
        <time>2012-02-04T12:17:05Z</time>
      </trkpt>
      <trkpt lat="48.59322" lon="-0.37215">
        <ele>196.9</ele>
        <time>2012-02-04T12:17:07Z</time>
      </trkpt>
      <trkpt lat="48.59325" lon="-0.37219">
        <ele>197</ele>
        <time>2012-02-04T12:17:08Z</time>
      </trkpt>
      <trkpt lat="48.59332" lon="-0.37228">
        <ele>197.1</ele>
        <time>2012-02-04T12:17:10Z</time>
      </trkpt>
      <trkpt lat="48.59339" lon="-0.37235">
        <ele>197.3</ele>
        <time>2012-02-04T12:17:12Z</time>
      </trkpt>
      <trkpt lat="48.59345" lon="-0.37242">
        <ele>196.9</ele>
        <time>2012-02-04T12:17:14Z</time>
      </trkpt>
      <trkpt lat="48.59351" lon="-0.3725">
        <ele>196.8</ele>
        <time>2012-02-04T12:17:16Z</time>
      </trkpt>
      <trkpt lat="48.59356" lon="-0.37258">
        <ele>196.5</ele>
        <time>2012-02-04T12:17:18Z</time>
      </trkpt>
      <trkpt lat="48.5936" lon="-0.37267">
        <ele>196.5</ele>
        <time>2012-02-04T12:17:20Z</time>
      </trkpt>
      <trkpt lat="48.59363" lon="-0.37278">
        <ele>196.6</ele>
        <time>2012-02-04T12:17:22Z</time>
      </trkpt>
      <trkpt lat="48.59366" lon="-0.37289">
        <ele>196.6</ele>
        <time>2012-02-04T12:17:24Z</time>
      </trkpt>
      <trkpt lat="48.5937" lon="-0.37295">
        <ele>196.6</ele>
        <time>2012-02-04T12:17:26Z</time>
      </trkpt>
      <trkpt lat="48.59378" lon="-0.373">
        <ele>196.4</ele>
        <time>2012-02-04T12:17:28Z</time>
      </trkpt>
      <trkpt lat="48.59385" lon="-0.37304">
        <ele>196.5</ele>
        <time>2012-02-04T12:17:30Z</time>
      </trkpt>
      <trkpt lat="48.59393" lon="-0.37309">
        <ele>196.6</ele>
        <time>2012-02-04T12:17:32Z</time>
      </trkpt>
      <trkpt lat="48.59399" lon="-0.37314">
        <ele>196.6</ele>
        <time>2012-02-04T12:17:34Z</time>
      </trkpt>
      <trkpt lat="48.59406" lon="-0.37321">
        <ele>196.9</ele>
        <time>2012-02-04T12:17:43Z</time>
      </trkpt>
      <trkpt lat="48.59409" lon="-0.37333">
        <ele>197.3</ele>
        <time>2012-02-04T12:17:46Z</time>
      </trkpt>
      <trkpt lat="48.59411" lon="-0.37338">
        <ele>197.3</ele>
        <time>2012-02-04T12:17:47Z</time>
      </trkpt>
      <trkpt lat="48.59415" lon="-0.37357">
        <ele>197.4</ele>
        <time>2012-02-04T12:17:50Z</time>
      </trkpt>
      <trkpt lat="48.59417" lon="-0.37363">
        <ele>197.6</ele>
        <time>2012-02-04T12:17:51Z</time>
      </trkpt>
      <trkpt lat="48.59419" lon="-0.3737">
        <ele>197.8</ele>
        <time>2012-02-04T12:17:52Z</time>
      </trkpt>
      <trkpt lat="48.59421" lon="-0.37376">
        <ele>197.6</ele>
        <time>2012-02-04T12:17:53Z</time>
      </trkpt>
      <trkpt lat="48.59423" lon="-0.37382">
        <ele>197.5</ele>
        <time>2012-02-04T12:17:54Z</time>
      </trkpt>
      <trkpt lat="48.59426" lon="-0.37389">
        <ele>197.4</ele>
        <time>2012-02-04T12:17:55Z</time>
      </trkpt>
      <trkpt lat="48.59428" lon="-0.37395">
        <ele>197.5</ele>
        <time>2012-02-04T12:17:56Z</time>
      </trkpt>
      <trkpt lat="48.5943" lon="-0.37401">
        <ele>197.6</ele>
        <time>2012-02-04T12:17:57Z</time>
      </trkpt>
      <trkpt lat="48.59432" lon="-0.37407">
        <ele>197.6</ele>
        <time>2012-02-04T12:17:58Z</time>
      </trkpt>
      <trkpt lat="48.59434" lon="-0.37413">
        <ele>197.7</ele>
        <time>2012-02-04T12:17:59Z</time>
      </trkpt>
      <trkpt lat="48.59436" lon="-0.3742">
        <ele>197.7</ele>
        <time>2012-02-04T12:18:00Z</time>
      </trkpt>
      <trkpt lat="48.59437" lon="-0.37426">
        <ele>197.6</ele>
        <time>2012-02-04T12:18:01Z</time>
      </trkpt>
      <trkpt lat="48.59438" lon="-0.37433">
        <ele>197.6</ele>
        <time>2012-02-04T12:18:02Z</time>
      </trkpt>
      <trkpt lat="48.5944" lon="-0.37446">
        <ele>198.1</ele>
        <time>2012-02-04T12:18:04Z</time>
      </trkpt>
      <trkpt lat="48.59439" lon="-0.3746">
        <ele>198.6</ele>
        <time>2012-02-04T12:18:06Z</time>
      </trkpt>
      <trkpt lat="48.59438" lon="-0.37473">
        <ele>198.9</ele>
        <time>2012-02-04T12:18:08Z</time>
      </trkpt>
      <trkpt lat="48.59435" lon="-0.37486">
        <ele>199.4</ele>
        <time>2012-02-04T12:18:10Z</time>
      </trkpt>
      <trkpt lat="48.59432" lon="-0.37499">
        <ele>199.9</ele>
        <time>2012-02-04T12:18:12Z</time>
      </trkpt>
      <trkpt lat="48.59431" lon="-0.37506">
        <ele>200</ele>
        <time>2012-02-04T12:18:13Z</time>
      </trkpt>
      <trkpt lat="48.59427" lon="-0.37518">
        <ele>200.4</ele>
        <time>2012-02-04T12:18:15Z</time>
      </trkpt>
      <trkpt lat="48.59423" lon="-0.3753">
        <ele>200.7</ele>
        <time>2012-02-04T12:18:17Z</time>
      </trkpt>
      <trkpt lat="48.5942" lon="-0.37542">
        <ele>201.2</ele>
        <time>2012-02-04T12:18:19Z</time>
      </trkpt>
      <trkpt lat="48.59416" lon="-0.37555">
        <ele>201.6</ele>
        <time>2012-02-04T12:18:21Z</time>
      </trkpt>
      <trkpt lat="48.59413" lon="-0.37567">
        <ele>202.2</ele>
        <time>2012-02-04T12:18:23Z</time>
      </trkpt>
      <trkpt lat="48.59411" lon="-0.37573">
        <ele>202.4</ele>
        <time>2012-02-04T12:18:24Z</time>
      </trkpt>
      <trkpt lat="48.59409" lon="-0.37579">
        <ele>202.5</ele>
        <time>2012-02-04T12:18:25Z</time>
      </trkpt>
      <trkpt lat="48.59405" lon="-0.37592">
        <ele>202.7</ele>
        <time>2012-02-04T12:18:27Z</time>
      </trkpt>
      <trkpt lat="48.59402" lon="-0.37604">
        <ele>203.1</ele>
        <time>2012-02-04T12:18:29Z</time>
      </trkpt>
      <trkpt lat="48.59399" lon="-0.37616">
        <ele>203.7</ele>
        <time>2012-02-04T12:18:31Z</time>
      </trkpt>
      <trkpt lat="48.59396" lon="-0.37629">
        <ele>204.4</ele>
        <time>2012-02-04T12:18:33Z</time>
      </trkpt>
      <trkpt lat="48.59393" lon="-0.37641">
        <ele>204.3</ele>
        <time>2012-02-04T12:18:35Z</time>
      </trkpt>
      <trkpt lat="48.5939" lon="-0.37653">
        <ele>205.2</ele>
        <time>2012-02-04T12:18:37Z</time>
      </trkpt>
      <trkpt lat="48.59388" lon="-0.3766">
        <ele>205.6</ele>
        <time>2012-02-04T12:18:38Z</time>
      </trkpt>
      <trkpt lat="48.59385" lon="-0.37672">
        <ele>206.2</ele>
        <time>2012-02-04T12:18:40Z</time>
      </trkpt>
      <trkpt lat="48.59383" lon="-0.37679">
        <ele>206.6</ele>
        <time>2012-02-04T12:18:41Z</time>
      </trkpt>
      <trkpt lat="48.5938" lon="-0.37691">
        <ele>206.8</ele>
        <time>2012-02-04T12:18:43Z</time>
      </trkpt>
      <trkpt lat="48.59377" lon="-0.37704">
        <ele>206.6</ele>
        <time>2012-02-04T12:18:45Z</time>
      </trkpt>
      <trkpt lat="48.59375" lon="-0.37711">
        <ele>207.1</ele>
        <time>2012-02-04T12:18:46Z</time>
      </trkpt>
      <trkpt lat="48.59374" lon="-0.37717">
        <ele>207.5</ele>
        <time>2012-02-04T12:18:47Z</time>
      </trkpt>
      <trkpt lat="48.59372" lon="-0.37724">
        <ele>207.7</ele>
        <time>2012-02-04T12:18:48Z</time>
      </trkpt>
      <trkpt lat="48.59371" lon="-0.37731">
        <ele>207.8</ele>
        <time>2012-02-04T12:18:49Z</time>
      </trkpt>
      <trkpt lat="48.5937" lon="-0.37738">
        <ele>207.7</ele>
        <time>2012-02-04T12:18:50Z</time>
      </trkpt>
      <trkpt lat="48.59368" lon="-0.37745">
        <ele>207.6</ele>
        <time>2012-02-04T12:18:51Z</time>
      </trkpt>
      <trkpt lat="48.59367" lon="-0.37753">
        <ele>207.5</ele>
        <time>2012-02-04T12:18:52Z</time>
      </trkpt>
      <trkpt lat="48.59366" lon="-0.37761">
        <ele>207.4</ele>
        <time>2012-02-04T12:18:53Z</time>
      </trkpt>
      <trkpt lat="48.59365" lon="-0.37769">
        <ele>207.4</ele>
        <time>2012-02-04T12:18:54Z</time>
      </trkpt>
      <trkpt lat="48.59364" lon="-0.37778">
        <ele>207.3</ele>
        <time>2012-02-04T12:18:55Z</time>
      </trkpt>
      <trkpt lat="48.59363" lon="-0.37786">
        <ele>207.3</ele>
        <time>2012-02-04T12:18:56Z</time>
      </trkpt>
      <trkpt lat="48.59362" lon="-0.37796">
        <ele>207.3</ele>
        <time>2012-02-04T12:18:57Z</time>
      </trkpt>
      <trkpt lat="48.59362" lon="-0.37805">
        <ele>206.9</ele>
        <time>2012-02-04T12:18:58Z</time>
      </trkpt>
      <trkpt lat="48.59362" lon="-0.37815">
        <ele>206.6</ele>
        <time>2012-02-04T12:18:59Z</time>
      </trkpt>
      <trkpt lat="48.59361" lon="-0.37825">
        <ele>206.3</ele>
        <time>2012-02-04T12:19:00Z</time>
      </trkpt>
      <trkpt lat="48.59361" lon="-0.37836">
        <ele>206</ele>
        <time>2012-02-04T12:19:01Z</time>
      </trkpt>
      <trkpt lat="48.59361" lon="-0.37846">
        <ele>205.6</ele>
        <time>2012-02-04T12:19:02Z</time>
      </trkpt>
      <trkpt lat="48.59362" lon="-0.37857">
        <ele>205.4</ele>
        <time>2012-02-04T12:19:03Z</time>
      </trkpt>
      <trkpt lat="48.59362" lon="-0.37867">
        <ele>205.1</ele>
        <time>2012-02-04T12:19:04Z</time>
      </trkpt>
      <trkpt lat="48.59363" lon="-0.37878">
        <ele>204.7</ele>
        <time>2012-02-04T12:19:05Z</time>
      </trkpt>
      <trkpt lat="48.59363" lon="-0.37889">
        <ele>204.4</ele>
        <time>2012-02-04T12:19:06Z</time>
      </trkpt>
      <trkpt lat="48.59364" lon="-0.379">
        <ele>204</ele>
        <time>2012-02-04T12:19:07Z</time>
      </trkpt>
      <trkpt lat="48.59365" lon="-0.37911">
        <ele>203.7</ele>
        <time>2012-02-04T12:19:08Z</time>
      </trkpt>
      <trkpt lat="48.59366" lon="-0.37921">
        <ele>203.3</ele>
        <time>2012-02-04T12:19:09Z</time>
      </trkpt>
      <trkpt lat="48.59367" lon="-0.37932">
        <ele>202.9</ele>
        <time>2012-02-04T12:19:10Z</time>
      </trkpt>
      <trkpt lat="48.59369" lon="-0.37942">
        <ele>202.6</ele>
        <time>2012-02-04T12:19:11Z</time>
      </trkpt>
      <trkpt lat="48.5937" lon="-0.37951">
        <ele>202.1</ele>
        <time>2012-02-04T12:19:12Z</time>
      </trkpt>
      <trkpt lat="48.59372" lon="-0.37961">
        <ele>201.6</ele>
        <time>2012-02-04T12:19:13Z</time>
      </trkpt>
      <trkpt lat="48.59373" lon="-0.37969">
        <ele>201.2</ele>
        <time>2012-02-04T12:19:14Z</time>
      </trkpt>
      <trkpt lat="48.59375" lon="-0.37978">
        <ele>200.9</ele>
        <time>2012-02-04T12:19:15Z</time>
      </trkpt>
      <trkpt lat="48.59376" lon="-0.37986">
        <ele>200.6</ele>
        <time>2012-02-04T12:19:16Z</time>
      </trkpt>
      <trkpt lat="48.59378" lon="-0.37993">
        <ele>200.1</ele>
        <time>2012-02-04T12:19:17Z</time>
      </trkpt>
      <trkpt lat="48.59379" lon="-0.38">
        <ele>199.7</ele>
        <time>2012-02-04T12:19:18Z</time>
      </trkpt>
      <trkpt lat="48.5938" lon="-0.38007">
        <ele>199.3</ele>
        <time>2012-02-04T12:19:19Z</time>
      </trkpt>
      <trkpt lat="48.59382" lon="-0.38013">
        <ele>199</ele>
        <time>2012-02-04T12:19:20Z</time>
      </trkpt>
      <trkpt lat="48.59383" lon="-0.3802">
        <ele>199</ele>
        <time>2012-02-04T12:19:21Z</time>
      </trkpt>
      <trkpt lat="48.59385" lon="-0.38027">
        <ele>199</ele>
        <time>2012-02-04T12:19:22Z</time>
      </trkpt>
      <trkpt lat="48.59386" lon="-0.38034">
        <ele>199</ele>
        <time>2012-02-04T12:19:23Z</time>
      </trkpt>
      <trkpt lat="48.59388" lon="-0.38041">
        <ele>199</ele>
        <time>2012-02-04T12:19:24Z</time>
      </trkpt>
      <trkpt lat="48.59389" lon="-0.38049">
        <ele>199</ele>
        <time>2012-02-04T12:19:25Z</time>
      </trkpt>
      <trkpt lat="48.59391" lon="-0.38056">
        <ele>198.8</ele>
        <time>2012-02-04T12:19:26Z</time>
      </trkpt>
      <trkpt lat="48.59392" lon="-0.38063">
        <ele>198.6</ele>
        <time>2012-02-04T12:19:27Z</time>
      </trkpt>
      <trkpt lat="48.59393" lon="-0.38071">
        <ele>198.5</ele>
        <time>2012-02-04T12:19:28Z</time>
      </trkpt>
      <trkpt lat="48.59394" lon="-0.38079">
        <ele>198.4</ele>
        <time>2012-02-04T12:19:29Z</time>
      </trkpt>
      <trkpt lat="48.59395" lon="-0.38087">
        <ele>198.3</ele>
        <time>2012-02-04T12:19:30Z</time>
      </trkpt>
      <trkpt lat="48.59396" lon="-0.38096">
        <ele>198.6</ele>
        <time>2012-02-04T12:19:31Z</time>
      </trkpt>
      <trkpt lat="48.59397" lon="-0.38104">
        <ele>198.9</ele>
        <time>2012-02-04T12:19:32Z</time>
      </trkpt>
      <trkpt lat="48.59398" lon="-0.38112">
        <ele>199.1</ele>
        <time>2012-02-04T12:19:33Z</time>
      </trkpt>
      <trkpt lat="48.59398" lon="-0.38119">
        <ele>199.3</ele>
        <time>2012-02-04T12:19:34Z</time>
      </trkpt>
      <trkpt lat="48.59399" lon="-0.38127">
        <ele>199.4</ele>
        <time>2012-02-04T12:19:35Z</time>
      </trkpt>
      <trkpt lat="48.594" lon="-0.38134">
        <ele>199.6</ele>
        <time>2012-02-04T12:19:36Z</time>
      </trkpt>
      <trkpt lat="48.59401" lon="-0.38141">
        <ele>199.8</ele>
        <time>2012-02-04T12:19:37Z</time>
      </trkpt>
      <trkpt lat="48.59402" lon="-0.38149">
        <ele>200</ele>
        <time>2012-02-04T12:19:38Z</time>
      </trkpt>
      <trkpt lat="48.59403" lon="-0.38156">
        <ele>200.2</ele>
        <time>2012-02-04T12:19:39Z</time>
      </trkpt>
      <trkpt lat="48.59404" lon="-0.38163">
        <ele>200</ele>
        <time>2012-02-04T12:19:40Z</time>
      </trkpt>
      <trkpt lat="48.59405" lon="-0.3817">
        <ele>199.9</ele>
        <time>2012-02-04T12:19:41Z</time>
      </trkpt>
      <trkpt lat="48.59407" lon="-0.38177">
        <ele>199.9</ele>
        <time>2012-02-04T12:19:42Z</time>
      </trkpt>
      <trkpt lat="48.59408" lon="-0.38184">
        <ele>200.1</ele>
        <time>2012-02-04T12:19:43Z</time>
      </trkpt>
      <trkpt lat="48.5941" lon="-0.38191">
        <ele>200.3</ele>
        <time>2012-02-04T12:19:44Z</time>
      </trkpt>
      <trkpt lat="48.59412" lon="-0.38198">
        <ele>200.5</ele>
        <time>2012-02-04T12:19:45Z</time>
      </trkpt>
      <trkpt lat="48.59413" lon="-0.38205">
        <ele>200.7</ele>
        <time>2012-02-04T12:19:46Z</time>
      </trkpt>
      <trkpt lat="48.59415" lon="-0.38212">
        <ele>200.9</ele>
        <time>2012-02-04T12:19:47Z</time>
      </trkpt>
      <trkpt lat="48.59418" lon="-0.38218">
        <ele>201.1</ele>
        <time>2012-02-04T12:19:48Z</time>
      </trkpt>
      <trkpt lat="48.5942" lon="-0.38225">
        <ele>201.2</ele>
        <time>2012-02-04T12:19:49Z</time>
      </trkpt>
      <trkpt lat="48.59422" lon="-0.38231">
        <ele>201.4</ele>
        <time>2012-02-04T12:19:50Z</time>
      </trkpt>
      <trkpt lat="48.59424" lon="-0.38237">
        <ele>201.5</ele>
        <time>2012-02-04T12:19:51Z</time>
      </trkpt>
      <trkpt lat="48.59427" lon="-0.38244">
        <ele>201.3</ele>
        <time>2012-02-04T12:19:52Z</time>
      </trkpt>
      <trkpt lat="48.59429" lon="-0.3825">
        <ele>201.3</ele>
        <time>2012-02-04T12:19:53Z</time>
      </trkpt>
      <trkpt lat="48.59431" lon="-0.38257">
        <ele>201.2</ele>
        <time>2012-02-04T12:19:54Z</time>
      </trkpt>
      <trkpt lat="48.59434" lon="-0.38263">
        <ele>201.3</ele>
        <time>2012-02-04T12:19:55Z</time>
      </trkpt>
      <trkpt lat="48.59436" lon="-0.38269">
        <ele>201.4</ele>
        <time>2012-02-04T12:19:56Z</time>
      </trkpt>
      <trkpt lat="48.59438" lon="-0.38276">
        <ele>201.5</ele>
        <time>2012-02-04T12:19:57Z</time>
      </trkpt>
      <trkpt lat="48.59441" lon="-0.38282">
        <ele>201.6</ele>
        <time>2012-02-04T12:19:58Z</time>
      </trkpt>
      <trkpt lat="48.59443" lon="-0.38288">
        <ele>202</ele>
        <time>2012-02-04T12:19:59Z</time>
      </trkpt>
      <trkpt lat="48.59446" lon="-0.38294">
        <ele>202.3</ele>
        <time>2012-02-04T12:20:00Z</time>
      </trkpt>
      <trkpt lat="48.59449" lon="-0.383">
        <ele>202.5</ele>
        <time>2012-02-04T12:20:01Z</time>
      </trkpt>
      <trkpt lat="48.59452" lon="-0.38305">
        <ele>202.7</ele>
        <time>2012-02-04T12:20:02Z</time>
      </trkpt>
      <trkpt lat="48.59455" lon="-0.3831">
        <ele>202.8</ele>
        <time>2012-02-04T12:20:03Z</time>
      </trkpt>
      <trkpt lat="48.59459" lon="-0.38315">
        <ele>202.9</ele>
        <time>2012-02-04T12:20:04Z</time>
      </trkpt>
      <trkpt lat="48.59462" lon="-0.3832">
        <ele>202.9</ele>
        <time>2012-02-04T12:20:05Z</time>
      </trkpt>
      <trkpt lat="48.59466" lon="-0.38324">
        <ele>202.9</ele>
        <time>2012-02-04T12:20:06Z</time>
      </trkpt>
      <trkpt lat="48.5947" lon="-0.38329">
        <ele>203.1</ele>
        <time>2012-02-04T12:20:07Z</time>
      </trkpt>
      <trkpt lat="48.59474" lon="-0.38333">
        <ele>203.3</ele>
        <time>2012-02-04T12:20:08Z</time>
      </trkpt>
      <trkpt lat="48.59478" lon="-0.38337">
        <ele>203.2</ele>
        <time>2012-02-04T12:20:09Z</time>
      </trkpt>
      <trkpt lat="48.59482" lon="-0.38341">
        <ele>203.1</ele>
        <time>2012-02-04T12:20:10Z</time>
      </trkpt>
      <trkpt lat="48.59486" lon="-0.38346">
        <ele>203.2</ele>
        <time>2012-02-04T12:20:11Z</time>
      </trkpt>
      <trkpt lat="48.5949" lon="-0.3835">
        <ele>203.3</ele>
        <time>2012-02-04T12:20:12Z</time>
      </trkpt>
      <trkpt lat="48.59494" lon="-0.38355">
        <ele>203.3</ele>
        <time>2012-02-04T12:20:13Z</time>
      </trkpt>
      <trkpt lat="48.59498" lon="-0.3836">
        <ele>203</ele>
        <time>2012-02-04T12:20:14Z</time>
      </trkpt>
      <trkpt lat="48.59502" lon="-0.38365">
        <ele>202.7</ele>
        <time>2012-02-04T12:20:15Z</time>
      </trkpt>
      <trkpt lat="48.59506" lon="-0.3837">
        <ele>202.7</ele>
        <time>2012-02-04T12:20:16Z</time>
      </trkpt>
      <trkpt lat="48.59509" lon="-0.38376">
        <ele>202.7</ele>
        <time>2012-02-04T12:20:17Z</time>
      </trkpt>
      <trkpt lat="48.59512" lon="-0.38382">
        <ele>202.7</ele>
        <time>2012-02-04T12:20:18Z</time>
      </trkpt>
      <trkpt lat="48.59514" lon="-0.38388">
        <ele>202.7</ele>
        <time>2012-02-04T12:20:19Z</time>
      </trkpt>
      <trkpt lat="48.59516" lon="-0.38395">
        <ele>202.8</ele>
        <time>2012-02-04T12:20:20Z</time>
      </trkpt>
      <trkpt lat="48.59518" lon="-0.38402">
        <ele>202.6</ele>
        <time>2012-02-04T12:20:21Z</time>
      </trkpt>
      <trkpt lat="48.5952" lon="-0.38409">
        <ele>202.4</ele>
        <time>2012-02-04T12:20:22Z</time>
      </trkpt>
      <trkpt lat="48.59521" lon="-0.38417">
        <ele>202.4</ele>
        <time>2012-02-04T12:20:23Z</time>
      </trkpt>
      <trkpt lat="48.59522" lon="-0.38425">
        <ele>202.4</ele>
        <time>2012-02-04T12:20:24Z</time>
      </trkpt>
      <trkpt lat="48.59523" lon="-0.38432">
        <ele>202.4</ele>
        <time>2012-02-04T12:20:25Z</time>
      </trkpt>
      <trkpt lat="48.59524" lon="-0.3844">
        <ele>202.3</ele>
        <time>2012-02-04T12:20:26Z</time>
      </trkpt>
      <trkpt lat="48.59525" lon="-0.38448">
        <ele>202.3</ele>
        <time>2012-02-04T12:20:27Z</time>
      </trkpt>
      <trkpt lat="48.59526" lon="-0.38456">
        <ele>202.3</ele>
        <time>2012-02-04T12:20:28Z</time>
      </trkpt>
      <trkpt lat="48.59527" lon="-0.38464">
        <ele>202.4</ele>
        <time>2012-02-04T12:20:29Z</time>
      </trkpt>
      <trkpt lat="48.59528" lon="-0.38471">
        <ele>202.6</ele>
        <time>2012-02-04T12:20:30Z</time>
      </trkpt>
      <trkpt lat="48.59529" lon="-0.3848">
        <ele>202.7</ele>
        <time>2012-02-04T12:20:31Z</time>
      </trkpt>
      <trkpt lat="48.5953" lon="-0.38488">
        <ele>202.9</ele>
        <time>2012-02-04T12:20:32Z</time>
      </trkpt>
      <trkpt lat="48.59531" lon="-0.38495">
        <ele>203.2</ele>
        <time>2012-02-04T12:20:33Z</time>
      </trkpt>
      <trkpt lat="48.59532" lon="-0.38502">
        <ele>203.5</ele>
        <time>2012-02-04T12:20:34Z</time>
      </trkpt>
      <trkpt lat="48.59533" lon="-0.38509">
        <ele>204</ele>
        <time>2012-02-04T12:20:35Z</time>
      </trkpt>
      <trkpt lat="48.59535" lon="-0.38522">
        <ele>204.8</ele>
        <time>2012-02-04T12:20:37Z</time>
      </trkpt>
      <trkpt lat="48.59537" lon="-0.38535">
        <ele>205.1</ele>
        <time>2012-02-04T12:20:39Z</time>
      </trkpt>
      <trkpt lat="48.59538" lon="-0.38548">
        <ele>206</ele>
        <time>2012-02-04T12:20:41Z</time>
      </trkpt>
      <trkpt lat="48.59539" lon="-0.3856">
        <ele>206.8</ele>
        <time>2012-02-04T12:20:43Z</time>
      </trkpt>
      <trkpt lat="48.59541" lon="-0.38572">
        <ele>207.1</ele>
        <time>2012-02-04T12:20:45Z</time>
      </trkpt>
      <trkpt lat="48.59543" lon="-0.38584">
        <ele>207.8</ele>
        <time>2012-02-04T12:20:47Z</time>
      </trkpt>
      <trkpt lat="48.59545" lon="-0.38596">
        <ele>208.8</ele>
        <time>2012-02-04T12:20:49Z</time>
      </trkpt>
      <trkpt lat="48.59546" lon="-0.38601">
        <ele>209.2</ele>
        <time>2012-02-04T12:20:50Z</time>
      </trkpt>
      <trkpt lat="48.59548" lon="-0.38618">
        <ele>210.3</ele>
        <time>2012-02-04T12:20:53Z</time>
      </trkpt>
      <trkpt lat="48.5955" lon="-0.3863">
        <ele>210.9</ele>
        <time>2012-02-04T12:20:55Z</time>
      </trkpt>
      <trkpt lat="48.59553" lon="-0.38643">
        <ele>211</ele>
        <time>2012-02-04T12:20:57Z</time>
      </trkpt>
      <trkpt lat="48.59556" lon="-0.38655">
        <ele>211.7</ele>
        <time>2012-02-04T12:20:59Z</time>
      </trkpt>
      <trkpt lat="48.59559" lon="-0.38667">
        <ele>212.2</ele>
        <time>2012-02-04T12:21:01Z</time>
      </trkpt>
      <trkpt lat="48.59562" lon="-0.3868">
        <ele>212.2</ele>
        <time>2012-02-04T12:21:03Z</time>
      </trkpt>
      <trkpt lat="48.59563" lon="-0.38686">
        <ele>212.5</ele>
        <time>2012-02-04T12:21:04Z</time>
      </trkpt>
      <trkpt lat="48.59565" lon="-0.38692">
        <ele>212.6</ele>
        <time>2012-02-04T12:21:05Z</time>
      </trkpt>
      <trkpt lat="48.59568" lon="-0.38705">
        <ele>212.5</ele>
        <time>2012-02-04T12:21:07Z</time>
      </trkpt>
      <trkpt lat="48.5957" lon="-0.38711">
        <ele>212.8</ele>
        <time>2012-02-04T12:21:08Z</time>
      </trkpt>
      <trkpt lat="48.59572" lon="-0.38718">
        <ele>213.1</ele>
        <time>2012-02-04T12:21:09Z</time>
      </trkpt>
      <trkpt lat="48.59575" lon="-0.38724">
        <ele>213.3</ele>
        <time>2012-02-04T12:21:10Z</time>
      </trkpt>
      <trkpt lat="48.59577" lon="-0.3873">
        <ele>213.4</ele>
        <time>2012-02-04T12:21:11Z</time>
      </trkpt>
      <trkpt lat="48.59579" lon="-0.38737">
        <ele>213.5</ele>
        <time>2012-02-04T12:21:12Z</time>
      </trkpt>
      <trkpt lat="48.59581" lon="-0.38744">
        <ele>213.6</ele>
        <time>2012-02-04T12:21:13Z</time>
      </trkpt>
      <trkpt lat="48.59583" lon="-0.3875">
        <ele>213.7</ele>
        <time>2012-02-04T12:21:14Z</time>
      </trkpt>
      <trkpt lat="48.59585" lon="-0.38757">
        <ele>213.7</ele>
        <time>2012-02-04T12:21:15Z</time>
      </trkpt>
      <trkpt lat="48.59586" lon="-0.38764">
        <ele>213.9</ele>
        <time>2012-02-04T12:21:16Z</time>
      </trkpt>
      <trkpt lat="48.59588" lon="-0.3877">
        <ele>214</ele>
        <time>2012-02-04T12:21:17Z</time>
      </trkpt>
      <trkpt lat="48.59591" lon="-0.38777">
        <ele>214.2</ele>
        <time>2012-02-04T12:21:18Z</time>
      </trkpt>
      <trkpt lat="48.59593" lon="-0.38784">
        <ele>214.4</ele>
        <time>2012-02-04T12:21:19Z</time>
      </trkpt>
      <trkpt lat="48.59595" lon="-0.3879">
        <ele>214.2</ele>
        <time>2012-02-04T12:21:20Z</time>
      </trkpt>
      <trkpt lat="48.59597" lon="-0.38797">
        <ele>214.2</ele>
        <time>2012-02-04T12:21:21Z</time>
      </trkpt>
      <trkpt lat="48.59598" lon="-0.38804">
        <ele>214.1</ele>
        <time>2012-02-04T12:21:22Z</time>
      </trkpt>
      <trkpt lat="48.596" lon="-0.3881">
        <ele>214</ele>
        <time>2012-02-04T12:21:23Z</time>
      </trkpt>
      <trkpt lat="48.59602" lon="-0.38817">
        <ele>214</ele>
        <time>2012-02-04T12:21:24Z</time>
      </trkpt>
      <trkpt lat="48.59603" lon="-0.38823">
        <ele>214</ele>
        <time>2012-02-04T12:21:25Z</time>
      </trkpt>
      <trkpt lat="48.59605" lon="-0.3883">
        <ele>214</ele>
        <time>2012-02-04T12:21:26Z</time>
      </trkpt>
      <trkpt lat="48.59607" lon="-0.38836">
        <ele>214</ele>
        <time>2012-02-04T12:21:27Z</time>
      </trkpt>
      <trkpt lat="48.59608" lon="-0.38843">
        <ele>214.4</ele>
        <time>2012-02-04T12:21:28Z</time>
      </trkpt>
      <trkpt lat="48.5961" lon="-0.3885">
        <ele>214.7</ele>
        <time>2012-02-04T12:21:29Z</time>
      </trkpt>
      <trkpt lat="48.59611" lon="-0.38857">
        <ele>214.7</ele>
        <time>2012-02-04T12:21:30Z</time>
      </trkpt>
      <trkpt lat="48.59613" lon="-0.38863">
        <ele>214.6</ele>
        <time>2012-02-04T12:21:31Z</time>
      </trkpt>
      <trkpt lat="48.59614" lon="-0.3887">
        <ele>214.9</ele>
        <time>2012-02-04T12:21:32Z</time>
      </trkpt>
      <trkpt lat="48.59616" lon="-0.38877">
        <ele>215.1</ele>
        <time>2012-02-04T12:21:33Z</time>
      </trkpt>
      <trkpt lat="48.59619" lon="-0.38889">
        <ele>215.5</ele>
        <time>2012-02-04T12:21:35Z</time>
      </trkpt>
      <trkpt lat="48.59622" lon="-0.38902">
        <ele>215.4</ele>
        <time>2012-02-04T12:21:37Z</time>
      </trkpt>
      <trkpt lat="48.59625" lon="-0.38915">
        <ele>215.4</ele>
        <time>2012-02-04T12:21:39Z</time>
      </trkpt>
      <trkpt lat="48.59628" lon="-0.38927">
        <ele>215.4</ele>
        <time>2012-02-04T12:21:41Z</time>
      </trkpt>
      <trkpt lat="48.5963" lon="-0.3894">
        <ele>215.5</ele>
        <time>2012-02-04T12:21:43Z</time>
      </trkpt>
      <trkpt lat="48.59632" lon="-0.38953">
        <ele>216.1</ele>
        <time>2012-02-04T12:21:45Z</time>
      </trkpt>
      <trkpt lat="48.59632" lon="-0.38966">
        <ele>216.6</ele>
        <time>2012-02-04T12:21:47Z</time>
      </trkpt>
      <trkpt lat="48.59633" lon="-0.38979">
        <ele>217.5</ele>
        <time>2012-02-04T12:21:49Z</time>
      </trkpt>
      <trkpt lat="48.59633" lon="-0.38991">
        <ele>217.9</ele>
        <time>2012-02-04T12:21:51Z</time>
      </trkpt>
      <trkpt lat="48.59634" lon="-0.38997">
        <ele>218</ele>
        <time>2012-02-04T12:21:52Z</time>
      </trkpt>
      <trkpt lat="48.59634" lon="-0.39015">
        <ele>218.5</ele>
        <time>2012-02-04T12:21:55Z</time>
      </trkpt>
      <trkpt lat="48.59635" lon="-0.39027">
        <ele>219.2</ele>
        <time>2012-02-04T12:21:57Z</time>
      </trkpt>
      <trkpt lat="48.59637" lon="-0.39038">
        <ele>219.3</ele>
        <time>2012-02-04T12:21:59Z</time>
      </trkpt>
      <trkpt lat="48.59638" lon="-0.39049">
        <ele>219.7</ele>
        <time>2012-02-04T12:22:01Z</time>
      </trkpt>
      <trkpt lat="48.5964" lon="-0.3906">
        <ele>220.3</ele>
        <time>2012-02-04T12:22:03Z</time>
      </trkpt>
      <trkpt lat="48.59641" lon="-0.39071">
        <ele>220.8</ele>
        <time>2012-02-04T12:22:05Z</time>
      </trkpt>
      <trkpt lat="48.59642" lon="-0.39082">
        <ele>222</ele>
        <time>2012-02-04T12:22:07Z</time>
      </trkpt>
      <trkpt lat="48.59642" lon="-0.39093">
        <ele>222.7</ele>
        <time>2012-02-04T12:22:09Z</time>
      </trkpt>
      <trkpt lat="48.59642" lon="-0.39104">
        <ele>223.3</ele>
        <time>2012-02-04T12:22:11Z</time>
      </trkpt>
      <trkpt lat="48.59642" lon="-0.39115">
        <ele>223.9</ele>
        <time>2012-02-04T12:22:13Z</time>
      </trkpt>
      <trkpt lat="48.59641" lon="-0.39126">
        <ele>224.2</ele>
        <time>2012-02-04T12:22:15Z</time>
      </trkpt>
      <trkpt lat="48.59641" lon="-0.39137">
        <ele>224.2</ele>
        <time>2012-02-04T12:22:17Z</time>
      </trkpt>
      <trkpt lat="48.5964" lon="-0.39149">
        <ele>224.5</ele>
        <time>2012-02-04T12:22:19Z</time>
      </trkpt>
      <trkpt lat="48.5964" lon="-0.3916">
        <ele>225.4</ele>
        <time>2012-02-04T12:22:21Z</time>
      </trkpt>
      <trkpt lat="48.59639" lon="-0.39171">
        <ele>225.9</ele>
        <time>2012-02-04T12:22:23Z</time>
      </trkpt>
      <trkpt lat="48.59638" lon="-0.39182">
        <ele>226.4</ele>
        <time>2012-02-04T12:22:25Z</time>
      </trkpt>
      <trkpt lat="48.59638" lon="-0.39193">
        <ele>226.7</ele>
        <time>2012-02-04T12:22:27Z</time>
      </trkpt>
      <trkpt lat="48.59637" lon="-0.39204">
        <ele>227.3</ele>
        <time>2012-02-04T12:22:29Z</time>
      </trkpt>
      <trkpt lat="48.59636" lon="-0.39216">
        <ele>227.9</ele>
        <time>2012-02-04T12:22:31Z</time>
      </trkpt>
      <trkpt lat="48.59636" lon="-0.39227">
        <ele>228</ele>
        <time>2012-02-04T12:22:33Z</time>
      </trkpt>
      <trkpt lat="48.59635" lon="-0.39238">
        <ele>228.9</ele>
        <time>2012-02-04T12:22:35Z</time>
      </trkpt>
      <trkpt lat="48.59634" lon="-0.39249">
        <ele>229.6</ele>
        <time>2012-02-04T12:22:37Z</time>
      </trkpt>
      <trkpt lat="48.59634" lon="-0.3926">
        <ele>230</ele>
        <time>2012-02-04T12:22:39Z</time>
      </trkpt>
      <trkpt lat="48.59633" lon="-0.39271">
        <ele>230.1</ele>
        <time>2012-02-04T12:22:41Z</time>
      </trkpt>
      <trkpt lat="48.59632" lon="-0.39281">
        <ele>230.2</ele>
        <time>2012-02-04T12:22:43Z</time>
      </trkpt>
      <trkpt lat="48.59631" lon="-0.39292">
        <ele>231.1</ele>
        <time>2012-02-04T12:22:45Z</time>
      </trkpt>
      <trkpt lat="48.5963" lon="-0.39303">
        <ele>231.6</ele>
        <time>2012-02-04T12:22:47Z</time>
      </trkpt>
      <trkpt lat="48.59629" lon="-0.39313">
        <ele>232.6</ele>
        <time>2012-02-04T12:22:49Z</time>
      </trkpt>
      <trkpt lat="48.59628" lon="-0.39324">
        <ele>232.9</ele>
        <time>2012-02-04T12:22:51Z</time>
      </trkpt>
      <trkpt lat="48.59627" lon="-0.39334">
        <ele>233.3</ele>
        <time>2012-02-04T12:22:53Z</time>
      </trkpt>
      <trkpt lat="48.59626" lon="-0.39339">
        <ele>233.6</ele>
        <time>2012-02-04T12:22:54Z</time>
      </trkpt>
      <trkpt lat="48.59624" lon="-0.39353">
        <ele>234.4</ele>
        <time>2012-02-04T12:22:57Z</time>
      </trkpt>
      <trkpt lat="48.59622" lon="-0.39362">
        <ele>234.7</ele>
        <time>2012-02-04T12:22:59Z</time>
      </trkpt>
      <trkpt lat="48.59619" lon="-0.39373">
        <ele>234.8</ele>
        <time>2012-02-04T12:23:01Z</time>
      </trkpt>
      <trkpt lat="48.59616" lon="-0.39384">
        <ele>234.9</ele>
        <time>2012-02-04T12:23:03Z</time>
      </trkpt>
      <trkpt lat="48.59616" lon="-0.39396">
        <ele>235.4</ele>
        <time>2012-02-04T12:23:05Z</time>
      </trkpt>
      <trkpt lat="48.59618" lon="-0.39407">
        <ele>235.7</ele>
        <time>2012-02-04T12:23:07Z</time>
      </trkpt>
      <trkpt lat="48.59622" lon="-0.39416">
        <ele>235.6</ele>
        <time>2012-02-04T12:23:09Z</time>
      </trkpt>
      <trkpt lat="48.59627" lon="-0.39424">
        <ele>236.1</ele>
        <time>2012-02-04T12:23:11Z</time>
      </trkpt>
      <trkpt lat="48.59632" lon="-0.39432">
        <ele>236.6</ele>
        <time>2012-02-04T12:23:13Z</time>
      </trkpt>
      <trkpt lat="48.59637" lon="-0.39439">
        <ele>237.1</ele>
        <time>2012-02-04T12:23:15Z</time>
      </trkpt>
      <trkpt lat="48.59643" lon="-0.39447">
        <ele>237.3</ele>
        <time>2012-02-04T12:23:17Z</time>
      </trkpt>
      <trkpt lat="48.59648" lon="-0.39454">
        <ele>237.3</ele>
        <time>2012-02-04T12:23:19Z</time>
      </trkpt>
      <trkpt lat="48.59654" lon="-0.39462">
        <ele>237.5</ele>
        <time>2012-02-04T12:23:21Z</time>
      </trkpt>
      <trkpt lat="48.59659" lon="-0.39469">
        <ele>238.5</ele>
        <time>2012-02-04T12:23:23Z</time>
      </trkpt>
      <trkpt lat="48.59664" lon="-0.39478">
        <ele>239</ele>
        <time>2012-02-04T12:23:25Z</time>
      </trkpt>
      <trkpt lat="48.59669" lon="-0.39486">
        <ele>239.4</ele>
        <time>2012-02-04T12:23:27Z</time>
      </trkpt>
      <trkpt lat="48.59674" lon="-0.39495">
        <ele>239.6</ele>
        <time>2012-02-04T12:23:29Z</time>
      </trkpt>
      <trkpt lat="48.59678" lon="-0.39505">
        <ele>239.6</ele>
        <time>2012-02-04T12:23:31Z</time>
      </trkpt>
      <trkpt lat="48.59682" lon="-0.39514">
        <ele>239.7</ele>
        <time>2012-02-04T12:23:33Z</time>
      </trkpt>
      <trkpt lat="48.59685" lon="-0.39524">
        <ele>240.5</ele>
        <time>2012-02-04T12:23:35Z</time>
      </trkpt>
      <trkpt lat="48.59688" lon="-0.39534">
        <ele>240.3</ele>
        <time>2012-02-04T12:23:37Z</time>
      </trkpt>
      <trkpt lat="48.5969" lon="-0.39545">
        <ele>240.4</ele>
        <time>2012-02-04T12:23:39Z</time>
      </trkpt>
      <trkpt lat="48.59692" lon="-0.39556">
        <ele>240.5</ele>
        <time>2012-02-04T12:23:41Z</time>
      </trkpt>
      <trkpt lat="48.59694" lon="-0.39567">
        <ele>240.4</ele>
        <time>2012-02-04T12:23:43Z</time>
      </trkpt>
      <trkpt lat="48.59696" lon="-0.39579">
        <ele>240.1</ele>
        <time>2012-02-04T12:23:45Z</time>
      </trkpt>
      <trkpt lat="48.59698" lon="-0.39592">
        <ele>239.3</ele>
        <time>2012-02-04T12:23:47Z</time>
      </trkpt>
      <trkpt lat="48.597" lon="-0.39605">
        <ele>238.8</ele>
        <time>2012-02-04T12:23:49Z</time>
      </trkpt>
      <trkpt lat="48.59701" lon="-0.39611">
        <ele>238.5</ele>
        <time>2012-02-04T12:23:50Z</time>
      </trkpt>
      <trkpt lat="48.59702" lon="-0.39618">
        <ele>238.4</ele>
        <time>2012-02-04T12:23:51Z</time>
      </trkpt>
      <trkpt lat="48.59703" lon="-0.39626">
        <ele>238.3</ele>
        <time>2012-02-04T12:23:52Z</time>
      </trkpt>
      <trkpt lat="48.59705" lon="-0.39633">
        <ele>238</ele>
        <time>2012-02-04T12:23:53Z</time>
      </trkpt>
      <trkpt lat="48.59706" lon="-0.3964">
        <ele>237.8</ele>
        <time>2012-02-04T12:23:54Z</time>
      </trkpt>
      <trkpt lat="48.59707" lon="-0.39647">
        <ele>237.6</ele>
        <time>2012-02-04T12:23:55Z</time>
      </trkpt>
      <trkpt lat="48.59709" lon="-0.39654">
        <ele>237.6</ele>
        <time>2012-02-04T12:23:56Z</time>
      </trkpt>
      <trkpt lat="48.5971" lon="-0.3966">
        <ele>237.1</ele>
        <time>2012-02-04T12:23:57Z</time>
      </trkpt>
      <trkpt lat="48.59711" lon="-0.39667">
        <ele>236.8</ele>
        <time>2012-02-04T12:23:58Z</time>
      </trkpt>
      <trkpt lat="48.59712" lon="-0.39674">
        <ele>236.5</ele>
        <time>2012-02-04T12:23:59Z</time>
      </trkpt>
      <trkpt lat="48.59713" lon="-0.39681">
        <ele>236.7</ele>
        <time>2012-02-04T12:24:00Z</time>
      </trkpt>
      <trkpt lat="48.59714" lon="-0.39688">
        <ele>236.9</ele>
        <time>2012-02-04T12:24:01Z</time>
      </trkpt>
      <trkpt lat="48.59715" lon="-0.39695">
        <ele>237.4</ele>
        <time>2012-02-04T12:24:02Z</time>
      </trkpt>
      <trkpt lat="48.59718" lon="-0.39707">
        <ele>238.1</ele>
        <time>2012-02-04T12:24:04Z</time>
      </trkpt>
      <trkpt lat="48.5972" lon="-0.3972">
        <ele>238.4</ele>
        <time>2012-02-04T12:24:06Z</time>
      </trkpt>
      <trkpt lat="48.59722" lon="-0.39731">
        <ele>239</ele>
        <time>2012-02-04T12:24:08Z</time>
      </trkpt>
      <trkpt lat="48.59724" lon="-0.39743">
        <ele>239.9</ele>
        <time>2012-02-04T12:24:10Z</time>
      </trkpt>
      <trkpt lat="48.59727" lon="-0.39755">
        <ele>240.4</ele>
        <time>2012-02-04T12:24:12Z</time>
      </trkpt>
      <trkpt lat="48.59729" lon="-0.39766">
        <ele>240.7</ele>
        <time>2012-02-04T12:24:14Z</time>
      </trkpt>
      <trkpt lat="48.59731" lon="-0.39777">
        <ele>241.2</ele>
        <time>2012-02-04T12:24:16Z</time>
      </trkpt>
      <trkpt lat="48.59733" lon="-0.39789">
        <ele>241.8</ele>
        <time>2012-02-04T12:24:18Z</time>
      </trkpt>
      <trkpt lat="48.59735" lon="-0.398">
        <ele>241.8</ele>
        <time>2012-02-04T12:24:20Z</time>
      </trkpt>
      <trkpt lat="48.59738" lon="-0.39813">
        <ele>242.2</ele>
        <time>2012-02-04T12:24:22Z</time>
      </trkpt>
      <trkpt lat="48.5974" lon="-0.39826">
        <ele>242.3</ele>
        <time>2012-02-04T12:24:24Z</time>
      </trkpt>
      <trkpt lat="48.59741" lon="-0.39832">
        <ele>242.3</ele>
        <time>2012-02-04T12:24:25Z</time>
      </trkpt>
      <trkpt lat="48.59742" lon="-0.39839">
        <ele>242.1</ele>
        <time>2012-02-04T12:24:26Z</time>
      </trkpt>
      <trkpt lat="48.59744" lon="-0.39846">
        <ele>241.9</ele>
        <time>2012-02-04T12:24:27Z</time>
      </trkpt>
      <trkpt lat="48.59745" lon="-0.39853">
        <ele>241.6</ele>
        <time>2012-02-04T12:24:28Z</time>
      </trkpt>
      <trkpt lat="48.59746" lon="-0.39861">
        <ele>241.4</ele>
        <time>2012-02-04T12:24:29Z</time>
      </trkpt>
      <trkpt lat="48.59748" lon="-0.39869">
        <ele>241.2</ele>
        <time>2012-02-04T12:24:30Z</time>
      </trkpt>
      <trkpt lat="48.59749" lon="-0.39877">
        <ele>240.8</ele>
        <time>2012-02-04T12:24:31Z</time>
      </trkpt>
      <trkpt lat="48.59751" lon="-0.39885">
        <ele>240.4</ele>
        <time>2012-02-04T12:24:32Z</time>
      </trkpt>
      <trkpt lat="48.59752" lon="-0.39893">
        <ele>240</ele>
        <time>2012-02-04T12:24:33Z</time>
      </trkpt>
      <trkpt lat="48.59753" lon="-0.39902">
        <ele>239.7</ele>
        <time>2012-02-04T12:24:34Z</time>
      </trkpt>
      <trkpt lat="48.59755" lon="-0.3991">
        <ele>239.5</ele>
        <time>2012-02-04T12:24:35Z</time>
      </trkpt>
      <trkpt lat="48.59757" lon="-0.39919">
        <ele>239.5</ele>
        <time>2012-02-04T12:24:36Z</time>
      </trkpt>
      <trkpt lat="48.59758" lon="-0.39928">
        <ele>239.5</ele>
        <time>2012-02-04T12:24:37Z</time>
      </trkpt>
      <trkpt lat="48.5976" lon="-0.39937">
        <ele>238.7</ele>
        <time>2012-02-04T12:24:38Z</time>
      </trkpt>
      <trkpt lat="48.59761" lon="-0.39946">
        <ele>238.2</ele>
        <time>2012-02-04T12:24:39Z</time>
      </trkpt>
      <trkpt lat="48.59763" lon="-0.39955">
        <ele>237.7</ele>
        <time>2012-02-04T12:24:40Z</time>
      </trkpt>
      <trkpt lat="48.59764" lon="-0.39964">
        <ele>237.4</ele>
        <time>2012-02-04T12:24:41Z</time>
      </trkpt>
      <trkpt lat="48.59766" lon="-0.39972">
        <ele>237.2</ele>
        <time>2012-02-04T12:24:42Z</time>
      </trkpt>
      <trkpt lat="48.59767" lon="-0.39981">
        <ele>236.8</ele>
        <time>2012-02-04T12:24:43Z</time>
      </trkpt>
      <trkpt lat="48.59769" lon="-0.39989">
        <ele>236.5</ele>
        <time>2012-02-04T12:24:44Z</time>
      </trkpt>
      <trkpt lat="48.5977" lon="-0.39997">
        <ele>236.3</ele>
        <time>2012-02-04T12:24:45Z</time>
      </trkpt>
      <trkpt lat="48.59771" lon="-0.40004">
        <ele>236.2</ele>
        <time>2012-02-04T12:24:46Z</time>
      </trkpt>
      <trkpt lat="48.59773" lon="-0.40011">
        <ele>236</ele>
        <time>2012-02-04T12:24:47Z</time>
      </trkpt>
      <trkpt lat="48.59774" lon="-0.40018">
        <ele>235.9</ele>
        <time>2012-02-04T12:24:48Z</time>
      </trkpt>
      <trkpt lat="48.59775" lon="-0.40025">
        <ele>235.8</ele>
        <time>2012-02-04T12:24:49Z</time>
      </trkpt>
      <trkpt lat="48.59777" lon="-0.40032">
        <ele>236.2</ele>
        <time>2012-02-04T12:24:50Z</time>
      </trkpt>
      <trkpt lat="48.59778" lon="-0.40039">
        <ele>236.6</ele>
        <time>2012-02-04T12:24:51Z</time>
      </trkpt>
      <trkpt lat="48.59779" lon="-0.40046">
        <ele>236.6</ele>
        <time>2012-02-04T12:24:52Z</time>
      </trkpt>
      <trkpt lat="48.59781" lon="-0.40053">
        <ele>236.7</ele>
        <time>2012-02-04T12:24:53Z</time>
      </trkpt>
      <trkpt lat="48.59782" lon="-0.4006">
        <ele>236.7</ele>
        <time>2012-02-04T12:24:54Z</time>
      </trkpt>
      <trkpt lat="48.59783" lon="-0.40066">
        <ele>236.7</ele>
        <time>2012-02-04T12:24:55Z</time>
      </trkpt>
      <trkpt lat="48.59784" lon="-0.40073">
        <ele>236.7</ele>
        <time>2012-02-04T12:24:56Z</time>
      </trkpt>
      <trkpt lat="48.59786" lon="-0.4008">
        <ele>237</ele>
        <time>2012-02-04T12:24:57Z</time>
      </trkpt>
      <trkpt lat="48.59787" lon="-0.40086">
        <ele>237.2</ele>
        <time>2012-02-04T12:24:58Z</time>
      </trkpt>
      <trkpt lat="48.59788" lon="-0.40093">
        <ele>237.1</ele>
        <time>2012-02-04T12:24:59Z</time>
      </trkpt>
      <trkpt lat="48.5979" lon="-0.401">
        <ele>237.1</ele>
        <time>2012-02-04T12:25:00Z</time>
      </trkpt>
      <trkpt lat="48.59791" lon="-0.40106">
        <ele>237.1</ele>
        <time>2012-02-04T12:25:01Z</time>
      </trkpt>
      <trkpt lat="48.59792" lon="-0.40113">
        <ele>237.3</ele>
        <time>2012-02-04T12:25:02Z</time>
      </trkpt>
      <trkpt lat="48.59793" lon="-0.4012">
        <ele>237.4</ele>
        <time>2012-02-04T12:25:03Z</time>
      </trkpt>
      <trkpt lat="48.59795" lon="-0.40133">
        <ele>237.2</ele>
        <time>2012-02-04T12:25:05Z</time>
      </trkpt>
      <trkpt lat="48.59797" lon="-0.4014">
        <ele>237.3</ele>
        <time>2012-02-04T12:25:06Z</time>
      </trkpt>
      <trkpt lat="48.59798" lon="-0.40146">
        <ele>237.5</ele>
        <time>2012-02-04T12:25:07Z</time>
      </trkpt>
      <trkpt lat="48.59799" lon="-0.40153">
        <ele>237.6</ele>
        <time>2012-02-04T12:25:08Z</time>
      </trkpt>
      <trkpt lat="48.598" lon="-0.4016">
        <ele>237.5</ele>
        <time>2012-02-04T12:25:09Z</time>
      </trkpt>
      <trkpt lat="48.59801" lon="-0.40167">
        <ele>237.4</ele>
        <time>2012-02-04T12:25:10Z</time>
      </trkpt>
      <trkpt lat="48.59803" lon="-0.40174">
        <ele>237.4</ele>
        <time>2012-02-04T12:25:11Z</time>
      </trkpt>
      <trkpt lat="48.59804" lon="-0.40181">
        <ele>237.4</ele>
        <time>2012-02-04T12:25:12Z</time>
      </trkpt>
      <trkpt lat="48.59805" lon="-0.40188">
        <ele>237.4</ele>
        <time>2012-02-04T12:25:13Z</time>
      </trkpt>
      <trkpt lat="48.59807" lon="-0.40196">
        <ele>237.6</ele>
        <time>2012-02-04T12:25:14Z</time>
      </trkpt>
      <trkpt lat="48.59808" lon="-0.40204">
        <ele>237.8</ele>
        <time>2012-02-04T12:25:15Z</time>
      </trkpt>
      <trkpt lat="48.59809" lon="-0.40212">
        <ele>237.1</ele>
        <time>2012-02-04T12:25:16Z</time>
      </trkpt>
      <trkpt lat="48.59811" lon="-0.4022">
        <ele>236.6</ele>
        <time>2012-02-04T12:25:17Z</time>
      </trkpt>
      <trkpt lat="48.59812" lon="-0.40228">
        <ele>236</ele>
        <time>2012-02-04T12:25:18Z</time>
      </trkpt>
      <trkpt lat="48.59814" lon="-0.40236">
        <ele>235.5</ele>
        <time>2012-02-04T12:25:19Z</time>
      </trkpt>
      <trkpt lat="48.59815" lon="-0.40245">
        <ele>235.1</ele>
        <time>2012-02-04T12:25:20Z</time>
      </trkpt>
      <trkpt lat="48.59817" lon="-0.40253">
        <ele>235.2</ele>
        <time>2012-02-04T12:25:21Z</time>
      </trkpt>
      <trkpt lat="48.59818" lon="-0.40261">
        <ele>235.2</ele>
        <time>2012-02-04T12:25:22Z</time>
      </trkpt>
      <trkpt lat="48.5982" lon="-0.4027">
        <ele>235</ele>
        <time>2012-02-04T12:25:23Z</time>
      </trkpt>
      <trkpt lat="48.59821" lon="-0.40278">
        <ele>234.9</ele>
        <time>2012-02-04T12:25:24Z</time>
      </trkpt>
      <trkpt lat="48.59822" lon="-0.40286">
        <ele>234.8</ele>
        <time>2012-02-04T12:25:25Z</time>
      </trkpt>
      <trkpt lat="48.59823" lon="-0.40295">
        <ele>234.6</ele>
        <time>2012-02-04T12:25:26Z</time>
      </trkpt>
      <trkpt lat="48.59825" lon="-0.40303">
        <ele>234.5</ele>
        <time>2012-02-04T12:25:27Z</time>
      </trkpt>
      <trkpt lat="48.59827" lon="-0.4031">
        <ele>234.2</ele>
        <time>2012-02-04T12:25:28Z</time>
      </trkpt>
      <trkpt lat="48.59828" lon="-0.40317">
        <ele>234</ele>
        <time>2012-02-04T12:25:29Z</time>
      </trkpt>
      <trkpt lat="48.5983" lon="-0.40324">
        <ele>233.9</ele>
        <time>2012-02-04T12:25:30Z</time>
      </trkpt>
      <trkpt lat="48.59831" lon="-0.40331">
        <ele>233.8</ele>
        <time>2012-02-04T12:25:31Z</time>
      </trkpt>
      <trkpt lat="48.59833" lon="-0.40339">
        <ele>233.7</ele>
        <time>2012-02-04T12:25:32Z</time>
      </trkpt>
      <trkpt lat="48.59834" lon="-0.40347">
        <ele>233.5</ele>
        <time>2012-02-04T12:25:33Z</time>
      </trkpt>
      <trkpt lat="48.59836" lon="-0.40355">
        <ele>233.4</ele>
        <time>2012-02-04T12:25:34Z</time>
      </trkpt>
      <trkpt lat="48.59837" lon="-0.40363">
        <ele>233.4</ele>
        <time>2012-02-04T12:25:35Z</time>
      </trkpt>
      <trkpt lat="48.59839" lon="-0.40371">
        <ele>233.4</ele>
        <time>2012-02-04T12:25:36Z</time>
      </trkpt>
      <trkpt lat="48.59841" lon="-0.40379">
        <ele>233.5</ele>
        <time>2012-02-04T12:25:37Z</time>
      </trkpt>
      <trkpt lat="48.59842" lon="-0.40387">
        <ele>233.5</ele>
        <time>2012-02-04T12:25:38Z</time>
      </trkpt>
      <trkpt lat="48.59844" lon="-0.40396">
        <ele>233.6</ele>
        <time>2012-02-04T12:25:39Z</time>
      </trkpt>
      <trkpt lat="48.59845" lon="-0.40405">
        <ele>233.3</ele>
        <time>2012-02-04T12:25:40Z</time>
      </trkpt>
      <trkpt lat="48.59846" lon="-0.40413">
        <ele>233.1</ele>
        <time>2012-02-04T12:25:41Z</time>
      </trkpt>
      <trkpt lat="48.59847" lon="-0.40422">
        <ele>232.8</ele>
        <time>2012-02-04T12:25:42Z</time>
      </trkpt>
      <trkpt lat="48.59849" lon="-0.4043">
        <ele>232.6</ele>
        <time>2012-02-04T12:25:43Z</time>
      </trkpt>
      <trkpt lat="48.5985" lon="-0.40438">
        <ele>232.4</ele>
        <time>2012-02-04T12:25:44Z</time>
      </trkpt>
      <trkpt lat="48.59851" lon="-0.40445">
        <ele>232.1</ele>
        <time>2012-02-04T12:25:45Z</time>
      </trkpt>
      <trkpt lat="48.59852" lon="-0.40452">
        <ele>231.8</ele>
        <time>2012-02-04T12:25:46Z</time>
      </trkpt>
      <trkpt lat="48.59854" lon="-0.40459">
        <ele>231.7</ele>
        <time>2012-02-04T12:25:47Z</time>
      </trkpt>
      <trkpt lat="48.59856" lon="-0.40467">
        <ele>231.6</ele>
        <time>2012-02-04T12:25:48Z</time>
      </trkpt>
      <trkpt lat="48.59857" lon="-0.40475">
        <ele>231.5</ele>
        <time>2012-02-04T12:25:49Z</time>
      </trkpt>
      <trkpt lat="48.59859" lon="-0.40483">
        <ele>231.5</ele>
        <time>2012-02-04T12:25:50Z</time>
      </trkpt>
      <trkpt lat="48.5986" lon="-0.40491">
        <ele>231.4</ele>
        <time>2012-02-04T12:25:51Z</time>
      </trkpt>
      <trkpt lat="48.59861" lon="-0.40499">
        <ele>231.3</ele>
        <time>2012-02-04T12:25:52Z</time>
      </trkpt>
      <trkpt lat="48.59863" lon="-0.40507">
        <ele>231.2</ele>
        <time>2012-02-04T12:25:53Z</time>
      </trkpt>
      <trkpt lat="48.59864" lon="-0.40515">
        <ele>231.4</ele>
        <time>2012-02-04T12:25:54Z</time>
      </trkpt>
      <trkpt lat="48.59865" lon="-0.40522">
        <ele>231.5</ele>
        <time>2012-02-04T12:25:55Z</time>
      </trkpt>
      <trkpt lat="48.59867" lon="-0.40529">
        <ele>231.6</ele>
        <time>2012-02-04T12:25:56Z</time>
      </trkpt>
      <trkpt lat="48.59868" lon="-0.40536">
        <ele>231.9</ele>
        <time>2012-02-04T12:25:57Z</time>
      </trkpt>
      <trkpt lat="48.59869" lon="-0.40543">
        <ele>232</ele>
        <time>2012-02-04T12:25:58Z</time>
      </trkpt>
      <trkpt lat="48.5987" lon="-0.4055">
        <ele>232</ele>
        <time>2012-02-04T12:25:59Z</time>
      </trkpt>
      <trkpt lat="48.59872" lon="-0.40558">
        <ele>232</ele>
        <time>2012-02-04T12:26:00Z</time>
      </trkpt>
      <trkpt lat="48.59873" lon="-0.40565">
        <ele>231.7</ele>
        <time>2012-02-04T12:26:01Z</time>
      </trkpt>
      <trkpt lat="48.59874" lon="-0.40571">
        <ele>231.4</ele>
        <time>2012-02-04T12:26:02Z</time>
      </trkpt>
      <trkpt lat="48.59875" lon="-0.40578">
        <ele>231.2</ele>
        <time>2012-02-04T12:26:03Z</time>
      </trkpt>
      <trkpt lat="48.59877" lon="-0.40585">
        <ele>230.9</ele>
        <time>2012-02-04T12:26:04Z</time>
      </trkpt>
      <trkpt lat="48.59878" lon="-0.40592">
        <ele>230.7</ele>
        <time>2012-02-04T12:26:05Z</time>
      </trkpt>
      <trkpt lat="48.5988" lon="-0.406">
        <ele>230.8</ele>
        <time>2012-02-04T12:26:06Z</time>
      </trkpt>
      <trkpt lat="48.59881" lon="-0.40607">
        <ele>230.8</ele>
        <time>2012-02-04T12:26:07Z</time>
      </trkpt>
      <trkpt lat="48.59883" lon="-0.40615">
        <ele>230.5</ele>
        <time>2012-02-04T12:26:08Z</time>
      </trkpt>
      <trkpt lat="48.59884" lon="-0.40623">
        <ele>230.2</ele>
        <time>2012-02-04T12:26:09Z</time>
      </trkpt>
      <trkpt lat="48.59886" lon="-0.40632">
        <ele>230</ele>
        <time>2012-02-04T12:26:10Z</time>
      </trkpt>
      <trkpt lat="48.59887" lon="-0.40642">
        <ele>229.4</ele>
        <time>2012-02-04T12:26:11Z</time>
      </trkpt>
      <trkpt lat="48.59889" lon="-0.4065">
        <ele>228.9</ele>
        <time>2012-02-04T12:26:12Z</time>
      </trkpt>
      <trkpt lat="48.59891" lon="-0.40659">
        <ele>228.4</ele>
        <time>2012-02-04T12:26:13Z</time>
      </trkpt>
      <trkpt lat="48.59893" lon="-0.40668">
        <ele>228.1</ele>
        <time>2012-02-04T12:26:14Z</time>
      </trkpt>
      <trkpt lat="48.59894" lon="-0.40677">
        <ele>227.8</ele>
        <time>2012-02-04T12:26:15Z</time>
      </trkpt>
      <trkpt lat="48.59896" lon="-0.40687">
        <ele>227.2</ele>
        <time>2012-02-04T12:26:16Z</time>
      </trkpt>
      <trkpt lat="48.59898" lon="-0.40696">
        <ele>226.7</ele>
        <time>2012-02-04T12:26:17Z</time>
      </trkpt>
      <trkpt lat="48.59899" lon="-0.40706">
        <ele>226.2</ele>
        <time>2012-02-04T12:26:18Z</time>
      </trkpt>
      <trkpt lat="48.59901" lon="-0.40717">
        <ele>225.7</ele>
        <time>2012-02-04T12:26:19Z</time>
      </trkpt>
      <trkpt lat="48.59902" lon="-0.40727">
        <ele>225.2</ele>
        <time>2012-02-04T12:26:20Z</time>
      </trkpt>
      <trkpt lat="48.59904" lon="-0.40737">
        <ele>224.8</ele>
        <time>2012-02-04T12:26:21Z</time>
      </trkpt>
      <trkpt lat="48.59905" lon="-0.40747">
        <ele>224.5</ele>
        <time>2012-02-04T12:26:22Z</time>
      </trkpt>
      <trkpt lat="48.59907" lon="-0.40757">
        <ele>224.2</ele>
        <time>2012-02-04T12:26:23Z</time>
      </trkpt>
      <trkpt lat="48.59908" lon="-0.40766">
        <ele>223.9</ele>
        <time>2012-02-04T12:26:24Z</time>
      </trkpt>
      <trkpt lat="48.5991" lon="-0.40775">
        <ele>223.8</ele>
        <time>2012-02-04T12:26:25Z</time>
      </trkpt>
      <trkpt lat="48.59911" lon="-0.40783">
        <ele>223.8</ele>
        <time>2012-02-04T12:26:26Z</time>
      </trkpt>
      <trkpt lat="48.59912" lon="-0.40792">
        <ele>223.3</ele>
        <time>2012-02-04T12:26:27Z</time>
      </trkpt>
      <trkpt lat="48.59914" lon="-0.408">
        <ele>222.9</ele>
        <time>2012-02-04T12:26:28Z</time>
      </trkpt>
      <trkpt lat="48.59915" lon="-0.40808">
        <ele>222.6</ele>
        <time>2012-02-04T12:26:29Z</time>
      </trkpt>
      <trkpt lat="48.59917" lon="-0.40816">
        <ele>222.8</ele>
        <time>2012-02-04T12:26:30Z</time>
      </trkpt>
      <trkpt lat="48.59918" lon="-0.40824">
        <ele>222.9</ele>
        <time>2012-02-04T12:26:31Z</time>
      </trkpt>
      <trkpt lat="48.59919" lon="-0.40832">
        <ele>222.8</ele>
        <time>2012-02-04T12:26:32Z</time>
      </trkpt>
      <trkpt lat="48.59921" lon="-0.40839">
        <ele>222.8</ele>
        <time>2012-02-04T12:26:33Z</time>
      </trkpt>
      <trkpt lat="48.59922" lon="-0.40847">
        <ele>222.7</ele>
        <time>2012-02-04T12:26:34Z</time>
      </trkpt>
      <trkpt lat="48.59923" lon="-0.40855">
        <ele>223.1</ele>
        <time>2012-02-04T12:26:35Z</time>
      </trkpt>
      <trkpt lat="48.59925" lon="-0.40862">
        <ele>223.3</ele>
        <time>2012-02-04T12:26:36Z</time>
      </trkpt>
      <trkpt lat="48.59926" lon="-0.4087">
        <ele>223.6</ele>
        <time>2012-02-04T12:26:37Z</time>
      </trkpt>
      <trkpt lat="48.59927" lon="-0.40877">
        <ele>223.7</ele>
        <time>2012-02-04T12:26:38Z</time>
      </trkpt>
      <trkpt lat="48.59928" lon="-0.40884">
        <ele>223.8</ele>
        <time>2012-02-04T12:26:39Z</time>
      </trkpt>
      <trkpt lat="48.59929" lon="-0.40891">
        <ele>223.8</ele>
        <time>2012-02-04T12:26:40Z</time>
      </trkpt>
      <trkpt lat="48.59931" lon="-0.40898">
        <ele>223.8</ele>
        <time>2012-02-04T12:26:41Z</time>
      </trkpt>
      <trkpt lat="48.59932" lon="-0.40905">
        <ele>224.3</ele>
        <time>2012-02-04T12:26:42Z</time>
      </trkpt>
      <trkpt lat="48.59933" lon="-0.40912">
        <ele>224.6</ele>
        <time>2012-02-04T12:26:43Z</time>
      </trkpt>
      <trkpt lat="48.59934" lon="-0.40919">
        <ele>224.6</ele>
        <time>2012-02-04T12:26:44Z</time>
      </trkpt>
      <trkpt lat="48.59936" lon="-0.40926">
        <ele>224.7</ele>
        <time>2012-02-04T12:26:45Z</time>
      </trkpt>
      <trkpt lat="48.59937" lon="-0.40932">
        <ele>224.7</ele>
        <time>2012-02-04T12:26:46Z</time>
      </trkpt>
      <trkpt lat="48.59938" lon="-0.40939">
        <ele>224.6</ele>
        <time>2012-02-04T12:26:47Z</time>
      </trkpt>
      <trkpt lat="48.59939" lon="-0.40946">
        <ele>224.5</ele>
        <time>2012-02-04T12:26:48Z</time>
      </trkpt>
      <trkpt lat="48.59941" lon="-0.40953">
        <ele>224.9</ele>
        <time>2012-02-04T12:26:49Z</time>
      </trkpt>
      <trkpt lat="48.59942" lon="-0.4096">
        <ele>225.2</ele>
        <time>2012-02-04T12:26:50Z</time>
      </trkpt>
      <trkpt lat="48.59943" lon="-0.40967">
        <ele>225.3</ele>
        <time>2012-02-04T12:26:51Z</time>
      </trkpt>
      <trkpt lat="48.59944" lon="-0.40973">
        <ele>225.4</ele>
        <time>2012-02-04T12:26:52Z</time>
      </trkpt>
      <trkpt lat="48.59947" lon="-0.40986">
        <ele>225.7</ele>
        <time>2012-02-04T12:26:54Z</time>
      </trkpt>
      <trkpt lat="48.59949" lon="-0.40999">
        <ele>225.9</ele>
        <time>2012-02-04T12:26:56Z</time>
      </trkpt>
      <trkpt lat="48.59951" lon="-0.41012">
        <ele>226.3</ele>
        <time>2012-02-04T12:26:58Z</time>
      </trkpt>
      <trkpt lat="48.59952" lon="-0.41018">
        <ele>226.6</ele>
        <time>2012-02-04T12:26:59Z</time>
      </trkpt>
      <trkpt lat="48.59955" lon="-0.41032">
        <ele>226.8</ele>
        <time>2012-02-04T12:27:01Z</time>
      </trkpt>
      <trkpt lat="48.59956" lon="-0.41038">
        <ele>226.8</ele>
        <time>2012-02-04T12:27:02Z</time>
      </trkpt>
      <trkpt lat="48.59957" lon="-0.41045">
        <ele>227</ele>
        <time>2012-02-04T12:27:03Z</time>
      </trkpt>
      <trkpt lat="48.59958" lon="-0.41052">
        <ele>227.1</ele>
        <time>2012-02-04T12:27:04Z</time>
      </trkpt>
      <trkpt lat="48.59959" lon="-0.41058">
        <ele>227.2</ele>
        <time>2012-02-04T12:27:05Z</time>
      </trkpt>
      <trkpt lat="48.59961" lon="-0.41072">
        <ele>227.6</ele>
        <time>2012-02-04T12:27:07Z</time>
      </trkpt>
      <trkpt lat="48.59964" lon="-0.41085">
        <ele>228.3</ele>
        <time>2012-02-04T12:27:09Z</time>
      </trkpt>
      <trkpt lat="48.59966" lon="-0.41098">
        <ele>228.5</ele>
        <time>2012-02-04T12:27:11Z</time>
      </trkpt>
      <trkpt lat="48.59968" lon="-0.4111">
        <ele>228.6</ele>
        <time>2012-02-04T12:27:13Z</time>
      </trkpt>
      <trkpt lat="48.5997" lon="-0.41123">
        <ele>229.1</ele>
        <time>2012-02-04T12:27:15Z</time>
      </trkpt>
      <trkpt lat="48.59973" lon="-0.41136">
        <ele>229.7</ele>
        <time>2012-02-04T12:27:17Z</time>
      </trkpt>
      <trkpt lat="48.59975" lon="-0.41147">
        <ele>230</ele>
        <time>2012-02-04T12:27:19Z</time>
      </trkpt>
      <trkpt lat="48.59977" lon="-0.41158">
        <ele>230.2</ele>
        <time>2012-02-04T12:27:21Z</time>
      </trkpt>
      <trkpt lat="48.59979" lon="-0.41169">
        <ele>230.1</ele>
        <time>2012-02-04T12:27:23Z</time>
      </trkpt>
      <trkpt lat="48.59981" lon="-0.41181">
        <ele>230.1</ele>
        <time>2012-02-04T12:27:25Z</time>
      </trkpt>
      <trkpt lat="48.59984" lon="-0.41194">
        <ele>230.3</ele>
        <time>2012-02-04T12:27:27Z</time>
      </trkpt>
      <trkpt lat="48.59985" lon="-0.41201">
        <ele>230.5</ele>
        <time>2012-02-04T12:27:28Z</time>
      </trkpt>
      <trkpt lat="48.59987" lon="-0.41208">
        <ele>230.3</ele>
        <time>2012-02-04T12:27:29Z</time>
      </trkpt>
      <trkpt lat="48.59988" lon="-0.41215">
        <ele>230.2</ele>
        <time>2012-02-04T12:27:30Z</time>
      </trkpt>
      <trkpt lat="48.5999" lon="-0.41222">
        <ele>230.1</ele>
        <time>2012-02-04T12:27:31Z</time>
      </trkpt>
      <trkpt lat="48.59991" lon="-0.41229">
        <ele>230.1</ele>
        <time>2012-02-04T12:27:32Z</time>
      </trkpt>
      <trkpt lat="48.59993" lon="-0.41237">
        <ele>230</ele>
        <time>2012-02-04T12:27:33Z</time>
      </trkpt>
      <trkpt lat="48.59994" lon="-0.41244">
        <ele>229.9</ele>
        <time>2012-02-04T12:27:34Z</time>
      </trkpt>
      <trkpt lat="48.59995" lon="-0.41252">
        <ele>229.8</ele>
        <time>2012-02-04T12:27:35Z</time>
      </trkpt>
      <trkpt lat="48.59997" lon="-0.4126">
        <ele>229.7</ele>
        <time>2012-02-04T12:27:36Z</time>
      </trkpt>
      <trkpt lat="48.59998" lon="-0.41268">
        <ele>229.6</ele>
        <time>2012-02-04T12:27:37Z</time>
      </trkpt>
      <trkpt lat="48.59999" lon="-0.41276">
        <ele>229.5</ele>
        <time>2012-02-04T12:27:38Z</time>
      </trkpt>
      <trkpt lat="48.60001" lon="-0.41284">
        <ele>229</ele>
        <time>2012-02-04T12:27:39Z</time>
      </trkpt>
      <trkpt lat="48.60002" lon="-0.41292">
        <ele>228.7</ele>
        <time>2012-02-04T12:27:40Z</time>
      </trkpt>
      <trkpt lat="48.60004" lon="-0.41299">
        <ele>228.7</ele>
        <time>2012-02-04T12:27:41Z</time>
      </trkpt>
      <trkpt lat="48.60005" lon="-0.41307">
        <ele>228.7</ele>
        <time>2012-02-04T12:27:42Z</time>
      </trkpt>
      <trkpt lat="48.60007" lon="-0.41314">
        <ele>228.8</ele>
        <time>2012-02-04T12:27:43Z</time>
      </trkpt>
      <trkpt lat="48.60008" lon="-0.41322">
        <ele>228.3</ele>
        <time>2012-02-04T12:27:44Z</time>
      </trkpt>
      <trkpt lat="48.6001" lon="-0.41329">
        <ele>227.9</ele>
        <time>2012-02-04T12:27:45Z</time>
      </trkpt>
      <trkpt lat="48.60012" lon="-0.41336">
        <ele>227.5</ele>
        <time>2012-02-04T12:27:46Z</time>
      </trkpt>
      <trkpt lat="48.60014" lon="-0.41344">
        <ele>227.1</ele>
        <time>2012-02-04T12:27:47Z</time>
      </trkpt>
      <trkpt lat="48.60015" lon="-0.41352">
        <ele>226.9</ele>
        <time>2012-02-04T12:27:48Z</time>
      </trkpt>
      <trkpt lat="48.60016" lon="-0.41359">
        <ele>226.8</ele>
        <time>2012-02-04T12:27:49Z</time>
      </trkpt>
      <trkpt lat="48.60017" lon="-0.41366">
        <ele>226.6</ele>
        <time>2012-02-04T12:27:50Z</time>
      </trkpt>
      <trkpt lat="48.60019" lon="-0.41373">
        <ele>226.7</ele>
        <time>2012-02-04T12:27:51Z</time>
      </trkpt>
      <trkpt lat="48.6002" lon="-0.41381">
        <ele>226.7</ele>
        <time>2012-02-04T12:27:52Z</time>
      </trkpt>
      <trkpt lat="48.60022" lon="-0.41388">
        <ele>226.6</ele>
        <time>2012-02-04T12:27:53Z</time>
      </trkpt>
      <trkpt lat="48.60024" lon="-0.41395">
        <ele>226.5</ele>
        <time>2012-02-04T12:27:54Z</time>
      </trkpt>
      <trkpt lat="48.60025" lon="-0.41402">
        <ele>226.5</ele>
        <time>2012-02-04T12:27:55Z</time>
      </trkpt>
      <trkpt lat="48.60027" lon="-0.4141">
        <ele>226.3</ele>
        <time>2012-02-04T12:27:56Z</time>
      </trkpt>
      <trkpt lat="48.60028" lon="-0.41417">
        <ele>226.2</ele>
        <time>2012-02-04T12:27:57Z</time>
      </trkpt>
      <trkpt lat="48.60029" lon="-0.41425">
        <ele>225.8</ele>
        <time>2012-02-04T12:27:58Z</time>
      </trkpt>
      <trkpt lat="48.6003" lon="-0.41433">
        <ele>225.6</ele>
        <time>2012-02-04T12:27:59Z</time>
      </trkpt>
      <trkpt lat="48.60032" lon="-0.4144">
        <ele>225.9</ele>
        <time>2012-02-04T12:28:00Z</time>
      </trkpt>
      <trkpt lat="48.60033" lon="-0.41448">
        <ele>226.1</ele>
        <time>2012-02-04T12:28:01Z</time>
      </trkpt>
      <trkpt lat="48.60034" lon="-0.41456">
        <ele>226.3</ele>
        <time>2012-02-04T12:28:02Z</time>
      </trkpt>
      <trkpt lat="48.60035" lon="-0.41463">
        <ele>226.7</ele>
        <time>2012-02-04T12:28:03Z</time>
      </trkpt>
      <trkpt lat="48.60037" lon="-0.41471">
        <ele>227</ele>
        <time>2012-02-04T12:28:04Z</time>
      </trkpt>
      <trkpt lat="48.60038" lon="-0.41478">
        <ele>227</ele>
        <time>2012-02-04T12:28:05Z</time>
      </trkpt>
      <trkpt lat="48.60039" lon="-0.41486">
        <ele>227</ele>
        <time>2012-02-04T12:28:06Z</time>
      </trkpt>
      <trkpt lat="48.6004" lon="-0.41494">
        <ele>226.7</ele>
        <time>2012-02-04T12:28:07Z</time>
      </trkpt>
      <trkpt lat="48.60042" lon="-0.41501">
        <ele>226.5</ele>
        <time>2012-02-04T12:28:08Z</time>
      </trkpt>
      <trkpt lat="48.60043" lon="-0.41509">
        <ele>226.4</ele>
        <time>2012-02-04T12:28:09Z</time>
      </trkpt>
      <trkpt lat="48.60044" lon="-0.41518">
        <ele>226.1</ele>
        <time>2012-02-04T12:28:10Z</time>
      </trkpt>
      <trkpt lat="48.60045" lon="-0.41526">
        <ele>225.8</ele>
        <time>2012-02-04T12:28:11Z</time>
      </trkpt>
      <trkpt lat="48.60047" lon="-0.41534">
        <ele>225.8</ele>
        <time>2012-02-04T12:28:12Z</time>
      </trkpt>
      <trkpt lat="48.60048" lon="-0.41543">
        <ele>225.8</ele>
        <time>2012-02-04T12:28:13Z</time>
      </trkpt>
      <trkpt lat="48.60049" lon="-0.41551">
        <ele>225.9</ele>
        <time>2012-02-04T12:28:14Z</time>
      </trkpt>
      <trkpt lat="48.6005" lon="-0.41559">
        <ele>225.8</ele>
        <time>2012-02-04T12:28:15Z</time>
      </trkpt>
      <trkpt lat="48.60052" lon="-0.41568">
        <ele>225.8</ele>
        <time>2012-02-04T12:28:16Z</time>
      </trkpt>
      <trkpt lat="48.60053" lon="-0.41576">
        <ele>225.6</ele>
        <time>2012-02-04T12:28:17Z</time>
      </trkpt>
      <trkpt lat="48.60055" lon="-0.41584">
        <ele>225.4</ele>
        <time>2012-02-04T12:28:18Z</time>
      </trkpt>
      <trkpt lat="48.60056" lon="-0.41592">
        <ele>224.9</ele>
        <time>2012-02-04T12:28:19Z</time>
      </trkpt>
      <trkpt lat="48.60057" lon="-0.416">
        <ele>224.5</ele>
        <time>2012-02-04T12:28:20Z</time>
      </trkpt>
      <trkpt lat="48.60059" lon="-0.41609">
        <ele>224.3</ele>
        <time>2012-02-04T12:28:21Z</time>
      </trkpt>
      <trkpt lat="48.6006" lon="-0.41617">
        <ele>224.3</ele>
        <time>2012-02-04T12:28:22Z</time>
      </trkpt>
      <trkpt lat="48.60061" lon="-0.41625">
        <ele>224.4</ele>
        <time>2012-02-04T12:28:23Z</time>
      </trkpt>
      <trkpt lat="48.60063" lon="-0.41633">
        <ele>224.1</ele>
        <time>2012-02-04T12:28:24Z</time>
      </trkpt>
      <trkpt lat="48.60064" lon="-0.41642">
        <ele>223.8</ele>
        <time>2012-02-04T12:28:25Z</time>
      </trkpt>
      <trkpt lat="48.60065" lon="-0.4165">
        <ele>223.7</ele>
        <time>2012-02-04T12:28:26Z</time>
      </trkpt>
      <trkpt lat="48.60067" lon="-0.41658">
        <ele>223.3</ele>
        <time>2012-02-04T12:28:27Z</time>
      </trkpt>
      <trkpt lat="48.60068" lon="-0.41666">
        <ele>223</ele>
        <time>2012-02-04T12:28:28Z</time>
      </trkpt>
      <trkpt lat="48.6007" lon="-0.41675">
        <ele>222.7</ele>
        <time>2012-02-04T12:28:29Z</time>
      </trkpt>
      <trkpt lat="48.60071" lon="-0.41683">
        <ele>222.5</ele>
        <time>2012-02-04T12:28:30Z</time>
      </trkpt>
      <trkpt lat="48.60073" lon="-0.41691">
        <ele>222.4</ele>
        <time>2012-02-04T12:28:31Z</time>
      </trkpt>
      <trkpt lat="48.60074" lon="-0.417">
        <ele>222.4</ele>
        <time>2012-02-04T12:28:32Z</time>
      </trkpt>
      <trkpt lat="48.60075" lon="-0.41708">
        <ele>222.4</ele>
        <time>2012-02-04T12:28:33Z</time>
      </trkpt>
      <trkpt lat="48.60077" lon="-0.41716">
        <ele>222.5</ele>
        <time>2012-02-04T12:28:34Z</time>
      </trkpt>
      <trkpt lat="48.60078" lon="-0.41725">
        <ele>222.5</ele>
        <time>2012-02-04T12:28:35Z</time>
      </trkpt>
      <trkpt lat="48.6008" lon="-0.41733">
        <ele>222.4</ele>
        <time>2012-02-04T12:28:36Z</time>
      </trkpt>
      <trkpt lat="48.60081" lon="-0.41741">
        <ele>222.3</ele>
        <time>2012-02-04T12:28:37Z</time>
      </trkpt>
      <trkpt lat="48.60083" lon="-0.41749">
        <ele>222.4</ele>
        <time>2012-02-04T12:28:38Z</time>
      </trkpt>
      <trkpt lat="48.60084" lon="-0.41757">
        <ele>222.5</ele>
        <time>2012-02-04T12:28:39Z</time>
      </trkpt>
      <trkpt lat="48.60086" lon="-0.41765">
        <ele>222.6</ele>
        <time>2012-02-04T12:28:40Z</time>
      </trkpt>
      <trkpt lat="48.60087" lon="-0.41773">
        <ele>222.3</ele>
        <time>2012-02-04T12:28:41Z</time>
      </trkpt>
      <trkpt lat="48.60088" lon="-0.41781">
        <ele>222</ele>
        <time>2012-02-04T12:28:42Z</time>
      </trkpt>
      <trkpt lat="48.6009" lon="-0.41789">
        <ele>222.1</ele>
        <time>2012-02-04T12:28:43Z</time>
      </trkpt>
      <trkpt lat="48.60091" lon="-0.41797">
        <ele>222.2</ele>
        <time>2012-02-04T12:28:44Z</time>
      </trkpt>
      <trkpt lat="48.60093" lon="-0.41805">
        <ele>222.3</ele>
        <time>2012-02-04T12:28:45Z</time>
      </trkpt>
      <trkpt lat="48.60095" lon="-0.41812">
        <ele>221.8</ele>
        <time>2012-02-04T12:28:46Z</time>
      </trkpt>
      <trkpt lat="48.60097" lon="-0.41819">
        <ele>221.5</ele>
        <time>2012-02-04T12:28:47Z</time>
      </trkpt>
      <trkpt lat="48.60101" lon="-0.41831">
        <ele>221.8</ele>
        <time>2012-02-04T12:28:49Z</time>
      </trkpt>
      <trkpt lat="48.60104" lon="-0.41842">
        <ele>221.5</ele>
        <time>2012-02-04T12:28:51Z</time>
      </trkpt>
      <trkpt lat="48.60106" lon="-0.41852">
        <ele>221.4</ele>
        <time>2012-02-04T12:28:53Z</time>
      </trkpt>
      <trkpt lat="48.60108" lon="-0.41864">
        <ele>221.1</ele>
        <time>2012-02-04T12:28:55Z</time>
      </trkpt>
      <trkpt lat="48.60111" lon="-0.41875">
        <ele>220.8</ele>
        <time>2012-02-04T12:28:57Z</time>
      </trkpt>
      <trkpt lat="48.60112" lon="-0.41882">
        <ele>220.7</ele>
        <time>2012-02-04T12:28:58Z</time>
      </trkpt>
      <trkpt lat="48.60113" lon="-0.41888">
        <ele>220.7</ele>
        <time>2012-02-04T12:28:59Z</time>
      </trkpt>
      <trkpt lat="48.60114" lon="-0.41895">
        <ele>220.6</ele>
        <time>2012-02-04T12:29:00Z</time>
      </trkpt>
      <trkpt lat="48.60115" lon="-0.41902">
        <ele>220.6</ele>
        <time>2012-02-04T12:29:01Z</time>
      </trkpt>
      <trkpt lat="48.60118" lon="-0.41921">
        <ele>219.4</ele>
        <time>2012-02-04T12:29:04Z</time>
      </trkpt>
      <trkpt lat="48.60121" lon="-0.41931">
        <ele>219</ele>
        <time>2012-02-04T12:29:06Z</time>
      </trkpt>
      <trkpt lat="48.60123" lon="-0.41945">
        <ele>218.1</ele>
        <time>2012-02-04T12:29:08Z</time>
      </trkpt>
      <trkpt lat="48.60124" lon="-0.41952">
        <ele>217.6</ele>
        <time>2012-02-04T12:29:09Z</time>
      </trkpt>
      <trkpt lat="48.60126" lon="-0.41959">
        <ele>217.2</ele>
        <time>2012-02-04T12:29:10Z</time>
      </trkpt>
      <trkpt lat="48.60127" lon="-0.41969">
        <ele>216.9</ele>
        <time>2012-02-04T12:29:11Z</time>
      </trkpt>
      <trkpt lat="48.60129" lon="-0.41979">
        <ele>216.2</ele>
        <time>2012-02-04T12:29:12Z</time>
      </trkpt>
      <trkpt lat="48.6013" lon="-0.4199">
        <ele>215.7</ele>
        <time>2012-02-04T12:29:13Z</time>
      </trkpt>
      <trkpt lat="48.60132" lon="-0.42">
        <ele>215</ele>
        <time>2012-02-04T12:29:14Z</time>
      </trkpt>
      <trkpt lat="48.60133" lon="-0.42011">
        <ele>214.5</ele>
        <time>2012-02-04T12:29:15Z</time>
      </trkpt>
      <trkpt lat="48.60135" lon="-0.42021">
        <ele>213.8</ele>
        <time>2012-02-04T12:29:16Z</time>
      </trkpt>
      <trkpt lat="48.60137" lon="-0.42031">
        <ele>213.2</ele>
        <time>2012-02-04T12:29:17Z</time>
      </trkpt>
      <trkpt lat="48.60139" lon="-0.4204">
        <ele>212.8</ele>
        <time>2012-02-04T12:29:18Z</time>
      </trkpt>
      <trkpt lat="48.60141" lon="-0.42048">
        <ele>212.9</ele>
        <time>2012-02-04T12:29:19Z</time>
      </trkpt>
      <trkpt lat="48.60142" lon="-0.42055">
        <ele>213</ele>
        <time>2012-02-04T12:29:20Z</time>
      </trkpt>
      <trkpt lat="48.60143" lon="-0.42063">
        <ele>213</ele>
        <time>2012-02-04T12:29:21Z</time>
      </trkpt>
      <trkpt lat="48.60145" lon="-0.42071">
        <ele>213</ele>
        <time>2012-02-04T12:29:22Z</time>
      </trkpt>
      <trkpt lat="48.60146" lon="-0.42078">
        <ele>213</ele>
        <time>2012-02-04T12:29:23Z</time>
      </trkpt>
      <trkpt lat="48.60148" lon="-0.42085">
        <ele>212.9</ele>
        <time>2012-02-04T12:29:24Z</time>
      </trkpt>
      <trkpt lat="48.6015" lon="-0.42098">
        <ele>212.9</ele>
        <time>2012-02-04T12:29:26Z</time>
      </trkpt>
      <trkpt lat="48.60151" lon="-0.4211">
        <ele>213</ele>
        <time>2012-02-04T12:29:28Z</time>
      </trkpt>
      <trkpt lat="48.60152" lon="-0.4212">
        <ele>213</ele>
        <time>2012-02-04T12:29:30Z</time>
      </trkpt>
      <trkpt lat="48.60153" lon="-0.42129">
        <ele>213.6</ele>
        <time>2012-02-04T12:29:32Z</time>
      </trkpt>
      <trkpt lat="48.60154" lon="-0.42139">
        <ele>214.2</ele>
        <time>2012-02-04T12:29:34Z</time>
      </trkpt>
      <trkpt lat="48.60156" lon="-0.42149">
        <ele>214.2</ele>
        <time>2012-02-04T12:29:36Z</time>
      </trkpt>
      <trkpt lat="48.60158" lon="-0.42161">
        <ele>214.2</ele>
        <time>2012-02-04T12:29:38Z</time>
      </trkpt>
      <trkpt lat="48.6016" lon="-0.42173">
        <ele>214</ele>
        <time>2012-02-04T12:29:40Z</time>
      </trkpt>
      <trkpt lat="48.60161" lon="-0.42185">
        <ele>213.5</ele>
        <time>2012-02-04T12:29:42Z</time>
      </trkpt>
      <trkpt lat="48.60162" lon="-0.42196">
        <ele>213.5</ele>
        <time>2012-02-04T12:29:44Z</time>
      </trkpt>
      <trkpt lat="48.60161" lon="-0.42208">
        <ele>213.4</ele>
        <time>2012-02-04T12:29:46Z</time>
      </trkpt>
      <trkpt lat="48.60158" lon="-0.4222">
        <ele>212.9</ele>
        <time>2012-02-04T12:29:48Z</time>
      </trkpt>
      <trkpt lat="48.60153" lon="-0.42232">
        <ele>212.5</ele>
        <time>2012-02-04T12:29:50Z</time>
      </trkpt>
      <trkpt lat="48.60151" lon="-0.42238">
        <ele>212.3</ele>
        <time>2012-02-04T12:29:51Z</time>
      </trkpt>
      <trkpt lat="48.60149" lon="-0.42244">
        <ele>212.2</ele>
        <time>2012-02-04T12:29:52Z</time>
      </trkpt>
      <trkpt lat="48.60145" lon="-0.42255">
        <ele>212.2</ele>
        <time>2012-02-04T12:29:54Z</time>
      </trkpt>
      <trkpt lat="48.6014" lon="-0.42266">
        <ele>212.1</ele>
        <time>2012-02-04T12:29:56Z</time>
      </trkpt>
      <trkpt lat="48.60136" lon="-0.42278">
        <ele>211.8</ele>
        <time>2012-02-04T12:29:58Z</time>
      </trkpt>
      <trkpt lat="48.60132" lon="-0.4229">
        <ele>211.7</ele>
        <time>2012-02-04T12:30:00Z</time>
      </trkpt>
      <trkpt lat="48.60127" lon="-0.42301">
        <ele>211.7</ele>
        <time>2012-02-04T12:30:02Z</time>
      </trkpt>
      <trkpt lat="48.60124" lon="-0.42307">
        <ele>211.8</ele>
        <time>2012-02-04T12:30:03Z</time>
      </trkpt>
      <trkpt lat="48.60118" lon="-0.42324">
        <ele>211.9</ele>
        <time>2012-02-04T12:30:06Z</time>
      </trkpt>
      <trkpt lat="48.60113" lon="-0.42335">
        <ele>211.7</ele>
        <time>2012-02-04T12:30:08Z</time>
      </trkpt>
      <trkpt lat="48.60109" lon="-0.42347">
        <ele>211.7</ele>
        <time>2012-02-04T12:30:10Z</time>
      </trkpt>
      <trkpt lat="48.60105" lon="-0.42358">
        <ele>211.3</ele>
        <time>2012-02-04T12:30:12Z</time>
      </trkpt>
      <trkpt lat="48.60101" lon="-0.42365">
        <ele>211.2</ele>
        <time>2012-02-04T12:30:14Z</time>
      </trkpt>
      <trkpt lat="48.60094" lon="-0.42373">
        <ele>211.3</ele>
        <time>2012-02-04T12:30:17Z</time>
      </trkpt>
      <trkpt lat="48.60087" lon="-0.42376">
        <ele>211</ele>
        <time>2012-02-04T12:30:20Z</time>
      </trkpt>
      <trkpt lat="48.6008" lon="-0.4238">
        <ele>211.1</ele>
        <time>2012-02-04T12:30:23Z</time>
      </trkpt>
      <trkpt lat="48.60072" lon="-0.42381">
        <ele>212.2</ele>
        <time>2012-02-04T12:30:27Z</time>
      </trkpt>
      <trkpt lat="48.60064" lon="-0.42381">
        <ele>212.7</ele>
        <time>2012-02-04T12:30:30Z</time>
      </trkpt>
      <trkpt lat="48.60056" lon="-0.42381">
        <ele>213.6</ele>
        <time>2012-02-04T12:30:33Z</time>
      </trkpt>
      <trkpt lat="48.60048" lon="-0.42379">
        <ele>214.4</ele>
        <time>2012-02-04T12:30:36Z</time>
      </trkpt>
      <trkpt lat="48.6004" lon="-0.42374">
        <ele>215.5</ele>
        <time>2012-02-04T12:30:39Z</time>
      </trkpt>
      <trkpt lat="48.60033" lon="-0.42367">
        <ele>216.5</ele>
        <time>2012-02-04T12:30:55Z</time>
      </trkpt>
      <trkpt lat="48.60027" lon="-0.42357">
        <ele>215.8</ele>
        <time>2012-02-04T12:30:59Z</time>
      </trkpt>
      <trkpt lat="48.60023" lon="-0.42348">
        <ele>215.3</ele>
        <time>2012-02-04T12:31:01Z</time>
      </trkpt>
      <trkpt lat="48.60018" lon="-0.42339">
        <ele>215</ele>
        <time>2012-02-04T12:31:03Z</time>
      </trkpt>
      <trkpt lat="48.60015" lon="-0.42336">
        <ele>214.9</ele>
        <time>2012-02-04T12:31:04Z</time>
      </trkpt>
      <trkpt lat="48.60007" lon="-0.42328">
        <ele>215</ele>
        <time>2012-02-04T12:31:07Z</time>
      </trkpt>
      <trkpt lat="48.6" lon="-0.42326">
        <ele>214.5</ele>
        <time>2012-02-04T12:31:09Z</time>
      </trkpt>
      <trkpt lat="48.59993" lon="-0.42323">
        <ele>214.6</ele>
        <time>2012-02-04T12:31:11Z</time>
      </trkpt>
      <trkpt lat="48.59987" lon="-0.42317">
        <ele>215.1</ele>
        <time>2012-02-04T12:31:13Z</time>
      </trkpt>
      <trkpt lat="48.59983" lon="-0.42308">
        <ele>215.1</ele>
        <time>2012-02-04T12:31:15Z</time>
      </trkpt>
      <trkpt lat="48.59978" lon="-0.42298">
        <ele>214.7</ele>
        <time>2012-02-04T12:31:17Z</time>
      </trkpt>
      <trkpt lat="48.59976" lon="-0.42291">
        <ele>214.7</ele>
        <time>2012-02-04T12:31:18Z</time>
      </trkpt>
      <trkpt lat="48.59973" lon="-0.42285">
        <ele>214.7</ele>
        <time>2012-02-04T12:31:19Z</time>
      </trkpt>
      <trkpt lat="48.59971" lon="-0.42279">
        <ele>214.4</ele>
        <time>2012-02-04T12:31:20Z</time>
      </trkpt>
      <trkpt lat="48.59968" lon="-0.42266">
        <ele>213.7</ele>
        <time>2012-02-04T12:31:22Z</time>
      </trkpt>
      <trkpt lat="48.59964" lon="-0.42256">
        <ele>213.1</ele>
        <time>2012-02-04T12:31:24Z</time>
      </trkpt>
      <trkpt lat="48.59958" lon="-0.42247">
        <ele>211.9</ele>
        <time>2012-02-04T12:31:27Z</time>
      </trkpt>
      <trkpt lat="48.59951" lon="-0.42243">
        <ele>211.3</ele>
        <time>2012-02-04T12:31:30Z</time>
      </trkpt>
      <trkpt lat="48.59943" lon="-0.42238">
        <ele>211.1</ele>
        <time>2012-02-04T12:31:33Z</time>
      </trkpt>
      <trkpt lat="48.59937" lon="-0.42235">
        <ele>211.1</ele>
        <time>2012-02-04T12:31:35Z</time>
      </trkpt>
      <trkpt lat="48.59929" lon="-0.42232">
        <ele>211.5</ele>
        <time>2012-02-04T12:31:37Z</time>
      </trkpt>
      <trkpt lat="48.59922" lon="-0.42227">
        <ele>211.7</ele>
        <time>2012-02-04T12:31:39Z</time>
      </trkpt>
      <trkpt lat="48.59914" lon="-0.42223">
        <ele>211.7</ele>
        <time>2012-02-04T12:31:41Z</time>
      </trkpt>
      <trkpt lat="48.59906" lon="-0.4222">
        <ele>211.8</ele>
        <time>2012-02-04T12:31:43Z</time>
      </trkpt>
      <trkpt lat="48.599" lon="-0.42219">
        <ele>211.8</ele>
        <time>2012-02-04T12:31:45Z</time>
      </trkpt>
      <trkpt lat="48.59891" lon="-0.42217">
        <ele>212.3</ele>
        <time>2012-02-04T12:31:48Z</time>
      </trkpt>
      <trkpt lat="48.59885" lon="-0.42215">
        <ele>212.5</ele>
        <time>2012-02-04T12:31:50Z</time>
      </trkpt>
      <trkpt lat="48.59879" lon="-0.42213">
        <ele>212.5</ele>
        <time>2012-02-04T12:31:52Z</time>
      </trkpt>
      <trkpt lat="48.59873" lon="-0.42213">
        <ele>212.1</ele>
        <time>2012-02-04T12:31:54Z</time>
      </trkpt>
      <trkpt lat="48.59865" lon="-0.42213">
        <ele>212.4</ele>
        <time>2012-02-04T12:31:56Z</time>
      </trkpt>
      <trkpt lat="48.59858" lon="-0.42213">
        <ele>212.5</ele>
        <time>2012-02-04T12:31:58Z</time>
      </trkpt>
      <trkpt lat="48.59852" lon="-0.42213">
        <ele>212.6</ele>
        <time>2012-02-04T12:32:00Z</time>
      </trkpt>
      <trkpt lat="48.59845" lon="-0.42213">
        <ele>212.7</ele>
        <time>2012-02-04T12:32:02Z</time>
      </trkpt>
      <trkpt lat="48.59838" lon="-0.42212">
        <ele>212.9</ele>
        <time>2012-02-04T12:32:04Z</time>
      </trkpt>
      <trkpt lat="48.59834" lon="-0.42211">
        <ele>212.6</ele>
        <time>2012-02-04T12:32:05Z</time>
      </trkpt>
      <trkpt lat="48.59823" lon="-0.42209">
        <ele>212.2</ele>
        <time>2012-02-04T12:32:08Z</time>
      </trkpt>
      <trkpt lat="48.59816" lon="-0.42208">
        <ele>212.1</ele>
        <time>2012-02-04T12:32:10Z</time>
      </trkpt>
      <trkpt lat="48.5981" lon="-0.42208">
        <ele>212.4</ele>
        <time>2012-02-04T12:32:12Z</time>
      </trkpt>
      <trkpt lat="48.59803" lon="-0.42208">
        <ele>212.8</ele>
        <time>2012-02-04T12:32:14Z</time>
      </trkpt>
      <trkpt lat="48.59797" lon="-0.42208">
        <ele>212.4</ele>
        <time>2012-02-04T12:32:16Z</time>
      </trkpt>
      <trkpt lat="48.5979" lon="-0.42207">
        <ele>212.9</ele>
        <time>2012-02-04T12:32:18Z</time>
      </trkpt>
      <trkpt lat="48.59784" lon="-0.42207">
        <ele>212.6</ele>
        <time>2012-02-04T12:32:20Z</time>
      </trkpt>
      <trkpt lat="48.59777" lon="-0.42207">
        <ele>212.4</ele>
        <time>2012-02-04T12:32:22Z</time>
      </trkpt>
      <trkpt lat="48.59771" lon="-0.42207">
        <ele>212.6</ele>
        <time>2012-02-04T12:32:24Z</time>
      </trkpt>
      <trkpt lat="48.59763" lon="-0.42207">
        <ele>212.7</ele>
        <time>2012-02-04T12:32:26Z</time>
      </trkpt>
      <trkpt lat="48.59756" lon="-0.42207">
        <ele>212.7</ele>
        <time>2012-02-04T12:32:28Z</time>
      </trkpt>
      <trkpt lat="48.59748" lon="-0.42208">
        <ele>212.6</ele>
        <time>2012-02-04T12:32:30Z</time>
      </trkpt>
      <trkpt lat="48.59742" lon="-0.4221">
        <ele>212.1</ele>
        <time>2012-02-04T12:32:32Z</time>
      </trkpt>
      <trkpt lat="48.59736" lon="-0.42211">
        <ele>212</ele>
        <time>2012-02-04T12:32:34Z</time>
      </trkpt>
      <trkpt lat="48.5973" lon="-0.42211">
        <ele>212.1</ele>
        <time>2012-02-04T12:32:36Z</time>
      </trkpt>
      <trkpt lat="48.59723" lon="-0.42213">
        <ele>212.4</ele>
        <time>2012-02-04T12:32:38Z</time>
      </trkpt>
      <trkpt lat="48.59717" lon="-0.42213">
        <ele>212.6</ele>
        <time>2012-02-04T12:32:40Z</time>
      </trkpt>
      <trkpt lat="48.5971" lon="-0.42216">
        <ele>212.7</ele>
        <time>2012-02-04T12:32:42Z</time>
      </trkpt>
      <trkpt lat="48.59704" lon="-0.4222">
        <ele>212.6</ele>
        <time>2012-02-04T12:32:44Z</time>
      </trkpt>
      <trkpt lat="48.59696" lon="-0.42222">
        <ele>212.6</ele>
        <time>2012-02-04T12:32:46Z</time>
      </trkpt>
      <trkpt lat="48.59689" lon="-0.42224">
        <ele>212.7</ele>
        <time>2012-02-04T12:32:48Z</time>
      </trkpt>
      <trkpt lat="48.59682" lon="-0.42227">
        <ele>213</ele>
        <time>2012-02-04T12:32:50Z</time>
      </trkpt>
      <trkpt lat="48.59675" lon="-0.42231">
        <ele>213.3</ele>
        <time>2012-02-04T12:32:52Z</time>
      </trkpt>
      <trkpt lat="48.59669" lon="-0.42237">
        <ele>213.2</ele>
        <time>2012-02-04T12:32:54Z</time>
      </trkpt>
      <trkpt lat="48.59665" lon="-0.42246">
        <ele>213.6</ele>
        <time>2012-02-04T12:32:56Z</time>
      </trkpt>
      <trkpt lat="48.59664" lon="-0.42255">
        <ele>213.9</ele>
        <time>2012-02-04T12:32:58Z</time>
      </trkpt>
      <trkpt lat="48.59661" lon="-0.42267">
        <ele>214.1</ele>
        <time>2012-02-04T12:33:01Z</time>
      </trkpt>
      <trkpt lat="48.59657" lon="-0.4228">
        <ele>214.9</ele>
        <time>2012-02-04T12:33:04Z</time>
      </trkpt>
      <trkpt lat="48.59655" lon="-0.42291">
        <ele>215.4</ele>
        <time>2012-02-04T12:33:07Z</time>
      </trkpt>
      <trkpt lat="48.59654" lon="-0.42295">
        <ele>215.6</ele>
        <time>2012-02-04T12:33:08Z</time>
      </trkpt>
      <trkpt lat="48.5965" lon="-0.42314">
        <ele>217.3</ele>
        <time>2012-02-04T12:33:13Z</time>
      </trkpt>
      <trkpt lat="48.59648" lon="-0.42325">
        <ele>218.3</ele>
        <time>2012-02-04T12:33:16Z</time>
      </trkpt>
      <trkpt lat="48.59645" lon="-0.42337">
        <ele>219.3</ele>
        <time>2012-02-04T12:33:19Z</time>
      </trkpt>
      <trkpt lat="48.59643" lon="-0.42349">
        <ele>220</ele>
        <time>2012-02-04T12:33:22Z</time>
      </trkpt>
      <trkpt lat="48.5964" lon="-0.42361">
        <ele>220.6</ele>
        <time>2012-02-04T12:33:25Z</time>
      </trkpt>
      <trkpt lat="48.59637" lon="-0.42373">
        <ele>221.7</ele>
        <time>2012-02-04T12:33:28Z</time>
      </trkpt>
      <trkpt lat="48.59638" lon="-0.42385">
        <ele>223</ele>
        <time>2012-02-04T12:33:32Z</time>
      </trkpt>
      <trkpt lat="48.59645" lon="-0.42389">
        <ele>223.2</ele>
        <time>2012-02-04T12:33:35Z</time>
      </trkpt>
      <trkpt lat="48.59651" lon="-0.42393">
        <ele>223.2</ele>
        <time>2012-02-04T12:33:38Z</time>
      </trkpt>
      <trkpt lat="48.59659" lon="-0.42397">
        <ele>224</ele>
        <time>2012-02-04T12:33:41Z</time>
      </trkpt>
      <trkpt lat="48.59667" lon="-0.42401">
        <ele>224</ele>
        <time>2012-02-04T12:33:44Z</time>
      </trkpt>
      <trkpt lat="48.59676" lon="-0.42405">
        <ele>225.1</ele>
        <time>2012-02-04T12:34:53Z</time>
      </trkpt>
      <trkpt lat="48.59677" lon="-0.42406">
        <ele>225.4</ele>
        <time>2012-02-04T12:34:54Z</time>
      </trkpt>
      <trkpt lat="48.59691" lon="-0.42412">
        <ele>225.2</ele>
        <time>2012-02-04T12:35:00Z</time>
      </trkpt>
      <trkpt lat="48.59699" lon="-0.42416">
        <ele>225.2</ele>
        <time>2012-02-04T12:35:03Z</time>
      </trkpt>
      <trkpt lat="48.59705" lon="-0.42419">
        <ele>225.2</ele>
        <time>2012-02-04T12:35:05Z</time>
      </trkpt>
      <trkpt lat="48.59713" lon="-0.42423">
        <ele>225.6</ele>
        <time>2012-02-04T12:35:08Z</time>
      </trkpt>
      <trkpt lat="48.5972" lon="-0.42426">
        <ele>225.6</ele>
        <time>2012-02-04T12:35:11Z</time>
      </trkpt>
      <trkpt lat="48.59728" lon="-0.4243">
        <ele>225.4</ele>
        <time>2012-02-04T12:35:14Z</time>
      </trkpt>
      <trkpt lat="48.59736" lon="-0.42434">
        <ele>226</ele>
        <time>2012-02-04T12:35:17Z</time>
      </trkpt>
      <trkpt lat="48.59744" lon="-0.42438">
        <ele>226.2</ele>
        <time>2012-02-04T12:35:20Z</time>
      </trkpt>
      <trkpt lat="48.59752" lon="-0.42442">
        <ele>225.8</ele>
        <time>2012-02-04T12:35:23Z</time>
      </trkpt>
      <trkpt lat="48.5976" lon="-0.42446">
        <ele>226</ele>
        <time>2012-02-04T12:35:26Z</time>
      </trkpt>
      <trkpt lat="48.59767" lon="-0.4245">
        <ele>226.3</ele>
        <time>2012-02-04T12:35:29Z</time>
      </trkpt>
      <trkpt lat="48.59775" lon="-0.42453">
        <ele>226.4</ele>
        <time>2012-02-04T12:35:32Z</time>
      </trkpt>
      <trkpt lat="48.59783" lon="-0.42458">
        <ele>226.7</ele>
        <time>2012-02-04T12:35:35Z</time>
      </trkpt>
      <trkpt lat="48.59791" lon="-0.42461">
        <ele>227.4</ele>
        <time>2012-02-04T12:35:39Z</time>
      </trkpt>
      <trkpt lat="48.59788" lon="-0.42471">
        <ele>227.3</ele>
        <time>2012-02-04T12:35:48Z</time>
      </trkpt>
      <trkpt lat="48.5978" lon="-0.42477">
        <ele>227.7</ele>
        <time>2012-02-04T12:35:52Z</time>
      </trkpt>
      <trkpt lat="48.59772" lon="-0.42482">
        <ele>228</ele>
        <time>2012-02-04T12:35:56Z</time>
      </trkpt>
      <trkpt lat="48.5977" lon="-0.42483">
        <ele>228</ele>
        <time>2012-02-04T12:35:57Z</time>
      </trkpt>
      <trkpt lat="48.59759" lon="-0.42491">
        <ele>228.7</ele>
        <time>2012-02-04T12:36:02Z</time>
      </trkpt>
      <trkpt lat="48.59751" lon="-0.42495">
        <ele>229</ele>
        <time>2012-02-04T12:36:06Z</time>
      </trkpt>
      <trkpt lat="48.59744" lon="-0.42498">
        <ele>229.3</ele>
        <time>2012-02-04T12:36:09Z</time>
      </trkpt>
      <trkpt lat="48.59736" lon="-0.42501">
        <ele>229.3</ele>
        <time>2012-02-04T12:36:12Z</time>
      </trkpt>
      <trkpt lat="48.59728" lon="-0.42505">
        <ele>229.6</ele>
        <time>2012-02-04T12:36:15Z</time>
      </trkpt>
      <trkpt lat="48.5972" lon="-0.42509">
        <ele>230.2</ele>
        <time>2012-02-04T12:36:18Z</time>
      </trkpt>
      <trkpt lat="48.59712" lon="-0.42512">
        <ele>230.7</ele>
        <time>2012-02-04T12:36:21Z</time>
      </trkpt>
      <trkpt lat="48.59703" lon="-0.42515">
        <ele>231</ele>
        <time>2012-02-04T12:36:24Z</time>
      </trkpt>
      <trkpt lat="48.59695" lon="-0.42515">
        <ele>231.7</ele>
        <time>2012-02-04T12:36:27Z</time>
      </trkpt>
      <trkpt lat="48.59686" lon="-0.42513">
        <ele>232.8</ele>
        <time>2012-02-04T12:36:31Z</time>
      </trkpt>
      <trkpt lat="48.59678" lon="-0.4251">
        <ele>234.2</ele>
        <time>2012-02-04T12:36:43Z</time>
      </trkpt>
      <trkpt lat="48.59669" lon="-0.42506">
        <ele>234.5</ele>
        <time>2012-02-04T12:36:52Z</time>
      </trkpt>
      <trkpt lat="48.59662" lon="-0.42503">
        <ele>235.9</ele>
        <time>2012-02-04T12:37:01Z</time>
      </trkpt>
      <trkpt lat="48.5966" lon="-0.42502">
        <ele>235.9</ele>
        <time>2012-02-04T12:37:02Z</time>
      </trkpt>
      <trkpt lat="48.59647" lon="-0.42494">
        <ele>237.4</ele>
        <time>2012-02-04T12:37:09Z</time>
      </trkpt>
      <trkpt lat="48.5964" lon="-0.42491">
        <ele>238.3</ele>
        <time>2012-02-04T12:37:12Z</time>
      </trkpt>
      <trkpt lat="48.59634" lon="-0.42485">
        <ele>239</ele>
        <time>2012-02-04T12:37:15Z</time>
      </trkpt>
      <trkpt lat="48.59626" lon="-0.42481">
        <ele>239.8</ele>
        <time>2012-02-04T12:37:18Z</time>
      </trkpt>
      <trkpt lat="48.59619" lon="-0.42488">
        <ele>240.9</ele>
        <time>2012-02-04T12:37:23Z</time>
      </trkpt>
      <trkpt lat="48.59616" lon="-0.42499">
        <ele>241.4</ele>
        <time>2012-02-04T12:37:27Z</time>
      </trkpt>
      <trkpt lat="48.59613" lon="-0.42508">
        <ele>242.5</ele>
        <time>2012-02-04T12:37:30Z</time>
      </trkpt>
      <trkpt lat="48.59611" lon="-0.42518">
        <ele>243.5</ele>
        <time>2012-02-04T12:37:33Z</time>
      </trkpt>
      <trkpt lat="48.59608" lon="-0.42529">
        <ele>244.4</ele>
        <time>2012-02-04T12:37:36Z</time>
      </trkpt>
      <trkpt lat="48.59606" lon="-0.4254">
        <ele>245.2</ele>
        <time>2012-02-04T12:37:39Z</time>
      </trkpt>
      <trkpt lat="48.59603" lon="-0.42551">
        <ele>246.2</ele>
        <time>2012-02-04T12:37:42Z</time>
      </trkpt>
      <trkpt lat="48.596" lon="-0.42564">
        <ele>247.3</ele>
        <time>2012-02-04T12:37:46Z</time>
      </trkpt>
      <trkpt lat="48.59597" lon="-0.42576">
        <ele>247.1</ele>
        <time>2012-02-04T12:37:50Z</time>
      </trkpt>
      <trkpt lat="48.59594" lon="-0.42588">
        <ele>246.9</ele>
        <time>2012-02-04T12:37:53Z</time>
      </trkpt>
      <trkpt lat="48.59592" lon="-0.42597">
        <ele>246.8</ele>
        <time>2012-02-04T12:37:55Z</time>
      </trkpt>
      <trkpt lat="48.59589" lon="-0.42608">
        <ele>246.4</ele>
        <time>2012-02-04T12:37:57Z</time>
      </trkpt>
      <trkpt lat="48.59586" lon="-0.42619">
        <ele>244.8</ele>
        <time>2012-02-04T12:38:00Z</time>
      </trkpt>
      <trkpt lat="48.59584" lon="-0.42631">
        <ele>243.7</ele>
        <time>2012-02-04T12:38:03Z</time>
      </trkpt>
      <trkpt lat="48.59583" lon="-0.42635">
        <ele>243.7</ele>
        <time>2012-02-04T12:38:04Z</time>
      </trkpt>
      <trkpt lat="48.5958" lon="-0.42652">
        <ele>242.7</ele>
        <time>2012-02-04T12:38:09Z</time>
      </trkpt>
      <trkpt lat="48.59578" lon="-0.42661">
        <ele>241.3</ele>
        <time>2012-02-04T12:38:15Z</time>
      </trkpt>
      <trkpt lat="48.59576" lon="-0.4267">
        <ele>241.4</ele>
        <time>2012-02-04T12:38:17Z</time>
      </trkpt>
      <trkpt lat="48.59574" lon="-0.42682">
        <ele>240.3</ele>
        <time>2012-02-04T12:38:19Z</time>
      </trkpt>
      <trkpt lat="48.59572" lon="-0.42692">
        <ele>240.4</ele>
        <time>2012-02-04T12:38:21Z</time>
      </trkpt>
      <trkpt lat="48.5957" lon="-0.42701">
        <ele>240.1</ele>
        <time>2012-02-04T12:38:23Z</time>
      </trkpt>
      <trkpt lat="48.59568" lon="-0.42714">
        <ele>239.3</ele>
        <time>2012-02-04T12:38:26Z</time>
      </trkpt>
      <trkpt lat="48.59566" lon="-0.42725">
        <ele>239.4</ele>
        <time>2012-02-04T12:38:29Z</time>
      </trkpt>
      <trkpt lat="48.59565" lon="-0.42734">
        <ele>238.5</ele>
        <time>2012-02-04T12:38:32Z</time>
      </trkpt>
      <trkpt lat="48.59563" lon="-0.42747">
        <ele>237.8</ele>
        <time>2012-02-04T12:38:35Z</time>
      </trkpt>
      <trkpt lat="48.59561" lon="-0.42756">
        <ele>237.3</ele>
        <time>2012-02-04T12:38:37Z</time>
      </trkpt>
      <trkpt lat="48.59559" lon="-0.42766">
        <ele>237.1</ele>
        <time>2012-02-04T12:38:39Z</time>
      </trkpt>
      <trkpt lat="48.59557" lon="-0.42777">
        <ele>237.1</ele>
        <time>2012-02-04T12:38:41Z</time>
      </trkpt>
      <trkpt lat="48.59556" lon="-0.42787">
        <ele>236.4</ele>
        <time>2012-02-04T12:38:43Z</time>
      </trkpt>
      <trkpt lat="48.59553" lon="-0.42795">
        <ele>235.9</ele>
        <time>2012-02-04T12:38:45Z</time>
      </trkpt>
      <trkpt lat="48.59551" lon="-0.42805">
        <ele>235.7</ele>
        <time>2012-02-04T12:38:47Z</time>
      </trkpt>
      <trkpt lat="48.59548" lon="-0.42817">
        <ele>235.6</ele>
        <time>2012-02-04T12:38:49Z</time>
      </trkpt>
      <trkpt lat="48.59546" lon="-0.42828">
        <ele>234.9</ele>
        <time>2012-02-04T12:38:51Z</time>
      </trkpt>
      <trkpt lat="48.59544" lon="-0.4284">
        <ele>233.9</ele>
        <time>2012-02-04T12:38:53Z</time>
      </trkpt>
      <trkpt lat="48.59541" lon="-0.42851">
        <ele>233.2</ele>
        <time>2012-02-04T12:38:55Z</time>
      </trkpt>
      <trkpt lat="48.59538" lon="-0.42862">
        <ele>233.3</ele>
        <time>2012-02-04T12:38:57Z</time>
      </trkpt>
      <trkpt lat="48.59536" lon="-0.42873">
        <ele>232.7</ele>
        <time>2012-02-04T12:38:59Z</time>
      </trkpt>
      <trkpt lat="48.59534" lon="-0.42884">
        <ele>232.3</ele>
        <time>2012-02-04T12:39:01Z</time>
      </trkpt>
      <trkpt lat="48.59531" lon="-0.42895">
        <ele>232</ele>
        <time>2012-02-04T12:39:03Z</time>
      </trkpt>
      <trkpt lat="48.59529" lon="-0.42906">
        <ele>231.9</ele>
        <time>2012-02-04T12:39:05Z</time>
      </trkpt>
      <trkpt lat="48.59528" lon="-0.42912">
        <ele>231.8</ele>
        <time>2012-02-04T12:39:06Z</time>
      </trkpt>
      <trkpt lat="48.59524" lon="-0.42928">
        <ele>231.4</ele>
        <time>2012-02-04T12:39:09Z</time>
      </trkpt>
      <trkpt lat="48.59522" lon="-0.42938">
        <ele>231.2</ele>
        <time>2012-02-04T12:39:11Z</time>
      </trkpt>
      <trkpt lat="48.59519" lon="-0.4295">
        <ele>230.5</ele>
        <time>2012-02-04T12:39:13Z</time>
      </trkpt>
      <trkpt lat="48.59517" lon="-0.42962">
        <ele>230.2</ele>
        <time>2012-02-04T12:39:15Z</time>
      </trkpt>
      <trkpt lat="48.59514" lon="-0.42975">
        <ele>229.9</ele>
        <time>2012-02-04T12:39:17Z</time>
      </trkpt>
      <trkpt lat="48.59511" lon="-0.42986">
        <ele>229.8</ele>
        <time>2012-02-04T12:39:19Z</time>
      </trkpt>
      <trkpt lat="48.59508" lon="-0.42999">
        <ele>229.7</ele>
        <time>2012-02-04T12:39:21Z</time>
      </trkpt>
      <trkpt lat="48.59505" lon="-0.43012">
        <ele>229.2</ele>
        <time>2012-02-04T12:39:23Z</time>
      </trkpt>
      <trkpt lat="48.59503" lon="-0.43019">
        <ele>229</ele>
        <time>2012-02-04T12:39:24Z</time>
      </trkpt>
      <trkpt lat="48.59502" lon="-0.43025">
        <ele>228.9</ele>
        <time>2012-02-04T12:39:25Z</time>
      </trkpt>
      <trkpt lat="48.59501" lon="-0.43032">
        <ele>228.7</ele>
        <time>2012-02-04T12:39:26Z</time>
      </trkpt>
      <trkpt lat="48.59499" lon="-0.43039">
        <ele>228.6</ele>
        <time>2012-02-04T12:39:27Z</time>
      </trkpt>
      <trkpt lat="48.59498" lon="-0.43047">
        <ele>228.6</ele>
        <time>2012-02-04T12:39:28Z</time>
      </trkpt>
      <trkpt lat="48.59496" lon="-0.43054">
        <ele>228.2</ele>
        <time>2012-02-04T12:39:29Z</time>
      </trkpt>
      <trkpt lat="48.59495" lon="-0.43062">
        <ele>227.9</ele>
        <time>2012-02-04T12:39:30Z</time>
      </trkpt>
      <trkpt lat="48.59493" lon="-0.4307">
        <ele>227.7</ele>
        <time>2012-02-04T12:39:31Z</time>
      </trkpt>
      <trkpt lat="48.59492" lon="-0.43077">
        <ele>227.6</ele>
        <time>2012-02-04T12:39:32Z</time>
      </trkpt>
      <trkpt lat="48.5949" lon="-0.43085">
        <ele>227.5</ele>
        <time>2012-02-04T12:39:33Z</time>
      </trkpt>
      <trkpt lat="48.59488" lon="-0.43096">
        <ele>226.8</ele>
        <time>2012-02-04T12:39:35Z</time>
      </trkpt>
      <trkpt lat="48.59486" lon="-0.43106">
        <ele>226.8</ele>
        <time>2012-02-04T12:39:37Z</time>
      </trkpt>
      <trkpt lat="48.59484" lon="-0.43115">
        <ele>226.4</ele>
        <time>2012-02-04T12:39:39Z</time>
      </trkpt>
      <trkpt lat="48.59482" lon="-0.43126">
        <ele>226.3</ele>
        <time>2012-02-04T12:39:41Z</time>
      </trkpt>
      <trkpt lat="48.5948" lon="-0.43137">
        <ele>226.6</ele>
        <time>2012-02-04T12:39:43Z</time>
      </trkpt>
      <trkpt lat="48.59478" lon="-0.43147">
        <ele>226.7</ele>
        <time>2012-02-04T12:39:45Z</time>
      </trkpt>
      <trkpt lat="48.59475" lon="-0.43157">
        <ele>226.2</ele>
        <time>2012-02-04T12:39:47Z</time>
      </trkpt>
      <trkpt lat="48.59473" lon="-0.43167">
        <ele>226.8</ele>
        <time>2012-02-04T12:39:49Z</time>
      </trkpt>
      <trkpt lat="48.59471" lon="-0.43178">
        <ele>226.9</ele>
        <time>2012-02-04T12:39:51Z</time>
      </trkpt>
      <trkpt lat="48.59469" lon="-0.43188">
        <ele>227.1</ele>
        <time>2012-02-04T12:39:53Z</time>
      </trkpt>
      <trkpt lat="48.59467" lon="-0.432">
        <ele>227.4</ele>
        <time>2012-02-04T12:39:55Z</time>
      </trkpt>
      <trkpt lat="48.59465" lon="-0.4321">
        <ele>227.6</ele>
        <time>2012-02-04T12:39:57Z</time>
      </trkpt>
      <trkpt lat="48.59462" lon="-0.43221">
        <ele>227.5</ele>
        <time>2012-02-04T12:39:59Z</time>
      </trkpt>
      <trkpt lat="48.5946" lon="-0.43232">
        <ele>228.2</ele>
        <time>2012-02-04T12:40:01Z</time>
      </trkpt>
      <trkpt lat="48.59457" lon="-0.43242">
        <ele>228.3</ele>
        <time>2012-02-04T12:40:03Z</time>
      </trkpt>
      <trkpt lat="48.59455" lon="-0.43253">
        <ele>228.3</ele>
        <time>2012-02-04T12:40:05Z</time>
      </trkpt>
      <trkpt lat="48.59452" lon="-0.43264">
        <ele>228.8</ele>
        <time>2012-02-04T12:40:07Z</time>
      </trkpt>
      <trkpt lat="48.59451" lon="-0.43269">
        <ele>229.1</ele>
        <time>2012-02-04T12:40:08Z</time>
      </trkpt>
      <trkpt lat="48.59448" lon="-0.43285">
        <ele>228.9</ele>
        <time>2012-02-04T12:40:11Z</time>
      </trkpt>
      <trkpt lat="48.59448" lon="-0.43298">
        <ele>229.7</ele>
        <time>2012-02-04T12:40:14Z</time>
      </trkpt>
      <trkpt lat="48.59445" lon="-0.43308">
        <ele>229.8</ele>
        <time>2012-02-04T12:40:17Z</time>
      </trkpt>
      <trkpt lat="48.59442" lon="-0.43321">
        <ele>229.8</ele>
        <time>2012-02-04T12:40:20Z</time>
      </trkpt>
      <trkpt lat="48.59441" lon="-0.43333">
        <ele>230.7</ele>
        <time>2012-02-04T12:40:23Z</time>
      </trkpt>
      <trkpt lat="48.59439" lon="-0.43343">
        <ele>231.4</ele>
        <time>2012-02-04T12:40:25Z</time>
      </trkpt>
      <trkpt lat="48.59436" lon="-0.43355">
        <ele>231.1</ele>
        <time>2012-02-04T12:40:28Z</time>
      </trkpt>
      <trkpt lat="48.59434" lon="-0.43363">
        <ele>230.9</ele>
        <time>2012-02-04T12:40:30Z</time>
      </trkpt>
      <trkpt lat="48.59432" lon="-0.43374">
        <ele>230.6</ele>
        <time>2012-02-04T12:40:32Z</time>
      </trkpt>
      <trkpt lat="48.5943" lon="-0.43386">
        <ele>230.7</ele>
        <time>2012-02-04T12:40:34Z</time>
      </trkpt>
      <trkpt lat="48.59428" lon="-0.43398">
        <ele>230.7</ele>
        <time>2012-02-04T12:40:36Z</time>
      </trkpt>
      <trkpt lat="48.59425" lon="-0.4341">
        <ele>230.3</ele>
        <time>2012-02-04T12:40:38Z</time>
      </trkpt>
      <trkpt lat="48.59422" lon="-0.43422">
        <ele>229.7</ele>
        <time>2012-02-04T12:40:40Z</time>
      </trkpt>
      <trkpt lat="48.5942" lon="-0.43435">
        <ele>229.5</ele>
        <time>2012-02-04T12:40:42Z</time>
      </trkpt>
      <trkpt lat="48.59417" lon="-0.43448">
        <ele>229.4</ele>
        <time>2012-02-04T12:40:44Z</time>
      </trkpt>
      <trkpt lat="48.59415" lon="-0.4346">
        <ele>229.7</ele>
        <time>2012-02-04T12:40:46Z</time>
      </trkpt>
      <trkpt lat="48.59412" lon="-0.43473">
        <ele>229.8</ele>
        <time>2012-02-04T12:40:48Z</time>
      </trkpt>
      <trkpt lat="48.59409" lon="-0.43485">
        <ele>229.9</ele>
        <time>2012-02-04T12:40:50Z</time>
      </trkpt>
      <trkpt lat="48.59406" lon="-0.43496">
        <ele>229.9</ele>
        <time>2012-02-04T12:40:52Z</time>
      </trkpt>
      <trkpt lat="48.59403" lon="-0.43508">
        <ele>229.8</ele>
        <time>2012-02-04T12:40:54Z</time>
      </trkpt>
      <trkpt lat="48.594" lon="-0.43519">
        <ele>230.2</ele>
        <time>2012-02-04T12:40:56Z</time>
      </trkpt>
      <trkpt lat="48.59398" lon="-0.4353">
        <ele>230.9</ele>
        <time>2012-02-04T12:40:58Z</time>
      </trkpt>
      <trkpt lat="48.59395" lon="-0.43541">
        <ele>231.1</ele>
        <time>2012-02-04T12:41:00Z</time>
      </trkpt>
      <trkpt lat="48.59393" lon="-0.43553">
        <ele>231.3</ele>
        <time>2012-02-04T12:41:02Z</time>
      </trkpt>
      <trkpt lat="48.59391" lon="-0.43565">
        <ele>231.6</ele>
        <time>2012-02-04T12:41:04Z</time>
      </trkpt>
      <trkpt lat="48.59389" lon="-0.43577">
        <ele>232.2</ele>
        <time>2012-02-04T12:41:06Z</time>
      </trkpt>
      <trkpt lat="48.59386" lon="-0.43589">
        <ele>232.7</ele>
        <time>2012-02-04T12:41:08Z</time>
      </trkpt>
      <trkpt lat="48.59385" lon="-0.43594">
        <ele>232.9</ele>
        <time>2012-02-04T12:41:09Z</time>
      </trkpt>
      <trkpt lat="48.59381" lon="-0.43611">
        <ele>233.2</ele>
        <time>2012-02-04T12:41:12Z</time>
      </trkpt>
      <trkpt lat="48.59379" lon="-0.43622">
        <ele>233.4</ele>
        <time>2012-02-04T12:41:14Z</time>
      </trkpt>
      <trkpt lat="48.59377" lon="-0.43633">
        <ele>233.6</ele>
        <time>2012-02-04T12:41:16Z</time>
      </trkpt>
      <trkpt lat="48.59374" lon="-0.43645">
        <ele>234</ele>
        <time>2012-02-04T12:41:18Z</time>
      </trkpt>
      <trkpt lat="48.59372" lon="-0.43656">
        <ele>234.5</ele>
        <time>2012-02-04T12:41:20Z</time>
      </trkpt>
      <trkpt lat="48.59369" lon="-0.43668">
        <ele>234.8</ele>
        <time>2012-02-04T12:41:22Z</time>
      </trkpt>
      <trkpt lat="48.59366" lon="-0.43679">
        <ele>235.3</ele>
        <time>2012-02-04T12:41:24Z</time>
      </trkpt>
      <trkpt lat="48.59364" lon="-0.4369">
        <ele>235.5</ele>
        <time>2012-02-04T12:41:26Z</time>
      </trkpt>
      <trkpt lat="48.59361" lon="-0.43701">
        <ele>235.8</ele>
        <time>2012-02-04T12:41:28Z</time>
      </trkpt>
      <trkpt lat="48.59359" lon="-0.43712">
        <ele>236.1</ele>
        <time>2012-02-04T12:41:30Z</time>
      </trkpt>
      <trkpt lat="48.59357" lon="-0.43723">
        <ele>236.2</ele>
        <time>2012-02-04T12:41:32Z</time>
      </trkpt>
      <trkpt lat="48.59354" lon="-0.43734">
        <ele>236.1</ele>
        <time>2012-02-04T12:41:34Z</time>
      </trkpt>
      <trkpt lat="48.59351" lon="-0.43745">
        <ele>236.9</ele>
        <time>2012-02-04T12:41:36Z</time>
      </trkpt>
      <trkpt lat="48.59348" lon="-0.43755">
        <ele>237.4</ele>
        <time>2012-02-04T12:41:38Z</time>
      </trkpt>
      <trkpt lat="48.59345" lon="-0.43766">
        <ele>238.1</ele>
        <time>2012-02-04T12:41:40Z</time>
      </trkpt>
      <trkpt lat="48.59341" lon="-0.43776">
        <ele>238.6</ele>
        <time>2012-02-04T12:41:42Z</time>
      </trkpt>
      <trkpt lat="48.59338" lon="-0.43785">
        <ele>238.9</ele>
        <time>2012-02-04T12:41:44Z</time>
      </trkpt>
      <trkpt lat="48.59333" lon="-0.43793">
        <ele>239</ele>
        <time>2012-02-04T12:41:46Z</time>
      </trkpt>
      <trkpt lat="48.59328" lon="-0.438">
        <ele>239.6</ele>
        <time>2012-02-04T12:41:48Z</time>
      </trkpt>
      <trkpt lat="48.59323" lon="-0.43806">
        <ele>239.7</ele>
        <time>2012-02-04T12:41:50Z</time>
      </trkpt>
      <trkpt lat="48.59316" lon="-0.43814">
        <ele>240.2</ele>
        <time>2012-02-04T12:41:53Z</time>
      </trkpt>
      <trkpt lat="48.59308" lon="-0.43821">
        <ele>239.8</ele>
        <time>2012-02-04T12:41:56Z</time>
      </trkpt>
      <trkpt lat="48.59303" lon="-0.43831">
        <ele>240.2</ele>
        <time>2012-02-04T12:42:01Z</time>
      </trkpt>
      <trkpt lat="48.59308" lon="-0.43841">
        <ele>240.6</ele>
        <time>2012-02-04T12:42:05Z</time>
      </trkpt>
      <trkpt lat="48.59315" lon="-0.43849">
        <ele>241.2</ele>
        <time>2012-02-04T12:42:09Z</time>
      </trkpt>
      <trkpt lat="48.59317" lon="-0.4385">
        <ele>241.4</ele>
        <time>2012-02-04T12:42:10Z</time>
      </trkpt>
      <trkpt lat="48.5933" lon="-0.43858">
        <ele>242.5</ele>
        <time>2012-02-04T12:42:17Z</time>
      </trkpt>
      <trkpt lat="48.59333" lon="-0.43869">
        <ele>243</ele>
        <time>2012-02-04T12:42:22Z</time>
      </trkpt>
      <trkpt lat="48.59329" lon="-0.43881">
        <ele>243.6</ele>
        <time>2012-02-04T12:42:26Z</time>
      </trkpt>
      <trkpt lat="48.59325" lon="-0.43891">
        <ele>245.3</ele>
        <time>2012-02-04T12:42:30Z</time>
      </trkpt>
      <trkpt lat="48.59323" lon="-0.43902">
        <ele>246.7</ele>
        <time>2012-02-04T12:42:34Z</time>
      </trkpt>
      <trkpt lat="48.5932" lon="-0.43914">
        <ele>248.1</ele>
        <time>2012-02-04T12:42:38Z</time>
      </trkpt>
      <trkpt lat="48.59317" lon="-0.43925">
        <ele>250.3</ele>
        <time>2012-02-04T12:42:42Z</time>
      </trkpt>
      <trkpt lat="48.59314" lon="-0.43937">
        <ele>251.5</ele>
        <time>2012-02-04T12:42:46Z</time>
      </trkpt>
      <trkpt lat="48.59312" lon="-0.43948">
        <ele>253.5</ele>
        <time>2012-02-04T12:42:50Z</time>
      </trkpt>
      <trkpt lat="48.59309" lon="-0.4396">
        <ele>254.9</ele>
        <time>2012-02-04T12:42:54Z</time>
      </trkpt>
      <trkpt lat="48.59306" lon="-0.43972">
        <ele>255.7</ele>
        <time>2012-02-04T12:42:58Z</time>
      </trkpt>
      <trkpt lat="48.59304" lon="-0.43982">
        <ele>256.7</ele>
        <time>2012-02-04T12:43:01Z</time>
      </trkpt>
      <trkpt lat="48.59302" lon="-0.43993">
        <ele>257.4</ele>
        <time>2012-02-04T12:43:04Z</time>
      </trkpt>
      <trkpt lat="48.593" lon="-0.44003">
        <ele>257.5</ele>
        <time>2012-02-04T12:43:07Z</time>
      </trkpt>
      <trkpt lat="48.59298" lon="-0.44014">
        <ele>258.4</ele>
        <time>2012-02-04T12:43:10Z</time>
      </trkpt>
      <trkpt lat="48.59298" lon="-0.44018">
        <ele>258.7</ele>
        <time>2012-02-04T12:43:11Z</time>
      </trkpt>
      <trkpt lat="48.59294" lon="-0.44037">
        <ele>259.8</ele>
        <time>2012-02-04T12:43:16Z</time>
      </trkpt>
      <trkpt lat="48.59292" lon="-0.4405">
        <ele>259.9</ele>
        <time>2012-02-04T12:43:19Z</time>
      </trkpt>
      <trkpt lat="48.5929" lon="-0.44058">
        <ele>260.2</ele>
        <time>2012-02-04T12:43:21Z</time>
      </trkpt>
      <trkpt lat="48.59288" lon="-0.44067">
        <ele>260.6</ele>
        <time>2012-02-04T12:43:23Z</time>
      </trkpt>
      <trkpt lat="48.59286" lon="-0.44076">
        <ele>261.3</ele>
        <time>2012-02-04T12:43:25Z</time>
      </trkpt>
      <trkpt lat="48.59285" lon="-0.44085">
        <ele>261.6</ele>
        <time>2012-02-04T12:43:27Z</time>
      </trkpt>
      <trkpt lat="48.59282" lon="-0.44098">
        <ele>261.4</ele>
        <time>2012-02-04T12:43:30Z</time>
      </trkpt>
      <trkpt lat="48.5928" lon="-0.44109">
        <ele>262</ele>
        <time>2012-02-04T12:43:33Z</time>
      </trkpt>
      <trkpt lat="48.59276" lon="-0.4412">
        <ele>261.5</ele>
        <time>2012-02-04T12:43:36Z</time>
      </trkpt>
      <trkpt lat="48.59271" lon="-0.44128">
        <ele>261.6</ele>
        <time>2012-02-04T12:43:39Z</time>
      </trkpt>
      <trkpt lat="48.59263" lon="-0.44133">
        <ele>261.4</ele>
        <time>2012-02-04T12:43:43Z</time>
      </trkpt>
      <trkpt lat="48.59255" lon="-0.4413">
        <ele>261.2</ele>
        <time>2012-02-04T12:43:46Z</time>
      </trkpt>
      <trkpt lat="48.59248" lon="-0.44127">
        <ele>261</ele>
        <time>2012-02-04T12:43:48Z</time>
      </trkpt>
      <trkpt lat="48.59241" lon="-0.44122">
        <ele>261.1</ele>
        <time>2012-02-04T12:43:50Z</time>
      </trkpt>
      <trkpt lat="48.59233" lon="-0.44118">
        <ele>261.3</ele>
        <time>2012-02-04T12:43:52Z</time>
      </trkpt>
      <trkpt lat="48.59225" lon="-0.44114">
        <ele>260.8</ele>
        <time>2012-02-04T12:43:54Z</time>
      </trkpt>
      <trkpt lat="48.59217" lon="-0.4411">
        <ele>261.2</ele>
        <time>2012-02-04T12:43:56Z</time>
      </trkpt>
      <trkpt lat="48.59211" lon="-0.44106">
        <ele>261.3</ele>
        <time>2012-02-04T12:43:58Z</time>
      </trkpt>
      <trkpt lat="48.59202" lon="-0.44102">
        <ele>260.9</ele>
        <time>2012-02-04T12:44:00Z</time>
      </trkpt>
      <trkpt lat="48.59198" lon="-0.441">
        <ele>260.6</ele>
        <time>2012-02-04T12:44:01Z</time>
      </trkpt>
      <trkpt lat="48.59194" lon="-0.44098">
        <ele>260.4</ele>
        <time>2012-02-04T12:44:02Z</time>
      </trkpt>
      <trkpt lat="48.59189" lon="-0.44095">
        <ele>260.3</ele>
        <time>2012-02-04T12:44:03Z</time>
      </trkpt>
      <trkpt lat="48.59185" lon="-0.44093">
        <ele>260.2</ele>
        <time>2012-02-04T12:44:04Z</time>
      </trkpt>
      <trkpt lat="48.5918" lon="-0.44091">
        <ele>260.2</ele>
        <time>2012-02-04T12:44:05Z</time>
      </trkpt>
      <trkpt lat="48.59176" lon="-0.44088">
        <ele>260.2</ele>
        <time>2012-02-04T12:44:06Z</time>
      </trkpt>
      <trkpt lat="48.59168" lon="-0.44084">
        <ele>260.2</ele>
        <time>2012-02-04T12:44:08Z</time>
      </trkpt>
      <trkpt lat="48.59164" lon="-0.44082">
        <ele>259.7</ele>
        <time>2012-02-04T12:44:09Z</time>
      </trkpt>
      <trkpt lat="48.59159" lon="-0.44079">
        <ele>259.4</ele>
        <time>2012-02-04T12:44:10Z</time>
      </trkpt>
      <trkpt lat="48.59155" lon="-0.44077">
        <ele>259.2</ele>
        <time>2012-02-04T12:44:11Z</time>
      </trkpt>
      <trkpt lat="48.59151" lon="-0.44074">
        <ele>259.4</ele>
        <time>2012-02-04T12:44:12Z</time>
      </trkpt>
      <trkpt lat="48.59139" lon="-0.44068">
        <ele>259.5</ele>
        <time>2012-02-04T12:44:15Z</time>
      </trkpt>
      <trkpt lat="48.5913" lon="-0.44064">
        <ele>259.5</ele>
        <time>2012-02-04T12:44:17Z</time>
      </trkpt>
      <trkpt lat="48.59123" lon="-0.44059">
        <ele>259.6</ele>
        <time>2012-02-04T12:44:19Z</time>
      </trkpt>
      <trkpt lat="48.59115" lon="-0.44054">
        <ele>259.7</ele>
        <time>2012-02-04T12:44:21Z</time>
      </trkpt>
      <trkpt lat="48.59106" lon="-0.4405">
        <ele>259.4</ele>
        <time>2012-02-04T12:44:23Z</time>
      </trkpt>
      <trkpt lat="48.59099" lon="-0.44047">
        <ele>259.2</ele>
        <time>2012-02-04T12:44:25Z</time>
      </trkpt>
      <trkpt lat="48.59092" lon="-0.44043">
        <ele>259.2</ele>
        <time>2012-02-04T12:44:27Z</time>
      </trkpt>
      <trkpt lat="48.59086" lon="-0.4404">
        <ele>259.3</ele>
        <time>2012-02-04T12:44:29Z</time>
      </trkpt>
      <trkpt lat="48.59078" lon="-0.44037">
        <ele>259.4</ele>
        <time>2012-02-04T12:44:31Z</time>
      </trkpt>
      <trkpt lat="48.59071" lon="-0.44033">
        <ele>259.2</ele>
        <time>2012-02-04T12:44:33Z</time>
      </trkpt>
      <trkpt lat="48.59063" lon="-0.44029">
        <ele>258.6</ele>
        <time>2012-02-04T12:44:35Z</time>
      </trkpt>
      <trkpt lat="48.59055" lon="-0.44025">
        <ele>258.1</ele>
        <time>2012-02-04T12:44:37Z</time>
      </trkpt>
      <trkpt lat="48.59047" lon="-0.44021">
        <ele>258.4</ele>
        <time>2012-02-04T12:44:39Z</time>
      </trkpt>
      <trkpt lat="48.59039" lon="-0.44017">
        <ele>258</ele>
        <time>2012-02-04T12:44:41Z</time>
      </trkpt>
      <trkpt lat="48.59032" lon="-0.44014">
        <ele>257.7</ele>
        <time>2012-02-04T12:44:43Z</time>
      </trkpt>
      <trkpt lat="48.59024" lon="-0.4401">
        <ele>257.4</ele>
        <time>2012-02-04T12:44:45Z</time>
      </trkpt>
      <trkpt lat="48.59016" lon="-0.44005">
        <ele>256.9</ele>
        <time>2012-02-04T12:44:47Z</time>
      </trkpt>
      <trkpt lat="48.59009" lon="-0.44002">
        <ele>256.3</ele>
        <time>2012-02-04T12:44:49Z</time>
      </trkpt>
      <trkpt lat="48.59001" lon="-0.43998">
        <ele>256.1</ele>
        <time>2012-02-04T12:44:51Z</time>
      </trkpt>
      <trkpt lat="48.58993" lon="-0.43993">
        <ele>256.1</ele>
        <time>2012-02-04T12:44:53Z</time>
      </trkpt>
      <trkpt lat="48.58985" lon="-0.43989">
        <ele>256.4</ele>
        <time>2012-02-04T12:44:55Z</time>
      </trkpt>
      <trkpt lat="48.58977" lon="-0.43984">
        <ele>256.4</ele>
        <time>2012-02-04T12:44:57Z</time>
      </trkpt>
      <trkpt lat="48.5897" lon="-0.43982">
        <ele>256.1</ele>
        <time>2012-02-04T12:44:59Z</time>
      </trkpt>
      <trkpt lat="48.58963" lon="-0.43979">
        <ele>255.6</ele>
        <time>2012-02-04T12:45:01Z</time>
      </trkpt>
      <trkpt lat="48.58955" lon="-0.43975">
        <ele>255.2</ele>
        <time>2012-02-04T12:45:03Z</time>
      </trkpt>
      <trkpt lat="48.58948" lon="-0.43971">
        <ele>255.7</ele>
        <time>2012-02-04T12:45:05Z</time>
      </trkpt>
      <trkpt lat="48.5894" lon="-0.43967">
        <ele>255.5</ele>
        <time>2012-02-04T12:45:07Z</time>
      </trkpt>
      <trkpt lat="48.58935" lon="-0.43964">
        <ele>255.5</ele>
        <time>2012-02-04T12:45:08Z</time>
      </trkpt>
      <trkpt lat="48.58931" lon="-0.43962">
        <ele>255.5</ele>
        <time>2012-02-04T12:45:09Z</time>
      </trkpt>
      <trkpt lat="48.58927" lon="-0.43959">
        <ele>255.4</ele>
        <time>2012-02-04T12:45:10Z</time>
      </trkpt>
      <trkpt lat="48.58923" lon="-0.43957">
        <ele>255.3</ele>
        <time>2012-02-04T12:45:11Z</time>
      </trkpt>
      <trkpt lat="48.58918" lon="-0.43954">
        <ele>255.2</ele>
        <time>2012-02-04T12:45:12Z</time>
      </trkpt>
      <trkpt lat="48.58914" lon="-0.43951">
        <ele>255</ele>
        <time>2012-02-04T12:45:13Z</time>
      </trkpt>
      <trkpt lat="48.5891" lon="-0.43948">
        <ele>254.9</ele>
        <time>2012-02-04T12:45:14Z</time>
      </trkpt>
      <trkpt lat="48.58905" lon="-0.43945">
        <ele>254.8</ele>
        <time>2012-02-04T12:45:15Z</time>
      </trkpt>
      <trkpt lat="48.589" lon="-0.43942">
        <ele>254.7</ele>
        <time>2012-02-04T12:45:16Z</time>
      </trkpt>
      <trkpt lat="48.58895" lon="-0.43939">
        <ele>254.7</ele>
        <time>2012-02-04T12:45:17Z</time>
      </trkpt>
      <trkpt lat="48.5889" lon="-0.43935">
        <ele>254.5</ele>
        <time>2012-02-04T12:45:18Z</time>
      </trkpt>
      <trkpt lat="48.58885" lon="-0.43932">
        <ele>254.4</ele>
        <time>2012-02-04T12:45:19Z</time>
      </trkpt>
      <trkpt lat="48.5888" lon="-0.43929">
        <ele>254.3</ele>
        <time>2012-02-04T12:45:20Z</time>
      </trkpt>
      <trkpt lat="48.58875" lon="-0.43925">
        <ele>254.3</ele>
        <time>2012-02-04T12:45:21Z</time>
      </trkpt>
      <trkpt lat="48.5887" lon="-0.43922">
        <ele>254.3</ele>
        <time>2012-02-04T12:45:22Z</time>
      </trkpt>
      <trkpt lat="48.58866" lon="-0.43918">
        <ele>254.1</ele>
        <time>2012-02-04T12:45:23Z</time>
      </trkpt>
      <trkpt lat="48.58859" lon="-0.43911">
        <ele>253.7</ele>
        <time>2012-02-04T12:45:25Z</time>
      </trkpt>
      <trkpt lat="48.58852" lon="-0.43903">
        <ele>253.4</ele>
        <time>2012-02-04T12:45:27Z</time>
      </trkpt>
      <trkpt lat="48.58846" lon="-0.43895">
        <ele>253.1</ele>
        <time>2012-02-04T12:45:29Z</time>
      </trkpt>
      <trkpt lat="48.5884" lon="-0.43885">
        <ele>252.1</ele>
        <time>2012-02-04T12:45:31Z</time>
      </trkpt>
      <trkpt lat="48.58837" lon="-0.43881">
        <ele>251.4</ele>
        <time>2012-02-04T12:45:32Z</time>
      </trkpt>
      <trkpt lat="48.58834" lon="-0.43875">
        <ele>250.9</ele>
        <time>2012-02-04T12:45:33Z</time>
      </trkpt>
      <trkpt lat="48.58829" lon="-0.43866">
        <ele>249.8</ele>
        <time>2012-02-04T12:45:35Z</time>
      </trkpt>
      <trkpt lat="48.58823" lon="-0.43857">
        <ele>248.4</ele>
        <time>2012-02-04T12:45:37Z</time>
      </trkpt>
      <trkpt lat="48.58817" lon="-0.43848">
        <ele>246.8</ele>
        <time>2012-02-04T12:45:39Z</time>
      </trkpt>
      <trkpt lat="48.58812" lon="-0.43839">
        <ele>245.6</ele>
        <time>2012-02-04T12:45:41Z</time>
      </trkpt>
      <trkpt lat="48.58807" lon="-0.4383">
        <ele>244.6</ele>
        <time>2012-02-04T12:45:43Z</time>
      </trkpt>
      <trkpt lat="48.58802" lon="-0.43821">
        <ele>243.3</ele>
        <time>2012-02-04T12:45:45Z</time>
      </trkpt>
      <trkpt lat="48.58797" lon="-0.43811">
        <ele>242.2</ele>
        <time>2012-02-04T12:45:48Z</time>
      </trkpt>
      <trkpt lat="48.58791" lon="-0.43805">
        <ele>240.8</ele>
        <time>2012-02-04T12:45:51Z</time>
      </trkpt>
      <trkpt lat="48.58783" lon="-0.43804">
        <ele>240.2</ele>
        <time>2012-02-04T12:45:55Z</time>
      </trkpt>
      <trkpt lat="48.58777" lon="-0.43808">
        <ele>240.5</ele>
        <time>2012-02-04T12:45:59Z</time>
      </trkpt>
      <trkpt lat="48.5877" lon="-0.43814">
        <ele>241.2</ele>
        <time>2012-02-04T12:46:02Z</time>
      </trkpt>
      <trkpt lat="48.58763" lon="-0.43821">
        <ele>241.6</ele>
        <time>2012-02-04T12:46:05Z</time>
      </trkpt>
      <trkpt lat="48.58758" lon="-0.43826">
        <ele>241.7</ele>
        <time>2012-02-04T12:46:07Z</time>
      </trkpt>
      <trkpt lat="48.58753" lon="-0.43831">
        <ele>242</ele>
        <time>2012-02-04T12:46:09Z</time>
      </trkpt>
      <trkpt lat="48.58748" lon="-0.43837">
        <ele>242.6</ele>
        <time>2012-02-04T12:46:11Z</time>
      </trkpt>
      <trkpt lat="48.58741" lon="-0.43845">
        <ele>243.3</ele>
        <time>2012-02-04T12:46:14Z</time>
      </trkpt>
      <trkpt lat="48.58739" lon="-0.43849">
        <ele>243.3</ele>
        <time>2012-02-04T12:46:15Z</time>
      </trkpt>
      <trkpt lat="48.58728" lon="-0.4386">
        <ele>244</ele>
        <time>2012-02-04T12:46:20Z</time>
      </trkpt>
      <trkpt lat="48.58721" lon="-0.43867">
        <ele>244.5</ele>
        <time>2012-02-04T12:46:23Z</time>
      </trkpt>
      <trkpt lat="48.58716" lon="-0.43872">
        <ele>244.5</ele>
        <time>2012-02-04T12:46:25Z</time>
      </trkpt>
      <trkpt lat="48.58711" lon="-0.43878">
        <ele>244.7</ele>
        <time>2012-02-04T12:46:27Z</time>
      </trkpt>
      <trkpt lat="48.58707" lon="-0.43885">
        <ele>245.1</ele>
        <time>2012-02-04T12:46:29Z</time>
      </trkpt>
      <trkpt lat="48.58701" lon="-0.43894">
        <ele>245.3</ele>
        <time>2012-02-04T12:46:32Z</time>
      </trkpt>
      <trkpt lat="48.58693" lon="-0.43901">
        <ele>245.3</ele>
        <time>2012-02-04T12:46:35Z</time>
      </trkpt>
      <trkpt lat="48.58686" lon="-0.43907">
        <ele>246.3</ele>
        <time>2012-02-04T12:46:38Z</time>
      </trkpt>
      <trkpt lat="48.5868" lon="-0.43916">
        <ele>246.2</ele>
        <time>2012-02-04T12:46:41Z</time>
      </trkpt>
      <trkpt lat="48.58675" lon="-0.43922">
        <ele>246.3</ele>
        <time>2012-02-04T12:46:43Z</time>
      </trkpt>
      <trkpt lat="48.58671" lon="-0.43929">
        <ele>246.5</ele>
        <time>2012-02-04T12:46:45Z</time>
      </trkpt>
      <trkpt lat="48.58664" lon="-0.43938">
        <ele>245.8</ele>
        <time>2012-02-04T12:46:48Z</time>
      </trkpt>
      <trkpt lat="48.58657" lon="-0.43945">
        <ele>245.4</ele>
        <time>2012-02-04T12:46:52Z</time>
      </trkpt>
      <trkpt lat="48.58651" lon="-0.4394">
        <ele>245.3</ele>
        <time>2012-02-04T12:46:55Z</time>
      </trkpt>
      <trkpt lat="48.58645" lon="-0.43934">
        <ele>245.2</ele>
        <time>2012-02-04T12:46:57Z</time>
      </trkpt>
      <trkpt lat="48.58639" lon="-0.4393">
        <ele>244.4</ele>
        <time>2012-02-04T12:46:59Z</time>
      </trkpt>
      <trkpt lat="48.58631" lon="-0.43928">
        <ele>244.1</ele>
        <time>2012-02-04T12:47:01Z</time>
      </trkpt>
      <trkpt lat="48.58623" lon="-0.43926">
        <ele>243.3</ele>
        <time>2012-02-04T12:47:03Z</time>
      </trkpt>
      <trkpt lat="48.58615" lon="-0.43924">
        <ele>242.3</ele>
        <time>2012-02-04T12:47:05Z</time>
      </trkpt>
      <trkpt lat="48.58607" lon="-0.43922">
        <ele>241.6</ele>
        <time>2012-02-04T12:47:07Z</time>
      </trkpt>
      <trkpt lat="48.586" lon="-0.43919">
        <ele>240.8</ele>
        <time>2012-02-04T12:47:09Z</time>
      </trkpt>
      <trkpt lat="48.58593" lon="-0.43913">
        <ele>239.8</ele>
        <time>2012-02-04T12:47:11Z</time>
      </trkpt>
      <trkpt lat="48.58587" lon="-0.43906">
        <ele>239.4</ele>
        <time>2012-02-04T12:47:13Z</time>
      </trkpt>
      <trkpt lat="48.5858" lon="-0.43901">
        <ele>238.8</ele>
        <time>2012-02-04T12:47:15Z</time>
      </trkpt>
      <trkpt lat="48.58577" lon="-0.43898">
        <ele>238.6</ele>
        <time>2012-02-04T12:47:16Z</time>
      </trkpt>
      <trkpt lat="48.58571" lon="-0.43885">
        <ele>237</ele>
        <time>2012-02-04T12:47:19Z</time>
      </trkpt>
      <trkpt lat="48.58572" lon="-0.43875">
        <ele>236.8</ele>
        <time>2012-02-04T12:47:21Z</time>
      </trkpt>
      <trkpt lat="48.58571" lon="-0.43866">
        <ele>236.8</ele>
        <time>2012-02-04T12:47:23Z</time>
      </trkpt>
      <trkpt lat="48.58569" lon="-0.43856">
        <ele>236.4</ele>
        <time>2012-02-04T12:47:25Z</time>
      </trkpt>
      <trkpt lat="48.58567" lon="-0.43846">
        <ele>236.2</ele>
        <time>2012-02-04T12:47:27Z</time>
      </trkpt>
      <trkpt lat="48.58567" lon="-0.43836">
        <ele>236.4</ele>
        <time>2012-02-04T12:47:29Z</time>
      </trkpt>
      <trkpt lat="48.58566" lon="-0.43823">
        <ele>235.6</ele>
        <time>2012-02-04T12:47:32Z</time>
      </trkpt>
      <trkpt lat="48.58566" lon="-0.43814">
        <ele>235.9</ele>
        <time>2012-02-04T12:47:34Z</time>
      </trkpt>
      <trkpt lat="48.58566" lon="-0.43801">
        <ele>236</ele>
        <time>2012-02-04T12:47:37Z</time>
      </trkpt>
      <trkpt lat="48.58567" lon="-0.43791">
        <ele>236.1</ele>
        <time>2012-02-04T12:47:39Z</time>
      </trkpt>
      <trkpt lat="48.58569" lon="-0.43782">
        <ele>235.7</ele>
        <time>2012-02-04T12:47:41Z</time>
      </trkpt>
      <trkpt lat="48.58571" lon="-0.43773">
        <ele>235.7</ele>
        <time>2012-02-04T12:47:43Z</time>
      </trkpt>
      <trkpt lat="48.58575" lon="-0.43761">
        <ele>235.6</ele>
        <time>2012-02-04T12:47:46Z</time>
      </trkpt>
      <trkpt lat="48.58578" lon="-0.43749">
        <ele>235.8</ele>
        <time>2012-02-04T12:47:49Z</time>
      </trkpt>
      <trkpt lat="48.58581" lon="-0.43741">
        <ele>235.8</ele>
        <time>2012-02-04T12:47:51Z</time>
      </trkpt>
      <trkpt lat="48.58583" lon="-0.43732">
        <ele>236.6</ele>
        <time>2012-02-04T12:47:53Z</time>
      </trkpt>
      <trkpt lat="48.58586" lon="-0.4372">
        <ele>237.5</ele>
        <time>2012-02-04T12:47:56Z</time>
      </trkpt>
      <trkpt lat="48.5859" lon="-0.43708">
        <ele>237</ele>
        <time>2012-02-04T12:47:59Z</time>
      </trkpt>
      <trkpt lat="48.58591" lon="-0.43698">
        <ele>236.7</ele>
        <time>2012-02-04T12:48:01Z</time>
      </trkpt>
      <trkpt lat="48.58591" lon="-0.43687">
        <ele>236</ele>
        <time>2012-02-04T12:48:03Z</time>
      </trkpt>
      <trkpt lat="48.5859" lon="-0.43676">
        <ele>235.1</ele>
        <time>2012-02-04T12:48:05Z</time>
      </trkpt>
      <trkpt lat="48.58589" lon="-0.43664">
        <ele>234.5</ele>
        <time>2012-02-04T12:48:07Z</time>
      </trkpt>
      <trkpt lat="48.5859" lon="-0.43653">
        <ele>233.9</ele>
        <time>2012-02-04T12:48:09Z</time>
      </trkpt>
      <trkpt lat="48.58592" lon="-0.43644">
        <ele>233.4</ele>
        <time>2012-02-04T12:48:11Z</time>
      </trkpt>
      <trkpt lat="48.58593" lon="-0.43634">
        <ele>233.1</ele>
        <time>2012-02-04T12:48:13Z</time>
      </trkpt>
      <trkpt lat="48.58595" lon="-0.43624">
        <ele>232.9</ele>
        <time>2012-02-04T12:48:15Z</time>
      </trkpt>
      <trkpt lat="48.58596" lon="-0.43615">
        <ele>232.6</ele>
        <time>2012-02-04T12:48:17Z</time>
      </trkpt>
      <trkpt lat="48.58595" lon="-0.4361">
        <ele>232.5</ele>
        <time>2012-02-04T12:48:18Z</time>
      </trkpt>
      <trkpt lat="48.5859" lon="-0.43595">
        <ele>231.8</ele>
        <time>2012-02-04T12:48:21Z</time>
      </trkpt>
      <trkpt lat="48.58586" lon="-0.43587">
        <ele>231.1</ele>
        <time>2012-02-04T12:48:23Z</time>
      </trkpt>
      <trkpt lat="48.5858" lon="-0.43586">
        <ele>230.6</ele>
        <time>2012-02-04T12:48:25Z</time>
      </trkpt>
      <trkpt lat="48.58573" lon="-0.43587">
        <ele>230.3</ele>
        <time>2012-02-04T12:48:27Z</time>
      </trkpt>
      <trkpt lat="48.58567" lon="-0.43584">
        <ele>229.4</ele>
        <time>2012-02-04T12:48:29Z</time>
      </trkpt>
      <trkpt lat="48.5856" lon="-0.43577">
        <ele>228.8</ele>
        <time>2012-02-04T12:48:32Z</time>
      </trkpt>
      <trkpt lat="48.58554" lon="-0.43568">
        <ele>227.2</ele>
        <time>2012-02-04T12:48:36Z</time>
      </trkpt>
      <trkpt lat="48.58545" lon="-0.43565">
        <ele>226.1</ele>
        <time>2012-02-04T12:48:39Z</time>
      </trkpt>
      <trkpt lat="48.58539" lon="-0.43562">
        <ele>225.2</ele>
        <time>2012-02-04T12:48:41Z</time>
      </trkpt>
      <trkpt lat="48.58531" lon="-0.4356">
        <ele>224.2</ele>
        <time>2012-02-04T12:48:43Z</time>
      </trkpt>
      <trkpt lat="48.58525" lon="-0.4356">
        <ele>223.9</ele>
        <time>2012-02-04T12:48:45Z</time>
      </trkpt>
      <trkpt lat="48.58517" lon="-0.43559">
        <ele>222.9</ele>
        <time>2012-02-04T12:48:48Z</time>
      </trkpt>
      <trkpt lat="48.58509" lon="-0.43553">
        <ele>222.3</ele>
        <time>2012-02-04T12:48:52Z</time>
      </trkpt>
      <trkpt lat="48.58505" lon="-0.43565">
        <ele>220.7</ele>
        <time>2012-02-04T12:48:59Z</time>
      </trkpt>
      <trkpt lat="48.58506" lon="-0.43576">
        <ele>220</ele>
        <time>2012-02-04T12:49:03Z</time>
      </trkpt>
      <trkpt lat="48.58507" lon="-0.43588">
        <ele>220.1</ele>
        <time>2012-02-04T12:49:07Z</time>
      </trkpt>
      <trkpt lat="48.58503" lon="-0.436">
        <ele>220.5</ele>
        <time>2012-02-04T12:49:27Z</time>
      </trkpt>
      <trkpt lat="48.58503" lon="-0.436">
        <ele>220.6</ele>
        <time>2012-02-04T12:49:28Z</time>
      </trkpt>
      <trkpt lat="48.58503" lon="-0.43623">
        <ele>220.7</ele>
        <time>2012-02-04T12:49:39Z</time>
      </trkpt>
      <trkpt lat="48.58504" lon="-0.43635">
        <ele>221</ele>
        <time>2012-02-04T12:49:42Z</time>
      </trkpt>
      <trkpt lat="48.58505" lon="-0.43648">
        <ele>221.8</ele>
        <time>2012-02-04T12:49:45Z</time>
      </trkpt>
      <trkpt lat="48.58506" lon="-0.43658">
        <ele>222.2</ele>
        <time>2012-02-04T12:49:47Z</time>
      </trkpt>
      <trkpt lat="48.58507" lon="-0.43667">
        <ele>222.1</ele>
        <time>2012-02-04T12:49:49Z</time>
      </trkpt>
      <trkpt lat="48.58507" lon="-0.43677">
        <ele>221.8</ele>
        <time>2012-02-04T12:49:51Z</time>
      </trkpt>
      <trkpt lat="48.58508" lon="-0.43687">
        <ele>221.7</ele>
        <time>2012-02-04T12:49:53Z</time>
      </trkpt>
      <trkpt lat="48.58508" lon="-0.43696">
        <ele>221.6</ele>
        <time>2012-02-04T12:49:55Z</time>
      </trkpt>
      <trkpt lat="48.58509" lon="-0.43706">
        <ele>221.6</ele>
        <time>2012-02-04T12:49:57Z</time>
      </trkpt>
      <trkpt lat="48.5851" lon="-0.43715">
        <ele>222.3</ele>
        <time>2012-02-04T12:49:59Z</time>
      </trkpt>
      <trkpt lat="48.5851" lon="-0.43728">
        <ele>222.4</ele>
        <time>2012-02-04T12:50:02Z</time>
      </trkpt>
      <trkpt lat="48.58512" lon="-0.4374">
        <ele>223.3</ele>
        <time>2012-02-04T12:50:05Z</time>
      </trkpt>
      <trkpt lat="48.58513" lon="-0.43753">
        <ele>223.8</ele>
        <time>2012-02-04T12:50:08Z</time>
      </trkpt>
      <trkpt lat="48.58513" lon="-0.43762">
        <ele>224.6</ele>
        <time>2012-02-04T12:50:10Z</time>
      </trkpt>
      <trkpt lat="48.58514" lon="-0.43775">
        <ele>225.2</ele>
        <time>2012-02-04T12:50:13Z</time>
      </trkpt>
      <trkpt lat="48.58515" lon="-0.43788">
        <ele>225.5</ele>
        <time>2012-02-04T12:50:16Z</time>
      </trkpt>
      <trkpt lat="48.58515" lon="-0.43797">
        <ele>225.7</ele>
        <time>2012-02-04T12:50:18Z</time>
      </trkpt>
      <trkpt lat="48.58515" lon="-0.43807">
        <ele>226.2</ele>
        <time>2012-02-04T12:50:20Z</time>
      </trkpt>
      <trkpt lat="48.58516" lon="-0.43817">
        <ele>226.4</ele>
        <time>2012-02-04T12:50:22Z</time>
      </trkpt>
      <trkpt lat="48.58517" lon="-0.43827">
        <ele>226.6</ele>
        <time>2012-02-04T12:50:24Z</time>
      </trkpt>
      <trkpt lat="48.58517" lon="-0.43837">
        <ele>226.7</ele>
        <time>2012-02-04T12:50:26Z</time>
      </trkpt>
      <trkpt lat="48.58518" lon="-0.43847">
        <ele>226.6</ele>
        <time>2012-02-04T12:50:28Z</time>
      </trkpt>
      <trkpt lat="48.58519" lon="-0.43852">
        <ele>226.5</ele>
        <time>2012-02-04T12:50:29Z</time>
      </trkpt>
      <trkpt lat="48.5852" lon="-0.43867">
        <ele>226</ele>
        <time>2012-02-04T12:50:32Z</time>
      </trkpt>
      <trkpt lat="48.58521" lon="-0.43876">
        <ele>225.9</ele>
        <time>2012-02-04T12:50:34Z</time>
      </trkpt>
      <trkpt lat="48.58521" lon="-0.43886">
        <ele>225.9</ele>
        <time>2012-02-04T12:50:36Z</time>
      </trkpt>
      <trkpt lat="48.58522" lon="-0.43896">
        <ele>225.4</ele>
        <time>2012-02-04T12:50:38Z</time>
      </trkpt>
      <trkpt lat="48.58522" lon="-0.43907">
        <ele>224.8</ele>
        <time>2012-02-04T12:50:40Z</time>
      </trkpt>
      <trkpt lat="48.58522" lon="-0.43917">
        <ele>224.3</ele>
        <time>2012-02-04T12:50:42Z</time>
      </trkpt>
      <trkpt lat="48.58523" lon="-0.43929">
        <ele>223.5</ele>
        <time>2012-02-04T12:50:45Z</time>
      </trkpt>
      <trkpt lat="48.58525" lon="-0.43942">
        <ele>222.7</ele>
        <time>2012-02-04T12:50:48Z</time>
      </trkpt>
      <trkpt lat="48.58526" lon="-0.43953">
        <ele>222.1</ele>
        <time>2012-02-04T12:50:51Z</time>
      </trkpt>
      <trkpt lat="48.58527" lon="-0.43966">
        <ele>221.8</ele>
        <time>2012-02-04T12:50:54Z</time>
      </trkpt>
      <trkpt lat="48.58527" lon="-0.43978">
        <ele>220.9</ele>
        <time>2012-02-04T12:50:57Z</time>
      </trkpt>
      <trkpt lat="48.58528" lon="-0.43991">
        <ele>219.8</ele>
        <time>2012-02-04T12:51:00Z</time>
      </trkpt>
      <trkpt lat="48.58529" lon="-0.44003">
        <ele>219.5</ele>
        <time>2012-02-04T12:51:03Z</time>
      </trkpt>
      <trkpt lat="48.5853" lon="-0.44015">
        <ele>218.8</ele>
        <time>2012-02-04T12:51:07Z</time>
      </trkpt>
      <trkpt lat="48.5853" lon="-0.44029">
        <ele>219.1</ele>
        <time>2012-02-04T12:51:12Z</time>
      </trkpt>
      <trkpt lat="48.58531" lon="-0.44042">
        <ele>218.1</ele>
        <time>2012-02-04T12:51:16Z</time>
      </trkpt>
      <trkpt lat="48.58532" lon="-0.44053">
        <ele>217.5</ele>
        <time>2012-02-04T12:51:20Z</time>
      </trkpt>
      <trkpt lat="48.58532" lon="-0.44066">
        <ele>217.4</ele>
        <time>2012-02-04T12:51:25Z</time>
      </trkpt>
      <trkpt lat="48.58533" lon="-0.44079">
        <ele>217.5</ele>
        <time>2012-02-04T12:51:34Z</time>
      </trkpt>
      <trkpt lat="48.58533" lon="-0.44082">
        <ele>217.8</ele>
        <time>2012-02-04T12:51:35Z</time>
      </trkpt>
      <trkpt lat="48.58533" lon="-0.441">
        <ele>218.3</ele>
        <time>2012-02-04T12:51:40Z</time>
      </trkpt>
      <trkpt lat="48.58534" lon="-0.44111">
        <ele>218.1</ele>
        <time>2012-02-04T12:51:43Z</time>
      </trkpt>
      <trkpt lat="48.58534" lon="-0.44124">
        <ele>218</ele>
        <time>2012-02-04T12:51:46Z</time>
      </trkpt>
      <trkpt lat="48.58535" lon="-0.44135">
        <ele>218.1</ele>
        <time>2012-02-04T12:51:49Z</time>
      </trkpt>
      <trkpt lat="48.58535" lon="-0.44146">
        <ele>217.9</ele>
        <time>2012-02-04T12:51:52Z</time>
      </trkpt>
      <trkpt lat="48.58537" lon="-0.44156">
        <ele>217.4</ele>
        <time>2012-02-04T12:51:55Z</time>
      </trkpt>
      <trkpt lat="48.58537" lon="-0.44169">
        <ele>217.7</ele>
        <time>2012-02-04T12:51:59Z</time>
      </trkpt>
      <trkpt lat="48.58537" lon="-0.44181">
        <ele>217.8</ele>
        <time>2012-02-04T12:52:03Z</time>
      </trkpt>
      <trkpt lat="48.58537" lon="-0.44192">
        <ele>218.5</ele>
        <time>2012-02-04T12:52:07Z</time>
      </trkpt>
      <trkpt lat="48.58538" lon="-0.44204">
        <ele>219.1</ele>
        <time>2012-02-04T12:52:11Z</time>
      </trkpt>
      <trkpt lat="48.58538" lon="-0.44218">
        <ele>219.4</ele>
        <time>2012-02-04T12:52:15Z</time>
      </trkpt>
      <trkpt lat="48.58538" lon="-0.44231">
        <ele>220.3</ele>
        <time>2012-02-04T12:52:23Z</time>
      </trkpt>
      <trkpt lat="48.58539" lon="-0.44245">
        <ele>221.1</ele>
        <time>2012-02-04T12:52:32Z</time>
      </trkpt>
      <trkpt lat="48.58538" lon="-0.44258">
        <ele>221.8</ele>
        <time>2012-02-04T12:52:37Z</time>
      </trkpt>
      <trkpt lat="48.58538" lon="-0.44261">
        <ele>222.1</ele>
        <time>2012-02-04T12:52:38Z</time>
      </trkpt>
      <trkpt lat="48.58541" lon="-0.44283">
        <ele>224.1</ele>
        <time>2012-02-04T12:52:46Z</time>
      </trkpt>
      <trkpt lat="48.58541" lon="-0.44294">
        <ele>225.6</ele>
        <time>2012-02-04T12:52:50Z</time>
      </trkpt>
      <trkpt lat="48.58542" lon="-0.44306">
        <ele>226.6</ele>
        <time>2012-02-04T12:52:55Z</time>
      </trkpt>
      <trkpt lat="48.58542" lon="-0.44319">
        <ele>228.2</ele>
        <time>2012-02-04T12:53:00Z</time>
      </trkpt>
      <trkpt lat="48.58543" lon="-0.44331">
        <ele>230</ele>
        <time>2012-02-04T12:53:05Z</time>
      </trkpt>
      <trkpt lat="48.58544" lon="-0.44342">
        <ele>231.3</ele>
        <time>2012-02-04T12:53:09Z</time>
      </trkpt>
      <trkpt lat="48.58545" lon="-0.44353">
        <ele>232</ele>
        <time>2012-02-04T12:53:13Z</time>
      </trkpt>
      <trkpt lat="48.58545" lon="-0.44364">
        <ele>233.3</ele>
        <time>2012-02-04T12:53:17Z</time>
      </trkpt>
      <trkpt lat="48.58546" lon="-0.44375">
        <ele>234.6</ele>
        <time>2012-02-04T12:53:21Z</time>
      </trkpt>
      <trkpt lat="48.58547" lon="-0.44387">
        <ele>236.3</ele>
        <time>2012-02-04T12:53:25Z</time>
      </trkpt>
      <trkpt lat="48.58547" lon="-0.44399">
        <ele>238.3</ele>
        <time>2012-02-04T12:53:29Z</time>
      </trkpt>
      <trkpt lat="48.58548" lon="-0.4441">
        <ele>238.9</ele>
        <time>2012-02-04T12:53:33Z</time>
      </trkpt>
      <trkpt lat="48.58549" lon="-0.44422">
        <ele>240.8</ele>
        <time>2012-02-04T12:53:37Z</time>
      </trkpt>
      <trkpt lat="48.5855" lon="-0.44433">
        <ele>241.6</ele>
        <time>2012-02-04T12:53:41Z</time>
      </trkpt>
      <trkpt lat="48.5855" lon="-0.44436">
        <ele>241.7</ele>
        <time>2012-02-04T12:53:42Z</time>
      </trkpt>
      <trkpt lat="48.58551" lon="-0.44456">
        <ele>244.1</ele>
        <time>2012-02-04T12:53:49Z</time>
      </trkpt>
      <trkpt lat="48.58552" lon="-0.44469">
        <ele>244.9</ele>
        <time>2012-02-04T12:53:54Z</time>
      </trkpt>
      <trkpt lat="48.58553" lon="-0.44482">
        <ele>245.2</ele>
        <time>2012-02-04T12:53:59Z</time>
      </trkpt>
      <trkpt lat="48.58553" lon="-0.44494">
        <ele>247</ele>
        <time>2012-02-04T12:54:04Z</time>
      </trkpt>
      <trkpt lat="48.58554" lon="-0.44507">
        <ele>247.7</ele>
        <time>2012-02-04T12:54:09Z</time>
      </trkpt>
      <trkpt lat="48.58554" lon="-0.44518">
        <ele>248.2</ele>
        <time>2012-02-04T12:54:13Z</time>
      </trkpt>
      <trkpt lat="48.58555" lon="-0.44532">
        <ele>249.2</ele>
        <time>2012-02-04T12:54:17Z</time>
      </trkpt>
      <trkpt lat="48.58556" lon="-0.44543">
        <ele>250.1</ele>
        <time>2012-02-04T12:54:20Z</time>
      </trkpt>
      <trkpt lat="48.58557" lon="-0.44555">
        <ele>250.7</ele>
        <time>2012-02-04T12:54:23Z</time>
      </trkpt>
      <trkpt lat="48.58559" lon="-0.44566">
        <ele>251</ele>
        <time>2012-02-04T12:54:26Z</time>
      </trkpt>
      <trkpt lat="48.5856" lon="-0.44577">
        <ele>251.9</ele>
        <time>2012-02-04T12:54:29Z</time>
      </trkpt>
      <trkpt lat="48.58561" lon="-0.44589">
        <ele>252.2</ele>
        <time>2012-02-04T12:54:32Z</time>
      </trkpt>
      <trkpt lat="48.58561" lon="-0.446">
        <ele>252</ele>
        <time>2012-02-04T12:54:35Z</time>
      </trkpt>
      <trkpt lat="48.58562" lon="-0.44612">
        <ele>252.5</ele>
        <time>2012-02-04T12:54:38Z</time>
      </trkpt>
      <trkpt lat="48.58564" lon="-0.44623">
        <ele>252.5</ele>
        <time>2012-02-04T12:54:41Z</time>
      </trkpt>
      <trkpt lat="48.58573" lon="-0.44624">
        <ele>253.6</ele>
        <time>2012-02-04T12:54:48Z</time>
      </trkpt>
      <trkpt lat="48.58573" lon="-0.44623">
        <ele>253.8</ele>
        <time>2012-02-04T12:54:49Z</time>
      </trkpt>
      <trkpt lat="48.58581" lon="-0.44604">
        <ele>253.9</ele>
        <time>2012-02-04T12:54:57Z</time>
      </trkpt>
      <trkpt lat="48.58582" lon="-0.44592">
        <ele>253.1</ele>
        <time>2012-02-04T12:55:01Z</time>
      </trkpt>
      <trkpt lat="48.58583" lon="-0.44581">
        <ele>253.6</ele>
        <time>2012-02-04T12:55:04Z</time>
      </trkpt>
      <trkpt lat="48.58584" lon="-0.44571">
        <ele>253.7</ele>
        <time>2012-02-04T12:55:07Z</time>
      </trkpt>
      <trkpt lat="48.58588" lon="-0.44559">
        <ele>253</ele>
        <time>2012-02-04T12:55:14Z</time>
      </trkpt>
      <trkpt lat="48.5859" lon="-0.44546">
        <ele>253</ele>
        <time>2012-02-04T12:55:18Z</time>
      </trkpt>
      <trkpt lat="48.58591" lon="-0.44533">
        <ele>252.9</ele>
        <time>2012-02-04T12:55:21Z</time>
      </trkpt>
      <trkpt lat="48.58593" lon="-0.44523">
        <ele>252.6</ele>
        <time>2012-02-04T12:55:24Z</time>
      </trkpt>
      <trkpt lat="48.58594" lon="-0.4451">
        <ele>251.8</ele>
        <time>2012-02-04T12:55:28Z</time>
      </trkpt>
      <trkpt lat="48.58594" lon="-0.44498">
        <ele>251.2</ele>
        <time>2012-02-04T12:55:31Z</time>
      </trkpt>
      <trkpt lat="48.58593" lon="-0.44487">
        <ele>243.9</ele>
        <time>2012-02-04T12:55:34Z</time>
      </trkpt>
      <trkpt lat="48.58592" lon="-0.44476">
        <ele>238.3</ele>
        <time>2012-02-04T12:55:37Z</time>
      </trkpt>
      <trkpt lat="48.58592" lon="-0.44467">
        <ele>236</ele>
        <time>2012-02-04T12:55:39Z</time>
      </trkpt>
      <trkpt lat="48.58592" lon="-0.44457">
        <ele>235.1</ele>
        <time>2012-02-04T12:55:41Z</time>
      </trkpt>
      <trkpt lat="48.58594" lon="-0.44446">
        <ele>233.9</ele>
        <time>2012-02-04T12:55:43Z</time>
      </trkpt>
      <trkpt lat="48.58597" lon="-0.44435">
        <ele>232.9</ele>
        <time>2012-02-04T12:55:45Z</time>
      </trkpt>
      <trkpt lat="48.58599" lon="-0.44425">
        <ele>231.8</ele>
        <time>2012-02-04T12:55:47Z</time>
      </trkpt>
      <trkpt lat="48.58604" lon="-0.44414">
        <ele>230.2</ele>
        <time>2012-02-04T12:55:50Z</time>
      </trkpt>
      <trkpt lat="48.58606" lon="-0.44413">
        <ele>229.8</ele>
        <time>2012-02-04T12:55:51Z</time>
      </trkpt>
      <trkpt lat="48.5862" lon="-0.44409">
        <ele>226.2</ele>
        <time>2012-02-04T12:55:58Z</time>
      </trkpt>
      <trkpt lat="48.58627" lon="-0.44412">
        <ele>224.7</ele>
        <time>2012-02-04T12:56:01Z</time>
      </trkpt>
      <trkpt lat="48.58635" lon="-0.44415">
        <ele>224</ele>
        <time>2012-02-04T12:56:04Z</time>
      </trkpt>
      <trkpt lat="48.58643" lon="-0.44417">
        <ele>223.4</ele>
        <time>2012-02-04T12:56:07Z</time>
      </trkpt>
      <trkpt lat="48.5865" lon="-0.4442">
        <ele>222.5</ele>
        <time>2012-02-04T12:56:09Z</time>
      </trkpt>
      <trkpt lat="48.58656" lon="-0.44422">
        <ele>221.4</ele>
        <time>2012-02-04T12:56:11Z</time>
      </trkpt>
      <trkpt lat="48.58663" lon="-0.44424">
        <ele>219.9</ele>
        <time>2012-02-04T12:56:13Z</time>
      </trkpt>
      <trkpt lat="48.5867" lon="-0.44426">
        <ele>218.9</ele>
        <time>2012-02-04T12:56:15Z</time>
      </trkpt>
      <trkpt lat="48.58676" lon="-0.44428">
        <ele>218.4</ele>
        <time>2012-02-04T12:56:17Z</time>
      </trkpt>
      <trkpt lat="48.58683" lon="-0.44431">
        <ele>217</ele>
        <time>2012-02-04T12:56:19Z</time>
      </trkpt>
      <trkpt lat="48.58689" lon="-0.44437">
        <ele>215.5</ele>
        <time>2012-02-04T12:56:23Z</time>
      </trkpt>
      <trkpt lat="48.58696" lon="-0.44445">
        <ele>214.6</ele>
        <time>2012-02-04T12:56:30Z</time>
      </trkpt>
      <trkpt lat="48.58701" lon="-0.44453">
        <ele>214.3</ele>
        <time>2012-02-04T12:56:34Z</time>
      </trkpt>
      <trkpt lat="48.58706" lon="-0.44462">
        <ele>214.5</ele>
        <time>2012-02-04T12:56:37Z</time>
      </trkpt>
      <trkpt lat="48.58711" lon="-0.44471">
        <ele>215</ele>
        <time>2012-02-04T12:56:40Z</time>
      </trkpt>
      <trkpt lat="48.58715" lon="-0.44481">
        <ele>215.2</ele>
        <time>2012-02-04T12:56:43Z</time>
      </trkpt>
      <trkpt lat="48.58718" lon="-0.44491">
        <ele>215.3</ele>
        <time>2012-02-04T12:56:46Z</time>
      </trkpt>
      <trkpt lat="48.58723" lon="-0.445">
        <ele>215.1</ele>
        <time>2012-02-04T12:56:50Z</time>
      </trkpt>
      <trkpt lat="48.58727" lon="-0.4451">
        <ele>215.3</ele>
        <time>2012-02-04T12:56:54Z</time>
      </trkpt>
      <trkpt lat="48.58728" lon="-0.44512">
        <ele>215.4</ele>
        <time>2012-02-04T12:56:55Z</time>
      </trkpt>
      <trkpt lat="48.58737" lon="-0.4453">
        <ele>215.9</ele>
        <time>2012-02-04T12:57:03Z</time>
      </trkpt>
      <trkpt lat="48.58741" lon="-0.4454">
        <ele>216.6</ele>
        <time>2012-02-04T12:57:11Z</time>
      </trkpt>
      <trkpt lat="48.58744" lon="-0.44552">
        <ele>216.5</ele>
        <time>2012-02-04T12:57:21Z</time>
      </trkpt>
      <trkpt lat="48.58748" lon="-0.44563">
        <ele>217.2</ele>
        <time>2012-02-04T12:57:26Z</time>
      </trkpt>
      <trkpt lat="48.58751" lon="-0.44574">
        <ele>217.5</ele>
        <time>2012-02-04T12:57:30Z</time>
      </trkpt>
      <trkpt lat="48.58754" lon="-0.44586">
        <ele>217.6</ele>
        <time>2012-02-04T12:57:35Z</time>
      </trkpt>
      <trkpt lat="48.58758" lon="-0.44596">
        <ele>217.5</ele>
        <time>2012-02-04T12:57:39Z</time>
      </trkpt>
      <trkpt lat="48.58762" lon="-0.44606">
        <ele>217.8</ele>
        <time>2012-02-04T12:57:43Z</time>
      </trkpt>
      <trkpt lat="48.58766" lon="-0.44618">
        <ele>218.1</ele>
        <time>2012-02-04T12:57:47Z</time>
      </trkpt>
      <trkpt lat="48.58771" lon="-0.4463">
        <ele>217.8</ele>
        <time>2012-02-04T12:57:51Z</time>
      </trkpt>
      <trkpt lat="48.58774" lon="-0.44642">
        <ele>218.2</ele>
        <time>2012-02-04T12:57:55Z</time>
      </trkpt>
      <trkpt lat="48.58775" lon="-0.44646">
        <ele>218.5</ele>
        <time>2012-02-04T12:57:56Z</time>
      </trkpt>
      <trkpt lat="48.58781" lon="-0.44664">
        <ele>219.4</ele>
        <time>2012-02-04T12:58:02Z</time>
      </trkpt>
      <trkpt lat="48.58783" lon="-0.44677">
        <ele>220.2</ele>
        <time>2012-02-04T12:58:06Z</time>
      </trkpt>
      <trkpt lat="48.58785" lon="-0.44688">
        <ele>220</ele>
        <time>2012-02-04T12:58:10Z</time>
      </trkpt>
      <trkpt lat="48.58787" lon="-0.44699">
        <ele>219.9</ele>
        <time>2012-02-04T12:58:15Z</time>
      </trkpt>
      <trkpt lat="48.58787" lon="-0.44711">
        <ele>220.4</ele>
        <time>2012-02-04T12:58:19Z</time>
      </trkpt>
      <trkpt lat="48.58785" lon="-0.44723">
        <ele>220.7</ele>
        <time>2012-02-04T12:58:23Z</time>
      </trkpt>
      <trkpt lat="48.58781" lon="-0.44734">
        <ele>221.5</ele>
        <time>2012-02-04T12:58:27Z</time>
      </trkpt>
      <trkpt lat="48.58777" lon="-0.44743">
        <ele>222.2</ele>
        <time>2012-02-04T12:58:31Z</time>
      </trkpt>
      <trkpt lat="48.58773" lon="-0.44755">
        <ele>223.7</ele>
        <time>2012-02-04T12:58:35Z</time>
      </trkpt>
      <trkpt lat="48.5877" lon="-0.44765">
        <ele>223.9</ele>
        <time>2012-02-04T12:58:38Z</time>
      </trkpt>
      <trkpt lat="48.5877" lon="-0.44779">
        <ele>224.5</ele>
        <time>2012-02-04T12:58:42Z</time>
      </trkpt>
      <trkpt lat="48.5877" lon="-0.44791">
        <ele>224.3</ele>
        <time>2012-02-04T12:58:46Z</time>
      </trkpt>
      <trkpt lat="48.58767" lon="-0.44803">
        <ele>225</ele>
        <time>2012-02-04T12:58:50Z</time>
      </trkpt>
      <trkpt lat="48.58766" lon="-0.44816">
        <ele>225.5</ele>
        <time>2012-02-04T12:58:54Z</time>
      </trkpt>
      <trkpt lat="48.58765" lon="-0.44829">
        <ele>225.5</ele>
        <time>2012-02-04T12:58:57Z</time>
      </trkpt>
      <trkpt lat="48.58765" lon="-0.44833">
        <ele>225.6</ele>
        <time>2012-02-04T12:58:58Z</time>
      </trkpt>
      <trkpt lat="48.58767" lon="-0.44853">
        <ele>225.9</ele>
        <time>2012-02-04T12:59:03Z</time>
      </trkpt>
      <trkpt lat="48.58769" lon="-0.44864">
        <ele>226.1</ele>
        <time>2012-02-04T12:59:06Z</time>
      </trkpt>
      <trkpt lat="48.58771" lon="-0.44876">
        <ele>226.1</ele>
        <time>2012-02-04T12:59:09Z</time>
      </trkpt>
      <trkpt lat="48.58773" lon="-0.44887">
        <ele>225.9</ele>
        <time>2012-02-04T12:59:12Z</time>
      </trkpt>
      <trkpt lat="48.58774" lon="-0.44898">
        <ele>226.1</ele>
        <time>2012-02-04T12:59:15Z</time>
      </trkpt>
      <trkpt lat="48.58777" lon="-0.44909">
        <ele>226.4</ele>
        <time>2012-02-04T12:59:18Z</time>
      </trkpt>
      <trkpt lat="48.58777" lon="-0.4492">
        <ele>226.2</ele>
        <time>2012-02-04T12:59:21Z</time>
      </trkpt>
      <trkpt lat="48.58778" lon="-0.44931">
        <ele>226.1</ele>
        <time>2012-02-04T12:59:24Z</time>
      </trkpt>
      <trkpt lat="48.58778" lon="-0.44942">
        <ele>226.3</ele>
        <time>2012-02-04T12:59:27Z</time>
      </trkpt>
      <trkpt lat="48.58779" lon="-0.44954">
        <ele>226.2</ele>
        <time>2012-02-04T12:59:31Z</time>
      </trkpt>
      <trkpt lat="48.58777" lon="-0.44967">
        <ele>226.5</ele>
        <time>2012-02-04T12:59:35Z</time>
      </trkpt>
      <trkpt lat="48.58776" lon="-0.4498">
        <ele>226.3</ele>
        <time>2012-02-04T12:59:40Z</time>
      </trkpt>
      <trkpt lat="48.58772" lon="-0.4499">
        <ele>227.2</ele>
        <time>2012-02-04T12:59:45Z</time>
      </trkpt>
      <trkpt lat="48.58767" lon="-0.45001">
        <ele>227.3</ele>
        <time>2012-02-04T12:59:50Z</time>
      </trkpt>
      <trkpt lat="48.58771" lon="-0.45008">
        <ele>227.8</ele>
        <time>2012-02-04T12:59:54Z</time>
      </trkpt>
      <trkpt lat="48.58778" lon="-0.45016">
        <ele>227.7</ele>
        <time>2012-02-04T12:59:57Z</time>
      </trkpt>
      <trkpt lat="48.58784" lon="-0.45024">
        <ele>227.7</ele>
        <time>2012-02-04T13:00:00Z</time>
      </trkpt>
      <trkpt lat="48.58787" lon="-0.45025">
        <ele>227.3</ele>
        <time>2012-02-04T13:00:01Z</time>
      </trkpt>
      <trkpt lat="48.58796" lon="-0.45035">
        <ele>226.4</ele>
        <time>2012-02-04T13:00:05Z</time>
      </trkpt>
      <trkpt lat="48.58802" lon="-0.45039">
        <ele>225.7</ele>
        <time>2012-02-04T13:00:07Z</time>
      </trkpt>
      <trkpt lat="48.58808" lon="-0.45046">
        <ele>225.4</ele>
        <time>2012-02-04T13:00:10Z</time>
      </trkpt>
      <trkpt lat="48.58814" lon="-0.45053">
        <ele>225.1</ele>
        <time>2012-02-04T13:00:13Z</time>
      </trkpt>
      <trkpt lat="48.5882" lon="-0.45061">
        <ele>224.6</ele>
        <time>2012-02-04T13:00:17Z</time>
      </trkpt>
      <trkpt lat="48.58827" lon="-0.45068">
        <ele>224.2</ele>
        <time>2012-02-04T13:00:22Z</time>
      </trkpt>
      <trkpt lat="48.58833" lon="-0.45077">
        <ele>223.8</ele>
        <time>2012-02-04T13:00:29Z</time>
      </trkpt>
      <trkpt lat="48.58841" lon="-0.45083">
        <ele>223.7</ele>
        <time>2012-02-04T13:00:34Z</time>
      </trkpt>
      <trkpt lat="48.58849" lon="-0.45089">
        <ele>224.3</ele>
        <time>2012-02-04T13:00:38Z</time>
      </trkpt>
      <trkpt lat="48.58855" lon="-0.45096">
        <ele>224.2</ele>
        <time>2012-02-04T13:00:42Z</time>
      </trkpt>
      <trkpt lat="48.58863" lon="-0.45102">
        <ele>223.6</ele>
        <time>2012-02-04T13:00:46Z</time>
      </trkpt>
      <trkpt lat="48.58869" lon="-0.45108">
        <ele>224.6</ele>
        <time>2012-02-04T13:00:50Z</time>
      </trkpt>
      <trkpt lat="48.58876" lon="-0.45114">
        <ele>224.8</ele>
        <time>2012-02-04T13:00:54Z</time>
      </trkpt>
      <trkpt lat="48.58883" lon="-0.45119">
        <ele>224.4</ele>
        <time>2012-02-04T13:00:58Z</time>
      </trkpt>
      <trkpt lat="48.5889" lon="-0.45127">
        <ele>225.1</ele>
        <time>2012-02-04T13:01:03Z</time>
      </trkpt>
      <trkpt lat="48.5889" lon="-0.45127">
        <ele>225.2</ele>
        <time>2012-02-04T13:01:04Z</time>
      </trkpt>
      <trkpt lat="48.58906" lon="-0.45136">
        <ele>226.7</ele>
        <time>2012-02-04T13:01:19Z</time>
      </trkpt>
      <trkpt lat="48.58912" lon="-0.45143">
        <ele>226.7</ele>
        <time>2012-02-04T13:01:26Z</time>
      </trkpt>
      <trkpt lat="48.58917" lon="-0.45151">
        <ele>227.8</ele>
        <time>2012-02-04T13:01:36Z</time>
      </trkpt>
      <trkpt lat="48.58924" lon="-0.45158">
        <ele>228.5</ele>
        <time>2012-02-04T13:01:41Z</time>
      </trkpt>
      <trkpt lat="48.58932" lon="-0.45163">
        <ele>228.6</ele>
        <time>2012-02-04T13:01:46Z</time>
      </trkpt>
      <trkpt lat="48.58941" lon="-0.45166">
        <ele>229.6</ele>
        <time>2012-02-04T13:01:51Z</time>
      </trkpt>
      <trkpt lat="48.58949" lon="-0.45171">
        <ele>230.2</ele>
        <time>2012-02-04T13:01:56Z</time>
      </trkpt>
      <trkpt lat="48.58957" lon="-0.45177">
        <ele>230.8</ele>
        <time>2012-02-04T13:02:01Z</time>
      </trkpt>
      <trkpt lat="48.58963" lon="-0.45183">
        <ele>231.1</ele>
        <time>2012-02-04T13:02:06Z</time>
      </trkpt>
      <trkpt lat="48.58965" lon="-0.45185">
        <ele>231.5</ele>
        <time>2012-02-04T13:02:07Z</time>
      </trkpt>
      <trkpt lat="48.58978" lon="-0.45195">
        <ele>232.5</ele>
        <time>2012-02-04T13:02:16Z</time>
      </trkpt>
      <trkpt lat="48.58985" lon="-0.45201">
        <ele>234</ele>
        <time>2012-02-04T13:02:20Z</time>
      </trkpt>
      <trkpt lat="48.58993" lon="-0.45207">
        <ele>234.9</ele>
        <time>2012-02-04T13:02:25Z</time>
      </trkpt>
      <trkpt lat="48.58999" lon="-0.45213">
        <ele>235.4</ele>
        <time>2012-02-04T13:02:29Z</time>
      </trkpt>
      <trkpt lat="48.59006" lon="-0.45219">
        <ele>235.6</ele>
        <time>2012-02-04T13:02:34Z</time>
      </trkpt>
      <trkpt lat="48.59013" lon="-0.45227">
        <ele>236.3</ele>
        <time>2012-02-04T13:02:39Z</time>
      </trkpt>
      <trkpt lat="48.5902" lon="-0.45232">
        <ele>238.2</ele>
        <time>2012-02-04T13:02:44Z</time>
      </trkpt>
      <trkpt lat="48.59028" lon="-0.45237">
        <ele>241.1</ele>
        <time>2012-02-04T13:02:52Z</time>
      </trkpt>
      <trkpt lat="48.59022" lon="-0.45247">
        <ele>238.5</ele>
        <time>2012-02-04T13:03:26Z</time>
      </trkpt>
      <trkpt lat="48.59022" lon="-0.45248">
        <ele>238.4</ele>
        <time>2012-02-04T13:03:27Z</time>
      </trkpt>
      <trkpt lat="48.59032" lon="-0.45268">
        <ele>243.2</ele>
        <time>2012-02-04T13:03:58Z</time>
      </trkpt>
      <trkpt lat="48.59041" lon="-0.45268">
        <ele>245.9</ele>
        <time>2012-02-04T13:04:11Z</time>
      </trkpt>
      <trkpt lat="48.59049" lon="-0.45267">
        <ele>248.3</ele>
        <time>2012-02-04T13:04:23Z</time>
      </trkpt>
      <trkpt lat="48.59058" lon="-0.45267">
        <ele>249.5</ele>
        <time>2012-02-04T13:04:44Z</time>
      </trkpt>
      <trkpt lat="48.59058" lon="-0.45267">
        <ele>249.6</ele>
        <time>2012-02-04T13:04:45Z</time>
      </trkpt>
      <trkpt lat="48.59074" lon="-0.45278">
        <ele>253.7</ele>
        <time>2012-02-04T13:05:10Z</time>
      </trkpt>
      <trkpt lat="48.5908" lon="-0.45284">
        <ele>255.9</ele>
        <time>2012-02-04T13:05:17Z</time>
      </trkpt>
      <trkpt lat="48.59088" lon="-0.4529">
        <ele>257.1</ele>
        <time>2012-02-04T13:05:24Z</time>
      </trkpt>
      <trkpt lat="48.59095" lon="-0.45297">
        <ele>257.4</ele>
        <time>2012-02-04T13:05:30Z</time>
      </trkpt>
      <trkpt lat="48.59102" lon="-0.45303">
        <ele>259.1</ele>
        <time>2012-02-04T13:05:36Z</time>
      </trkpt>
      <trkpt lat="48.59098" lon="-0.45314">
        <ele>259.9</ele>
        <time>2012-02-04T13:05:46Z</time>
      </trkpt>
      <trkpt lat="48.59095" lon="-0.45315">
        <ele>259.9</ele>
        <time>2012-02-04T13:05:47Z</time>
      </trkpt>
      <trkpt lat="48.59082" lon="-0.4532">
        <ele>259.5</ele>
        <time>2012-02-04T13:05:51Z</time>
      </trkpt>
      <trkpt lat="48.59075" lon="-0.45324">
        <ele>258.9</ele>
        <time>2012-02-04T13:05:53Z</time>
      </trkpt>
      <trkpt lat="48.59067" lon="-0.45328">
        <ele>258.5</ele>
        <time>2012-02-04T13:05:55Z</time>
      </trkpt>
      <trkpt lat="48.59063" lon="-0.45331">
        <ele>258.4</ele>
        <time>2012-02-04T13:05:56Z</time>
      </trkpt>
      <trkpt lat="48.59059" lon="-0.45334">
        <ele>257.9</ele>
        <time>2012-02-04T13:05:57Z</time>
      </trkpt>
      <trkpt lat="48.59054" lon="-0.45338">
        <ele>257.5</ele>
        <time>2012-02-04T13:05:58Z</time>
      </trkpt>
      <trkpt lat="48.5905" lon="-0.45341">
        <ele>257.2</ele>
        <time>2012-02-04T13:05:59Z</time>
      </trkpt>
      <trkpt lat="48.59046" lon="-0.45345">
        <ele>256.9</ele>
        <time>2012-02-04T13:06:00Z</time>
      </trkpt>
      <trkpt lat="48.59039" lon="-0.45353">
        <ele>256.3</ele>
        <time>2012-02-04T13:06:02Z</time>
      </trkpt>
      <trkpt lat="48.59033" lon="-0.45361">
        <ele>255.8</ele>
        <time>2012-02-04T13:06:04Z</time>
      </trkpt>
      <trkpt lat="48.59026" lon="-0.45369">
        <ele>254.9</ele>
        <time>2012-02-04T13:06:06Z</time>
      </trkpt>
      <trkpt lat="48.5902" lon="-0.45379">
        <ele>254</ele>
        <time>2012-02-04T13:06:08Z</time>
      </trkpt>
      <trkpt lat="48.59015" lon="-0.45388">
        <ele>254.1</ele>
        <time>2012-02-04T13:06:10Z</time>
      </trkpt>
      <trkpt lat="48.5901" lon="-0.45399">
        <ele>253.6</ele>
        <time>2012-02-04T13:06:12Z</time>
      </trkpt>
      <trkpt lat="48.59005" lon="-0.45409">
        <ele>252.9</ele>
        <time>2012-02-04T13:06:14Z</time>
      </trkpt>
      <trkpt lat="48.59002" lon="-0.45415">
        <ele>252.7</ele>
        <time>2012-02-04T13:06:15Z</time>
      </trkpt>
      <trkpt lat="48.59" lon="-0.45421">
        <ele>252.3</ele>
        <time>2012-02-04T13:06:16Z</time>
      </trkpt>
      <trkpt lat="48.58997" lon="-0.45428">
        <ele>252</ele>
        <time>2012-02-04T13:06:17Z</time>
      </trkpt>
      <trkpt lat="48.58994" lon="-0.45434">
        <ele>251.9</ele>
        <time>2012-02-04T13:06:18Z</time>
      </trkpt>
      <trkpt lat="48.58992" lon="-0.4544">
        <ele>251.8</ele>
        <time>2012-02-04T13:06:19Z</time>
      </trkpt>
      <trkpt lat="48.58987" lon="-0.45452">
        <ele>251.6</ele>
        <time>2012-02-04T13:06:21Z</time>
      </trkpt>
      <trkpt lat="48.58985" lon="-0.45458">
        <ele>251.5</ele>
        <time>2012-02-04T13:06:22Z</time>
      </trkpt>
      <trkpt lat="48.58983" lon="-0.45464">
        <ele>251.1</ele>
        <time>2012-02-04T13:06:23Z</time>
      </trkpt>
      <trkpt lat="48.58981" lon="-0.45471">
        <ele>250.7</ele>
        <time>2012-02-04T13:06:24Z</time>
      </trkpt>
      <trkpt lat="48.58979" lon="-0.45477">
        <ele>250.4</ele>
        <time>2012-02-04T13:06:25Z</time>
      </trkpt>
      <trkpt lat="48.58977" lon="-0.45484">
        <ele>250.1</ele>
        <time>2012-02-04T13:06:26Z</time>
      </trkpt>
      <trkpt lat="48.58975" lon="-0.4549">
        <ele>250</ele>
        <time>2012-02-04T13:06:27Z</time>
      </trkpt>
      <trkpt lat="48.58973" lon="-0.45497">
        <ele>249.1</ele>
        <time>2012-02-04T13:06:28Z</time>
      </trkpt>
      <trkpt lat="48.5897" lon="-0.45508">
        <ele>248.3</ele>
        <time>2012-02-04T13:06:30Z</time>
      </trkpt>
      <trkpt lat="48.58968" lon="-0.45517">
        <ele>248</ele>
        <time>2012-02-04T13:06:32Z</time>
      </trkpt>
      <trkpt lat="48.58964" lon="-0.45529">
        <ele>247.3</ele>
        <time>2012-02-04T13:06:35Z</time>
      </trkpt>
      <trkpt lat="48.58962" lon="-0.45538">
        <ele>246.6</ele>
        <time>2012-02-04T13:06:37Z</time>
      </trkpt>
      <trkpt lat="48.58958" lon="-0.4555">
        <ele>245.6</ele>
        <time>2012-02-04T13:06:40Z</time>
      </trkpt>
      <trkpt lat="48.58956" lon="-0.4556">
        <ele>244.8</ele>
        <time>2012-02-04T13:06:43Z</time>
      </trkpt>
      <trkpt lat="48.58952" lon="-0.45568">
        <ele>244</ele>
        <time>2012-02-04T13:06:46Z</time>
      </trkpt>
      <trkpt lat="48.58949" lon="-0.45576">
        <ele>244.2</ele>
        <time>2012-02-04T13:06:48Z</time>
      </trkpt>
      <trkpt lat="48.58947" lon="-0.4558">
        <ele>244.1</ele>
        <time>2012-02-04T13:06:49Z</time>
      </trkpt>
      <trkpt lat="48.58941" lon="-0.45591">
        <ele>243.5</ele>
        <time>2012-02-04T13:06:52Z</time>
      </trkpt>
      <trkpt lat="48.58936" lon="-0.45599">
        <ele>243.3</ele>
        <time>2012-02-04T13:06:54Z</time>
      </trkpt>
      <trkpt lat="48.58931" lon="-0.45607">
        <ele>243</ele>
        <time>2012-02-04T13:06:56Z</time>
      </trkpt>
      <trkpt lat="48.58926" lon="-0.45614">
        <ele>242.9</ele>
        <time>2012-02-04T13:06:58Z</time>
      </trkpt>
      <trkpt lat="48.58921" lon="-0.4562">
        <ele>242.9</ele>
        <time>2012-02-04T13:07:00Z</time>
      </trkpt>
      <trkpt lat="48.58914" lon="-0.45627">
        <ele>242.2</ele>
        <time>2012-02-04T13:07:03Z</time>
      </trkpt>
      <trkpt lat="48.58906" lon="-0.45633">
        <ele>241.3</ele>
        <time>2012-02-04T13:07:06Z</time>
      </trkpt>
      <trkpt lat="48.58899" lon="-0.45637">
        <ele>240.8</ele>
        <time>2012-02-04T13:07:08Z</time>
      </trkpt>
      <trkpt lat="48.58891" lon="-0.4564">
        <ele>240.6</ele>
        <time>2012-02-04T13:07:10Z</time>
      </trkpt>
      <trkpt lat="48.58887" lon="-0.45641">
        <ele>240.6</ele>
        <time>2012-02-04T13:07:11Z</time>
      </trkpt>
      <trkpt lat="48.58882" lon="-0.45642">
        <ele>240.7</ele>
        <time>2012-02-04T13:07:12Z</time>
      </trkpt>
      <trkpt lat="48.58877" lon="-0.45642">
        <ele>240.2</ele>
        <time>2012-02-04T13:07:13Z</time>
      </trkpt>
      <trkpt lat="48.58873" lon="-0.45642">
        <ele>239.8</ele>
        <time>2012-02-04T13:07:14Z</time>
      </trkpt>
      <trkpt lat="48.58868" lon="-0.45641">
        <ele>239.5</ele>
        <time>2012-02-04T13:07:15Z</time>
      </trkpt>
      <trkpt lat="48.58863" lon="-0.45639">
        <ele>239.3</ele>
        <time>2012-02-04T13:07:16Z</time>
      </trkpt>
      <trkpt lat="48.58858" lon="-0.45638">
        <ele>238.9</ele>
        <time>2012-02-04T13:07:17Z</time>
      </trkpt>
      <trkpt lat="48.58849" lon="-0.45634">
        <ele>238.3</ele>
        <time>2012-02-04T13:07:19Z</time>
      </trkpt>
      <trkpt lat="48.58841" lon="-0.45629">
        <ele>237.2</ele>
        <time>2012-02-04T13:07:22Z</time>
      </trkpt>
      <trkpt lat="48.58835" lon="-0.45624">
        <ele>236.7</ele>
        <time>2012-02-04T13:07:24Z</time>
      </trkpt>
      <trkpt lat="48.58829" lon="-0.45619">
        <ele>236.2</ele>
        <time>2012-02-04T13:07:26Z</time>
      </trkpt>
      <trkpt lat="48.58823" lon="-0.45612">
        <ele>235.9</ele>
        <time>2012-02-04T13:07:28Z</time>
      </trkpt>
      <trkpt lat="48.58818" lon="-0.45606">
        <ele>235.7</ele>
        <time>2012-02-04T13:07:30Z</time>
      </trkpt>
      <trkpt lat="48.58814" lon="-0.45598">
        <ele>235.6</ele>
        <time>2012-02-04T13:07:32Z</time>
      </trkpt>
      <trkpt lat="48.5881" lon="-0.4559">
        <ele>235.4</ele>
        <time>2012-02-04T13:07:34Z</time>
      </trkpt>
      <trkpt lat="48.58806" lon="-0.45581">
        <ele>235.2</ele>
        <time>2012-02-04T13:07:36Z</time>
      </trkpt>
      <trkpt lat="48.58804" lon="-0.45572">
        <ele>235.1</ele>
        <time>2012-02-04T13:07:38Z</time>
      </trkpt>
      <trkpt lat="48.58801" lon="-0.45563">
        <ele>234.8</ele>
        <time>2012-02-04T13:07:40Z</time>
      </trkpt>
      <trkpt lat="48.58799" lon="-0.45553">
        <ele>234.9</ele>
        <time>2012-02-04T13:07:42Z</time>
      </trkpt>
      <trkpt lat="48.58797" lon="-0.45544">
        <ele>235</ele>
        <time>2012-02-04T13:07:44Z</time>
      </trkpt>
      <trkpt lat="48.58795" lon="-0.45534">
        <ele>234.9</ele>
        <time>2012-02-04T13:07:46Z</time>
      </trkpt>
      <trkpt lat="48.58793" lon="-0.45524">
        <ele>234.6</ele>
        <time>2012-02-04T13:07:48Z</time>
      </trkpt>
      <trkpt lat="48.58791" lon="-0.45514">
        <ele>234.2</ele>
        <time>2012-02-04T13:07:50Z</time>
      </trkpt>
      <trkpt lat="48.5879" lon="-0.45509">
        <ele>234.2</ele>
        <time>2012-02-04T13:07:51Z</time>
      </trkpt>
      <trkpt lat="48.58787" lon="-0.45493">
        <ele>234</ele>
        <time>2012-02-04T13:07:54Z</time>
      </trkpt>
      <trkpt lat="48.58784" lon="-0.45482">
        <ele>234.2</ele>
        <time>2012-02-04T13:07:56Z</time>
      </trkpt>
      <trkpt lat="48.58782" lon="-0.45471">
        <ele>233.9</ele>
        <time>2012-02-04T13:07:58Z</time>
      </trkpt>
      <trkpt lat="48.58779" lon="-0.45461">
        <ele>233.7</ele>
        <time>2012-02-04T13:08:00Z</time>
      </trkpt>
      <trkpt lat="48.58775" lon="-0.45451">
        <ele>233.5</ele>
        <time>2012-02-04T13:08:02Z</time>
      </trkpt>
      <trkpt lat="48.58773" lon="-0.45441">
        <ele>233.1</ele>
        <time>2012-02-04T13:08:04Z</time>
      </trkpt>
      <trkpt lat="48.58771" lon="-0.45431">
        <ele>233.5</ele>
        <time>2012-02-04T13:08:06Z</time>
      </trkpt>
      <trkpt lat="48.58769" lon="-0.45421">
        <ele>233.3</ele>
        <time>2012-02-04T13:08:08Z</time>
      </trkpt>
      <trkpt lat="48.58767" lon="-0.45411">
        <ele>233.3</ele>
        <time>2012-02-04T13:08:10Z</time>
      </trkpt>
      <trkpt lat="48.58768" lon="-0.45398">
        <ele>232.5</ele>
        <time>2012-02-04T13:08:32Z</time>
      </trkpt>
      <trkpt lat="48.58767" lon="-0.45386">
        <ele>232.3</ele>
        <time>2012-02-04T13:08:37Z</time>
      </trkpt>
      <trkpt lat="48.58764" lon="-0.45373">
        <ele>232.7</ele>
        <time>2012-02-04T13:08:40Z</time>
      </trkpt>
      <trkpt lat="48.58762" lon="-0.45365">
        <ele>232.8</ele>
        <time>2012-02-04T13:08:42Z</time>
      </trkpt>
      <trkpt lat="48.58759" lon="-0.45355">
        <ele>232.6</ele>
        <time>2012-02-04T13:08:44Z</time>
      </trkpt>
      <trkpt lat="48.58757" lon="-0.45347">
        <ele>232.4</ele>
        <time>2012-02-04T13:08:46Z</time>
      </trkpt>
      <trkpt lat="48.58755" lon="-0.45338">
        <ele>232.3</ele>
        <time>2012-02-04T13:08:48Z</time>
      </trkpt>
      <trkpt lat="48.58752" lon="-0.45329">
        <ele>232.5</ele>
        <time>2012-02-04T13:08:50Z</time>
      </trkpt>
      <trkpt lat="48.58751" lon="-0.4532">
        <ele>232.7</ele>
        <time>2012-02-04T13:08:52Z</time>
      </trkpt>
      <trkpt lat="48.5875" lon="-0.45315">
        <ele>232.8</ele>
        <time>2012-02-04T13:08:53Z</time>
      </trkpt>
      <trkpt lat="48.58746" lon="-0.453">
        <ele>232.9</ele>
        <time>2012-02-04T13:08:56Z</time>
      </trkpt>
      <trkpt lat="48.58744" lon="-0.4529">
        <ele>232.9</ele>
        <time>2012-02-04T13:08:58Z</time>
      </trkpt>
      <trkpt lat="48.58742" lon="-0.4528">
        <ele>233.1</ele>
        <time>2012-02-04T13:09:00Z</time>
      </trkpt>
      <trkpt lat="48.5874" lon="-0.45271">
        <ele>233.3</ele>
        <time>2012-02-04T13:09:02Z</time>
      </trkpt>
      <trkpt lat="48.58739" lon="-0.45262">
        <ele>233.4</ele>
        <time>2012-02-04T13:09:04Z</time>
      </trkpt>
      <trkpt lat="48.58737" lon="-0.45253">
        <ele>233.4</ele>
        <time>2012-02-04T13:09:06Z</time>
      </trkpt>
      <trkpt lat="48.58736" lon="-0.45244">
        <ele>233.7</ele>
        <time>2012-02-04T13:09:08Z</time>
      </trkpt>
      <trkpt lat="48.58736" lon="-0.45232">
        <ele>234.5</ele>
        <time>2012-02-04T13:09:11Z</time>
      </trkpt>
      <trkpt lat="48.58736" lon="-0.45219">
        <ele>235.1</ele>
        <time>2012-02-04T13:09:14Z</time>
      </trkpt>
      <trkpt lat="48.58736" lon="-0.4521">
        <ele>235.3</ele>
        <time>2012-02-04T13:09:16Z</time>
      </trkpt>
      <trkpt lat="48.58735" lon="-0.452">
        <ele>235.5</ele>
        <time>2012-02-04T13:09:18Z</time>
      </trkpt>
      <trkpt lat="48.58735" lon="-0.45187">
        <ele>236.2</ele>
        <time>2012-02-04T13:09:21Z</time>
      </trkpt>
      <trkpt lat="48.58736" lon="-0.45178">
        <ele>236.8</ele>
        <time>2012-02-04T13:09:23Z</time>
      </trkpt>
      <trkpt lat="48.58735" lon="-0.45165">
        <ele>237.5</ele>
        <time>2012-02-04T13:09:26Z</time>
      </trkpt>
      <trkpt lat="48.58735" lon="-0.45152">
        <ele>237.8</ele>
        <time>2012-02-04T13:09:29Z</time>
      </trkpt>
      <trkpt lat="48.58735" lon="-0.45138">
        <ele>237.6</ele>
        <time>2012-02-04T13:09:32Z</time>
      </trkpt>
      <trkpt lat="48.58734" lon="-0.45129">
        <ele>238.2</ele>
        <time>2012-02-04T13:09:34Z</time>
      </trkpt>
      <trkpt lat="48.58733" lon="-0.4512">
        <ele>238.6</ele>
        <time>2012-02-04T13:09:36Z</time>
      </trkpt>
      <trkpt lat="48.58731" lon="-0.4511">
        <ele>238.8</ele>
        <time>2012-02-04T13:09:38Z</time>
      </trkpt>
      <trkpt lat="48.5873" lon="-0.451">
        <ele>239.2</ele>
        <time>2012-02-04T13:09:40Z</time>
      </trkpt>
      <trkpt lat="48.58728" lon="-0.4509">
        <ele>239.8</ele>
        <time>2012-02-04T13:09:42Z</time>
      </trkpt>
      <trkpt lat="48.58727" lon="-0.4508">
        <ele>240.3</ele>
        <time>2012-02-04T13:09:44Z</time>
      </trkpt>
      <trkpt lat="48.58725" lon="-0.45069">
        <ele>240.4</ele>
        <time>2012-02-04T13:09:46Z</time>
      </trkpt>
      <trkpt lat="48.58723" lon="-0.45059">
        <ele>240.7</ele>
        <time>2012-02-04T13:09:48Z</time>
      </trkpt>
      <trkpt lat="48.58721" lon="-0.45049">
        <ele>241.9</ele>
        <time>2012-02-04T13:09:50Z</time>
      </trkpt>
      <trkpt lat="48.58718" lon="-0.45039">
        <ele>242.3</ele>
        <time>2012-02-04T13:09:52Z</time>
      </trkpt>
      <trkpt lat="48.58716" lon="-0.45029">
        <ele>242.1</ele>
        <time>2012-02-04T13:09:54Z</time>
      </trkpt>
      <trkpt lat="48.58714" lon="-0.45024">
        <ele>242</ele>
        <time>2012-02-04T13:09:55Z</time>
      </trkpt>
      <trkpt lat="48.58708" lon="-0.4501">
        <ele>242.8</ele>
        <time>2012-02-04T13:09:58Z</time>
      </trkpt>
      <trkpt lat="48.58704" lon="-0.45002">
        <ele>242.9</ele>
        <time>2012-02-04T13:10:00Z</time>
      </trkpt>
      <trkpt lat="48.58701" lon="-0.44994">
        <ele>243.5</ele>
        <time>2012-02-04T13:10:02Z</time>
      </trkpt>
      <trkpt lat="48.58696" lon="-0.44985">
        <ele>244.5</ele>
        <time>2012-02-04T13:10:05Z</time>
      </trkpt>
      <trkpt lat="48.58691" lon="-0.44976">
        <ele>244.6</ele>
        <time>2012-02-04T13:10:08Z</time>
      </trkpt>
      <trkpt lat="48.58685" lon="-0.44968">
        <ele>244.9</ele>
        <time>2012-02-04T13:10:11Z</time>
      </trkpt>
      <trkpt lat="48.58678" lon="-0.44961">
        <ele>244.7</ele>
        <time>2012-02-04T13:10:14Z</time>
      </trkpt>
      <trkpt lat="48.58671" lon="-0.44954">
        <ele>244.1</ele>
        <time>2012-02-04T13:10:18Z</time>
      </trkpt>
      <trkpt lat="48.58662" lon="-0.44952">
        <ele>244.1</ele>
        <time>2012-02-04T13:10:34Z</time>
      </trkpt>
      <trkpt lat="48.58658" lon="-0.44961">
        <ele>243.8</ele>
        <time>2012-02-04T13:10:42Z</time>
      </trkpt>
      <trkpt lat="48.58655" lon="-0.44972">
        <ele>243.7</ele>
        <time>2012-02-04T13:10:46Z</time>
      </trkpt>
      <trkpt lat="48.58654" lon="-0.44984">
        <ele>243.5</ele>
        <time>2012-02-04T13:10:50Z</time>
      </trkpt>
      <trkpt lat="48.58655" lon="-0.44995">
        <ele>242.7</ele>
        <time>2012-02-04T13:10:54Z</time>
      </trkpt>
      <trkpt lat="48.58657" lon="-0.45006">
        <ele>242.7</ele>
        <time>2012-02-04T13:10:57Z</time>
      </trkpt>
      <trkpt lat="48.58658" lon="-0.4501">
        <ele>243</ele>
        <time>2012-02-04T13:10:58Z</time>
      </trkpt>
      <trkpt lat="48.58663" lon="-0.45028">
        <ele>242.8</ele>
        <time>2012-02-04T13:11:04Z</time>
      </trkpt>
      <trkpt lat="48.58667" lon="-0.4504">
        <ele>242.4</ele>
        <time>2012-02-04T13:11:08Z</time>
      </trkpt>
      <trkpt lat="48.5867" lon="-0.4505">
        <ele>242.7</ele>
        <time>2012-02-04T13:11:11Z</time>
      </trkpt>
      <trkpt lat="48.58674" lon="-0.45062">
        <ele>242.2</ele>
        <time>2012-02-04T13:11:15Z</time>
      </trkpt>
      <trkpt lat="48.58678" lon="-0.45073">
        <ele>242.6</ele>
        <time>2012-02-04T13:11:20Z</time>
      </trkpt>
      <trkpt lat="48.5868" lon="-0.45084">
        <ele>242.9</ele>
        <time>2012-02-04T13:11:26Z</time>
      </trkpt>
      <trkpt lat="48.58681" lon="-0.45097">
        <ele>242.3</ele>
        <time>2012-02-04T13:11:30Z</time>
      </trkpt>
      <trkpt lat="48.58682" lon="-0.45109">
        <ele>242.2</ele>
        <time>2012-02-04T13:11:33Z</time>
      </trkpt>
      <trkpt lat="48.58682" lon="-0.45119">
        <ele>242.1</ele>
        <time>2012-02-04T13:11:36Z</time>
      </trkpt>
      <trkpt lat="48.58683" lon="-0.45132">
        <ele>242.7</ele>
        <time>2012-02-04T13:11:40Z</time>
      </trkpt>
      <trkpt lat="48.58683" lon="-0.45143">
        <ele>242.1</ele>
        <time>2012-02-04T13:11:43Z</time>
      </trkpt>
      <trkpt lat="48.58685" lon="-0.45153">
        <ele>242</ele>
        <time>2012-02-04T13:11:46Z</time>
      </trkpt>
      <trkpt lat="48.58687" lon="-0.45164">
        <ele>241.6</ele>
        <time>2012-02-04T13:11:49Z</time>
      </trkpt>
      <trkpt lat="48.5869" lon="-0.45176">
        <ele>241.5</ele>
        <time>2012-02-04T13:11:53Z</time>
      </trkpt>
      <trkpt lat="48.58694" lon="-0.45189">
        <ele>241.4</ele>
        <time>2012-02-04T13:11:57Z</time>
      </trkpt>
      <trkpt lat="48.58696" lon="-0.45201">
        <ele>242</ele>
        <time>2012-02-04T13:12:01Z</time>
      </trkpt>
      <trkpt lat="48.58697" lon="-0.45205">
        <ele>242.2</ele>
        <time>2012-02-04T13:12:02Z</time>
      </trkpt>
      <trkpt lat="48.58697" lon="-0.45225">
        <ele>241.9</ele>
        <time>2012-02-04T13:12:07Z</time>
      </trkpt>
      <trkpt lat="48.58696" lon="-0.45235">
        <ele>241.5</ele>
        <time>2012-02-04T13:12:10Z</time>
      </trkpt>
      <trkpt lat="48.58696" lon="-0.45246">
        <ele>241.2</ele>
        <time>2012-02-04T13:12:13Z</time>
      </trkpt>
      <trkpt lat="48.58698" lon="-0.45259">
        <ele>240.9</ele>
        <time>2012-02-04T13:12:17Z</time>
      </trkpt>
      <trkpt lat="48.587" lon="-0.45271">
        <ele>240.3</ele>
        <time>2012-02-04T13:12:24Z</time>
      </trkpt>
      <trkpt lat="48.587" lon="-0.45284">
        <ele>240.2</ele>
        <time>2012-02-04T13:12:34Z</time>
      </trkpt>
      <trkpt lat="48.587" lon="-0.45295">
        <ele>240.4</ele>
        <time>2012-02-04T13:12:43Z</time>
      </trkpt>
      <trkpt lat="48.58704" lon="-0.45307">
        <ele>240.6</ele>
        <time>2012-02-04T13:12:47Z</time>
      </trkpt>
      <trkpt lat="48.58708" lon="-0.45317">
        <ele>240.5</ele>
        <time>2012-02-04T13:12:50Z</time>
      </trkpt>
      <trkpt lat="48.58711" lon="-0.45327">
        <ele>240.4</ele>
        <time>2012-02-04T13:12:53Z</time>
      </trkpt>
      <trkpt lat="48.58714" lon="-0.45339">
        <ele>241.3</ele>
        <time>2012-02-04T13:12:57Z</time>
      </trkpt>
      <trkpt lat="48.58715" lon="-0.4535">
        <ele>241.5</ele>
        <time>2012-02-04T13:13:01Z</time>
      </trkpt>
      <trkpt lat="48.58716" lon="-0.45363">
        <ele>241.3</ele>
        <time>2012-02-04T13:13:05Z</time>
      </trkpt>
      <trkpt lat="48.58716" lon="-0.45366">
        <ele>241.3</ele>
        <time>2012-02-04T13:13:06Z</time>
      </trkpt>
      <trkpt lat="48.58719" lon="-0.45388">
        <ele>241.6</ele>
        <time>2012-02-04T13:13:13Z</time>
      </trkpt>
      <trkpt lat="48.58718" lon="-0.45401">
        <ele>241.5</ele>
        <time>2012-02-04T13:13:17Z</time>
      </trkpt>
      <trkpt lat="48.58719" lon="-0.45412">
        <ele>242.1</ele>
        <time>2012-02-04T13:13:20Z</time>
      </trkpt>
      <trkpt lat="48.58719" lon="-0.45423">
        <ele>242.7</ele>
        <time>2012-02-04T13:13:23Z</time>
      </trkpt>
      <trkpt lat="48.5872" lon="-0.45435">
        <ele>243.2</ele>
        <time>2012-02-04T13:13:26Z</time>
      </trkpt>
      <trkpt lat="48.58722" lon="-0.45446">
        <ele>242.7</ele>
        <time>2012-02-04T13:13:29Z</time>
      </trkpt>
      <trkpt lat="48.58722" lon="-0.45457">
        <ele>243.1</ele>
        <time>2012-02-04T13:13:32Z</time>
      </trkpt>
      <trkpt lat="48.58722" lon="-0.4547">
        <ele>243</ele>
        <time>2012-02-04T13:13:36Z</time>
      </trkpt>
      <trkpt lat="48.58721" lon="-0.45483">
        <ele>243.3</ele>
        <time>2012-02-04T13:13:43Z</time>
      </trkpt>
      <trkpt lat="48.58721" lon="-0.45493">
        <ele>243.2</ele>
        <time>2012-02-04T13:13:46Z</time>
      </trkpt>
      <trkpt lat="48.58722" lon="-0.45505">
        <ele>244</ele>
        <time>2012-02-04T13:13:49Z</time>
      </trkpt>
      <trkpt lat="48.58722" lon="-0.45517">
        <ele>243.7</ele>
        <time>2012-02-04T13:13:52Z</time>
      </trkpt>
      <trkpt lat="48.58722" lon="-0.45528">
        <ele>243.5</ele>
        <time>2012-02-04T13:13:55Z</time>
      </trkpt>
      <trkpt lat="48.58724" lon="-0.4554">
        <ele>244.3</ele>
        <time>2012-02-04T13:13:58Z</time>
      </trkpt>
      <trkpt lat="48.58725" lon="-0.45553">
        <ele>245</ele>
        <time>2012-02-04T13:14:01Z</time>
      </trkpt>
      <trkpt lat="48.58725" lon="-0.45566">
        <ele>245.1</ele>
        <time>2012-02-04T13:14:04Z</time>
      </trkpt>
      <trkpt lat="48.58725" lon="-0.45578">
        <ele>245.4</ele>
        <time>2012-02-04T13:14:07Z</time>
      </trkpt>
      <trkpt lat="48.58726" lon="-0.45582">
        <ele>245.4</ele>
        <time>2012-02-04T13:14:08Z</time>
      </trkpt>
      <trkpt lat="48.58726" lon="-0.45602">
        <ele>244.6</ele>
        <time>2012-02-04T13:14:13Z</time>
      </trkpt>
      <trkpt lat="48.58726" lon="-0.45615">
        <ele>244.8</ele>
        <time>2012-02-04T13:14:16Z</time>
      </trkpt>
      <trkpt lat="48.58726" lon="-0.45628">
        <ele>245.2</ele>
        <time>2012-02-04T13:14:19Z</time>
      </trkpt>
      <trkpt lat="48.58727" lon="-0.4564">
        <ele>245.2</ele>
        <time>2012-02-04T13:14:22Z</time>
      </trkpt>
      <trkpt lat="48.58729" lon="-0.4565">
        <ele>245.1</ele>
        <time>2012-02-04T13:14:25Z</time>
      </trkpt>
      <trkpt lat="48.58729" lon="-0.45662">
        <ele>245.3</ele>
        <time>2012-02-04T13:14:28Z</time>
      </trkpt>
      <trkpt lat="48.5873" lon="-0.45675">
        <ele>245.4</ele>
        <time>2012-02-04T13:14:31Z</time>
      </trkpt>
      <trkpt lat="48.58729" lon="-0.45687">
        <ele>245.7</ele>
        <time>2012-02-04T13:14:34Z</time>
      </trkpt>
      <trkpt lat="48.58726" lon="-0.45699">
        <ele>246.6</ele>
        <time>2012-02-04T13:14:37Z</time>
      </trkpt>
      <trkpt lat="48.58725" lon="-0.45707">
        <ele>247</ele>
        <time>2012-02-04T13:14:39Z</time>
      </trkpt>
      <trkpt lat="48.58723" lon="-0.45717">
        <ele>247.1</ele>
        <time>2012-02-04T13:14:41Z</time>
      </trkpt>
      <trkpt lat="48.58723" lon="-0.45727">
        <ele>247.2</ele>
        <time>2012-02-04T13:14:43Z</time>
      </trkpt>
      <trkpt lat="48.58721" lon="-0.45736">
        <ele>247</ele>
        <time>2012-02-04T13:14:45Z</time>
      </trkpt>
      <trkpt lat="48.5872" lon="-0.45748">
        <ele>247.1</ele>
        <time>2012-02-04T13:14:48Z</time>
      </trkpt>
      <trkpt lat="48.5872" lon="-0.4576">
        <ele>247.2</ele>
        <time>2012-02-04T13:14:51Z</time>
      </trkpt>
      <trkpt lat="48.5872" lon="-0.45773">
        <ele>247.5</ele>
        <time>2012-02-04T13:14:54Z</time>
      </trkpt>
      <trkpt lat="48.58719" lon="-0.45782">
        <ele>248</ele>
        <time>2012-02-04T13:14:56Z</time>
      </trkpt>
      <trkpt lat="48.58719" lon="-0.45795">
        <ele>247.9</ele>
        <time>2012-02-04T13:14:59Z</time>
      </trkpt>
      <trkpt lat="48.58721" lon="-0.45809">
        <ele>248.5</ele>
        <time>2012-02-04T13:15:02Z</time>
      </trkpt>
      <trkpt lat="48.58722" lon="-0.45821">
        <ele>248.6</ele>
        <time>2012-02-04T13:15:05Z</time>
      </trkpt>
      <trkpt lat="48.58722" lon="-0.45832">
        <ele>248.4</ele>
        <time>2012-02-04T13:15:08Z</time>
      </trkpt>
      <trkpt lat="48.58721" lon="-0.45836">
        <ele>248.4</ele>
        <time>2012-02-04T13:15:09Z</time>
      </trkpt>
      <trkpt lat="48.5872" lon="-0.45852">
        <ele>248.4</ele>
        <time>2012-02-04T13:15:14Z</time>
      </trkpt>
      <trkpt lat="48.58719" lon="-0.45865">
        <ele>248.9</ele>
        <time>2012-02-04T13:15:18Z</time>
      </trkpt>
      <trkpt lat="48.5872" lon="-0.45879">
        <ele>249</ele>
        <time>2012-02-04T13:15:23Z</time>
      </trkpt>
      <trkpt lat="48.58717" lon="-0.45889">
        <ele>249.2</ele>
        <time>2012-02-04T13:15:26Z</time>
      </trkpt>
      <trkpt lat="48.58715" lon="-0.45899">
        <ele>249.2</ele>
        <time>2012-02-04T13:15:29Z</time>
      </trkpt>
      <trkpt lat="48.58715" lon="-0.4591">
        <ele>249.3</ele>
        <time>2012-02-04T13:15:32Z</time>
      </trkpt>
      <trkpt lat="48.58714" lon="-0.45923">
        <ele>249.5</ele>
        <time>2012-02-04T13:15:36Z</time>
      </trkpt>
      <trkpt lat="48.58713" lon="-0.45934">
        <ele>249.4</ele>
        <time>2012-02-04T13:15:40Z</time>
      </trkpt>
      <trkpt lat="48.58713" lon="-0.45946">
        <ele>249.8</ele>
        <time>2012-02-04T13:15:44Z</time>
      </trkpt>
      <trkpt lat="48.58712" lon="-0.45956">
        <ele>249.4</ele>
        <time>2012-02-04T13:15:47Z</time>
      </trkpt>
      <trkpt lat="48.58712" lon="-0.45968">
        <ele>249.4</ele>
        <time>2012-02-04T13:15:50Z</time>
      </trkpt>
      <trkpt lat="48.58711" lon="-0.45979">
        <ele>249.5</ele>
        <time>2012-02-04T13:15:53Z</time>
      </trkpt>
      <trkpt lat="48.58707" lon="-0.45989">
        <ele>249.4</ele>
        <time>2012-02-04T13:15:56Z</time>
      </trkpt>
      <trkpt lat="48.58704" lon="-0.45999">
        <ele>249.8</ele>
        <time>2012-02-04T13:15:59Z</time>
      </trkpt>
      <trkpt lat="48.58703" lon="-0.46012">
        <ele>249.8</ele>
        <time>2012-02-04T13:16:03Z</time>
      </trkpt>
      <trkpt lat="48.58701" lon="-0.46022">
        <ele>249.8</ele>
        <time>2012-02-04T13:16:06Z</time>
      </trkpt>
      <trkpt lat="48.58699" lon="-0.46033">
        <ele>250.3</ele>
        <time>2012-02-04T13:16:09Z</time>
      </trkpt>
      <trkpt lat="48.58699" lon="-0.46036">
        <ele>250.5</ele>
        <time>2012-02-04T13:16:10Z</time>
      </trkpt>
      <trkpt lat="48.58692" lon="-0.46052">
        <ele>250</ele>
        <time>2012-02-04T13:16:15Z</time>
      </trkpt>
      <trkpt lat="48.5869" lon="-0.46063">
        <ele>250.3</ele>
        <time>2012-02-04T13:16:18Z</time>
      </trkpt>
      <trkpt lat="48.58692" lon="-0.46074">
        <ele>250.1</ele>
        <time>2012-02-04T13:16:21Z</time>
      </trkpt>
      <trkpt lat="48.58694" lon="-0.46086">
        <ele>250.1</ele>
        <time>2012-02-04T13:16:24Z</time>
      </trkpt>
      <trkpt lat="48.58693" lon="-0.46098">
        <ele>250</ele>
        <time>2012-02-04T13:16:27Z</time>
      </trkpt>
      <trkpt lat="48.58691" lon="-0.46109">
        <ele>250.2</ele>
        <time>2012-02-04T13:16:30Z</time>
      </trkpt>
      <trkpt lat="48.58691" lon="-0.4612">
        <ele>250.6</ele>
        <time>2012-02-04T13:16:33Z</time>
      </trkpt>
      <trkpt lat="48.5869" lon="-0.46133">
        <ele>250.4</ele>
        <time>2012-02-04T13:16:39Z</time>
      </trkpt>
      <trkpt lat="48.5869" lon="-0.46146">
        <ele>250.7</ele>
        <time>2012-02-04T13:16:46Z</time>
      </trkpt>
      <trkpt lat="48.58692" lon="-0.46159">
        <ele>249.7</ele>
        <time>2012-02-04T13:17:17Z</time>
      </trkpt>
      <trkpt lat="48.58692" lon="-0.4616">
        <ele>249.8</ele>
        <time>2012-02-04T13:17:18Z</time>
      </trkpt>
      <trkpt lat="48.58703" lon="-0.46162">
        <ele>251.7</ele>
        <time>2012-02-04T13:20:05Z</time>
      </trkpt>
      <trkpt lat="48.58718" lon="-0.46161">
        <ele>249.2</ele>
        <time>2012-02-04T13:20:13Z</time>
      </trkpt>
      <trkpt lat="48.58726" lon="-0.4616">
        <ele>247.9</ele>
        <time>2012-02-04T13:20:17Z</time>
      </trkpt>
      <trkpt lat="48.58718" lon="-0.46164">
        <ele>247</ele>
        <time>2012-02-04T13:20:43Z</time>
      </trkpt>
      <trkpt lat="48.5871" lon="-0.46166">
        <ele>248.5</ele>
        <time>2012-02-04T13:20:47Z</time>
      </trkpt>
      <trkpt lat="48.58703" lon="-0.46167">
        <ele>249.9</ele>
        <time>2012-02-04T13:20:50Z</time>
      </trkpt>
      <trkpt lat="48.58694" lon="-0.46169">
        <ele>250.4</ele>
        <time>2012-02-04T13:20:54Z</time>
      </trkpt>
      <trkpt lat="48.58686" lon="-0.46171">
        <ele>251.4</ele>
        <time>2012-02-04T13:20:59Z</time>
      </trkpt>
      <trkpt lat="48.58678" lon="-0.46172">
        <ele>251.7</ele>
        <time>2012-02-04T13:21:05Z</time>
      </trkpt>
      <trkpt lat="48.58676" lon="-0.46173">
        <ele>251.7</ele>
        <time>2012-02-04T13:21:06Z</time>
      </trkpt>
      <trkpt lat="48.58673" lon="-0.46191">
        <ele>252.1</ele>
        <time>2012-02-04T13:21:15Z</time>
      </trkpt>
      <trkpt lat="48.58673" lon="-0.46202">
        <ele>251.9</ele>
        <time>2012-02-04T13:21:19Z</time>
      </trkpt>
      <trkpt lat="48.58669" lon="-0.4619">
        <ele>252.1</ele>
        <time>2012-02-04T13:21:42Z</time>
      </trkpt>
      <trkpt lat="48.58668" lon="-0.46177">
        <ele>251.5</ele>
        <time>2012-02-04T13:21:49Z</time>
      </trkpt>
      <trkpt lat="48.5866" lon="-0.46176">
        <ele>250.8</ele>
        <time>2012-02-04T13:21:54Z</time>
      </trkpt>
      <trkpt lat="48.58653" lon="-0.46177">
        <ele>250.9</ele>
        <time>2012-02-04T13:21:57Z</time>
      </trkpt>
      <trkpt lat="48.58644" lon="-0.46176">
        <ele>250</ele>
        <time>2012-02-04T13:22:02Z</time>
      </trkpt>
      <trkpt lat="48.58637" lon="-0.46184">
        <ele>249.5</ele>
        <time>2012-02-04T13:22:07Z</time>
      </trkpt>
      <trkpt lat="48.58638" lon="-0.46188">
        <ele>249.5</ele>
        <time>2012-02-04T13:22:08Z</time>
      </trkpt>
      <trkpt lat="48.58639" lon="-0.46204">
        <ele>249.4</ele>
        <time>2012-02-04T13:22:11Z</time>
      </trkpt>
      <trkpt lat="48.58641" lon="-0.46215">
        <ele>249.8</ele>
        <time>2012-02-04T13:22:13Z</time>
      </trkpt>
      <trkpt lat="48.58642" lon="-0.46227">
        <ele>250.6</ele>
        <time>2012-02-04T13:22:15Z</time>
      </trkpt>
      <trkpt lat="48.58643" lon="-0.46239">
        <ele>250.7</ele>
        <time>2012-02-04T13:22:17Z</time>
      </trkpt>
      <trkpt lat="48.58645" lon="-0.4625">
        <ele>251</ele>
        <time>2012-02-04T13:22:19Z</time>
      </trkpt>
      <trkpt lat="48.58646" lon="-0.46261">
        <ele>251.5</ele>
        <time>2012-02-04T13:22:21Z</time>
      </trkpt>
      <trkpt lat="48.58647" lon="-0.46273">
        <ele>251.6</ele>
        <time>2012-02-04T13:22:23Z</time>
      </trkpt>
      <trkpt lat="48.58649" lon="-0.46284">
        <ele>251.9</ele>
        <time>2012-02-04T13:22:25Z</time>
      </trkpt>
      <trkpt lat="48.5865" lon="-0.46295">
        <ele>252.2</ele>
        <time>2012-02-04T13:22:27Z</time>
      </trkpt>
      <trkpt lat="48.58651" lon="-0.46306">
        <ele>252.4</ele>
        <time>2012-02-04T13:22:29Z</time>
      </trkpt>
      <trkpt lat="48.58652" lon="-0.46317">
        <ele>252.7</ele>
        <time>2012-02-04T13:22:31Z</time>
      </trkpt>
      <trkpt lat="48.58653" lon="-0.46328">
        <ele>253.3</ele>
        <time>2012-02-04T13:22:33Z</time>
      </trkpt>
      <trkpt lat="48.58654" lon="-0.46339">
        <ele>253.7</ele>
        <time>2012-02-04T13:22:35Z</time>
      </trkpt>
      <trkpt lat="48.58654" lon="-0.46351">
        <ele>253.6</ele>
        <time>2012-02-04T13:22:37Z</time>
      </trkpt>
      <trkpt lat="48.58655" lon="-0.46362">
        <ele>253.7</ele>
        <time>2012-02-04T13:22:39Z</time>
      </trkpt>
      <trkpt lat="48.58657" lon="-0.46372">
        <ele>253.9</ele>
        <time>2012-02-04T13:22:41Z</time>
      </trkpt>
      <trkpt lat="48.5866" lon="-0.46382">
        <ele>254.1</ele>
        <time>2012-02-04T13:22:43Z</time>
      </trkpt>
      <trkpt lat="48.58665" lon="-0.46391">
        <ele>254</ele>
        <time>2012-02-04T13:22:45Z</time>
      </trkpt>
      <trkpt lat="48.58671" lon="-0.46399">
        <ele>253.6</ele>
        <time>2012-02-04T13:22:47Z</time>
      </trkpt>
      <trkpt lat="48.58677" lon="-0.46408">
        <ele>253.9</ele>
        <time>2012-02-04T13:22:49Z</time>
      </trkpt>
      <trkpt lat="48.58682" lon="-0.46418">
        <ele>254.4</ele>
        <time>2012-02-04T13:22:51Z</time>
      </trkpt>
      <trkpt lat="48.58687" lon="-0.46425">
        <ele>254.1</ele>
        <time>2012-02-04T13:22:53Z</time>
      </trkpt>
      <trkpt lat="48.58694" lon="-0.46431">
        <ele>254.1</ele>
        <time>2012-02-04T13:22:55Z</time>
      </trkpt>
      <trkpt lat="48.587" lon="-0.46437">
        <ele>253.5</ele>
        <time>2012-02-04T13:22:57Z</time>
      </trkpt>
      <trkpt lat="48.58707" lon="-0.46441">
        <ele>252.9</ele>
        <time>2012-02-04T13:22:59Z</time>
      </trkpt>
      <trkpt lat="48.58716" lon="-0.46444">
        <ele>252.6</ele>
        <time>2012-02-04T13:23:01Z</time>
      </trkpt>
      <trkpt lat="48.58724" lon="-0.46447">
        <ele>252.1</ele>
        <time>2012-02-04T13:23:03Z</time>
      </trkpt>
      <trkpt lat="48.58732" lon="-0.46449">
        <ele>251.9</ele>
        <time>2012-02-04T13:23:05Z</time>
      </trkpt>
      <trkpt lat="48.5874" lon="-0.4645">
        <ele>252</ele>
        <time>2012-02-04T13:23:07Z</time>
      </trkpt>
      <trkpt lat="48.58748" lon="-0.46453">
        <ele>252.1</ele>
        <time>2012-02-04T13:23:09Z</time>
      </trkpt>
      <trkpt lat="48.58752" lon="-0.46454">
        <ele>252.1</ele>
        <time>2012-02-04T13:23:10Z</time>
      </trkpt>
      <trkpt lat="48.58763" lon="-0.46458">
        <ele>251.6</ele>
        <time>2012-02-04T13:23:13Z</time>
      </trkpt>
      <trkpt lat="48.58771" lon="-0.46461">
        <ele>252.2</ele>
        <time>2012-02-04T13:23:15Z</time>
      </trkpt>
      <trkpt lat="48.58779" lon="-0.46464">
        <ele>252.1</ele>
        <time>2012-02-04T13:23:17Z</time>
      </trkpt>
      <trkpt lat="48.58787" lon="-0.46466">
        <ele>251.8</ele>
        <time>2012-02-04T13:23:19Z</time>
      </trkpt>
      <trkpt lat="48.58795" lon="-0.46468">
        <ele>252</ele>
        <time>2012-02-04T13:23:21Z</time>
      </trkpt>
      <trkpt lat="48.58802" lon="-0.46468">
        <ele>252.6</ele>
        <time>2012-02-04T13:23:23Z</time>
      </trkpt>
      <trkpt lat="48.58809" lon="-0.46468">
        <ele>253</ele>
        <time>2012-02-04T13:23:25Z</time>
      </trkpt>
      <trkpt lat="48.58816" lon="-0.46466">
        <ele>253.7</ele>
        <time>2012-02-04T13:23:27Z</time>
      </trkpt>
      <trkpt lat="48.58823" lon="-0.46465">
        <ele>254</ele>
        <time>2012-02-04T13:23:29Z</time>
      </trkpt>
      <trkpt lat="48.58831" lon="-0.46463">
        <ele>253.8</ele>
        <time>2012-02-04T13:23:31Z</time>
      </trkpt>
      <trkpt lat="48.58838" lon="-0.46461">
        <ele>253.9</ele>
        <time>2012-02-04T13:23:33Z</time>
      </trkpt>
      <trkpt lat="48.58845" lon="-0.46459">
        <ele>254.1</ele>
        <time>2012-02-04T13:23:35Z</time>
      </trkpt>
      <trkpt lat="48.58853" lon="-0.46458">
        <ele>254.3</ele>
        <time>2012-02-04T13:23:37Z</time>
      </trkpt>
      <trkpt lat="48.5886" lon="-0.46458">
        <ele>254.5</ele>
        <time>2012-02-04T13:23:39Z</time>
      </trkpt>
      <trkpt lat="48.58867" lon="-0.46458">
        <ele>255.1</ele>
        <time>2012-02-04T13:23:41Z</time>
      </trkpt>
      <trkpt lat="48.58874" lon="-0.46459">
        <ele>255.9</ele>
        <time>2012-02-04T13:23:43Z</time>
      </trkpt>
      <trkpt lat="48.58881" lon="-0.4646">
        <ele>256.6</ele>
        <time>2012-02-04T13:23:45Z</time>
      </trkpt>
      <trkpt lat="48.58888" lon="-0.46462">
        <ele>257.1</ele>
        <time>2012-02-04T13:23:47Z</time>
      </trkpt>
      <trkpt lat="48.58895" lon="-0.46465">
        <ele>257.7</ele>
        <time>2012-02-04T13:23:49Z</time>
      </trkpt>
      <trkpt lat="48.58902" lon="-0.46466">
        <ele>258.3</ele>
        <time>2012-02-04T13:23:51Z</time>
      </trkpt>
      <trkpt lat="48.58908" lon="-0.46467">
        <ele>258.6</ele>
        <time>2012-02-04T13:23:53Z</time>
      </trkpt>
      <trkpt lat="48.58914" lon="-0.46469">
        <ele>258.8</ele>
        <time>2012-02-04T13:23:55Z</time>
      </trkpt>
      <trkpt lat="48.58921" lon="-0.46472">
        <ele>259.3</ele>
        <time>2012-02-04T13:23:57Z</time>
      </trkpt>
      <trkpt lat="48.58928" lon="-0.46475">
        <ele>259.6</ele>
        <time>2012-02-04T13:23:59Z</time>
      </trkpt>
      <trkpt lat="48.58934" lon="-0.46479">
        <ele>259.9</ele>
        <time>2012-02-04T13:24:01Z</time>
      </trkpt>
      <trkpt lat="48.5894" lon="-0.46483">
        <ele>260.6</ele>
        <time>2012-02-04T13:24:03Z</time>
      </trkpt>
      <trkpt lat="48.58946" lon="-0.46487">
        <ele>261.2</ele>
        <time>2012-02-04T13:24:05Z</time>
      </trkpt>
      <trkpt lat="48.58952" lon="-0.46491">
        <ele>261.7</ele>
        <time>2012-02-04T13:24:07Z</time>
      </trkpt>
      <trkpt lat="48.58959" lon="-0.46496">
        <ele>261.9</ele>
        <time>2012-02-04T13:24:09Z</time>
      </trkpt>
      <trkpt lat="48.58965" lon="-0.465">
        <ele>262.5</ele>
        <time>2012-02-04T13:24:11Z</time>
      </trkpt>
      <trkpt lat="48.58968" lon="-0.46502">
        <ele>262.8</ele>
        <time>2012-02-04T13:24:12Z</time>
      </trkpt>
      <trkpt lat="48.58977" lon="-0.46508">
        <ele>263.3</ele>
        <time>2012-02-04T13:24:15Z</time>
      </trkpt>
      <trkpt lat="48.58983" lon="-0.46513">
        <ele>262.8</ele>
        <time>2012-02-04T13:24:17Z</time>
      </trkpt>
      <trkpt lat="48.5899" lon="-0.46517">
        <ele>263</ele>
        <time>2012-02-04T13:24:19Z</time>
      </trkpt>
      <trkpt lat="48.58997" lon="-0.46524">
        <ele>264.7</ele>
        <time>2012-02-04T13:24:23Z</time>
      </trkpt>
      <trkpt lat="48.59004" lon="-0.46532">
        <ele>265</ele>
        <time>2012-02-04T13:24:29Z</time>
      </trkpt>
      <trkpt lat="48.59009" lon="-0.46535">
        <ele>265.1</ele>
        <time>2012-02-04T13:24:31Z</time>
      </trkpt>
      <trkpt lat="48.59015" lon="-0.4654">
        <ele>265</ele>
        <time>2012-02-04T13:24:33Z</time>
      </trkpt>
      <trkpt lat="48.59021" lon="-0.46546">
        <ele>265.7</ele>
        <time>2012-02-04T13:24:35Z</time>
      </trkpt>
      <trkpt lat="48.59027" lon="-0.46552">
        <ele>265.7</ele>
        <time>2012-02-04T13:24:37Z</time>
      </trkpt>
      <trkpt lat="48.59034" lon="-0.46558">
        <ele>265.5</ele>
        <time>2012-02-04T13:24:39Z</time>
      </trkpt>
      <trkpt lat="48.59041" lon="-0.46564">
        <ele>265.6</ele>
        <time>2012-02-04T13:24:41Z</time>
      </trkpt>
      <trkpt lat="48.59045" lon="-0.46567">
        <ele>265.7</ele>
        <time>2012-02-04T13:24:42Z</time>
      </trkpt>
      <trkpt lat="48.59049" lon="-0.46571">
        <ele>265.8</ele>
        <time>2012-02-04T13:24:43Z</time>
      </trkpt>
      <trkpt lat="48.59054" lon="-0.46575">
        <ele>265.3</ele>
        <time>2012-02-04T13:24:44Z</time>
      </trkpt>
      <trkpt lat="48.59058" lon="-0.46579">
        <ele>264.9</ele>
        <time>2012-02-04T13:24:45Z</time>
      </trkpt>
      <trkpt lat="48.59062" lon="-0.46583">
        <ele>264.7</ele>
        <time>2012-02-04T13:24:46Z</time>
      </trkpt>
      <trkpt lat="48.59066" lon="-0.46588">
        <ele>264.6</ele>
        <time>2012-02-04T13:24:47Z</time>
      </trkpt>
      <trkpt lat="48.5907" lon="-0.46593">
        <ele>264.5</ele>
        <time>2012-02-04T13:24:48Z</time>
      </trkpt>
      <trkpt lat="48.59075" lon="-0.46598">
        <ele>264.1</ele>
        <time>2012-02-04T13:24:49Z</time>
      </trkpt>
      <trkpt lat="48.59079" lon="-0.46604">
        <ele>263.8</ele>
        <time>2012-02-04T13:24:50Z</time>
      </trkpt>
      <trkpt lat="48.59083" lon="-0.46609">
        <ele>263.7</ele>
        <time>2012-02-04T13:24:51Z</time>
      </trkpt>
      <trkpt lat="48.59088" lon="-0.46615">
        <ele>263.7</ele>
        <time>2012-02-04T13:24:52Z</time>
      </trkpt>
      <trkpt lat="48.59092" lon="-0.4662">
        <ele>263.3</ele>
        <time>2012-02-04T13:24:53Z</time>
      </trkpt>
      <trkpt lat="48.59096" lon="-0.46625">
        <ele>263</ele>
        <time>2012-02-04T13:24:54Z</time>
      </trkpt>
      <trkpt lat="48.591" lon="-0.4663">
        <ele>262.8</ele>
        <time>2012-02-04T13:24:55Z</time>
      </trkpt>
      <trkpt lat="48.59105" lon="-0.46634">
        <ele>262.8</ele>
        <time>2012-02-04T13:24:56Z</time>
      </trkpt>
      <trkpt lat="48.59109" lon="-0.46639">
        <ele>262.9</ele>
        <time>2012-02-04T13:24:57Z</time>
      </trkpt>
      <trkpt lat="48.59113" lon="-0.46643">
        <ele>262.7</ele>
        <time>2012-02-04T13:24:58Z</time>
      </trkpt>
      <trkpt lat="48.59117" lon="-0.46647">
        <ele>262.5</ele>
        <time>2012-02-04T13:24:59Z</time>
      </trkpt>
      <trkpt lat="48.59121" lon="-0.4665">
        <ele>262.5</ele>
        <time>2012-02-04T13:25:00Z</time>
      </trkpt>
      <trkpt lat="48.59126" lon="-0.46653">
        <ele>262.4</ele>
        <time>2012-02-04T13:25:01Z</time>
      </trkpt>
      <trkpt lat="48.59133" lon="-0.46658">
        <ele>262.3</ele>
        <time>2012-02-04T13:25:03Z</time>
      </trkpt>
      <trkpt lat="48.59141" lon="-0.46661">
        <ele>262.2</ele>
        <time>2012-02-04T13:25:05Z</time>
      </trkpt>
      <trkpt lat="48.59149" lon="-0.46666">
        <ele>262.2</ele>
        <time>2012-02-04T13:25:07Z</time>
      </trkpt>
      <trkpt lat="48.59157" lon="-0.4667">
        <ele>261.9</ele>
        <time>2012-02-04T13:25:09Z</time>
      </trkpt>
      <trkpt lat="48.59165" lon="-0.46673">
        <ele>261.7</ele>
        <time>2012-02-04T13:25:11Z</time>
      </trkpt>
      <trkpt lat="48.59172" lon="-0.46676">
        <ele>262.4</ele>
        <time>2012-02-04T13:25:13Z</time>
      </trkpt>
      <trkpt lat="48.59176" lon="-0.46677">
        <ele>262.6</ele>
        <time>2012-02-04T13:25:14Z</time>
      </trkpt>
      <trkpt lat="48.59188" lon="-0.46682">
        <ele>262.6</ele>
        <time>2012-02-04T13:25:17Z</time>
      </trkpt>
      <trkpt lat="48.59195" lon="-0.46685">
        <ele>262.4</ele>
        <time>2012-02-04T13:25:19Z</time>
      </trkpt>
      <trkpt lat="48.59202" lon="-0.46688">
        <ele>262.5</ele>
        <time>2012-02-04T13:25:21Z</time>
      </trkpt>
      <trkpt lat="48.59209" lon="-0.4669">
        <ele>263.1</ele>
        <time>2012-02-04T13:25:23Z</time>
      </trkpt>
      <trkpt lat="48.59217" lon="-0.46693">
        <ele>262.6</ele>
        <time>2012-02-04T13:25:25Z</time>
      </trkpt>
      <trkpt lat="48.59224" lon="-0.46695">
        <ele>262.3</ele>
        <time>2012-02-04T13:25:27Z</time>
      </trkpt>
      <trkpt lat="48.5923" lon="-0.46696">
        <ele>262.2</ele>
        <time>2012-02-04T13:25:29Z</time>
      </trkpt>
      <trkpt lat="48.59239" lon="-0.46695">
        <ele>262.7</ele>
        <time>2012-02-04T13:25:33Z</time>
      </trkpt>
      <trkpt lat="48.59247" lon="-0.46698">
        <ele>261.9</ele>
        <time>2012-02-04T13:25:36Z</time>
      </trkpt>
      <trkpt lat="48.59254" lon="-0.467">
        <ele>261.8</ele>
        <time>2012-02-04T13:25:38Z</time>
      </trkpt>
      <trkpt lat="48.59262" lon="-0.46702">
        <ele>261.6</ele>
        <time>2012-02-04T13:25:40Z</time>
      </trkpt>
      <trkpt lat="48.59269" lon="-0.46705">
        <ele>261.5</ele>
        <time>2012-02-04T13:25:42Z</time>
      </trkpt>
      <trkpt lat="48.59277" lon="-0.46709">
        <ele>262.2</ele>
        <time>2012-02-04T13:25:44Z</time>
      </trkpt>
      <trkpt lat="48.59284" lon="-0.46712">
        <ele>262</ele>
        <time>2012-02-04T13:25:46Z</time>
      </trkpt>
      <trkpt lat="48.59292" lon="-0.46715">
        <ele>261.9</ele>
        <time>2012-02-04T13:25:48Z</time>
      </trkpt>
      <trkpt lat="48.59299" lon="-0.46719">
        <ele>261.8</ele>
        <time>2012-02-04T13:25:50Z</time>
      </trkpt>
      <trkpt lat="48.59307" lon="-0.46722">
        <ele>261.6</ele>
        <time>2012-02-04T13:25:52Z</time>
      </trkpt>
      <trkpt lat="48.59315" lon="-0.46725">
        <ele>261</ele>
        <time>2012-02-04T13:25:54Z</time>
      </trkpt>
      <trkpt lat="48.59323" lon="-0.46728">
        <ele>261.5</ele>
        <time>2012-02-04T13:25:56Z</time>
      </trkpt>
      <trkpt lat="48.59331" lon="-0.46733">
        <ele>262</ele>
        <time>2012-02-04T13:25:58Z</time>
      </trkpt>
      <trkpt lat="48.59338" lon="-0.46738">
        <ele>262.3</ele>
        <time>2012-02-04T13:26:00Z</time>
      </trkpt>
      <trkpt lat="48.59346" lon="-0.46742">
        <ele>262.2</ele>
        <time>2012-02-04T13:26:02Z</time>
      </trkpt>
      <trkpt lat="48.59354" lon="-0.46746">
        <ele>262</ele>
        <time>2012-02-04T13:26:04Z</time>
      </trkpt>
      <trkpt lat="48.59362" lon="-0.46751">
        <ele>262</ele>
        <time>2012-02-04T13:26:06Z</time>
      </trkpt>
      <trkpt lat="48.59369" lon="-0.46755">
        <ele>262</ele>
        <time>2012-02-04T13:26:08Z</time>
      </trkpt>
      <trkpt lat="48.59376" lon="-0.46758">
        <ele>261.4</ele>
        <time>2012-02-04T13:26:10Z</time>
      </trkpt>
      <trkpt lat="48.59383" lon="-0.46761">
        <ele>261.1</ele>
        <time>2012-02-04T13:26:12Z</time>
      </trkpt>
      <trkpt lat="48.5939" lon="-0.46765">
        <ele>261.4</ele>
        <time>2012-02-04T13:26:14Z</time>
      </trkpt>
      <trkpt lat="48.59394" lon="-0.46767">
        <ele>261.6</ele>
        <time>2012-02-04T13:26:15Z</time>
      </trkpt>
      <trkpt lat="48.59403" lon="-0.46775">
        <ele>261.1</ele>
        <time>2012-02-04T13:26:18Z</time>
      </trkpt>
      <trkpt lat="48.5941" lon="-0.46779">
        <ele>261</ele>
        <time>2012-02-04T13:26:20Z</time>
      </trkpt>
      <trkpt lat="48.59418" lon="-0.46784">
        <ele>261.4</ele>
        <time>2012-02-04T13:26:22Z</time>
      </trkpt>
      <trkpt lat="48.59425" lon="-0.46786">
        <ele>261.6</ele>
        <time>2012-02-04T13:26:24Z</time>
      </trkpt>
      <trkpt lat="48.59434" lon="-0.46788">
        <ele>261.2</ele>
        <time>2012-02-04T13:26:26Z</time>
      </trkpt>
      <trkpt lat="48.59443" lon="-0.46789">
        <ele>261.1</ele>
        <time>2012-02-04T13:26:28Z</time>
      </trkpt>
      <trkpt lat="48.59447" lon="-0.46791">
        <ele>261.3</ele>
        <time>2012-02-04T13:26:29Z</time>
      </trkpt>
      <trkpt lat="48.59452" lon="-0.46793">
        <ele>261.4</ele>
        <time>2012-02-04T13:26:30Z</time>
      </trkpt>
      <trkpt lat="48.59459" lon="-0.468">
        <ele>261.1</ele>
        <time>2012-02-04T13:26:32Z</time>
      </trkpt>
      <trkpt lat="48.59463" lon="-0.46804">
        <ele>260.9</ele>
        <time>2012-02-04T13:26:33Z</time>
      </trkpt>
      <trkpt lat="48.59469" lon="-0.46814">
        <ele>261.1</ele>
        <time>2012-02-04T13:26:35Z</time>
      </trkpt>
      <trkpt lat="48.59474" lon="-0.46824">
        <ele>261.5</ele>
        <time>2012-02-04T13:26:37Z</time>
      </trkpt>
      <trkpt lat="48.5948" lon="-0.46833">
        <ele>261.3</ele>
        <time>2012-02-04T13:26:39Z</time>
      </trkpt>
      <trkpt lat="48.59484" lon="-0.46842">
        <ele>260.6</ele>
        <time>2012-02-04T13:26:41Z</time>
      </trkpt>
      <trkpt lat="48.59489" lon="-0.46852">
        <ele>260.7</ele>
        <time>2012-02-04T13:26:43Z</time>
      </trkpt>
      <trkpt lat="48.59495" lon="-0.46861">
        <ele>261.2</ele>
        <time>2012-02-04T13:26:45Z</time>
      </trkpt>
      <trkpt lat="48.595" lon="-0.46871">
        <ele>261.8</ele>
        <time>2012-02-04T13:26:47Z</time>
      </trkpt>
      <trkpt lat="48.59505" lon="-0.46879">
        <ele>262.2</ele>
        <time>2012-02-04T13:26:49Z</time>
      </trkpt>
      <trkpt lat="48.5951" lon="-0.46889">
        <ele>262.5</ele>
        <time>2012-02-04T13:26:51Z</time>
      </trkpt>
      <trkpt lat="48.59516" lon="-0.46897">
        <ele>263.1</ele>
        <time>2012-02-04T13:26:53Z</time>
      </trkpt>
      <trkpt lat="48.59521" lon="-0.46904">
        <ele>263.3</ele>
        <time>2012-02-04T13:26:55Z</time>
      </trkpt>
      <trkpt lat="48.59526" lon="-0.4691">
        <ele>263.5</ele>
        <time>2012-02-04T13:26:57Z</time>
      </trkpt>
      <trkpt lat="48.59534" lon="-0.46915">
        <ele>264.1</ele>
        <time>2012-02-04T13:27:00Z</time>
      </trkpt>
      <trkpt lat="48.59541" lon="-0.46922">
        <ele>263.9</ele>
        <time>2012-02-04T13:27:04Z</time>
      </trkpt>
      <trkpt lat="48.59547" lon="-0.46931">
        <ele>263.7</ele>
        <time>2012-02-04T13:27:09Z</time>
      </trkpt>
      <trkpt lat="48.59552" lon="-0.46939">
        <ele>263.6</ele>
        <time>2012-02-04T13:27:12Z</time>
      </trkpt>
      <trkpt lat="48.59557" lon="-0.46949">
        <ele>263.2</ele>
        <time>2012-02-04T13:27:15Z</time>
      </trkpt>
      <trkpt lat="48.59558" lon="-0.46953">
        <ele>263.3</ele>
        <time>2012-02-04T13:27:16Z</time>
      </trkpt>
      <trkpt lat="48.59561" lon="-0.46972">
        <ele>263.1</ele>
        <time>2012-02-04T13:27:21Z</time>
      </trkpt>
      <trkpt lat="48.59563" lon="-0.4698">
        <ele>262.9</ele>
        <time>2012-02-04T13:27:23Z</time>
      </trkpt>
      <trkpt lat="48.59567" lon="-0.46988">
        <ele>262.9</ele>
        <time>2012-02-04T13:27:25Z</time>
      </trkpt>
      <trkpt lat="48.59572" lon="-0.46999">
        <ele>262.6</ele>
        <time>2012-02-04T13:27:28Z</time>
      </trkpt>
      <trkpt lat="48.59576" lon="-0.47009">
        <ele>261.8</ele>
        <time>2012-02-04T13:27:31Z</time>
      </trkpt>
      <trkpt lat="48.59579" lon="-0.47019">
        <ele>261.8</ele>
        <time>2012-02-04T13:27:34Z</time>
      </trkpt>
      <trkpt lat="48.59583" lon="-0.47031">
        <ele>261.6</ele>
        <time>2012-02-04T13:27:38Z</time>
      </trkpt>
      <trkpt lat="48.5959" lon="-0.47039">
        <ele>261.4</ele>
        <time>2012-02-04T13:27:42Z</time>
      </trkpt>
      <trkpt lat="48.59596" lon="-0.47048">
        <ele>261.4</ele>
        <time>2012-02-04T13:27:45Z</time>
      </trkpt>
      <trkpt lat="48.59601" lon="-0.47059">
        <ele>261.6</ele>
        <time>2012-02-04T13:27:48Z</time>
      </trkpt>
      <trkpt lat="48.59606" lon="-0.47068">
        <ele>261.2</ele>
        <time>2012-02-04T13:27:51Z</time>
      </trkpt>
      <trkpt lat="48.59609" lon="-0.47079">
        <ele>260.6</ele>
        <time>2012-02-04T13:27:54Z</time>
      </trkpt>
      <trkpt lat="48.59613" lon="-0.47089">
        <ele>260.5</ele>
        <time>2012-02-04T13:27:57Z</time>
      </trkpt>
      <trkpt lat="48.59617" lon="-0.47096">
        <ele>259.7</ele>
        <time>2012-02-04T13:27:59Z</time>
      </trkpt>
      <trkpt lat="48.59621" lon="-0.47105">
        <ele>259.7</ele>
        <time>2012-02-04T13:28:01Z</time>
      </trkpt>
      <trkpt lat="48.59624" lon="-0.47113">
        <ele>259.6</ele>
        <time>2012-02-04T13:28:03Z</time>
      </trkpt>
      <trkpt lat="48.59629" lon="-0.47124">
        <ele>259</ele>
        <time>2012-02-04T13:28:06Z</time>
      </trkpt>
      <trkpt lat="48.59634" lon="-0.47133">
        <ele>259</ele>
        <time>2012-02-04T13:28:08Z</time>
      </trkpt>
      <trkpt lat="48.59637" lon="-0.47144">
        <ele>258.6</ele>
        <time>2012-02-04T13:28:10Z</time>
      </trkpt>
      <trkpt lat="48.5964" lon="-0.47155">
        <ele>258</ele>
        <time>2012-02-04T13:28:12Z</time>
      </trkpt>
      <trkpt lat="48.59644" lon="-0.47166">
        <ele>257.6</ele>
        <time>2012-02-04T13:28:15Z</time>
      </trkpt>
      <trkpt lat="48.59648" lon="-0.47174">
        <ele>257</ele>
        <time>2012-02-04T13:28:17Z</time>
      </trkpt>
      <trkpt lat="48.5965" lon="-0.47178">
        <ele>256.7</ele>
        <time>2012-02-04T13:28:18Z</time>
      </trkpt>
      <trkpt lat="48.5966" lon="-0.4719">
        <ele>256.4</ele>
        <time>2012-02-04T13:28:24Z</time>
      </trkpt>
      <trkpt lat="48.59665" lon="-0.47197">
        <ele>255.9</ele>
        <time>2012-02-04T13:28:27Z</time>
      </trkpt>
      <trkpt lat="48.5967" lon="-0.47204">
        <ele>255.4</ele>
        <time>2012-02-04T13:28:29Z</time>
      </trkpt>
      <trkpt lat="48.59675" lon="-0.47213">
        <ele>255.5</ele>
        <time>2012-02-04T13:28:32Z</time>
      </trkpt>
      <trkpt lat="48.5968" lon="-0.47223">
        <ele>255.8</ele>
        <time>2012-02-04T13:28:35Z</time>
      </trkpt>
      <trkpt lat="48.59683" lon="-0.47233">
        <ele>255.1</ele>
        <time>2012-02-04T13:28:39Z</time>
      </trkpt>
      <trkpt lat="48.59687" lon="-0.47244">
        <ele>254.9</ele>
        <time>2012-02-04T13:28:42Z</time>
      </trkpt>
      <trkpt lat="48.5969" lon="-0.47254">
        <ele>254.4</ele>
        <time>2012-02-04T13:28:45Z</time>
      </trkpt>
      <trkpt lat="48.59694" lon="-0.47266">
        <ele>253.5</ele>
        <time>2012-02-04T13:28:49Z</time>
      </trkpt>
      <trkpt lat="48.597" lon="-0.47276">
        <ele>253.3</ele>
        <time>2012-02-04T13:28:52Z</time>
      </trkpt>
      <trkpt lat="48.59706" lon="-0.47285">
        <ele>252.8</ele>
        <time>2012-02-04T13:28:55Z</time>
      </trkpt>
      <trkpt lat="48.59711" lon="-0.47292">
        <ele>252.6</ele>
        <time>2012-02-04T13:28:57Z</time>
      </trkpt>
      <trkpt lat="48.59717" lon="-0.47301">
        <ele>252</ele>
        <time>2012-02-04T13:29:00Z</time>
      </trkpt>
      <trkpt lat="48.59722" lon="-0.47309">
        <ele>251.2</ele>
        <time>2012-02-04T13:29:03Z</time>
      </trkpt>
      <trkpt lat="48.59728" lon="-0.47318">
        <ele>251</ele>
        <time>2012-02-04T13:29:06Z</time>
      </trkpt>
      <trkpt lat="48.59732" lon="-0.47326">
        <ele>250.7</ele>
        <time>2012-02-04T13:29:08Z</time>
      </trkpt>
      <trkpt lat="48.59736" lon="-0.47334">
        <ele>250.4</ele>
        <time>2012-02-04T13:29:10Z</time>
      </trkpt>
      <trkpt lat="48.59741" lon="-0.47344">
        <ele>250.5</ele>
        <time>2012-02-04T13:29:13Z</time>
      </trkpt>
      <trkpt lat="48.59746" lon="-0.47353">
        <ele>249.7</ele>
        <time>2012-02-04T13:29:16Z</time>
      </trkpt>
      <trkpt lat="48.59752" lon="-0.4736">
        <ele>248.9</ele>
        <time>2012-02-04T13:29:19Z</time>
      </trkpt>
      <trkpt lat="48.59753" lon="-0.47362">
        <ele>248.8</ele>
        <time>2012-02-04T13:29:20Z</time>
      </trkpt>
      <trkpt lat="48.5976" lon="-0.47383">
        <ele>245.1</ele>
        <time>2012-02-04T13:29:36Z</time>
      </trkpt>
      <trkpt lat="48.59763" lon="-0.47395">
        <ele>246.5</ele>
        <time>2012-02-04T13:29:46Z</time>
      </trkpt>
      <trkpt lat="48.59764" lon="-0.47408">
        <ele>246.1</ele>
        <time>2012-02-04T13:29:49Z</time>
      </trkpt>
      <trkpt lat="48.59764" lon="-0.4742">
        <ele>246.1</ele>
        <time>2012-02-04T13:29:51Z</time>
      </trkpt>
      <trkpt lat="48.59765" lon="-0.47432">
        <ele>245.1</ele>
        <time>2012-02-04T13:29:53Z</time>
      </trkpt>
      <trkpt lat="48.59765" lon="-0.47444">
        <ele>244.6</ele>
        <time>2012-02-04T13:29:55Z</time>
      </trkpt>
      <trkpt lat="48.59763" lon="-0.47455">
        <ele>244.6</ele>
        <time>2012-02-04T13:29:57Z</time>
      </trkpt>
      <trkpt lat="48.5976" lon="-0.47467">
        <ele>244.8</ele>
        <time>2012-02-04T13:29:59Z</time>
      </trkpt>
      <trkpt lat="48.59757" lon="-0.47477">
        <ele>244.6</ele>
        <time>2012-02-04T13:30:01Z</time>
      </trkpt>
      <trkpt lat="48.59753" lon="-0.47488">
        <ele>243.8</ele>
        <time>2012-02-04T13:30:03Z</time>
      </trkpt>
      <trkpt lat="48.59751" lon="-0.47494">
        <ele>243.6</ele>
        <time>2012-02-04T13:30:04Z</time>
      </trkpt>
      <trkpt lat="48.59748" lon="-0.47499">
        <ele>243.5</ele>
        <time>2012-02-04T13:30:05Z</time>
      </trkpt>
      <trkpt lat="48.59745" lon="-0.47504">
        <ele>243.4</ele>
        <time>2012-02-04T13:30:06Z</time>
      </trkpt>
      <trkpt lat="48.59742" lon="-0.4751">
        <ele>243.1</ele>
        <time>2012-02-04T13:30:07Z</time>
      </trkpt>
      <trkpt lat="48.59738" lon="-0.47515">
        <ele>242.9</ele>
        <time>2012-02-04T13:30:08Z</time>
      </trkpt>
      <trkpt lat="48.59735" lon="-0.4752">
        <ele>242.5</ele>
        <time>2012-02-04T13:30:09Z</time>
      </trkpt>
      <trkpt lat="48.59732" lon="-0.47525">
        <ele>242.3</ele>
        <time>2012-02-04T13:30:10Z</time>
      </trkpt>
      <trkpt lat="48.59729" lon="-0.4753">
        <ele>242.3</ele>
        <time>2012-02-04T13:30:11Z</time>
      </trkpt>
      <trkpt lat="48.59723" lon="-0.4754">
        <ele>242.4</ele>
        <time>2012-02-04T13:30:13Z</time>
      </trkpt>
      <trkpt lat="48.59717" lon="-0.47549">
        <ele>242.9</ele>
        <time>2012-02-04T13:30:15Z</time>
      </trkpt>
      <trkpt lat="48.59712" lon="-0.47557">
        <ele>242.2</ele>
        <time>2012-02-04T13:30:17Z</time>
      </trkpt>
      <trkpt lat="48.59707" lon="-0.47564">
        <ele>242.6</ele>
        <time>2012-02-04T13:30:19Z</time>
      </trkpt>
      <trkpt lat="48.59703" lon="-0.47573">
        <ele>242.7</ele>
        <time>2012-02-04T13:30:21Z</time>
      </trkpt>
      <trkpt lat="48.59701" lon="-0.47578">
        <ele>242.7</ele>
        <time>2012-02-04T13:30:22Z</time>
      </trkpt>
      <trkpt lat="48.59696" lon="-0.47594">
        <ele>243.1</ele>
        <time>2012-02-04T13:30:25Z</time>
      </trkpt>
      <trkpt lat="48.5969" lon="-0.47603">
        <ele>242.9</ele>
        <time>2012-02-04T13:30:27Z</time>
      </trkpt>
      <trkpt lat="48.59684" lon="-0.47611">
        <ele>242.5</ele>
        <time>2012-02-04T13:30:29Z</time>
      </trkpt>
      <trkpt lat="48.59679" lon="-0.47621">
        <ele>242.5</ele>
        <time>2012-02-04T13:30:31Z</time>
      </trkpt>
      <trkpt lat="48.59672" lon="-0.47628">
        <ele>242.6</ele>
        <time>2012-02-04T13:30:33Z</time>
      </trkpt>
      <trkpt lat="48.59667" lon="-0.47636">
        <ele>241.9</ele>
        <time>2012-02-04T13:30:35Z</time>
      </trkpt>
      <trkpt lat="48.59661" lon="-0.47644">
        <ele>240.8</ele>
        <time>2012-02-04T13:30:37Z</time>
      </trkpt>
      <trkpt lat="48.59655" lon="-0.47649">
        <ele>240</ele>
        <time>2012-02-04T13:30:39Z</time>
      </trkpt>
      <trkpt lat="48.5965" lon="-0.47655">
        <ele>239.6</ele>
        <time>2012-02-04T13:30:41Z</time>
      </trkpt>
      <trkpt lat="48.59643" lon="-0.47662">
        <ele>239.8</ele>
        <time>2012-02-04T13:30:43Z</time>
      </trkpt>
      <trkpt lat="48.59637" lon="-0.47667">
        <ele>239.8</ele>
        <time>2012-02-04T13:30:45Z</time>
      </trkpt>
      <trkpt lat="48.59632" lon="-0.47675">
        <ele>239.7</ele>
        <time>2012-02-04T13:30:47Z</time>
      </trkpt>
      <trkpt lat="48.59626" lon="-0.47682">
        <ele>239.7</ele>
        <time>2012-02-04T13:30:49Z</time>
      </trkpt>
      <trkpt lat="48.59621" lon="-0.47689">
        <ele>239.8</ele>
        <time>2012-02-04T13:30:51Z</time>
      </trkpt>
      <trkpt lat="48.59613" lon="-0.47696">
        <ele>240.2</ele>
        <time>2012-02-04T13:30:54Z</time>
      </trkpt>
      <trkpt lat="48.59606" lon="-0.47705">
        <ele>239.2</ele>
        <time>2012-02-04T13:31:17Z</time>
      </trkpt>
      <trkpt lat="48.59601" lon="-0.47712">
        <ele>239.9</ele>
        <time>2012-02-04T13:31:30Z</time>
      </trkpt>
      <trkpt lat="48.596" lon="-0.47714">
        <ele>240.1</ele>
        <time>2012-02-04T13:31:31Z</time>
      </trkpt>
      <trkpt lat="48.59589" lon="-0.4773">
        <ele>240.2</ele>
        <time>2012-02-04T13:31:55Z</time>
      </trkpt>
      <trkpt lat="48.59582" lon="-0.4773">
        <ele>240.3</ele>
        <time>2012-02-04T13:31:59Z</time>
      </trkpt>
      <trkpt lat="48.59573" lon="-0.47734">
        <ele>241</ele>
        <time>2012-02-04T13:32:03Z</time>
      </trkpt>
      <trkpt lat="48.59566" lon="-0.47738">
        <ele>241.5</ele>
        <time>2012-02-04T13:32:06Z</time>
      </trkpt>
      <trkpt lat="48.59559" lon="-0.47742">
        <ele>241.9</ele>
        <time>2012-02-04T13:32:09Z</time>
      </trkpt>
      <trkpt lat="48.59552" lon="-0.47747">
        <ele>241.8</ele>
        <time>2012-02-04T13:32:12Z</time>
      </trkpt>
      <trkpt lat="48.59544" lon="-0.47753">
        <ele>242.1</ele>
        <time>2012-02-04T13:32:16Z</time>
      </trkpt>
      <trkpt lat="48.59544" lon="-0.47766">
        <ele>242.6</ele>
        <time>2012-02-04T13:32:33Z</time>
      </trkpt>
      <trkpt lat="48.59545" lon="-0.47769">
        <ele>242.6</ele>
        <time>2012-02-04T13:32:34Z</time>
      </trkpt>
      <trkpt lat="48.59554" lon="-0.47786">
        <ele>242.5</ele>
        <time>2012-02-04T13:32:40Z</time>
      </trkpt>
      <trkpt lat="48.59559" lon="-0.47796">
        <ele>243</ele>
        <time>2012-02-04T13:32:44Z</time>
      </trkpt>
      <trkpt lat="48.59564" lon="-0.47804">
        <ele>243.3</ele>
        <time>2012-02-04T13:32:47Z</time>
      </trkpt>
      <trkpt lat="48.59569" lon="-0.47813">
        <ele>243.4</ele>
        <time>2012-02-04T13:32:50Z</time>
      </trkpt>
      <trkpt lat="48.59574" lon="-0.47821">
        <ele>242.8</ele>
        <time>2012-02-04T13:32:53Z</time>
      </trkpt>
      <trkpt lat="48.59579" lon="-0.47831">
        <ele>242.6</ele>
        <time>2012-02-04T13:32:57Z</time>
      </trkpt>
      <trkpt lat="48.59586" lon="-0.47839">
        <ele>242.4</ele>
        <time>2012-02-04T13:33:04Z</time>
      </trkpt>
      <trkpt lat="48.59592" lon="-0.47849">
        <ele>243.4</ele>
        <time>2012-02-04T13:33:21Z</time>
      </trkpt>
      <trkpt lat="48.59587" lon="-0.4786">
        <ele>244</ele>
        <time>2012-02-04T13:33:45Z</time>
      </trkpt>
      <trkpt lat="48.59585" lon="-0.47862">
        <ele>244</ele>
        <time>2012-02-04T13:33:46Z</time>
      </trkpt>
      <trkpt lat="48.59575" lon="-0.47877">
        <ele>244.7</ele>
        <time>2012-02-04T13:33:52Z</time>
      </trkpt>
      <trkpt lat="48.5957" lon="-0.47885">
        <ele>245.3</ele>
        <time>2012-02-04T13:33:55Z</time>
      </trkpt>
      <trkpt lat="48.59564" lon="-0.47894">
        <ele>245.8</ele>
        <time>2012-02-04T13:33:58Z</time>
      </trkpt>
      <trkpt lat="48.59558" lon="-0.47903">
        <ele>246</ele>
        <time>2012-02-04T13:34:01Z</time>
      </trkpt>
      <trkpt lat="48.59553" lon="-0.47911">
        <ele>247.2</ele>
        <time>2012-02-04T13:34:04Z</time>
      </trkpt>
      <trkpt lat="48.59547" lon="-0.47919">
        <ele>247.8</ele>
        <time>2012-02-04T13:34:07Z</time>
      </trkpt>
      <trkpt lat="48.59542" lon="-0.47927">
        <ele>248.4</ele>
        <time>2012-02-04T13:34:10Z</time>
      </trkpt>
      <trkpt lat="48.59535" lon="-0.47936">
        <ele>249.1</ele>
        <time>2012-02-04T13:34:13Z</time>
      </trkpt>
      <trkpt lat="48.5953" lon="-0.47942">
        <ele>249.6</ele>
        <time>2012-02-04T13:34:15Z</time>
      </trkpt>
      <trkpt lat="48.59525" lon="-0.47949">
        <ele>249.9</ele>
        <time>2012-02-04T13:34:17Z</time>
      </trkpt>
      <trkpt lat="48.5952" lon="-0.47956">
        <ele>250.5</ele>
        <time>2012-02-04T13:34:19Z</time>
      </trkpt>
      <trkpt lat="48.59515" lon="-0.47963">
        <ele>251.5</ele>
        <time>2012-02-04T13:34:21Z</time>
      </trkpt>
      <trkpt lat="48.5951" lon="-0.47971">
        <ele>251.9</ele>
        <time>2012-02-04T13:34:23Z</time>
      </trkpt>
      <trkpt lat="48.59506" lon="-0.47978">
        <ele>252.4</ele>
        <time>2012-02-04T13:34:25Z</time>
      </trkpt>
      <trkpt lat="48.59501" lon="-0.47985">
        <ele>253</ele>
        <time>2012-02-04T13:34:27Z</time>
      </trkpt>
      <trkpt lat="48.59496" lon="-0.47993">
        <ele>252.5</ele>
        <time>2012-02-04T13:34:29Z</time>
      </trkpt>
      <trkpt lat="48.59491" lon="-0.48">
        <ele>252.6</ele>
        <time>2012-02-04T13:34:31Z</time>
      </trkpt>
      <trkpt lat="48.59486" lon="-0.48007">
        <ele>253.3</ele>
        <time>2012-02-04T13:34:33Z</time>
      </trkpt>
      <trkpt lat="48.59481" lon="-0.48015">
        <ele>253.5</ele>
        <time>2012-02-04T13:34:35Z</time>
      </trkpt>
      <trkpt lat="48.59476" lon="-0.48022">
        <ele>253.5</ele>
        <time>2012-02-04T13:34:37Z</time>
      </trkpt>
      <trkpt lat="48.59471" lon="-0.4803">
        <ele>253.5</ele>
        <time>2012-02-04T13:34:39Z</time>
      </trkpt>
      <trkpt lat="48.59465" lon="-0.48038">
        <ele>253.8</ele>
        <time>2012-02-04T13:34:41Z</time>
      </trkpt>
      <trkpt lat="48.5946" lon="-0.48046">
        <ele>254.3</ele>
        <time>2012-02-04T13:34:43Z</time>
      </trkpt>
      <trkpt lat="48.59455" lon="-0.48054">
        <ele>254.5</ele>
        <time>2012-02-04T13:34:45Z</time>
      </trkpt>
      <trkpt lat="48.5945" lon="-0.48062">
        <ele>254.9</ele>
        <time>2012-02-04T13:34:47Z</time>
      </trkpt>
      <trkpt lat="48.59447" lon="-0.48067">
        <ele>255.2</ele>
        <time>2012-02-04T13:34:48Z</time>
      </trkpt>
      <trkpt lat="48.59438" lon="-0.48081">
        <ele>254.5</ele>
        <time>2012-02-04T13:34:51Z</time>
      </trkpt>
      <trkpt lat="48.59432" lon="-0.4809">
        <ele>254.3</ele>
        <time>2012-02-04T13:34:53Z</time>
      </trkpt>
      <trkpt lat="48.59426" lon="-0.48099">
        <ele>254.9</ele>
        <time>2012-02-04T13:34:55Z</time>
      </trkpt>
      <trkpt lat="48.59419" lon="-0.48108">
        <ele>254.6</ele>
        <time>2012-02-04T13:34:57Z</time>
      </trkpt>
      <trkpt lat="48.59416" lon="-0.48112">
        <ele>254.9</ele>
        <time>2012-02-04T13:34:58Z</time>
      </trkpt>
      <trkpt lat="48.59409" lon="-0.48122">
        <ele>255.3</ele>
        <time>2012-02-04T13:35:00Z</time>
      </trkpt>
      <trkpt lat="48.59403" lon="-0.48131">
        <ele>255.3</ele>
        <time>2012-02-04T13:35:02Z</time>
      </trkpt>
      <trkpt lat="48.59399" lon="-0.48136">
        <ele>255</ele>
        <time>2012-02-04T13:35:03Z</time>
      </trkpt>
      <trkpt lat="48.59396" lon="-0.48141">
        <ele>254.7</ele>
        <time>2012-02-04T13:35:04Z</time>
      </trkpt>
      <trkpt lat="48.59392" lon="-0.48146">
        <ele>254.6</ele>
        <time>2012-02-04T13:35:05Z</time>
      </trkpt>
      <trkpt lat="48.59389" lon="-0.4815">
        <ele>254.8</ele>
        <time>2012-02-04T13:35:06Z</time>
      </trkpt>
      <trkpt lat="48.59383" lon="-0.4816">
        <ele>255</ele>
        <time>2012-02-04T13:35:08Z</time>
      </trkpt>
      <trkpt lat="48.59376" lon="-0.48169">
        <ele>255.2</ele>
        <time>2012-02-04T13:35:10Z</time>
      </trkpt>
      <trkpt lat="48.5937" lon="-0.48178">
        <ele>255.5</ele>
        <time>2012-02-04T13:35:12Z</time>
      </trkpt>
      <trkpt lat="48.59364" lon="-0.48187">
        <ele>255.6</ele>
        <time>2012-02-04T13:35:14Z</time>
      </trkpt>
      <trkpt lat="48.59358" lon="-0.48196">
        <ele>255.8</ele>
        <time>2012-02-04T13:35:16Z</time>
      </trkpt>
      <trkpt lat="48.59352" lon="-0.48204">
        <ele>255.6</ele>
        <time>2012-02-04T13:35:18Z</time>
      </trkpt>
      <trkpt lat="48.59346" lon="-0.48212">
        <ele>255.7</ele>
        <time>2012-02-04T13:35:20Z</time>
      </trkpt>
      <trkpt lat="48.5934" lon="-0.48221">
        <ele>255.9</ele>
        <time>2012-02-04T13:35:22Z</time>
      </trkpt>
      <trkpt lat="48.59334" lon="-0.4823">
        <ele>255.8</ele>
        <time>2012-02-04T13:35:24Z</time>
      </trkpt>
      <trkpt lat="48.59329" lon="-0.48238">
        <ele>256.7</ele>
        <time>2012-02-04T13:35:26Z</time>
      </trkpt>
      <trkpt lat="48.59323" lon="-0.48247">
        <ele>258.1</ele>
        <time>2012-02-04T13:35:28Z</time>
      </trkpt>
      <trkpt lat="48.59317" lon="-0.48254">
        <ele>258.8</ele>
        <time>2012-02-04T13:35:30Z</time>
      </trkpt>
      <trkpt lat="48.59312" lon="-0.48262">
        <ele>258.6</ele>
        <time>2012-02-04T13:35:32Z</time>
      </trkpt>
      <trkpt lat="48.59306" lon="-0.48268">
        <ele>258.5</ele>
        <time>2012-02-04T13:35:34Z</time>
      </trkpt>
      <trkpt lat="48.59301" lon="-0.48275">
        <ele>258.7</ele>
        <time>2012-02-04T13:35:36Z</time>
      </trkpt>
      <trkpt lat="48.59296" lon="-0.48284">
        <ele>258.8</ele>
        <time>2012-02-04T13:35:38Z</time>
      </trkpt>
      <trkpt lat="48.5929" lon="-0.48293">
        <ele>259.4</ele>
        <time>2012-02-04T13:35:40Z</time>
      </trkpt>
      <trkpt lat="48.59284" lon="-0.48301">
        <ele>260.2</ele>
        <time>2012-02-04T13:35:42Z</time>
      </trkpt>
      <trkpt lat="48.59277" lon="-0.48308">
        <ele>260.4</ele>
        <time>2012-02-04T13:35:44Z</time>
      </trkpt>
      <trkpt lat="48.59271" lon="-0.48316">
        <ele>260.8</ele>
        <time>2012-02-04T13:35:46Z</time>
      </trkpt>
      <trkpt lat="48.59266" lon="-0.48324">
        <ele>261.2</ele>
        <time>2012-02-04T13:35:48Z</time>
      </trkpt>
      <trkpt lat="48.59263" lon="-0.48328">
        <ele>261.3</ele>
        <time>2012-02-04T13:35:49Z</time>
      </trkpt>
      <trkpt lat="48.59254" lon="-0.4834">
        <ele>262.5</ele>
        <time>2012-02-04T13:35:52Z</time>
      </trkpt>
      <trkpt lat="48.59248" lon="-0.48349">
        <ele>262.8</ele>
        <time>2012-02-04T13:35:54Z</time>
      </trkpt>
      <trkpt lat="48.59242" lon="-0.48357">
        <ele>262.7</ele>
        <time>2012-02-04T13:35:56Z</time>
      </trkpt>
      <trkpt lat="48.59235" lon="-0.48366">
        <ele>262.8</ele>
        <time>2012-02-04T13:35:58Z</time>
      </trkpt>
      <trkpt lat="48.59229" lon="-0.48374">
        <ele>263.1</ele>
        <time>2012-02-04T13:36:00Z</time>
      </trkpt>
      <trkpt lat="48.59223" lon="-0.48383">
        <ele>263.3</ele>
        <time>2012-02-04T13:36:02Z</time>
      </trkpt>
      <trkpt lat="48.59216" lon="-0.48391">
        <ele>264.1</ele>
        <time>2012-02-04T13:36:04Z</time>
      </trkpt>
      <trkpt lat="48.5921" lon="-0.484">
        <ele>264.2</ele>
        <time>2012-02-04T13:36:06Z</time>
      </trkpt>
      <trkpt lat="48.59205" lon="-0.48408">
        <ele>264.7</ele>
        <time>2012-02-04T13:36:08Z</time>
      </trkpt>
      <trkpt lat="48.59201" lon="-0.48417">
        <ele>264.5</ele>
        <time>2012-02-04T13:36:10Z</time>
      </trkpt>
      <trkpt lat="48.59201" lon="-0.4843">
        <ele>264.2</ele>
        <time>2012-02-04T13:36:13Z</time>
      </trkpt>
      <trkpt lat="48.59205" lon="-0.48439">
        <ele>263.7</ele>
        <time>2012-02-04T13:36:15Z</time>
      </trkpt>
      <trkpt lat="48.59209" lon="-0.48446">
        <ele>263.3</ele>
        <time>2012-02-04T13:36:17Z</time>
      </trkpt>
      <trkpt lat="48.59213" lon="-0.48455">
        <ele>263.1</ele>
        <time>2012-02-04T13:36:19Z</time>
      </trkpt>
      <trkpt lat="48.59217" lon="-0.48463">
        <ele>262.8</ele>
        <time>2012-02-04T13:36:21Z</time>
      </trkpt>
      <trkpt lat="48.59221" lon="-0.48473">
        <ele>262.5</ele>
        <time>2012-02-04T13:36:23Z</time>
      </trkpt>
      <trkpt lat="48.59225" lon="-0.48483">
        <ele>262.8</ele>
        <time>2012-02-04T13:36:25Z</time>
      </trkpt>
      <trkpt lat="48.59228" lon="-0.48492">
        <ele>262.4</ele>
        <time>2012-02-04T13:36:27Z</time>
      </trkpt>
      <trkpt lat="48.59232" lon="-0.48504">
        <ele>262.2</ele>
        <time>2012-02-04T13:36:30Z</time>
      </trkpt>
      <trkpt lat="48.59236" lon="-0.48515">
        <ele>260.7</ele>
        <time>2012-02-04T13:36:34Z</time>
      </trkpt>
      <trkpt lat="48.59241" lon="-0.48526">
        <ele>260</ele>
        <time>2012-02-04T13:36:37Z</time>
      </trkpt>
      <trkpt lat="48.59245" lon="-0.48535">
        <ele>259.6</ele>
        <time>2012-02-04T13:36:39Z</time>
      </trkpt>
      <trkpt lat="48.5925" lon="-0.48545">
        <ele>259.7</ele>
        <time>2012-02-04T13:36:41Z</time>
      </trkpt>
      <trkpt lat="48.59254" lon="-0.48556">
        <ele>259.8</ele>
        <time>2012-02-04T13:36:43Z</time>
      </trkpt>
      <trkpt lat="48.59259" lon="-0.48567">
        <ele>259.3</ele>
        <time>2012-02-04T13:36:45Z</time>
      </trkpt>
      <trkpt lat="48.59261" lon="-0.48573">
        <ele>258.9</ele>
        <time>2012-02-04T13:36:46Z</time>
      </trkpt>
      <trkpt lat="48.59263" lon="-0.48579">
        <ele>258.6</ele>
        <time>2012-02-04T13:36:47Z</time>
      </trkpt>
      <trkpt lat="48.59266" lon="-0.48585">
        <ele>258.5</ele>
        <time>2012-02-04T13:36:48Z</time>
      </trkpt>
      <trkpt lat="48.59269" lon="-0.48591">
        <ele>258.5</ele>
        <time>2012-02-04T13:36:49Z</time>
      </trkpt>
      <trkpt lat="48.59272" lon="-0.48598">
        <ele>258.6</ele>
        <time>2012-02-04T13:36:50Z</time>
      </trkpt>
      <trkpt lat="48.59274" lon="-0.48604">
        <ele>258.7</ele>
        <time>2012-02-04T13:36:51Z</time>
      </trkpt>
      <trkpt lat="48.59277" lon="-0.48611">
        <ele>258.6</ele>
        <time>2012-02-04T13:36:52Z</time>
      </trkpt>
      <trkpt lat="48.59279" lon="-0.48617">
        <ele>258.5</ele>
        <time>2012-02-04T13:36:53Z</time>
      </trkpt>
      <trkpt lat="48.59282" lon="-0.48623">
        <ele>258.4</ele>
        <time>2012-02-04T13:36:54Z</time>
      </trkpt>
      <trkpt lat="48.59285" lon="-0.48629">
        <ele>258</ele>
        <time>2012-02-04T13:36:55Z</time>
      </trkpt>
      <trkpt lat="48.59288" lon="-0.48636">
        <ele>257.7</ele>
        <time>2012-02-04T13:36:56Z</time>
      </trkpt>
      <trkpt lat="48.59291" lon="-0.48643">
        <ele>257.3</ele>
        <time>2012-02-04T13:36:57Z</time>
      </trkpt>
      <trkpt lat="48.59294" lon="-0.48649">
        <ele>257</ele>
        <time>2012-02-04T13:36:58Z</time>
      </trkpt>
      <trkpt lat="48.59297" lon="-0.48655">
        <ele>256.7</ele>
        <time>2012-02-04T13:36:59Z</time>
      </trkpt>
      <trkpt lat="48.593" lon="-0.48662">
        <ele>256.5</ele>
        <time>2012-02-04T13:37:00Z</time>
      </trkpt>
      <trkpt lat="48.59303" lon="-0.48669">
        <ele>256.4</ele>
        <time>2012-02-04T13:37:01Z</time>
      </trkpt>
      <trkpt lat="48.59306" lon="-0.48676">
        <ele>255.7</ele>
        <time>2012-02-04T13:37:02Z</time>
      </trkpt>
      <trkpt lat="48.5931" lon="-0.48682">
        <ele>255.3</ele>
        <time>2012-02-04T13:37:03Z</time>
      </trkpt>
      <trkpt lat="48.59313" lon="-0.48689">
        <ele>254.7</ele>
        <time>2012-02-04T13:37:04Z</time>
      </trkpt>
      <trkpt lat="48.59316" lon="-0.48695">
        <ele>254.2</ele>
        <time>2012-02-04T13:37:05Z</time>
      </trkpt>
      <trkpt lat="48.59319" lon="-0.48701">
        <ele>253.9</ele>
        <time>2012-02-04T13:37:06Z</time>
      </trkpt>
      <trkpt lat="48.59321" lon="-0.48707">
        <ele>253.7</ele>
        <time>2012-02-04T13:37:07Z</time>
      </trkpt>
      <trkpt lat="48.59324" lon="-0.48713">
        <ele>253.6</ele>
        <time>2012-02-04T13:37:08Z</time>
      </trkpt>
      <trkpt lat="48.59326" lon="-0.48719">
        <ele>253.2</ele>
        <time>2012-02-04T13:37:09Z</time>
      </trkpt>
      <trkpt lat="48.59328" lon="-0.48725">
        <ele>252.9</ele>
        <time>2012-02-04T13:37:10Z</time>
      </trkpt>
      <trkpt lat="48.59331" lon="-0.48731">
        <ele>252.6</ele>
        <time>2012-02-04T13:37:11Z</time>
      </trkpt>
      <trkpt lat="48.59333" lon="-0.48738">
        <ele>252.4</ele>
        <time>2012-02-04T13:37:12Z</time>
      </trkpt>
      <trkpt lat="48.59335" lon="-0.48744">
        <ele>252.3</ele>
        <time>2012-02-04T13:37:13Z</time>
      </trkpt>
      <trkpt lat="48.59338" lon="-0.4875">
        <ele>252.3</ele>
        <time>2012-02-04T13:37:14Z</time>
      </trkpt>
      <trkpt lat="48.59345" lon="-0.4876">
        <ele>252</ele>
        <time>2012-02-04T13:37:16Z</time>
      </trkpt>
      <trkpt lat="48.59348" lon="-0.48765">
        <ele>251.8</ele>
        <time>2012-02-04T13:37:17Z</time>
      </trkpt>
      <trkpt lat="48.59351" lon="-0.4877">
        <ele>251.5</ele>
        <time>2012-02-04T13:37:18Z</time>
      </trkpt>
      <trkpt lat="48.59354" lon="-0.48776">
        <ele>251.2</ele>
        <time>2012-02-04T13:37:19Z</time>
      </trkpt>
      <trkpt lat="48.59357" lon="-0.48782">
        <ele>250.9</ele>
        <time>2012-02-04T13:37:20Z</time>
      </trkpt>
      <trkpt lat="48.59359" lon="-0.48788">
        <ele>251</ele>
        <time>2012-02-04T13:37:21Z</time>
      </trkpt>
      <trkpt lat="48.59362" lon="-0.48794">
        <ele>251</ele>
        <time>2012-02-04T13:37:22Z</time>
      </trkpt>
      <trkpt lat="48.59365" lon="-0.488">
        <ele>250.7</ele>
        <time>2012-02-04T13:37:23Z</time>
      </trkpt>
      <trkpt lat="48.59367" lon="-0.48806">
        <ele>250.4</ele>
        <time>2012-02-04T13:37:24Z</time>
      </trkpt>
      <trkpt lat="48.5937" lon="-0.48813">
        <ele>250.2</ele>
        <time>2012-02-04T13:37:25Z</time>
      </trkpt>
      <trkpt lat="48.59372" lon="-0.48819">
        <ele>250.2</ele>
        <time>2012-02-04T13:37:26Z</time>
      </trkpt>
      <trkpt lat="48.59375" lon="-0.48824">
        <ele>250.3</ele>
        <time>2012-02-04T13:37:27Z</time>
      </trkpt>
      <trkpt lat="48.59377" lon="-0.4883">
        <ele>250.3</ele>
        <time>2012-02-04T13:37:28Z</time>
      </trkpt>
      <trkpt lat="48.5938" lon="-0.48836">
        <ele>250.3</ele>
        <time>2012-02-04T13:37:29Z</time>
      </trkpt>
      <trkpt lat="48.59382" lon="-0.48842">
        <ele>250</ele>
        <time>2012-02-04T13:37:30Z</time>
      </trkpt>
      <trkpt lat="48.59387" lon="-0.48853">
        <ele>249.6</ele>
        <time>2012-02-04T13:37:32Z</time>
      </trkpt>
      <trkpt lat="48.59391" lon="-0.48865">
        <ele>250.2</ele>
        <time>2012-02-04T13:37:34Z</time>
      </trkpt>
      <trkpt lat="48.59396" lon="-0.48876">
        <ele>250.8</ele>
        <time>2012-02-04T13:37:36Z</time>
      </trkpt>
      <trkpt lat="48.594" lon="-0.48887">
        <ele>250.6</ele>
        <time>2012-02-04T13:37:38Z</time>
      </trkpt>
      <trkpt lat="48.59403" lon="-0.48897">
        <ele>250.7</ele>
        <time>2012-02-04T13:37:40Z</time>
      </trkpt>
      <trkpt lat="48.59407" lon="-0.48908">
        <ele>250.7</ele>
        <time>2012-02-04T13:37:42Z</time>
      </trkpt>
      <trkpt lat="48.59411" lon="-0.48919">
        <ele>250.6</ele>
        <time>2012-02-04T13:37:44Z</time>
      </trkpt>
      <trkpt lat="48.59415" lon="-0.4893">
        <ele>250.6</ele>
        <time>2012-02-04T13:37:46Z</time>
      </trkpt>
      <trkpt lat="48.59419" lon="-0.4894">
        <ele>250.2</ele>
        <time>2012-02-04T13:37:48Z</time>
      </trkpt>
      <trkpt lat="48.59422" lon="-0.4895">
        <ele>249.9</ele>
        <time>2012-02-04T13:37:50Z</time>
      </trkpt>
      <trkpt lat="48.59424" lon="-0.48956">
        <ele>249.9</ele>
        <time>2012-02-04T13:37:51Z</time>
      </trkpt>
      <trkpt lat="48.5943" lon="-0.48968">
        <ele>249.3</ele>
        <time>2012-02-04T13:37:55Z</time>
      </trkpt>
      <trkpt lat="48.59435" lon="-0.48979">
        <ele>249.3</ele>
        <time>2012-02-04T13:37:59Z</time>
      </trkpt>
      <trkpt lat="48.59439" lon="-0.48989">
        <ele>249.1</ele>
        <time>2012-02-04T13:38:03Z</time>
      </trkpt>
      <trkpt lat="48.59443" lon="-0.49">
        <ele>248.8</ele>
        <time>2012-02-04T13:38:07Z</time>
      </trkpt>
      <trkpt lat="48.59447" lon="-0.4901">
        <ele>248.2</ele>
        <time>2012-02-04T13:38:16Z</time>
      </trkpt>
      <trkpt lat="48.59453" lon="-0.49021">
        <ele>248.4</ele>
        <time>2012-02-04T13:38:19Z</time>
      </trkpt>
      <trkpt lat="48.59458" lon="-0.49029">
        <ele>248.7</ele>
        <time>2012-02-04T13:38:21Z</time>
      </trkpt>
      <trkpt lat="48.59462" lon="-0.49037">
        <ele>248.4</ele>
        <time>2012-02-04T13:38:23Z</time>
      </trkpt>
      <trkpt lat="48.59468" lon="-0.49045">
        <ele>247.8</ele>
        <time>2012-02-04T13:38:26Z</time>
      </trkpt>
      <trkpt lat="48.59477" lon="-0.49046">
        <ele>247.4</ele>
        <time>2012-02-04T13:38:29Z</time>
      </trkpt>
      <trkpt lat="48.59484" lon="-0.49046">
        <ele>247.3</ele>
        <time>2012-02-04T13:38:31Z</time>
      </trkpt>
      <trkpt lat="48.59492" lon="-0.49046">
        <ele>248.2</ele>
        <time>2012-02-04T13:38:33Z</time>
      </trkpt>
      <trkpt lat="48.59499" lon="-0.49045">
        <ele>248</ele>
        <time>2012-02-04T13:38:35Z</time>
      </trkpt>
      <trkpt lat="48.59507" lon="-0.49045">
        <ele>248.2</ele>
        <time>2012-02-04T13:38:37Z</time>
      </trkpt>
      <trkpt lat="48.59514" lon="-0.49045">
        <ele>248.5</ele>
        <time>2012-02-04T13:38:39Z</time>
      </trkpt>
      <trkpt lat="48.59522" lon="-0.49045">
        <ele>248.6</ele>
        <time>2012-02-04T13:38:41Z</time>
      </trkpt>
      <trkpt lat="48.59529" lon="-0.49045">
        <ele>248.6</ele>
        <time>2012-02-04T13:38:43Z</time>
      </trkpt>
      <trkpt lat="48.59537" lon="-0.49045">
        <ele>248.9</ele>
        <time>2012-02-04T13:38:45Z</time>
      </trkpt>
      <trkpt lat="48.59545" lon="-0.49044">
        <ele>249.1</ele>
        <time>2012-02-04T13:38:47Z</time>
      </trkpt>
      <trkpt lat="48.59553" lon="-0.49045">
        <ele>249.5</ele>
        <time>2012-02-04T13:38:49Z</time>
      </trkpt>
      <trkpt lat="48.59557" lon="-0.49045">
        <ele>249.7</ele>
        <time>2012-02-04T13:38:50Z</time>
      </trkpt>
      <trkpt lat="48.59562" lon="-0.49046">
        <ele>250</ele>
        <time>2012-02-04T13:38:51Z</time>
      </trkpt>
      <trkpt lat="48.59566" lon="-0.49046">
        <ele>250.2</ele>
        <time>2012-02-04T13:38:52Z</time>
      </trkpt>
      <trkpt lat="48.59579" lon="-0.49051">
        <ele>250.2</ele>
        <time>2012-02-04T13:38:55Z</time>
      </trkpt>
      <trkpt lat="48.59583" lon="-0.49053">
        <ele>250.2</ele>
        <time>2012-02-04T13:38:56Z</time>
      </trkpt>
      <trkpt lat="48.59588" lon="-0.49056">
        <ele>250.2</ele>
        <time>2012-02-04T13:38:57Z</time>
      </trkpt>
      <trkpt lat="48.59595" lon="-0.4906">
        <ele>250.3</ele>
        <time>2012-02-04T13:38:59Z</time>
      </trkpt>
      <trkpt lat="48.596" lon="-0.49063">
        <ele>250.3</ele>
        <time>2012-02-04T13:39:00Z</time>
      </trkpt>
      <trkpt lat="48.59604" lon="-0.49065">
        <ele>250.2</ele>
        <time>2012-02-04T13:39:01Z</time>
      </trkpt>
      <trkpt lat="48.59608" lon="-0.49067">
        <ele>250.1</ele>
        <time>2012-02-04T13:39:02Z</time>
      </trkpt>
      <trkpt lat="48.59613" lon="-0.4907">
        <ele>250.1</ele>
        <time>2012-02-04T13:39:03Z</time>
      </trkpt>
      <trkpt lat="48.59617" lon="-0.49073">
        <ele>250.1</ele>
        <time>2012-02-04T13:39:04Z</time>
      </trkpt>
      <trkpt lat="48.59621" lon="-0.49075">
        <ele>250.1</ele>
        <time>2012-02-04T13:39:05Z</time>
      </trkpt>
      <trkpt lat="48.59626" lon="-0.49078">
        <ele>250.2</ele>
        <time>2012-02-04T13:39:06Z</time>
      </trkpt>
      <trkpt lat="48.5963" lon="-0.4908">
        <ele>250.2</ele>
        <time>2012-02-04T13:39:07Z</time>
      </trkpt>
      <trkpt lat="48.59635" lon="-0.49083">
        <ele>250.1</ele>
        <time>2012-02-04T13:39:08Z</time>
      </trkpt>
      <trkpt lat="48.59639" lon="-0.49086">
        <ele>250</ele>
        <time>2012-02-04T13:39:09Z</time>
      </trkpt>
      <trkpt lat="48.59643" lon="-0.49089">
        <ele>250.1</ele>
        <time>2012-02-04T13:39:10Z</time>
      </trkpt>
      <trkpt lat="48.59648" lon="-0.49092">
        <ele>250.2</ele>
        <time>2012-02-04T13:39:11Z</time>
      </trkpt>
      <trkpt lat="48.59653" lon="-0.49094">
        <ele>250.1</ele>
        <time>2012-02-04T13:39:12Z</time>
      </trkpt>
      <trkpt lat="48.59657" lon="-0.49097">
        <ele>250</ele>
        <time>2012-02-04T13:39:13Z</time>
      </trkpt>
      <trkpt lat="48.59662" lon="-0.491">
        <ele>250</ele>
        <time>2012-02-04T13:39:14Z</time>
      </trkpt>
      <trkpt lat="48.59666" lon="-0.49103">
        <ele>249.9</ele>
        <time>2012-02-04T13:39:15Z</time>
      </trkpt>
      <trkpt lat="48.59671" lon="-0.49105">
        <ele>249.8</ele>
        <time>2012-02-04T13:39:16Z</time>
      </trkpt>
      <trkpt lat="48.59676" lon="-0.49108">
        <ele>249.6</ele>
        <time>2012-02-04T13:39:17Z</time>
      </trkpt>
      <trkpt lat="48.5968" lon="-0.49111">
        <ele>249.5</ele>
        <time>2012-02-04T13:39:18Z</time>
      </trkpt>
      <trkpt lat="48.59685" lon="-0.49114">
        <ele>249.5</ele>
        <time>2012-02-04T13:39:19Z</time>
      </trkpt>
      <trkpt lat="48.59689" lon="-0.49117">
        <ele>249.4</ele>
        <time>2012-02-04T13:39:20Z</time>
      </trkpt>
      <trkpt lat="48.59694" lon="-0.4912">
        <ele>249.3</ele>
        <time>2012-02-04T13:39:21Z</time>
      </trkpt>
      <trkpt lat="48.59698" lon="-0.49123">
        <ele>249.2</ele>
        <time>2012-02-04T13:39:22Z</time>
      </trkpt>
      <trkpt lat="48.59703" lon="-0.49126">
        <ele>249.1</ele>
        <time>2012-02-04T13:39:23Z</time>
      </trkpt>
      <trkpt lat="48.59708" lon="-0.49129">
        <ele>249</ele>
        <time>2012-02-04T13:39:24Z</time>
      </trkpt>
      <trkpt lat="48.59713" lon="-0.49132">
        <ele>248.9</ele>
        <time>2012-02-04T13:39:25Z</time>
      </trkpt>
      <trkpt lat="48.59719" lon="-0.49135">
        <ele>248.8</ele>
        <time>2012-02-04T13:39:26Z</time>
      </trkpt>
      <trkpt lat="48.59725" lon="-0.49137">
        <ele>248.4</ele>
        <time>2012-02-04T13:39:27Z</time>
      </trkpt>
      <trkpt lat="48.5973" lon="-0.49141">
        <ele>248.1</ele>
        <time>2012-02-04T13:39:28Z</time>
      </trkpt>
      <trkpt lat="48.59736" lon="-0.49144">
        <ele>247.9</ele>
        <time>2012-02-04T13:39:29Z</time>
      </trkpt>
      <trkpt lat="48.59741" lon="-0.49147">
        <ele>247.7</ele>
        <time>2012-02-04T13:39:30Z</time>
      </trkpt>
      <trkpt lat="48.59746" lon="-0.4915">
        <ele>247.8</ele>
        <time>2012-02-04T13:39:31Z</time>
      </trkpt>
      <trkpt lat="48.59751" lon="-0.49153">
        <ele>247.9</ele>
        <time>2012-02-04T13:39:32Z</time>
      </trkpt>
      <trkpt lat="48.59757" lon="-0.49156">
        <ele>248</ele>
        <time>2012-02-04T13:39:33Z</time>
      </trkpt>
      <trkpt lat="48.59762" lon="-0.4916">
        <ele>247.4</ele>
        <time>2012-02-04T13:39:34Z</time>
      </trkpt>
      <trkpt lat="48.59767" lon="-0.49163">
        <ele>246.9</ele>
        <time>2012-02-04T13:39:35Z</time>
      </trkpt>
      <trkpt lat="48.59772" lon="-0.49166">
        <ele>246.7</ele>
        <time>2012-02-04T13:39:36Z</time>
      </trkpt>
      <trkpt lat="48.59777" lon="-0.49169">
        <ele>246.5</ele>
        <time>2012-02-04T13:39:37Z</time>
      </trkpt>
      <trkpt lat="48.59782" lon="-0.49172">
        <ele>246.3</ele>
        <time>2012-02-04T13:39:38Z</time>
      </trkpt>
      <trkpt lat="48.59787" lon="-0.49174">
        <ele>246.1</ele>
        <time>2012-02-04T13:39:39Z</time>
      </trkpt>
      <trkpt lat="48.59792" lon="-0.49177">
        <ele>245.9</ele>
        <time>2012-02-04T13:39:40Z</time>
      </trkpt>
      <trkpt lat="48.59797" lon="-0.4918">
        <ele>245.5</ele>
        <time>2012-02-04T13:39:41Z</time>
      </trkpt>
      <trkpt lat="48.59802" lon="-0.49184">
        <ele>245.1</ele>
        <time>2012-02-04T13:39:42Z</time>
      </trkpt>
      <trkpt lat="48.59807" lon="-0.49187">
        <ele>244.5</ele>
        <time>2012-02-04T13:39:43Z</time>
      </trkpt>
      <trkpt lat="48.59812" lon="-0.4919">
        <ele>244.1</ele>
        <time>2012-02-04T13:39:44Z</time>
      </trkpt>
      <trkpt lat="48.59818" lon="-0.49193">
        <ele>243.8</ele>
        <time>2012-02-04T13:39:45Z</time>
      </trkpt>
      <trkpt lat="48.59823" lon="-0.49197">
        <ele>243.9</ele>
        <time>2012-02-04T13:39:46Z</time>
      </trkpt>
      <trkpt lat="48.59829" lon="-0.492">
        <ele>243.9</ele>
        <time>2012-02-04T13:39:47Z</time>
      </trkpt>
      <trkpt lat="48.59834" lon="-0.49204">
        <ele>243.5</ele>
        <time>2012-02-04T13:39:48Z</time>
      </trkpt>
      <trkpt lat="48.5984" lon="-0.49207">
        <ele>243.1</ele>
        <time>2012-02-04T13:39:49Z</time>
      </trkpt>
      <trkpt lat="48.59845" lon="-0.4921">
        <ele>242.4</ele>
        <time>2012-02-04T13:39:50Z</time>
      </trkpt>
      <trkpt lat="48.5985" lon="-0.49214">
        <ele>241.8</ele>
        <time>2012-02-04T13:39:51Z</time>
      </trkpt>
      <trkpt lat="48.59856" lon="-0.49217">
        <ele>241.4</ele>
        <time>2012-02-04T13:39:52Z</time>
      </trkpt>
      <trkpt lat="48.59861" lon="-0.4922">
        <ele>241.3</ele>
        <time>2012-02-04T13:39:53Z</time>
      </trkpt>
      <trkpt lat="48.59866" lon="-0.49223">
        <ele>241.2</ele>
        <time>2012-02-04T13:39:54Z</time>
      </trkpt>
      <trkpt lat="48.59872" lon="-0.49227">
        <ele>241.1</ele>
        <time>2012-02-04T13:39:55Z</time>
      </trkpt>
      <trkpt lat="48.59877" lon="-0.4923">
        <ele>241</ele>
        <time>2012-02-04T13:39:56Z</time>
      </trkpt>
      <trkpt lat="48.59883" lon="-0.49233">
        <ele>240.7</ele>
        <time>2012-02-04T13:39:57Z</time>
      </trkpt>
      <trkpt lat="48.59889" lon="-0.49237">
        <ele>240.5</ele>
        <time>2012-02-04T13:39:58Z</time>
      </trkpt>
      <trkpt lat="48.59895" lon="-0.4924">
        <ele>240.3</ele>
        <time>2012-02-04T13:39:59Z</time>
      </trkpt>
      <trkpt lat="48.59901" lon="-0.49243">
        <ele>240</ele>
        <time>2012-02-04T13:40:00Z</time>
      </trkpt>
      <trkpt lat="48.59907" lon="-0.49246">
        <ele>239.7</ele>
        <time>2012-02-04T13:40:01Z</time>
      </trkpt>
      <trkpt lat="48.59913" lon="-0.49249">
        <ele>239.7</ele>
        <time>2012-02-04T13:40:02Z</time>
      </trkpt>
      <trkpt lat="48.59918" lon="-0.49252">
        <ele>239.7</ele>
        <time>2012-02-04T13:40:03Z</time>
      </trkpt>
      <trkpt lat="48.59923" lon="-0.49255">
        <ele>239.6</ele>
        <time>2012-02-04T13:40:04Z</time>
      </trkpt>
      <trkpt lat="48.59929" lon="-0.49259">
        <ele>239.5</ele>
        <time>2012-02-04T13:40:05Z</time>
      </trkpt>
      <trkpt lat="48.59934" lon="-0.49261">
        <ele>239.4</ele>
        <time>2012-02-04T13:40:06Z</time>
      </trkpt>
      <trkpt lat="48.59939" lon="-0.49264">
        <ele>239.4</ele>
        <time>2012-02-04T13:40:07Z</time>
      </trkpt>
      <trkpt lat="48.59943" lon="-0.49266">
        <ele>239.4</ele>
        <time>2012-02-04T13:40:08Z</time>
      </trkpt>
      <trkpt lat="48.59948" lon="-0.49269">
        <ele>238.9</ele>
        <time>2012-02-04T13:40:09Z</time>
      </trkpt>
      <trkpt lat="48.59953" lon="-0.49272">
        <ele>238.5</ele>
        <time>2012-02-04T13:40:10Z</time>
      </trkpt>
      <trkpt lat="48.59957" lon="-0.49274">
        <ele>238.2</ele>
        <time>2012-02-04T13:40:11Z</time>
      </trkpt>
      <trkpt lat="48.59962" lon="-0.49276">
        <ele>238.2</ele>
        <time>2012-02-04T13:40:12Z</time>
      </trkpt>
      <trkpt lat="48.59966" lon="-0.49279">
        <ele>238.1</ele>
        <time>2012-02-04T13:40:13Z</time>
      </trkpt>
      <trkpt lat="48.5997" lon="-0.49281">
        <ele>238.2</ele>
        <time>2012-02-04T13:40:14Z</time>
      </trkpt>
      <trkpt lat="48.59975" lon="-0.49284">
        <ele>238.3</ele>
        <time>2012-02-04T13:40:15Z</time>
      </trkpt>
      <trkpt lat="48.59979" lon="-0.49286">
        <ele>238.2</ele>
        <time>2012-02-04T13:40:16Z</time>
      </trkpt>
      <trkpt lat="48.59984" lon="-0.49289">
        <ele>238.2</ele>
        <time>2012-02-04T13:40:17Z</time>
      </trkpt>
      <trkpt lat="48.59988" lon="-0.49292">
        <ele>238.1</ele>
        <time>2012-02-04T13:40:18Z</time>
      </trkpt>
      <trkpt lat="48.59996" lon="-0.49297">
        <ele>238.3</ele>
        <time>2012-02-04T13:40:20Z</time>
      </trkpt>
      <trkpt lat="48.60001" lon="-0.49299">
        <ele>238.2</ele>
        <time>2012-02-04T13:40:21Z</time>
      </trkpt>
      <trkpt lat="48.60005" lon="-0.49301">
        <ele>238.1</ele>
        <time>2012-02-04T13:40:22Z</time>
      </trkpt>
      <trkpt lat="48.6001" lon="-0.49304">
        <ele>238</ele>
        <time>2012-02-04T13:40:23Z</time>
      </trkpt>
      <trkpt lat="48.60014" lon="-0.49307">
        <ele>237.9</ele>
        <time>2012-02-04T13:40:24Z</time>
      </trkpt>
      <trkpt lat="48.60019" lon="-0.4931">
        <ele>237.9</ele>
        <time>2012-02-04T13:40:25Z</time>
      </trkpt>
      <trkpt lat="48.60023" lon="-0.49313">
        <ele>237.4</ele>
        <time>2012-02-04T13:40:26Z</time>
      </trkpt>
      <trkpt lat="48.60028" lon="-0.49316">
        <ele>237.1</ele>
        <time>2012-02-04T13:40:27Z</time>
      </trkpt>
      <trkpt lat="48.60033" lon="-0.49319">
        <ele>236.9</ele>
        <time>2012-02-04T13:40:28Z</time>
      </trkpt>
      <trkpt lat="48.60038" lon="-0.49322">
        <ele>236.7</ele>
        <time>2012-02-04T13:40:29Z</time>
      </trkpt>
      <trkpt lat="48.60043" lon="-0.49324">
        <ele>236.6</ele>
        <time>2012-02-04T13:40:30Z</time>
      </trkpt>
      <trkpt lat="48.60048" lon="-0.49327">
        <ele>236.7</ele>
        <time>2012-02-04T13:40:31Z</time>
      </trkpt>
      <trkpt lat="48.60052" lon="-0.4933">
        <ele>236.8</ele>
        <time>2012-02-04T13:40:32Z</time>
      </trkpt>
      <trkpt lat="48.60057" lon="-0.49333">
        <ele>236.6</ele>
        <time>2012-02-04T13:40:33Z</time>
      </trkpt>
      <trkpt lat="48.60062" lon="-0.49336">
        <ele>236.4</ele>
        <time>2012-02-04T13:40:34Z</time>
      </trkpt>
      <trkpt lat="48.60066" lon="-0.49339">
        <ele>236.4</ele>
        <time>2012-02-04T13:40:35Z</time>
      </trkpt>
      <trkpt lat="48.60071" lon="-0.49342">
        <ele>236.4</ele>
        <time>2012-02-04T13:40:36Z</time>
      </trkpt>
      <trkpt lat="48.60076" lon="-0.49345">
        <ele>236.4</ele>
        <time>2012-02-04T13:40:37Z</time>
      </trkpt>
      <trkpt lat="48.6008" lon="-0.49348">
        <ele>236.2</ele>
        <time>2012-02-04T13:40:38Z</time>
      </trkpt>
      <trkpt lat="48.60085" lon="-0.49351">
        <ele>236.1</ele>
        <time>2012-02-04T13:40:39Z</time>
      </trkpt>
      <trkpt lat="48.60089" lon="-0.49354">
        <ele>235.8</ele>
        <time>2012-02-04T13:40:40Z</time>
      </trkpt>
      <trkpt lat="48.60098" lon="-0.49359">
        <ele>235.4</ele>
        <time>2012-02-04T13:40:42Z</time>
      </trkpt>
      <trkpt lat="48.60106" lon="-0.49364">
        <ele>234.7</ele>
        <time>2012-02-04T13:40:44Z</time>
      </trkpt>
      <trkpt lat="48.60112" lon="-0.49369">
        <ele>234.2</ele>
        <time>2012-02-04T13:40:46Z</time>
      </trkpt>
      <trkpt lat="48.6012" lon="-0.49365">
        <ele>233.3</ele>
        <time>2012-02-04T13:40:50Z</time>
      </trkpt>
      <trkpt lat="48.60125" lon="-0.49355">
        <ele>233.4</ele>
        <time>2012-02-04T13:40:53Z</time>
      </trkpt>
      <trkpt lat="48.60127" lon="-0.49351">
        <ele>232.7</ele>
        <time>2012-02-04T13:40:54Z</time>
      </trkpt>
      <trkpt lat="48.60132" lon="-0.49337">
        <ele>231.8</ele>
        <time>2012-02-04T13:40:57Z</time>
      </trkpt>
      <trkpt lat="48.60135" lon="-0.49326">
        <ele>231.4</ele>
        <time>2012-02-04T13:40:59Z</time>
      </trkpt>
      <trkpt lat="48.60137" lon="-0.49313">
        <ele>230.9</ele>
        <time>2012-02-04T13:41:01Z</time>
      </trkpt>
      <trkpt lat="48.60139" lon="-0.49301">
        <ele>230.1</ele>
        <time>2012-02-04T13:41:03Z</time>
      </trkpt>
      <trkpt lat="48.60139" lon="-0.4929">
        <ele>229.4</ele>
        <time>2012-02-04T13:41:05Z</time>
      </trkpt>
      <trkpt lat="48.60138" lon="-0.4928">
        <ele>229.7</ele>
        <time>2012-02-04T13:41:07Z</time>
      </trkpt>
      <trkpt lat="48.60135" lon="-0.49268">
        <ele>229.9</ele>
        <time>2012-02-04T13:41:10Z</time>
      </trkpt>
      <trkpt lat="48.60132" lon="-0.49256">
        <ele>229.7</ele>
        <time>2012-02-04T13:41:13Z</time>
      </trkpt>
      <trkpt lat="48.60131" lon="-0.49245">
        <ele>229.7</ele>
        <time>2012-02-04T13:41:16Z</time>
      </trkpt>
      <trkpt lat="48.60125" lon="-0.49235">
        <ele>229.8</ele>
        <time>2012-02-04T13:41:19Z</time>
      </trkpt>
      <trkpt lat="48.60121" lon="-0.49228">
        <ele>230.7</ele>
        <time>2012-02-04T13:41:21Z</time>
      </trkpt>
      <trkpt lat="48.6012" lon="-0.49218">
        <ele>231.2</ele>
        <time>2012-02-04T13:41:23Z</time>
      </trkpt>
      <trkpt lat="48.60118" lon="-0.49208">
        <ele>231.3</ele>
        <time>2012-02-04T13:41:25Z</time>
      </trkpt>
      <trkpt lat="48.60114" lon="-0.49198">
        <ele>231.2</ele>
        <time>2012-02-04T13:41:27Z</time>
      </trkpt>
      <trkpt lat="48.60111" lon="-0.49187">
        <ele>231.1</ele>
        <time>2012-02-04T13:41:29Z</time>
      </trkpt>
      <trkpt lat="48.60109" lon="-0.49176">
        <ele>231.4</ele>
        <time>2012-02-04T13:41:31Z</time>
      </trkpt>
      <trkpt lat="48.60108" lon="-0.49166">
        <ele>231</ele>
        <time>2012-02-04T13:41:33Z</time>
      </trkpt>
      <trkpt lat="48.60105" lon="-0.49154">
        <ele>230.9</ele>
        <time>2012-02-04T13:41:36Z</time>
      </trkpt>
      <trkpt lat="48.60099" lon="-0.49143">
        <ele>231.5</ele>
        <time>2012-02-04T13:41:41Z</time>
      </trkpt>
      <trkpt lat="48.60098" lon="-0.49131">
        <ele>231.1</ele>
        <time>2012-02-04T13:41:45Z</time>
      </trkpt>
      <trkpt lat="48.60096" lon="-0.49121">
        <ele>230.8</ele>
        <time>2012-02-04T13:41:47Z</time>
      </trkpt>
      <trkpt lat="48.60095" lon="-0.49112">
        <ele>230.8</ele>
        <time>2012-02-04T13:41:49Z</time>
      </trkpt>
      <trkpt lat="48.60093" lon="-0.49101">
        <ele>230.9</ele>
        <time>2012-02-04T13:41:51Z</time>
      </trkpt>
      <trkpt lat="48.60092" lon="-0.49091">
        <ele>231.1</ele>
        <time>2012-02-04T13:41:53Z</time>
      </trkpt>
      <trkpt lat="48.6009" lon="-0.4908">
        <ele>230.9</ele>
        <time>2012-02-04T13:41:55Z</time>
      </trkpt>
      <trkpt lat="48.60088" lon="-0.49074">
        <ele>231.2</ele>
        <time>2012-02-04T13:41:56Z</time>
      </trkpt>
      <trkpt lat="48.60086" lon="-0.49055">
        <ele>231.2</ele>
        <time>2012-02-04T13:41:59Z</time>
      </trkpt>
      <trkpt lat="48.60085" lon="-0.49043">
        <ele>231.1</ele>
        <time>2012-02-04T13:42:01Z</time>
      </trkpt>
      <trkpt lat="48.60086" lon="-0.49033">
        <ele>230.7</ele>
        <time>2012-02-04T13:42:03Z</time>
      </trkpt>
      <trkpt lat="48.60084" lon="-0.49024">
        <ele>230.2</ele>
        <time>2012-02-04T13:42:05Z</time>
      </trkpt>
      <trkpt lat="48.60084" lon="-0.49014">
        <ele>230.3</ele>
        <time>2012-02-04T13:42:07Z</time>
      </trkpt>
      <trkpt lat="48.60083" lon="-0.49002">
        <ele>229.8</ele>
        <time>2012-02-04T13:42:10Z</time>
      </trkpt>
      <trkpt lat="48.6008" lon="-0.48991">
        <ele>229.4</ele>
        <time>2012-02-04T13:42:18Z</time>
      </trkpt>
      <trkpt lat="48.60079" lon="-0.4898">
        <ele>229.4</ele>
        <time>2012-02-04T13:42:21Z</time>
      </trkpt>
      <trkpt lat="48.60077" lon="-0.48968">
        <ele>229.3</ele>
        <time>2012-02-04T13:42:24Z</time>
      </trkpt>
      <trkpt lat="48.60075" lon="-0.48955">
        <ele>228.9</ele>
        <time>2012-02-04T13:42:28Z</time>
      </trkpt>
      <trkpt lat="48.60074" lon="-0.48943">
        <ele>228.7</ele>
        <time>2012-02-04T13:42:33Z</time>
      </trkpt>
      <trkpt lat="48.60074" lon="-0.4893">
        <ele>229</ele>
        <time>2012-02-04T13:42:37Z</time>
      </trkpt>
      <trkpt lat="48.60073" lon="-0.48919">
        <ele>229.4</ele>
        <time>2012-02-04T13:42:40Z</time>
      </trkpt>
      <trkpt lat="48.60071" lon="-0.48908">
        <ele>230.2</ele>
        <time>2012-02-04T13:42:43Z</time>
      </trkpt>
      <trkpt lat="48.60069" lon="-0.48897">
        <ele>230</ele>
        <time>2012-02-04T13:42:46Z</time>
      </trkpt>
      <trkpt lat="48.60067" lon="-0.48886">
        <ele>230.3</ele>
        <time>2012-02-04T13:42:49Z</time>
      </trkpt>
      <trkpt lat="48.60064" lon="-0.48876">
        <ele>230.3</ele>
        <time>2012-02-04T13:42:52Z</time>
      </trkpt>
      <trkpt lat="48.60061" lon="-0.48864">
        <ele>230.2</ele>
        <time>2012-02-04T13:42:55Z</time>
      </trkpt>
      <trkpt lat="48.60057" lon="-0.48853">
        <ele>230.7</ele>
        <time>2012-02-04T13:43:00Z</time>
      </trkpt>
      <trkpt lat="48.60056" lon="-0.4885">
        <ele>230.9</ele>
        <time>2012-02-04T13:43:01Z</time>
      </trkpt>
      <trkpt lat="48.60053" lon="-0.48832">
        <ele>230.8</ele>
        <time>2012-02-04T13:43:06Z</time>
      </trkpt>
      <trkpt lat="48.6005" lon="-0.48823">
        <ele>231.2</ele>
        <time>2012-02-04T13:43:09Z</time>
      </trkpt>
      <trkpt lat="48.60047" lon="-0.48811">
        <ele>230.5</ele>
        <time>2012-02-04T13:43:12Z</time>
      </trkpt>
      <trkpt lat="48.60042" lon="-0.488">
        <ele>230.1</ele>
        <time>2012-02-04T13:43:16Z</time>
      </trkpt>
      <trkpt lat="48.60037" lon="-0.48792">
        <ele>230.6</ele>
        <time>2012-02-04T13:43:19Z</time>
      </trkpt>
      <trkpt lat="48.60031" lon="-0.48786">
        <ele>230.5</ele>
        <time>2012-02-04T13:43:22Z</time>
      </trkpt>
      <trkpt lat="48.60025" lon="-0.48781">
        <ele>230.6</ele>
        <time>2012-02-04T13:43:25Z</time>
      </trkpt>
      <trkpt lat="48.60017" lon="-0.48775">
        <ele>230.6</ele>
        <time>2012-02-04T13:43:28Z</time>
      </trkpt>
      <trkpt lat="48.60009" lon="-0.4877">
        <ele>230.6</ele>
        <time>2012-02-04T13:43:31Z</time>
      </trkpt>
      <trkpt lat="48.60001" lon="-0.48766">
        <ele>230.4</ele>
        <time>2012-02-04T13:43:34Z</time>
      </trkpt>
      <trkpt lat="48.59992" lon="-0.48761">
        <ele>230.6</ele>
        <time>2012-02-04T13:43:37Z</time>
      </trkpt>
      <trkpt lat="48.59985" lon="-0.48762">
        <ele>231</ele>
        <time>2012-02-04T13:43:40Z</time>
      </trkpt>
      <trkpt lat="48.59977" lon="-0.48762">
        <ele>231</ele>
        <time>2012-02-04T13:43:43Z</time>
      </trkpt>
      <trkpt lat="48.5997" lon="-0.4876">
        <ele>231.1</ele>
        <time>2012-02-04T13:43:46Z</time>
      </trkpt>
      <trkpt lat="48.59961" lon="-0.4876">
        <ele>231.3</ele>
        <time>2012-02-04T13:43:50Z</time>
      </trkpt>
      <trkpt lat="48.59952" lon="-0.4876">
        <ele>231.8</ele>
        <time>2012-02-04T13:43:55Z</time>
      </trkpt>
      <trkpt lat="48.59944" lon="-0.48758">
        <ele>231.5</ele>
        <time>2012-02-04T13:44:04Z</time>
      </trkpt>
      <trkpt lat="48.59943" lon="-0.48758">
        <ele>231.8</ele>
        <time>2012-02-04T13:44:05Z</time>
      </trkpt>
      <trkpt lat="48.59929" lon="-0.4875">
        <ele>231</ele>
        <time>2012-02-04T13:44:25Z</time>
      </trkpt>
      <trkpt lat="48.59925" lon="-0.48739">
        <ele>231</ele>
        <time>2012-02-04T13:44:39Z</time>
      </trkpt>
      <trkpt lat="48.59922" lon="-0.48727">
        <ele>232.2</ele>
        <time>2012-02-04T13:44:56Z</time>
      </trkpt>
      <trkpt lat="48.59918" lon="-0.48715">
        <ele>232.9</ele>
        <time>2012-02-04T13:45:13Z</time>
      </trkpt>
      <trkpt lat="48.59918" lon="-0.48713">
        <ele>233.2</ele>
        <time>2012-02-04T13:45:14Z</time>
      </trkpt>
      <trkpt lat="48.59905" lon="-0.487">
        <ele>234.5</ele>
        <time>2012-02-04T13:45:24Z</time>
      </trkpt>
      <trkpt lat="48.59898" lon="-0.487">
        <ele>235.4</ele>
        <time>2012-02-04T13:45:28Z</time>
      </trkpt>
      <trkpt lat="48.59889" lon="-0.48699">
        <ele>235.1</ele>
        <time>2012-02-04T13:45:32Z</time>
      </trkpt>
      <trkpt lat="48.59881" lon="-0.48698">
        <ele>235.5</ele>
        <time>2012-02-04T13:45:36Z</time>
      </trkpt>
      <trkpt lat="48.59873" lon="-0.48697">
        <ele>236.3</ele>
        <time>2012-02-04T13:45:39Z</time>
      </trkpt>
      <trkpt lat="48.59866" lon="-0.48696">
        <ele>236.8</ele>
        <time>2012-02-04T13:45:42Z</time>
      </trkpt>
      <trkpt lat="48.59857" lon="-0.48694">
        <ele>236.7</ele>
        <time>2012-02-04T13:45:46Z</time>
      </trkpt>
      <trkpt lat="48.59848" lon="-0.48691">
        <ele>236.7</ele>
        <time>2012-02-04T13:45:50Z</time>
      </trkpt>
      <trkpt lat="48.5984" lon="-0.48689">
        <ele>237.2</ele>
        <time>2012-02-04T13:45:54Z</time>
      </trkpt>
      <trkpt lat="48.59834" lon="-0.48686">
        <ele>237.6</ele>
        <time>2012-02-04T13:45:57Z</time>
      </trkpt>
      <trkpt lat="48.59826" lon="-0.48681">
        <ele>238</ele>
        <time>2012-02-04T13:46:01Z</time>
      </trkpt>
      <trkpt lat="48.5982" lon="-0.48673">
        <ele>238.8</ele>
        <time>2012-02-04T13:46:06Z</time>
      </trkpt>
      <trkpt lat="48.59812" lon="-0.48666">
        <ele>239.7</ele>
        <time>2012-02-04T13:46:10Z</time>
      </trkpt>
      <trkpt lat="48.59806" lon="-0.48659">
        <ele>239.4</ele>
        <time>2012-02-04T13:46:14Z</time>
      </trkpt>
      <trkpt lat="48.59804" lon="-0.48656">
        <ele>239.6</ele>
        <time>2012-02-04T13:46:15Z</time>
      </trkpt>
      <trkpt lat="48.59791" lon="-0.48648">
        <ele>241</ele>
        <time>2012-02-04T13:46:20Z</time>
      </trkpt>
      <trkpt lat="48.59783" lon="-0.48646">
        <ele>241</ele>
        <time>2012-02-04T13:46:23Z</time>
      </trkpt>
      <trkpt lat="48.59776" lon="-0.48643">
        <ele>241</ele>
        <time>2012-02-04T13:46:26Z</time>
      </trkpt>
      <trkpt lat="48.59768" lon="-0.48638">
        <ele>241.3</ele>
        <time>2012-02-04T13:46:29Z</time>
      </trkpt>
      <trkpt lat="48.59761" lon="-0.48635">
        <ele>242</ele>
        <time>2012-02-04T13:46:32Z</time>
      </trkpt>
      <trkpt lat="48.59754" lon="-0.48632">
        <ele>241.7</ele>
        <time>2012-02-04T13:46:35Z</time>
      </trkpt>
      <trkpt lat="48.59745" lon="-0.48631">
        <ele>242.1</ele>
        <time>2012-02-04T13:46:39Z</time>
      </trkpt>
      <trkpt lat="48.59738" lon="-0.48634">
        <ele>242.4</ele>
        <time>2012-02-04T13:46:43Z</time>
      </trkpt>
      <trkpt lat="48.5973" lon="-0.48635">
        <ele>242.6</ele>
        <time>2012-02-04T13:46:47Z</time>
      </trkpt>
      <trkpt lat="48.59722" lon="-0.48636">
        <ele>243.1</ele>
        <time>2012-02-04T13:46:50Z</time>
      </trkpt>
      <trkpt lat="48.59715" lon="-0.4864">
        <ele>242.9</ele>
        <time>2012-02-04T13:46:53Z</time>
      </trkpt>
      <trkpt lat="48.59708" lon="-0.48642">
        <ele>243.3</ele>
        <time>2012-02-04T13:46:56Z</time>
      </trkpt>
      <trkpt lat="48.59699" lon="-0.48643">
        <ele>243</ele>
        <time>2012-02-04T13:47:00Z</time>
      </trkpt>
      <trkpt lat="48.5969" lon="-0.48642">
        <ele>243.1</ele>
        <time>2012-02-04T13:47:04Z</time>
      </trkpt>
      <trkpt lat="48.59682" lon="-0.48646">
        <ele>244</ele>
        <time>2012-02-04T13:47:09Z</time>
      </trkpt>
      <trkpt lat="48.59674" lon="-0.4865">
        <ele>244.6</ele>
        <time>2012-02-04T13:47:19Z</time>
      </trkpt>
      <trkpt lat="48.59673" lon="-0.48652">
        <ele>244.7</ele>
        <time>2012-02-04T13:47:20Z</time>
      </trkpt>
      <trkpt lat="48.59659" lon="-0.48664">
        <ele>244.9</ele>
        <time>2012-02-04T13:47:37Z</time>
      </trkpt>
      <trkpt lat="48.5965" lon="-0.48661">
        <ele>246.6</ele>
        <time>2012-02-04T13:47:53Z</time>
      </trkpt>
      <trkpt lat="48.59643" lon="-0.4866">
        <ele>246.1</ele>
        <time>2012-02-04T13:48:00Z</time>
      </trkpt>
      <trkpt lat="48.59636" lon="-0.48658">
        <ele>246.6</ele>
        <time>2012-02-04T13:48:04Z</time>
      </trkpt>
      <trkpt lat="48.59629" lon="-0.4866">
        <ele>247.3</ele>
        <time>2012-02-04T13:48:07Z</time>
      </trkpt>
      <trkpt lat="48.59622" lon="-0.48667">
        <ele>247.5</ele>
        <time>2012-02-04T13:48:10Z</time>
      </trkpt>
      <trkpt lat="48.59615" lon="-0.48675">
        <ele>247.9</ele>
        <time>2012-02-04T13:48:13Z</time>
      </trkpt>
      <trkpt lat="48.59608" lon="-0.48682">
        <ele>248.2</ele>
        <time>2012-02-04T13:48:16Z</time>
      </trkpt>
      <trkpt lat="48.59601" lon="-0.48688">
        <ele>249</ele>
        <time>2012-02-04T13:48:22Z</time>
      </trkpt>
      <trkpt lat="48.59599" lon="-0.4869">
        <ele>249.5</ele>
        <time>2012-02-04T13:48:23Z</time>
      </trkpt>
      <trkpt lat="48.59589" lon="-0.48699">
        <ele>249.3</ele>
        <time>2012-02-04T13:48:27Z</time>
      </trkpt>
      <trkpt lat="48.59584" lon="-0.48704">
        <ele>249.6</ele>
        <time>2012-02-04T13:48:29Z</time>
      </trkpt>
      <trkpt lat="48.59577" lon="-0.48711">
        <ele>251.1</ele>
        <time>2012-02-04T13:48:32Z</time>
      </trkpt>
      <trkpt lat="48.59569" lon="-0.48718">
        <ele>252</ele>
        <time>2012-02-04T13:48:36Z</time>
      </trkpt>
      <trkpt lat="48.59564" lon="-0.48724">
        <ele>252.4</ele>
        <time>2012-02-04T13:48:38Z</time>
      </trkpt>
      <trkpt lat="48.59558" lon="-0.4873">
        <ele>253</ele>
        <time>2012-02-04T13:48:40Z</time>
      </trkpt>
      <trkpt lat="48.59553" lon="-0.48735">
        <ele>253.2</ele>
        <time>2012-02-04T13:48:42Z</time>
      </trkpt>
      <trkpt lat="48.59547" lon="-0.48745">
        <ele>253.7</ele>
        <time>2012-02-04T13:48:45Z</time>
      </trkpt>
      <trkpt lat="48.5954" lon="-0.48754">
        <ele>254.7</ele>
        <time>2012-02-04T13:48:48Z</time>
      </trkpt>
      <trkpt lat="48.59533" lon="-0.48761">
        <ele>255.4</ele>
        <time>2012-02-04T13:48:51Z</time>
      </trkpt>
      <trkpt lat="48.59526" lon="-0.48769">
        <ele>255.2</ele>
        <time>2012-02-04T13:48:54Z</time>
      </trkpt>
      <trkpt lat="48.5952" lon="-0.48774">
        <ele>255.3</ele>
        <time>2012-02-04T13:48:56Z</time>
      </trkpt>
      <trkpt lat="48.59514" lon="-0.4878">
        <ele>255.8</ele>
        <time>2012-02-04T13:48:58Z</time>
      </trkpt>
      <trkpt lat="48.59506" lon="-0.48786">
        <ele>255.8</ele>
        <time>2012-02-04T13:49:01Z</time>
      </trkpt>
      <trkpt lat="48.59499" lon="-0.48791">
        <ele>256.2</ele>
        <time>2012-02-04T13:49:04Z</time>
      </trkpt>
      <trkpt lat="48.59493" lon="-0.48795">
        <ele>256.1</ele>
        <time>2012-02-04T13:49:06Z</time>
      </trkpt>
      <trkpt lat="48.59488" lon="-0.488">
        <ele>256</ele>
        <time>2012-02-04T13:49:08Z</time>
      </trkpt>
      <trkpt lat="48.59483" lon="-0.48806">
        <ele>255.9</ele>
        <time>2012-02-04T13:49:10Z</time>
      </trkpt>
      <trkpt lat="48.59477" lon="-0.48812">
        <ele>255.7</ele>
        <time>2012-02-04T13:49:12Z</time>
      </trkpt>
      <trkpt lat="48.59472" lon="-0.48818">
        <ele>256.2</ele>
        <time>2012-02-04T13:49:14Z</time>
      </trkpt>
      <trkpt lat="48.59465" lon="-0.48825">
        <ele>255.9</ele>
        <time>2012-02-04T13:49:16Z</time>
      </trkpt>
      <trkpt lat="48.59458" lon="-0.48831">
        <ele>255.5</ele>
        <time>2012-02-04T13:49:18Z</time>
      </trkpt>
      <trkpt lat="48.59452" lon="-0.48836">
        <ele>255</ele>
        <time>2012-02-04T13:49:20Z</time>
      </trkpt>
      <trkpt lat="48.59446" lon="-0.48841">
        <ele>254.5</ele>
        <time>2012-02-04T13:49:22Z</time>
      </trkpt>
      <trkpt lat="48.5944" lon="-0.48847">
        <ele>254.1</ele>
        <time>2012-02-04T13:49:24Z</time>
      </trkpt>
      <trkpt lat="48.59437" lon="-0.4885">
        <ele>253.9</ele>
        <time>2012-02-04T13:49:25Z</time>
      </trkpt>
      <trkpt lat="48.59426" lon="-0.48859">
        <ele>253</ele>
        <time>2012-02-04T13:49:28Z</time>
      </trkpt>
      <trkpt lat="48.59419" lon="-0.48866">
        <ele>252.1</ele>
        <time>2012-02-04T13:49:31Z</time>
      </trkpt>
      <trkpt lat="48.59411" lon="-0.48872">
        <ele>251.2</ele>
        <time>2012-02-04T13:49:40Z</time>
      </trkpt>
      <trkpt lat="48.59403" lon="-0.4887">
        <ele>250.3</ele>
        <time>2012-02-04T13:49:51Z</time>
      </trkpt>
      <trkpt lat="48.59397" lon="-0.48861">
        <ele>250.8</ele>
        <time>2012-02-04T13:49:55Z</time>
      </trkpt>
      <trkpt lat="48.59394" lon="-0.48851">
        <ele>250.8</ele>
        <time>2012-02-04T13:49:58Z</time>
      </trkpt>
      <trkpt lat="48.59389" lon="-0.4884">
        <ele>250.8</ele>
        <time>2012-02-04T13:50:01Z</time>
      </trkpt>
      <trkpt lat="48.59384" lon="-0.4883">
        <ele>251.2</ele>
        <time>2012-02-04T13:50:04Z</time>
      </trkpt>
      <trkpt lat="48.5938" lon="-0.48819">
        <ele>251</ele>
        <time>2012-02-04T13:50:07Z</time>
      </trkpt>
      <trkpt lat="48.59377" lon="-0.48811">
        <ele>251.5</ele>
        <time>2012-02-04T13:50:10Z</time>
      </trkpt>
      <trkpt lat="48.59372" lon="-0.48799">
        <ele>251.7</ele>
        <time>2012-02-04T13:50:13Z</time>
      </trkpt>
      <trkpt lat="48.59367" lon="-0.48791">
        <ele>251.6</ele>
        <time>2012-02-04T13:50:15Z</time>
      </trkpt>
      <trkpt lat="48.59364" lon="-0.48781">
        <ele>251.9</ele>
        <time>2012-02-04T13:50:17Z</time>
      </trkpt>
      <trkpt lat="48.5936" lon="-0.48772">
        <ele>252.2</ele>
        <time>2012-02-04T13:50:19Z</time>
      </trkpt>
      <trkpt lat="48.59356" lon="-0.48765">
        <ele>252.4</ele>
        <time>2012-02-04T13:50:21Z</time>
      </trkpt>
      <trkpt lat="48.59353" lon="-0.48758">
        <ele>252.7</ele>
        <time>2012-02-04T13:50:23Z</time>
      </trkpt>
      <trkpt lat="48.59349" lon="-0.4875">
        <ele>253.2</ele>
        <time>2012-02-04T13:50:25Z</time>
      </trkpt>
      <trkpt lat="48.59346" lon="-0.48745">
        <ele>253.3</ele>
        <time>2012-02-04T13:50:26Z</time>
      </trkpt>
      <trkpt lat="48.5934" lon="-0.48733">
        <ele>253.4</ele>
        <time>2012-02-04T13:50:28Z</time>
      </trkpt>
      <trkpt lat="48.59335" lon="-0.48723">
        <ele>253.6</ele>
        <time>2012-02-04T13:50:30Z</time>
      </trkpt>
      <trkpt lat="48.59331" lon="-0.48713">
        <ele>254.5</ele>
        <time>2012-02-04T13:50:32Z</time>
      </trkpt>
      <trkpt lat="48.59326" lon="-0.48703">
        <ele>255</ele>
        <time>2012-02-04T13:50:34Z</time>
      </trkpt>
      <trkpt lat="48.59321" lon="-0.48694">
        <ele>255.5</ele>
        <time>2012-02-04T13:50:36Z</time>
      </trkpt>
      <trkpt lat="48.59316" lon="-0.48684">
        <ele>255.6</ele>
        <time>2012-02-04T13:50:38Z</time>
      </trkpt>
      <trkpt lat="48.59314" lon="-0.48679">
        <ele>255.6</ele>
        <time>2012-02-04T13:50:39Z</time>
      </trkpt>
      <trkpt lat="48.59311" lon="-0.48673">
        <ele>255.9</ele>
        <time>2012-02-04T13:50:40Z</time>
      </trkpt>
      <trkpt lat="48.59308" lon="-0.48667">
        <ele>256.2</ele>
        <time>2012-02-04T13:50:41Z</time>
      </trkpt>
      <trkpt lat="48.59305" lon="-0.48661">
        <ele>256.3</ele>
        <time>2012-02-04T13:50:42Z</time>
      </trkpt>
      <trkpt lat="48.59302" lon="-0.48655">
        <ele>256.8</ele>
        <time>2012-02-04T13:50:43Z</time>
      </trkpt>
      <trkpt lat="48.59296" lon="-0.48645">
        <ele>257.6</ele>
        <time>2012-02-04T13:50:45Z</time>
      </trkpt>
      <trkpt lat="48.59291" lon="-0.48634">
        <ele>258.3</ele>
        <time>2012-02-04T13:50:47Z</time>
      </trkpt>
      <trkpt lat="48.59287" lon="-0.48624">
        <ele>258.6</ele>
        <time>2012-02-04T13:50:49Z</time>
      </trkpt>
      <trkpt lat="48.59282" lon="-0.48614">
        <ele>258.8</ele>
        <time>2012-02-04T13:50:51Z</time>
      </trkpt>
      <trkpt lat="48.59279" lon="-0.48606">
        <ele>259</ele>
        <time>2012-02-04T13:50:53Z</time>
      </trkpt>
      <trkpt lat="48.59274" lon="-0.48597">
        <ele>259.1</ele>
        <time>2012-02-04T13:50:55Z</time>
      </trkpt>
      <trkpt lat="48.59271" lon="-0.48589">
        <ele>259.4</ele>
        <time>2012-02-04T13:50:57Z</time>
      </trkpt>
      <trkpt lat="48.59267" lon="-0.4858">
        <ele>259.6</ele>
        <time>2012-02-04T13:50:59Z</time>
      </trkpt>
      <trkpt lat="48.59263" lon="-0.48572">
        <ele>259.8</ele>
        <time>2012-02-04T13:51:01Z</time>
      </trkpt>
      <trkpt lat="48.59259" lon="-0.48565">
        <ele>260.2</ele>
        <time>2012-02-04T13:51:03Z</time>
      </trkpt>
      <trkpt lat="48.59253" lon="-0.48557">
        <ele>261</ele>
        <time>2012-02-04T13:51:06Z</time>
      </trkpt>
      <trkpt lat="48.59245" lon="-0.48556">
        <ele>262</ele>
        <time>2012-02-04T13:51:09Z</time>
      </trkpt>
      <trkpt lat="48.59238" lon="-0.48558">
        <ele>262.1</ele>
        <time>2012-02-04T13:51:11Z</time>
      </trkpt>
      <trkpt lat="48.59231" lon="-0.48559">
        <ele>261.7</ele>
        <time>2012-02-04T13:51:13Z</time>
      </trkpt>
      <trkpt lat="48.59224" lon="-0.48562">
        <ele>262.1</ele>
        <time>2012-02-04T13:51:15Z</time>
      </trkpt>
      <trkpt lat="48.59217" lon="-0.48564">
        <ele>262.1</ele>
        <time>2012-02-04T13:51:17Z</time>
      </trkpt>
      <trkpt lat="48.59209" lon="-0.48568">
        <ele>262.4</ele>
        <time>2012-02-04T13:51:19Z</time>
      </trkpt>
      <trkpt lat="48.59202" lon="-0.48571">
        <ele>262.6</ele>
        <time>2012-02-04T13:51:21Z</time>
      </trkpt>
      <trkpt lat="48.59194" lon="-0.48575">
        <ele>262.9</ele>
        <time>2012-02-04T13:51:23Z</time>
      </trkpt>
      <trkpt lat="48.59186" lon="-0.4858">
        <ele>263.1</ele>
        <time>2012-02-04T13:51:25Z</time>
      </trkpt>
      <trkpt lat="48.59179" lon="-0.48586">
        <ele>263.3</ele>
        <time>2012-02-04T13:51:27Z</time>
      </trkpt>
      <trkpt lat="48.59176" lon="-0.48589">
        <ele>263.3</ele>
        <time>2012-02-04T13:51:28Z</time>
      </trkpt>
      <trkpt lat="48.59165" lon="-0.48596">
        <ele>263.6</ele>
        <time>2012-02-04T13:51:31Z</time>
      </trkpt>
      <trkpt lat="48.59156" lon="-0.486">
        <ele>263.4</ele>
        <time>2012-02-04T13:51:33Z</time>
      </trkpt>
      <trkpt lat="48.59152" lon="-0.48602">
        <ele>263.2</ele>
        <time>2012-02-04T13:51:34Z</time>
      </trkpt>
      <trkpt lat="48.59144" lon="-0.48608">
        <ele>263.4</ele>
        <time>2012-02-04T13:51:36Z</time>
      </trkpt>
      <trkpt lat="48.5914" lon="-0.4861">
        <ele>263.5</ele>
        <time>2012-02-04T13:51:37Z</time>
      </trkpt>
      <trkpt lat="48.59132" lon="-0.48615">
        <ele>263.2</ele>
        <time>2012-02-04T13:51:39Z</time>
      </trkpt>
      <trkpt lat="48.59123" lon="-0.4862">
        <ele>263.1</ele>
        <time>2012-02-04T13:51:41Z</time>
      </trkpt>
      <trkpt lat="48.59115" lon="-0.48625">
        <ele>263.6</ele>
        <time>2012-02-04T13:51:43Z</time>
      </trkpt>
      <trkpt lat="48.59108" lon="-0.48631">
        <ele>264.3</ele>
        <time>2012-02-04T13:51:45Z</time>
      </trkpt>
      <trkpt lat="48.59103" lon="-0.48633">
        <ele>264.7</ele>
        <time>2012-02-04T13:51:46Z</time>
      </trkpt>
      <trkpt lat="48.59099" lon="-0.48636">
        <ele>264.9</ele>
        <time>2012-02-04T13:51:47Z</time>
      </trkpt>
      <trkpt lat="48.59091" lon="-0.48641">
        <ele>265.1</ele>
        <time>2012-02-04T13:51:49Z</time>
      </trkpt>
      <trkpt lat="48.59083" lon="-0.48646">
        <ele>265.2</ele>
        <time>2012-02-04T13:51:51Z</time>
      </trkpt>
      <trkpt lat="48.59076" lon="-0.48652">
        <ele>265.8</ele>
        <time>2012-02-04T13:51:53Z</time>
      </trkpt>
      <trkpt lat="48.59068" lon="-0.48657">
        <ele>266.3</ele>
        <time>2012-02-04T13:51:55Z</time>
      </trkpt>
      <trkpt lat="48.5906" lon="-0.48662">
        <ele>266.6</ele>
        <time>2012-02-04T13:51:57Z</time>
      </trkpt>
      <trkpt lat="48.59053" lon="-0.48668">
        <ele>266.9</ele>
        <time>2012-02-04T13:51:59Z</time>
      </trkpt>
      <trkpt lat="48.59045" lon="-0.48673">
        <ele>267</ele>
        <time>2012-02-04T13:52:01Z</time>
      </trkpt>
      <trkpt lat="48.59037" lon="-0.48678">
        <ele>267</ele>
        <time>2012-02-04T13:52:03Z</time>
      </trkpt>
      <trkpt lat="48.5903" lon="-0.48684">
        <ele>267.6</ele>
        <time>2012-02-04T13:52:05Z</time>
      </trkpt>
      <trkpt lat="48.59023" lon="-0.48691">
        <ele>267.5</ele>
        <time>2012-02-04T13:52:07Z</time>
      </trkpt>
      <trkpt lat="48.59019" lon="-0.48694">
        <ele>267.8</ele>
        <time>2012-02-04T13:52:08Z</time>
      </trkpt>
      <trkpt lat="48.59015" lon="-0.48697">
        <ele>267.9</ele>
        <time>2012-02-04T13:52:09Z</time>
      </trkpt>
      <trkpt lat="48.59011" lon="-0.48702">
        <ele>268.1</ele>
        <time>2012-02-04T13:52:10Z</time>
      </trkpt>
      <trkpt lat="48.59008" lon="-0.48706">
        <ele>267.8</ele>
        <time>2012-02-04T13:52:11Z</time>
      </trkpt>
      <trkpt lat="48.59001" lon="-0.48715">
        <ele>267.7</ele>
        <time>2012-02-04T13:52:13Z</time>
      </trkpt>
      <trkpt lat="48.58997" lon="-0.48719">
        <ele>267.8</ele>
        <time>2012-02-04T13:52:14Z</time>
      </trkpt>
      <trkpt lat="48.58993" lon="-0.48723">
        <ele>267.7</ele>
        <time>2012-02-04T13:52:15Z</time>
      </trkpt>
      <trkpt lat="48.58986" lon="-0.4873">
        <ele>267.5</ele>
        <time>2012-02-04T13:52:17Z</time>
      </trkpt>
      <trkpt lat="48.58979" lon="-0.48739">
        <ele>267.5</ele>
        <time>2012-02-04T13:52:19Z</time>
      </trkpt>
      <trkpt lat="48.58973" lon="-0.48747">
        <ele>267.5</ele>
        <time>2012-02-04T13:52:21Z</time>
      </trkpt>
      <trkpt lat="48.58966" lon="-0.48756">
        <ele>267.7</ele>
        <time>2012-02-04T13:52:23Z</time>
      </trkpt>
      <trkpt lat="48.5896" lon="-0.48765">
        <ele>268</ele>
        <time>2012-02-04T13:52:25Z</time>
      </trkpt>
      <trkpt lat="48.58956" lon="-0.4877">
        <ele>268</ele>
        <time>2012-02-04T13:52:26Z</time>
      </trkpt>
      <trkpt lat="48.5895" lon="-0.48779">
        <ele>267.4</ele>
        <time>2012-02-04T13:52:28Z</time>
      </trkpt>
      <trkpt lat="48.58947" lon="-0.48784">
        <ele>267.2</ele>
        <time>2012-02-04T13:52:29Z</time>
      </trkpt>
      <trkpt lat="48.58941" lon="-0.48793">
        <ele>267.2</ele>
        <time>2012-02-04T13:52:31Z</time>
      </trkpt>
      <trkpt lat="48.58938" lon="-0.48798">
        <ele>267.4</ele>
        <time>2012-02-04T13:52:32Z</time>
      </trkpt>
      <trkpt lat="48.58931" lon="-0.48807">
        <ele>267.5</ele>
        <time>2012-02-04T13:52:34Z</time>
      </trkpt>
      <trkpt lat="48.58928" lon="-0.48812">
        <ele>267.4</ele>
        <time>2012-02-04T13:52:35Z</time>
      </trkpt>
      <trkpt lat="48.58925" lon="-0.48817">
        <ele>267.4</ele>
        <time>2012-02-04T13:52:36Z</time>
      </trkpt>
      <trkpt lat="48.58921" lon="-0.48822">
        <ele>267.4</ele>
        <time>2012-02-04T13:52:37Z</time>
      </trkpt>
      <trkpt lat="48.58918" lon="-0.48827">
        <ele>267.4</ele>
        <time>2012-02-04T13:52:38Z</time>
      </trkpt>
      <trkpt lat="48.58914" lon="-0.48832">
        <ele>267.1</ele>
        <time>2012-02-04T13:52:39Z</time>
      </trkpt>
      <trkpt lat="48.58911" lon="-0.48837">
        <ele>266.9</ele>
        <time>2012-02-04T13:52:40Z</time>
      </trkpt>
      <trkpt lat="48.58908" lon="-0.48842">
        <ele>266.7</ele>
        <time>2012-02-04T13:52:41Z</time>
      </trkpt>
      <trkpt lat="48.58904" lon="-0.48847">
        <ele>266.6</ele>
        <time>2012-02-04T13:52:42Z</time>
      </trkpt>
      <trkpt lat="48.58901" lon="-0.48852">
        <ele>266.6</ele>
        <time>2012-02-04T13:52:43Z</time>
      </trkpt>
      <trkpt lat="48.58897" lon="-0.48856">
        <ele>266.6</ele>
        <time>2012-02-04T13:52:44Z</time>
      </trkpt>
      <trkpt lat="48.58894" lon="-0.48861">
        <ele>266.7</ele>
        <time>2012-02-04T13:52:45Z</time>
      </trkpt>
      <trkpt lat="48.5889" lon="-0.48866">
        <ele>266.6</ele>
        <time>2012-02-04T13:52:46Z</time>
      </trkpt>
      <trkpt lat="48.58886" lon="-0.48871">
        <ele>266.5</ele>
        <time>2012-02-04T13:52:47Z</time>
      </trkpt>
      <trkpt lat="48.58883" lon="-0.48876">
        <ele>266.4</ele>
        <time>2012-02-04T13:52:48Z</time>
      </trkpt>
      <trkpt lat="48.58879" lon="-0.48881">
        <ele>266.5</ele>
        <time>2012-02-04T13:52:49Z</time>
      </trkpt>
      <trkpt lat="48.58876" lon="-0.48886">
        <ele>266.5</ele>
        <time>2012-02-04T13:52:50Z</time>
      </trkpt>
      <trkpt lat="48.58872" lon="-0.48892">
        <ele>266.4</ele>
        <time>2012-02-04T13:52:51Z</time>
      </trkpt>
      <trkpt lat="48.58869" lon="-0.48896">
        <ele>266.4</ele>
        <time>2012-02-04T13:52:52Z</time>
      </trkpt>
      <trkpt lat="48.58865" lon="-0.48901">
        <ele>266.4</ele>
        <time>2012-02-04T13:52:53Z</time>
      </trkpt>
      <trkpt lat="48.58862" lon="-0.48906">
        <ele>266.5</ele>
        <time>2012-02-04T13:52:54Z</time>
      </trkpt>
      <trkpt lat="48.58858" lon="-0.48911">
        <ele>266.5</ele>
        <time>2012-02-04T13:52:55Z</time>
      </trkpt>
      <trkpt lat="48.58855" lon="-0.48915">
        <ele>266.1</ele>
        <time>2012-02-04T13:52:56Z</time>
      </trkpt>
      <trkpt lat="48.58851" lon="-0.4892">
        <ele>265.8</ele>
        <time>2012-02-04T13:52:57Z</time>
      </trkpt>
      <trkpt lat="48.58848" lon="-0.48925">
        <ele>265.4</ele>
        <time>2012-02-04T13:52:58Z</time>
      </trkpt>
      <trkpt lat="48.58845" lon="-0.4893">
        <ele>265.1</ele>
        <time>2012-02-04T13:52:59Z</time>
      </trkpt>
      <trkpt lat="48.58842" lon="-0.48935">
        <ele>265</ele>
        <time>2012-02-04T13:53:00Z</time>
      </trkpt>
      <trkpt lat="48.58839" lon="-0.48939">
        <ele>264.9</ele>
        <time>2012-02-04T13:53:01Z</time>
      </trkpt>
      <trkpt lat="48.58836" lon="-0.48945">
        <ele>264.8</ele>
        <time>2012-02-04T13:53:02Z</time>
      </trkpt>
      <trkpt lat="48.5883" lon="-0.48955">
        <ele>265.3</ele>
        <time>2012-02-04T13:53:04Z</time>
      </trkpt>
      <trkpt lat="48.58823" lon="-0.48963">
        <ele>264.4</ele>
        <time>2012-02-04T13:53:06Z</time>
      </trkpt>
      <trkpt lat="48.58815" lon="-0.4897">
        <ele>264.2</ele>
        <time>2012-02-04T13:53:08Z</time>
      </trkpt>
      <trkpt lat="48.58806" lon="-0.48975">
        <ele>264.2</ele>
        <time>2012-02-04T13:53:10Z</time>
      </trkpt>
      <trkpt lat="48.58799" lon="-0.48978">
        <ele>263.9</ele>
        <time>2012-02-04T13:53:12Z</time>
      </trkpt>
      <trkpt lat="48.58791" lon="-0.4898">
        <ele>263.5</ele>
        <time>2012-02-04T13:53:15Z</time>
      </trkpt>
      <trkpt lat="48.58784" lon="-0.4898">
        <ele>263.5</ele>
        <time>2012-02-04T13:53:17Z</time>
      </trkpt>
      <trkpt lat="48.58776" lon="-0.48981">
        <ele>263.8</ele>
        <time>2012-02-04T13:53:19Z</time>
      </trkpt>
      <trkpt lat="48.58768" lon="-0.48982">
        <ele>263.5</ele>
        <time>2012-02-04T13:53:21Z</time>
      </trkpt>
      <trkpt lat="48.58762" lon="-0.48988">
        <ele>263</ele>
        <time>2012-02-04T13:53:23Z</time>
      </trkpt>
      <trkpt lat="48.58756" lon="-0.48995">
        <ele>262.6</ele>
        <time>2012-02-04T13:53:25Z</time>
      </trkpt>
      <trkpt lat="48.5875" lon="-0.48999">
        <ele>261.9</ele>
        <time>2012-02-04T13:53:27Z</time>
      </trkpt>
      <trkpt lat="48.58744" lon="-0.48997">
        <ele>261.2</ele>
        <time>2012-02-04T13:53:29Z</time>
      </trkpt>
      <trkpt lat="48.58741" lon="-0.48995">
        <ele>261</ele>
        <time>2012-02-04T13:53:30Z</time>
      </trkpt>
      <trkpt lat="48.58733" lon="-0.48985">
        <ele>261</ele>
        <time>2012-02-04T13:53:33Z</time>
      </trkpt>
      <trkpt lat="48.58726" lon="-0.4898">
        <ele>260.6</ele>
        <time>2012-02-04T13:53:35Z</time>
      </trkpt>
      <trkpt lat="48.58718" lon="-0.48978">
        <ele>259.8</ele>
        <time>2012-02-04T13:53:37Z</time>
      </trkpt>
      <trkpt lat="48.58714" lon="-0.48977">
        <ele>259.5</ele>
        <time>2012-02-04T13:53:38Z</time>
      </trkpt>
      <trkpt lat="48.58709" lon="-0.48976">
        <ele>259.2</ele>
        <time>2012-02-04T13:53:39Z</time>
      </trkpt>
      <trkpt lat="48.58704" lon="-0.48974">
        <ele>259</ele>
        <time>2012-02-04T13:53:40Z</time>
      </trkpt>
      <trkpt lat="48.58699" lon="-0.48973">
        <ele>258.6</ele>
        <time>2012-02-04T13:53:41Z</time>
      </trkpt>
      <trkpt lat="48.58693" lon="-0.48971">
        <ele>258.3</ele>
        <time>2012-02-04T13:53:42Z</time>
      </trkpt>
      <trkpt lat="48.58688" lon="-0.48969">
        <ele>258</ele>
        <time>2012-02-04T13:53:43Z</time>
      </trkpt>
      <trkpt lat="48.58682" lon="-0.48967">
        <ele>257.8</ele>
        <time>2012-02-04T13:53:44Z</time>
      </trkpt>
      <trkpt lat="48.58676" lon="-0.48965">
        <ele>257.6</ele>
        <time>2012-02-04T13:53:45Z</time>
      </trkpt>
      <trkpt lat="48.5867" lon="-0.48963">
        <ele>257.2</ele>
        <time>2012-02-04T13:53:46Z</time>
      </trkpt>
      <trkpt lat="48.58664" lon="-0.48961">
        <ele>257</ele>
        <time>2012-02-04T13:53:47Z</time>
      </trkpt>
      <trkpt lat="48.58658" lon="-0.48959">
        <ele>256.7</ele>
        <time>2012-02-04T13:53:48Z</time>
      </trkpt>
      <trkpt lat="48.58651" lon="-0.48957">
        <ele>256.5</ele>
        <time>2012-02-04T13:53:49Z</time>
      </trkpt>
      <trkpt lat="48.58645" lon="-0.48955">
        <ele>255.9</ele>
        <time>2012-02-04T13:53:50Z</time>
      </trkpt>
      <trkpt lat="48.58639" lon="-0.48952">
        <ele>255.4</ele>
        <time>2012-02-04T13:53:51Z</time>
      </trkpt>
      <trkpt lat="48.58632" lon="-0.4895">
        <ele>255</ele>
        <time>2012-02-04T13:53:52Z</time>
      </trkpt>
      <trkpt lat="48.58626" lon="-0.48948">
        <ele>254.5</ele>
        <time>2012-02-04T13:53:53Z</time>
      </trkpt>
      <trkpt lat="48.58619" lon="-0.48946">
        <ele>254.1</ele>
        <time>2012-02-04T13:53:54Z</time>
      </trkpt>
      <trkpt lat="48.58613" lon="-0.48944">
        <ele>253.5</ele>
        <time>2012-02-04T13:53:55Z</time>
      </trkpt>
      <trkpt lat="48.58606" lon="-0.48942">
        <ele>253.1</ele>
        <time>2012-02-04T13:53:56Z</time>
      </trkpt>
      <trkpt lat="48.58598" lon="-0.48939">
        <ele>252.3</ele>
        <time>2012-02-04T13:53:57Z</time>
      </trkpt>
      <trkpt lat="48.58591" lon="-0.48937">
        <ele>251.7</ele>
        <time>2012-02-04T13:53:58Z</time>
      </trkpt>
      <trkpt lat="48.58583" lon="-0.48934">
        <ele>251.3</ele>
        <time>2012-02-04T13:53:59Z</time>
      </trkpt>
      <trkpt lat="48.58576" lon="-0.48932">
        <ele>250.5</ele>
        <time>2012-02-04T13:54:00Z</time>
      </trkpt>
      <trkpt lat="48.58568" lon="-0.48929">
        <ele>249.8</ele>
        <time>2012-02-04T13:54:01Z</time>
      </trkpt>
      <trkpt lat="48.58559" lon="-0.48927">
        <ele>248.9</ele>
        <time>2012-02-04T13:54:02Z</time>
      </trkpt>
      <trkpt lat="48.58551" lon="-0.48924">
        <ele>248.2</ele>
        <time>2012-02-04T13:54:03Z</time>
      </trkpt>
      <trkpt lat="48.58543" lon="-0.48922">
        <ele>247.7</ele>
        <time>2012-02-04T13:54:04Z</time>
      </trkpt>
      <trkpt lat="48.58535" lon="-0.48919">
        <ele>247</ele>
        <time>2012-02-04T13:54:05Z</time>
      </trkpt>
      <trkpt lat="48.58527" lon="-0.48916">
        <ele>246.5</ele>
        <time>2012-02-04T13:54:06Z</time>
      </trkpt>
      <trkpt lat="48.58519" lon="-0.48914">
        <ele>246</ele>
        <time>2012-02-04T13:54:07Z</time>
      </trkpt>
      <trkpt lat="48.58511" lon="-0.48911">
        <ele>245.5</ele>
        <time>2012-02-04T13:54:08Z</time>
      </trkpt>
      <trkpt lat="48.58503" lon="-0.48908">
        <ele>245.1</ele>
        <time>2012-02-04T13:54:09Z</time>
      </trkpt>
      <trkpt lat="48.58495" lon="-0.48906">
        <ele>244.8</ele>
        <time>2012-02-04T13:54:10Z</time>
      </trkpt>
      <trkpt lat="48.58488" lon="-0.48903">
        <ele>244.5</ele>
        <time>2012-02-04T13:54:11Z</time>
      </trkpt>
      <trkpt lat="48.5848" lon="-0.48901">
        <ele>243.9</ele>
        <time>2012-02-04T13:54:12Z</time>
      </trkpt>
      <trkpt lat="48.58473" lon="-0.48898">
        <ele>243.5</ele>
        <time>2012-02-04T13:54:13Z</time>
      </trkpt>
      <trkpt lat="48.58466" lon="-0.48896">
        <ele>243.1</ele>
        <time>2012-02-04T13:54:14Z</time>
      </trkpt>
      <trkpt lat="48.5846" lon="-0.48894">
        <ele>242.8</ele>
        <time>2012-02-04T13:54:15Z</time>
      </trkpt>
      <trkpt lat="48.58453" lon="-0.48891">
        <ele>242.6</ele>
        <time>2012-02-04T13:54:16Z</time>
      </trkpt>
      <trkpt lat="48.58447" lon="-0.48889">
        <ele>242.5</ele>
        <time>2012-02-04T13:54:17Z</time>
      </trkpt>
      <trkpt lat="48.58441" lon="-0.48887">
        <ele>242.4</ele>
        <time>2012-02-04T13:54:18Z</time>
      </trkpt>
      <trkpt lat="48.58435" lon="-0.48885">
        <ele>242.6</ele>
        <time>2012-02-04T13:54:19Z</time>
      </trkpt>
      <trkpt lat="48.58429" lon="-0.48883">
        <ele>242.8</ele>
        <time>2012-02-04T13:54:20Z</time>
      </trkpt>
      <trkpt lat="48.58424" lon="-0.48882">
        <ele>242.6</ele>
        <time>2012-02-04T13:54:21Z</time>
      </trkpt>
      <trkpt lat="48.58418" lon="-0.4888">
        <ele>242.4</ele>
        <time>2012-02-04T13:54:22Z</time>
      </trkpt>
      <trkpt lat="48.58413" lon="-0.48878">
        <ele>242.3</ele>
        <time>2012-02-04T13:54:23Z</time>
      </trkpt>
      <trkpt lat="48.58408" lon="-0.48876">
        <ele>242.5</ele>
        <time>2012-02-04T13:54:24Z</time>
      </trkpt>
      <trkpt lat="48.58403" lon="-0.48875">
        <ele>242.7</ele>
        <time>2012-02-04T13:54:25Z</time>
      </trkpt>
      <trkpt lat="48.58399" lon="-0.48873">
        <ele>243.2</ele>
        <time>2012-02-04T13:54:26Z</time>
      </trkpt>
      <trkpt lat="48.58394" lon="-0.48872">
        <ele>243.6</ele>
        <time>2012-02-04T13:54:27Z</time>
      </trkpt>
      <trkpt lat="48.58385" lon="-0.48869">
        <ele>243</ele>
        <time>2012-02-04T13:54:29Z</time>
      </trkpt>
      <trkpt lat="48.58377" lon="-0.48866">
        <ele>242.9</ele>
        <time>2012-02-04T13:54:31Z</time>
      </trkpt>
      <trkpt lat="48.58373" lon="-0.48865">
        <ele>243</ele>
        <time>2012-02-04T13:54:32Z</time>
      </trkpt>
      <trkpt lat="48.58361" lon="-0.48861">
        <ele>243.4</ele>
        <time>2012-02-04T13:54:35Z</time>
      </trkpt>
      <trkpt lat="48.58353" lon="-0.48859">
        <ele>243.6</ele>
        <time>2012-02-04T13:54:37Z</time>
      </trkpt>
      <trkpt lat="48.58345" lon="-0.48856">
        <ele>243.8</ele>
        <time>2012-02-04T13:54:39Z</time>
      </trkpt>
      <trkpt lat="48.58337" lon="-0.48853">
        <ele>245</ele>
        <time>2012-02-04T13:54:41Z</time>
      </trkpt>
      <trkpt lat="48.5833" lon="-0.48851">
        <ele>245.3</ele>
        <time>2012-02-04T13:54:43Z</time>
      </trkpt>
      <trkpt lat="48.58322" lon="-0.48848">
        <ele>245.4</ele>
        <time>2012-02-04T13:54:45Z</time>
      </trkpt>
      <trkpt lat="48.58314" lon="-0.48846">
        <ele>245.5</ele>
        <time>2012-02-04T13:54:47Z</time>
      </trkpt>
      <trkpt lat="48.58307" lon="-0.48843">
        <ele>245.5</ele>
        <time>2012-02-04T13:54:49Z</time>
      </trkpt>
      <trkpt lat="48.58299" lon="-0.4884">
        <ele>246</ele>
        <time>2012-02-04T13:54:51Z</time>
      </trkpt>
      <trkpt lat="48.58292" lon="-0.48838">
        <ele>246.5</ele>
        <time>2012-02-04T13:54:53Z</time>
      </trkpt>
      <trkpt lat="48.58284" lon="-0.48835">
        <ele>247.5</ele>
        <time>2012-02-04T13:54:55Z</time>
      </trkpt>
      <trkpt lat="48.58276" lon="-0.48833">
        <ele>247.8</ele>
        <time>2012-02-04T13:54:57Z</time>
      </trkpt>
      <trkpt lat="48.58269" lon="-0.48831">
        <ele>247.5</ele>
        <time>2012-02-04T13:54:59Z</time>
      </trkpt>
      <trkpt lat="48.58262" lon="-0.48828">
        <ele>247.1</ele>
        <time>2012-02-04T13:55:01Z</time>
      </trkpt>
      <trkpt lat="48.58255" lon="-0.48826">
        <ele>247.9</ele>
        <time>2012-02-04T13:55:03Z</time>
      </trkpt>
      <trkpt lat="48.58248" lon="-0.48824">
        <ele>248.7</ele>
        <time>2012-02-04T13:55:05Z</time>
      </trkpt>
      <trkpt lat="48.58241" lon="-0.48821">
        <ele>249.5</ele>
        <time>2012-02-04T13:55:07Z</time>
      </trkpt>
      <trkpt lat="48.58233" lon="-0.48819">
        <ele>250.1</ele>
        <time>2012-02-04T13:55:09Z</time>
      </trkpt>
      <trkpt lat="48.58226" lon="-0.48817">
        <ele>250.3</ele>
        <time>2012-02-04T13:55:11Z</time>
      </trkpt>
      <trkpt lat="48.58219" lon="-0.48815">
        <ele>250.8</ele>
        <time>2012-02-04T13:55:13Z</time>
      </trkpt>
      <trkpt lat="48.58211" lon="-0.48813">
        <ele>251.5</ele>
        <time>2012-02-04T13:55:15Z</time>
      </trkpt>
      <trkpt lat="48.58204" lon="-0.4881">
        <ele>251.9</ele>
        <time>2012-02-04T13:55:17Z</time>
      </trkpt>
      <trkpt lat="48.58197" lon="-0.48808">
        <ele>252</ele>
        <time>2012-02-04T13:55:19Z</time>
      </trkpt>
      <trkpt lat="48.5819" lon="-0.48805">
        <ele>252.5</ele>
        <time>2012-02-04T13:55:21Z</time>
      </trkpt>
      <trkpt lat="48.58183" lon="-0.48802">
        <ele>253.3</ele>
        <time>2012-02-04T13:55:23Z</time>
      </trkpt>
      <trkpt lat="48.58176" lon="-0.488">
        <ele>253.8</ele>
        <time>2012-02-04T13:55:25Z</time>
      </trkpt>
      <trkpt lat="48.58169" lon="-0.48798">
        <ele>254</ele>
        <time>2012-02-04T13:55:27Z</time>
      </trkpt>
      <trkpt lat="48.58162" lon="-0.48796">
        <ele>254</ele>
        <time>2012-02-04T13:55:29Z</time>
      </trkpt>
      <trkpt lat="48.58155" lon="-0.48794">
        <ele>254.1</ele>
        <time>2012-02-04T13:55:31Z</time>
      </trkpt>
      <trkpt lat="48.58149" lon="-0.48792">
        <ele>254.9</ele>
        <time>2012-02-04T13:55:33Z</time>
      </trkpt>
      <trkpt lat="48.58146" lon="-0.48791">
        <ele>255.2</ele>
        <time>2012-02-04T13:55:34Z</time>
      </trkpt>
      <trkpt lat="48.58136" lon="-0.48788">
        <ele>256</ele>
        <time>2012-02-04T13:55:37Z</time>
      </trkpt>
      <trkpt lat="48.58129" lon="-0.48785">
        <ele>256.8</ele>
        <time>2012-02-04T13:55:39Z</time>
      </trkpt>
      <trkpt lat="48.58123" lon="-0.48784">
        <ele>257.1</ele>
        <time>2012-02-04T13:55:41Z</time>
      </trkpt>
      <trkpt lat="48.58117" lon="-0.48782">
        <ele>257.3</ele>
        <time>2012-02-04T13:55:43Z</time>
      </trkpt>
      <trkpt lat="48.5811" lon="-0.48779">
        <ele>258.3</ele>
        <time>2012-02-04T13:55:45Z</time>
      </trkpt>
      <trkpt lat="48.58103" lon="-0.48777">
        <ele>258.8</ele>
        <time>2012-02-04T13:55:47Z</time>
      </trkpt>
      <trkpt lat="48.58097" lon="-0.48775">
        <ele>258.9</ele>
        <time>2012-02-04T13:55:49Z</time>
      </trkpt>
      <trkpt lat="48.5809" lon="-0.48772">
        <ele>259.3</ele>
        <time>2012-02-04T13:55:51Z</time>
      </trkpt>
      <trkpt lat="48.58083" lon="-0.4877">
        <ele>259.8</ele>
        <time>2012-02-04T13:55:53Z</time>
      </trkpt>
      <trkpt lat="48.58076" lon="-0.48768">
        <ele>260.2</ele>
        <time>2012-02-04T13:55:55Z</time>
      </trkpt>
      <trkpt lat="48.58069" lon="-0.48765">
        <ele>260</ele>
        <time>2012-02-04T13:55:57Z</time>
      </trkpt>
      <trkpt lat="48.58062" lon="-0.48762">
        <ele>260.2</ele>
        <time>2012-02-04T13:55:59Z</time>
      </trkpt>
      <trkpt lat="48.58055" lon="-0.4876">
        <ele>260.6</ele>
        <time>2012-02-04T13:56:01Z</time>
      </trkpt>
      <trkpt lat="48.58049" lon="-0.48757">
        <ele>261.4</ele>
        <time>2012-02-04T13:56:03Z</time>
      </trkpt>
      <trkpt lat="48.58042" lon="-0.48755">
        <ele>262.1</ele>
        <time>2012-02-04T13:56:05Z</time>
      </trkpt>
      <trkpt lat="48.58036" lon="-0.48753">
        <ele>262</ele>
        <time>2012-02-04T13:56:07Z</time>
      </trkpt>
      <trkpt lat="48.58029" lon="-0.4875">
        <ele>262.5</ele>
        <time>2012-02-04T13:56:09Z</time>
      </trkpt>
      <trkpt lat="48.58022" lon="-0.48748">
        <ele>262.9</ele>
        <time>2012-02-04T13:56:11Z</time>
      </trkpt>
      <trkpt lat="48.58015" lon="-0.48745">
        <ele>263</ele>
        <time>2012-02-04T13:56:13Z</time>
      </trkpt>
      <trkpt lat="48.58008" lon="-0.48743">
        <ele>263.5</ele>
        <time>2012-02-04T13:56:15Z</time>
      </trkpt>
      <trkpt lat="48.58001" lon="-0.4874">
        <ele>263.9</ele>
        <time>2012-02-04T13:56:17Z</time>
      </trkpt>
      <trkpt lat="48.57993" lon="-0.48737">
        <ele>264.2</ele>
        <time>2012-02-04T13:56:19Z</time>
      </trkpt>
      <trkpt lat="48.57985" lon="-0.48734">
        <ele>264.3</ele>
        <time>2012-02-04T13:56:21Z</time>
      </trkpt>
      <trkpt lat="48.57977" lon="-0.48731">
        <ele>264.5</ele>
        <time>2012-02-04T13:56:23Z</time>
      </trkpt>
      <trkpt lat="48.57968" lon="-0.48728">
        <ele>264.4</ele>
        <time>2012-02-04T13:56:25Z</time>
      </trkpt>
      <trkpt lat="48.5796" lon="-0.48725">
        <ele>264.1</ele>
        <time>2012-02-04T13:56:27Z</time>
      </trkpt>
      <trkpt lat="48.57955" lon="-0.48724">
        <ele>264</ele>
        <time>2012-02-04T13:56:28Z</time>
      </trkpt>
      <trkpt lat="48.57951" lon="-0.48722">
        <ele>263.7</ele>
        <time>2012-02-04T13:56:29Z</time>
      </trkpt>
      <trkpt lat="48.57946" lon="-0.48721">
        <ele>263.5</ele>
        <time>2012-02-04T13:56:30Z</time>
      </trkpt>
      <trkpt lat="48.57941" lon="-0.48719">
        <ele>263.3</ele>
        <time>2012-02-04T13:56:31Z</time>
      </trkpt>
      <trkpt lat="48.57935" lon="-0.48717">
        <ele>263.2</ele>
        <time>2012-02-04T13:56:32Z</time>
      </trkpt>
      <trkpt lat="48.57929" lon="-0.48715">
        <ele>263.1</ele>
        <time>2012-02-04T13:56:33Z</time>
      </trkpt>
      <trkpt lat="48.57923" lon="-0.48713">
        <ele>262.6</ele>
        <time>2012-02-04T13:56:34Z</time>
      </trkpt>
      <trkpt lat="48.57917" lon="-0.48711">
        <ele>262.3</ele>
        <time>2012-02-04T13:56:35Z</time>
      </trkpt>
      <trkpt lat="48.5791" lon="-0.48709">
        <ele>261.4</ele>
        <time>2012-02-04T13:56:36Z</time>
      </trkpt>
      <trkpt lat="48.57903" lon="-0.48707">
        <ele>260.7</ele>
        <time>2012-02-04T13:56:37Z</time>
      </trkpt>
      <trkpt lat="48.57896" lon="-0.48704">
        <ele>260.1</ele>
        <time>2012-02-04T13:56:38Z</time>
      </trkpt>
      <trkpt lat="48.57889" lon="-0.48702">
        <ele>259.3</ele>
        <time>2012-02-04T13:56:39Z</time>
      </trkpt>
      <trkpt lat="48.57881" lon="-0.48699">
        <ele>258.7</ele>
        <time>2012-02-04T13:56:40Z</time>
      </trkpt>
      <trkpt lat="48.57874" lon="-0.48696">
        <ele>257.8</ele>
        <time>2012-02-04T13:56:41Z</time>
      </trkpt>
      <trkpt lat="48.57866" lon="-0.48694">
        <ele>257.1</ele>
        <time>2012-02-04T13:56:42Z</time>
      </trkpt>
      <trkpt lat="48.57857" lon="-0.48691">
        <ele>256.6</ele>
        <time>2012-02-04T13:56:43Z</time>
      </trkpt>
      <trkpt lat="48.57848" lon="-0.48688">
        <ele>255.7</ele>
        <time>2012-02-04T13:56:44Z</time>
      </trkpt>
      <trkpt lat="48.57839" lon="-0.48685">
        <ele>255</ele>
        <time>2012-02-04T13:56:45Z</time>
      </trkpt>
      <trkpt lat="48.57829" lon="-0.48682">
        <ele>253.4</ele>
        <time>2012-02-04T13:56:46Z</time>
      </trkpt>
      <trkpt lat="48.57819" lon="-0.48679">
        <ele>252.2</ele>
        <time>2012-02-04T13:56:47Z</time>
      </trkpt>
      <trkpt lat="48.5781" lon="-0.48676">
        <ele>251.1</ele>
        <time>2012-02-04T13:56:48Z</time>
      </trkpt>
      <trkpt lat="48.578" lon="-0.48672">
        <ele>250.2</ele>
        <time>2012-02-04T13:56:49Z</time>
      </trkpt>
      <trkpt lat="48.5779" lon="-0.48669">
        <ele>249.6</ele>
        <time>2012-02-04T13:56:50Z</time>
      </trkpt>
      <trkpt lat="48.5778" lon="-0.48666">
        <ele>248.4</ele>
        <time>2012-02-04T13:56:51Z</time>
      </trkpt>
      <trkpt lat="48.5777" lon="-0.48663">
        <ele>247.5</ele>
        <time>2012-02-04T13:56:52Z</time>
      </trkpt>
      <trkpt lat="48.5776" lon="-0.48659">
        <ele>245.9</ele>
        <time>2012-02-04T13:56:53Z</time>
      </trkpt>
      <trkpt lat="48.5775" lon="-0.48655">
        <ele>244.7</ele>
        <time>2012-02-04T13:56:54Z</time>
      </trkpt>
      <trkpt lat="48.5774" lon="-0.48652">
        <ele>243.3</ele>
        <time>2012-02-04T13:56:55Z</time>
      </trkpt>
      <trkpt lat="48.57729" lon="-0.48649">
        <ele>242.2</ele>
        <time>2012-02-04T13:56:56Z</time>
      </trkpt>
      <trkpt lat="48.57719" lon="-0.48645">
        <ele>241.3</ele>
        <time>2012-02-04T13:56:57Z</time>
      </trkpt>
      <trkpt lat="48.57709" lon="-0.48642">
        <ele>240.3</ele>
        <time>2012-02-04T13:56:58Z</time>
      </trkpt>
      <trkpt lat="48.57699" lon="-0.48639">
        <ele>239.6</ele>
        <time>2012-02-04T13:56:59Z</time>
      </trkpt>
      <trkpt lat="48.57689" lon="-0.48636">
        <ele>238.4</ele>
        <time>2012-02-04T13:57:00Z</time>
      </trkpt>
      <trkpt lat="48.57679" lon="-0.48632">
        <ele>237.5</ele>
        <time>2012-02-04T13:57:01Z</time>
      </trkpt>
      <trkpt lat="48.57669" lon="-0.48629">
        <ele>236.9</ele>
        <time>2012-02-04T13:57:02Z</time>
      </trkpt>
      <trkpt lat="48.57659" lon="-0.48626">
        <ele>235.7</ele>
        <time>2012-02-04T13:57:03Z</time>
      </trkpt>
      <trkpt lat="48.57648" lon="-0.48622">
        <ele>234.8</ele>
        <time>2012-02-04T13:57:04Z</time>
      </trkpt>
      <trkpt lat="48.57639" lon="-0.48619">
        <ele>234.2</ele>
        <time>2012-02-04T13:57:05Z</time>
      </trkpt>
      <trkpt lat="48.5763" lon="-0.48616">
        <ele>233.7</ele>
        <time>2012-02-04T13:57:06Z</time>
      </trkpt>
      <trkpt lat="48.57621" lon="-0.48613">
        <ele>232.5</ele>
        <time>2012-02-04T13:57:07Z</time>
      </trkpt>
      <trkpt lat="48.57612" lon="-0.4861">
        <ele>231.6</ele>
        <time>2012-02-04T13:57:08Z</time>
      </trkpt>
      <trkpt lat="48.57603" lon="-0.48607">
        <ele>230.9</ele>
        <time>2012-02-04T13:57:09Z</time>
      </trkpt>
      <trkpt lat="48.57594" lon="-0.48604">
        <ele>230</ele>
        <time>2012-02-04T13:57:10Z</time>
      </trkpt>
      <trkpt lat="48.57586" lon="-0.48602">
        <ele>229.4</ele>
        <time>2012-02-04T13:57:11Z</time>
      </trkpt>
      <trkpt lat="48.57579" lon="-0.48599">
        <ele>228.5</ele>
        <time>2012-02-04T13:57:12Z</time>
      </trkpt>
      <trkpt lat="48.57573" lon="-0.48597">
        <ele>227.8</ele>
        <time>2012-02-04T13:57:13Z</time>
      </trkpt>
      <trkpt lat="48.57567" lon="-0.48595">
        <ele>226.9</ele>
        <time>2012-02-04T13:57:14Z</time>
      </trkpt>
      <trkpt lat="48.57561" lon="-0.48593">
        <ele>226.1</ele>
        <time>2012-02-04T13:57:15Z</time>
      </trkpt>
      <trkpt lat="48.57554" lon="-0.48591">
        <ele>225.6</ele>
        <time>2012-02-04T13:57:16Z</time>
      </trkpt>
      <trkpt lat="48.57548" lon="-0.48589">
        <ele>225</ele>
        <time>2012-02-04T13:57:17Z</time>
      </trkpt>
      <trkpt lat="48.57542" lon="-0.48587">
        <ele>224.5</ele>
        <time>2012-02-04T13:57:18Z</time>
      </trkpt>
      <trkpt lat="48.57536" lon="-0.48585">
        <ele>224.1</ele>
        <time>2012-02-04T13:57:19Z</time>
      </trkpt>
      <trkpt lat="48.5753" lon="-0.48583">
        <ele>223.8</ele>
        <time>2012-02-04T13:57:20Z</time>
      </trkpt>
      <trkpt lat="48.57524" lon="-0.48582">
        <ele>223.6</ele>
        <time>2012-02-04T13:57:21Z</time>
      </trkpt>
      <trkpt lat="48.57519" lon="-0.4858">
        <ele>223.1</ele>
        <time>2012-02-04T13:57:22Z</time>
      </trkpt>
      <trkpt lat="48.57513" lon="-0.48578">
        <ele>222.7</ele>
        <time>2012-02-04T13:57:23Z</time>
      </trkpt>
      <trkpt lat="48.57507" lon="-0.48577">
        <ele>222.3</ele>
        <time>2012-02-04T13:57:24Z</time>
      </trkpt>
      <trkpt lat="48.57502" lon="-0.48575">
        <ele>222</ele>
        <time>2012-02-04T13:57:25Z</time>
      </trkpt>
      <trkpt lat="48.57494" lon="-0.48572">
        <ele>221.5</ele>
        <time>2012-02-04T13:57:27Z</time>
      </trkpt>
      <trkpt lat="48.57487" lon="-0.48571">
        <ele>220.9</ele>
        <time>2012-02-04T13:57:29Z</time>
      </trkpt>
      <trkpt lat="48.57479" lon="-0.48567">
        <ele>220.2</ele>
        <time>2012-02-04T13:57:35Z</time>
      </trkpt>
      <trkpt lat="48.57478" lon="-0.48566">
        <ele>219.9</ele>
        <time>2012-02-04T13:57:36Z</time>
      </trkpt>
      <trkpt lat="48.57464" lon="-0.48559">
        <ele>220.1</ele>
        <time>2012-02-04T13:57:46Z</time>
      </trkpt>
      <trkpt lat="48.57456" lon="-0.48556">
        <ele>220.1</ele>
        <time>2012-02-04T13:57:50Z</time>
      </trkpt>
      <trkpt lat="48.57448" lon="-0.48553">
        <ele>219.9</ele>
        <time>2012-02-04T13:57:54Z</time>
      </trkpt>
      <trkpt lat="48.57441" lon="-0.48551">
        <ele>220.1</ele>
        <time>2012-02-04T13:57:57Z</time>
      </trkpt>
      <trkpt lat="48.57433" lon="-0.48548">
        <ele>220.1</ele>
        <time>2012-02-04T13:58:01Z</time>
      </trkpt>
      <trkpt lat="48.57425" lon="-0.48546">
        <ele>220.5</ele>
        <time>2012-02-04T13:58:05Z</time>
      </trkpt>
      <trkpt lat="48.57417" lon="-0.48543">
        <ele>220.9</ele>
        <time>2012-02-04T13:58:08Z</time>
      </trkpt>
      <trkpt lat="48.57409" lon="-0.48541">
        <ele>221.3</ele>
        <time>2012-02-04T13:58:12Z</time>
      </trkpt>
      <trkpt lat="48.57401" lon="-0.48537">
        <ele>221.7</ele>
        <time>2012-02-04T13:58:18Z</time>
      </trkpt>
      <trkpt lat="48.57393" lon="-0.48534">
        <ele>222.2</ele>
        <time>2012-02-04T13:58:23Z</time>
      </trkpt>
      <trkpt lat="48.57384" lon="-0.48532">
        <ele>222.7</ele>
        <time>2012-02-04T13:58:30Z</time>
      </trkpt>
      <trkpt lat="48.57375" lon="-0.48532">
        <ele>222.4</ele>
        <time>2012-02-04T13:58:44Z</time>
      </trkpt>
      <trkpt lat="48.57374" lon="-0.48532">
        <ele>222.3</ele>
        <time>2012-02-04T13:58:45Z</time>
      </trkpt>
      <trkpt lat="48.57359" lon="-0.48529">
        <ele>222.6</ele>
        <time>2012-02-04T13:58:58Z</time>
      </trkpt>
      <trkpt lat="48.5735" lon="-0.48527">
        <ele>222.4</ele>
        <time>2012-02-04T13:59:03Z</time>
      </trkpt>
      <trkpt lat="48.57343" lon="-0.48525">
        <ele>223.5</ele>
        <time>2012-02-04T13:59:07Z</time>
      </trkpt>
      <trkpt lat="48.57334" lon="-0.48522">
        <ele>224.6</ele>
        <time>2012-02-04T13:59:12Z</time>
      </trkpt>
      <trkpt lat="48.57326" lon="-0.4852">
        <ele>225.6</ele>
        <time>2012-02-04T13:59:17Z</time>
      </trkpt>
      <trkpt lat="48.57318" lon="-0.48517">
        <ele>225.3</ele>
        <time>2012-02-04T13:59:22Z</time>
      </trkpt>
      <trkpt lat="48.5731" lon="-0.48516">
        <ele>227.3</ele>
        <time>2012-02-04T13:59:28Z</time>
      </trkpt>
      <trkpt lat="48.57301" lon="-0.48512">
        <ele>227.7</ele>
        <time>2012-02-04T13:59:34Z</time>
      </trkpt>
      <trkpt lat="48.57293" lon="-0.48509">
        <ele>228.1</ele>
        <time>2012-02-04T13:59:39Z</time>
      </trkpt>
      <trkpt lat="48.57285" lon="-0.48506">
        <ele>229.2</ele>
        <time>2012-02-04T13:59:45Z</time>
      </trkpt>
      <trkpt lat="48.57283" lon="-0.48506">
        <ele>229.4</ele>
        <time>2012-02-04T13:59:46Z</time>
      </trkpt>
      <trkpt lat="48.57269" lon="-0.48499">
        <ele>231.1</ele>
        <time>2012-02-04T13:59:58Z</time>
      </trkpt>
      <trkpt lat="48.57261" lon="-0.48495">
        <ele>231.2</ele>
        <time>2012-02-04T14:00:02Z</time>
      </trkpt>
      <trkpt lat="48.57253" lon="-0.48492">
        <ele>232.2</ele>
        <time>2012-02-04T14:00:06Z</time>
      </trkpt>
      <trkpt lat="48.57245" lon="-0.4849">
        <ele>233</ele>
        <time>2012-02-04T14:00:10Z</time>
      </trkpt>
      <trkpt lat="48.57238" lon="-0.48488">
        <ele>233</ele>
        <time>2012-02-04T14:00:14Z</time>
      </trkpt>
      <trkpt lat="48.5723" lon="-0.48486">
        <ele>233</ele>
        <time>2012-02-04T14:00:18Z</time>
      </trkpt>
      <trkpt lat="48.57223" lon="-0.48484">
        <ele>233.6</ele>
        <time>2012-02-04T14:00:22Z</time>
      </trkpt>
      <trkpt lat="48.57214" lon="-0.48481">
        <ele>234.6</ele>
        <time>2012-02-04T14:00:27Z</time>
      </trkpt>
      <trkpt lat="48.57206" lon="-0.48478">
        <ele>235.5</ele>
        <time>2012-02-04T14:00:31Z</time>
      </trkpt>
      <trkpt lat="48.57198" lon="-0.48475">
        <ele>236.2</ele>
        <time>2012-02-04T14:00:35Z</time>
      </trkpt>
      <trkpt lat="48.5719" lon="-0.48474">
        <ele>236.2</ele>
        <time>2012-02-04T14:00:39Z</time>
      </trkpt>
      <trkpt lat="48.57182" lon="-0.48471">
        <ele>237.1</ele>
        <time>2012-02-04T14:00:43Z</time>
      </trkpt>
      <trkpt lat="48.57174" lon="-0.48469">
        <ele>238.2</ele>
        <time>2012-02-04T14:00:47Z</time>
      </trkpt>
      <trkpt lat="48.57172" lon="-0.48468">
        <ele>238.7</ele>
        <time>2012-02-04T14:00:48Z</time>
      </trkpt>
      <trkpt lat="48.5716" lon="-0.4846">
        <ele>241.9</ele>
        <time>2012-02-04T14:00:56Z</time>
      </trkpt>
      <trkpt lat="48.57152" lon="-0.48457">
        <ele>244.4</ele>
        <time>2012-02-04T14:01:02Z</time>
      </trkpt>
      <trkpt lat="48.57143" lon="-0.48455">
        <ele>245.6</ele>
        <time>2012-02-04T14:01:15Z</time>
      </trkpt>
      <trkpt lat="48.57135" lon="-0.48453">
        <ele>247.2</ele>
        <time>2012-02-04T14:01:29Z</time>
      </trkpt>
      <trkpt lat="48.57127" lon="-0.48451">
        <ele>247.4</ele>
        <time>2012-02-04T14:01:34Z</time>
      </trkpt>
      <trkpt lat="48.5712" lon="-0.48448">
        <ele>248.8</ele>
        <time>2012-02-04T14:01:38Z</time>
      </trkpt>
      <trkpt lat="48.57112" lon="-0.48445">
        <ele>249</ele>
        <time>2012-02-04T14:01:41Z</time>
      </trkpt>
      <trkpt lat="48.57104" lon="-0.48444">
        <ele>249.1</ele>
        <time>2012-02-04T14:01:44Z</time>
      </trkpt>
      <trkpt lat="48.57096" lon="-0.48442">
        <ele>251.3</ele>
        <time>2012-02-04T14:01:49Z</time>
      </trkpt>
      <trkpt lat="48.57095" lon="-0.48442">
        <ele>251.9</ele>
        <time>2012-02-04T14:01:50Z</time>
      </trkpt>
      <trkpt lat="48.5708" lon="-0.48435">
        <ele>254.5</ele>
        <time>2012-02-04T14:01:58Z</time>
      </trkpt>
      <trkpt lat="48.57072" lon="-0.48432">
        <ele>255.9</ele>
        <time>2012-02-04T14:02:02Z</time>
      </trkpt>
      <trkpt lat="48.57063" lon="-0.48432">
        <ele>257.2</ele>
        <time>2012-02-04T14:02:06Z</time>
      </trkpt>
      <trkpt lat="48.57055" lon="-0.4843">
        <ele>258.2</ele>
        <time>2012-02-04T14:02:10Z</time>
      </trkpt>
      <trkpt lat="48.57048" lon="-0.48428">
        <ele>258.6</ele>
        <time>2012-02-04T14:02:13Z</time>
      </trkpt>
      <trkpt lat="48.5704" lon="-0.48425">
        <ele>258.9</ele>
        <time>2012-02-04T14:02:16Z</time>
      </trkpt>
      <trkpt lat="48.57034" lon="-0.48423">
        <ele>259.4</ele>
        <time>2012-02-04T14:02:18Z</time>
      </trkpt>
      <trkpt lat="48.57025" lon="-0.4842">
        <ele>259.5</ele>
        <time>2012-02-04T14:02:21Z</time>
      </trkpt>
      <trkpt lat="48.57018" lon="-0.48419">
        <ele>259.7</ele>
        <time>2012-02-04T14:02:24Z</time>
      </trkpt>
      <trkpt lat="48.57011" lon="-0.48416">
        <ele>260.4</ele>
        <time>2012-02-04T14:02:27Z</time>
      </trkpt>
      <trkpt lat="48.57004" lon="-0.48414">
        <ele>259.9</ele>
        <time>2012-02-04T14:02:30Z</time>
      </trkpt>
      <trkpt lat="48.56996" lon="-0.48411">
        <ele>259.2</ele>
        <time>2012-02-04T14:02:33Z</time>
      </trkpt>
      <trkpt lat="48.5699" lon="-0.48403">
        <ele>260.1</ele>
        <time>2012-02-04T14:02:37Z</time>
      </trkpt>
      <trkpt lat="48.56988" lon="-0.48392">
        <ele>259.9</ele>
        <time>2012-02-04T14:02:40Z</time>
      </trkpt>
      <trkpt lat="48.56986" lon="-0.48379">
        <ele>259.4</ele>
        <time>2012-02-04T14:02:43Z</time>
      </trkpt>
      <trkpt lat="48.56984" lon="-0.4837">
        <ele>259.8</ele>
        <time>2012-02-04T14:02:45Z</time>
      </trkpt>
      <trkpt lat="48.56983" lon="-0.4836">
        <ele>260</ele>
        <time>2012-02-04T14:02:47Z</time>
      </trkpt>
      <trkpt lat="48.56982" lon="-0.48349">
        <ele>259.6</ele>
        <time>2012-02-04T14:02:49Z</time>
      </trkpt>
      <trkpt lat="48.56981" lon="-0.48337">
        <ele>259.2</ele>
        <time>2012-02-04T14:02:51Z</time>
      </trkpt>
      <trkpt lat="48.5698" lon="-0.48331">
        <ele>259.1</ele>
        <time>2012-02-04T14:02:52Z</time>
      </trkpt>
      <trkpt lat="48.56977" lon="-0.48314">
        <ele>258.5</ele>
        <time>2012-02-04T14:02:55Z</time>
      </trkpt>
      <trkpt lat="48.56975" lon="-0.48302">
        <ele>258.9</ele>
        <time>2012-02-04T14:02:57Z</time>
      </trkpt>
      <trkpt lat="48.56972" lon="-0.4829">
        <ele>259.3</ele>
        <time>2012-02-04T14:02:59Z</time>
      </trkpt>
      <trkpt lat="48.56971" lon="-0.48278">
        <ele>259.6</ele>
        <time>2012-02-04T14:03:01Z</time>
      </trkpt>
      <trkpt lat="48.5697" lon="-0.48265">
        <ele>259.5</ele>
        <time>2012-02-04T14:03:03Z</time>
      </trkpt>
      <trkpt lat="48.56968" lon="-0.48252">
        <ele>259.1</ele>
        <time>2012-02-04T14:03:08Z</time>
      </trkpt>
      <trkpt lat="48.56962" lon="-0.48242">
        <ele>259</ele>
        <time>2012-02-04T14:03:28Z</time>
      </trkpt>
      <trkpt lat="48.5696" lon="-0.4823">
        <ele>258.6</ele>
        <time>2012-02-04T14:03:33Z</time>
      </trkpt>
      <trkpt lat="48.56959" lon="-0.4822">
        <ele>259.6</ele>
        <time>2012-02-04T14:03:36Z</time>
      </trkpt>
      <trkpt lat="48.56958" lon="-0.48209">
        <ele>259.7</ele>
        <time>2012-02-04T14:03:39Z</time>
      </trkpt>
      <trkpt lat="48.56958" lon="-0.48198">
        <ele>259.2</ele>
        <time>2012-02-04T14:03:42Z</time>
      </trkpt>
      <trkpt lat="48.56957" lon="-0.48186">
        <ele>258.8</ele>
        <time>2012-02-04T14:03:45Z</time>
      </trkpt>
      <trkpt lat="48.56957" lon="-0.48175">
        <ele>258.2</ele>
        <time>2012-02-04T14:03:48Z</time>
      </trkpt>
      <trkpt lat="48.56956" lon="-0.48164">
        <ele>258.3</ele>
        <time>2012-02-04T14:03:51Z</time>
      </trkpt>
      <trkpt lat="48.56954" lon="-0.48152">
        <ele>257.9</ele>
        <time>2012-02-04T14:03:55Z</time>
      </trkpt>
      <trkpt lat="48.56953" lon="-0.48149">
        <ele>257.9</ele>
        <time>2012-02-04T14:03:56Z</time>
      </trkpt>
      <trkpt lat="48.5695" lon="-0.4813">
        <ele>257.4</ele>
        <time>2012-02-04T14:04:02Z</time>
      </trkpt>
      <trkpt lat="48.56949" lon="-0.4812">
        <ele>257.4</ele>
        <time>2012-02-04T14:04:04Z</time>
      </trkpt>
      <trkpt lat="48.56949" lon="-0.48109">
        <ele>257.4</ele>
        <time>2012-02-04T14:04:06Z</time>
      </trkpt>
      <trkpt lat="48.56947" lon="-0.48097">
        <ele>257.6</ele>
        <time>2012-02-04T14:04:08Z</time>
      </trkpt>
      <trkpt lat="48.56946" lon="-0.48086">
        <ele>257.3</ele>
        <time>2012-02-04T14:04:10Z</time>
      </trkpt>
      <trkpt lat="48.56944" lon="-0.48074">
        <ele>257.3</ele>
        <time>2012-02-04T14:04:12Z</time>
      </trkpt>
      <trkpt lat="48.56943" lon="-0.48062">
        <ele>257.6</ele>
        <time>2012-02-04T14:04:14Z</time>
      </trkpt>
      <trkpt lat="48.56941" lon="-0.48049">
        <ele>257.7</ele>
        <time>2012-02-04T14:04:16Z</time>
      </trkpt>
      <trkpt lat="48.5694" lon="-0.48038">
        <ele>257.7</ele>
        <time>2012-02-04T14:04:18Z</time>
      </trkpt>
      <trkpt lat="48.56938" lon="-0.48025">
        <ele>257.7</ele>
        <time>2012-02-04T14:04:20Z</time>
      </trkpt>
      <trkpt lat="48.56936" lon="-0.48013">
        <ele>258</ele>
        <time>2012-02-04T14:04:22Z</time>
      </trkpt>
      <trkpt lat="48.56935" lon="-0.48">
        <ele>258.3</ele>
        <time>2012-02-04T14:04:24Z</time>
      </trkpt>
      <trkpt lat="48.56933" lon="-0.47988">
        <ele>258.3</ele>
        <time>2012-02-04T14:04:26Z</time>
      </trkpt>
      <trkpt lat="48.56932" lon="-0.47975">
        <ele>258.2</ele>
        <time>2012-02-04T14:04:28Z</time>
      </trkpt>
      <trkpt lat="48.5693" lon="-0.47962">
        <ele>257.9</ele>
        <time>2012-02-04T14:04:30Z</time>
      </trkpt>
      <trkpt lat="48.56929" lon="-0.47949">
        <ele>258.6</ele>
        <time>2012-02-04T14:04:32Z</time>
      </trkpt>
      <trkpt lat="48.56928" lon="-0.47937">
        <ele>258.7</ele>
        <time>2012-02-04T14:04:34Z</time>
      </trkpt>
      <trkpt lat="48.56926" lon="-0.47925">
        <ele>258.6</ele>
        <time>2012-02-04T14:04:36Z</time>
      </trkpt>
      <trkpt lat="48.56925" lon="-0.47914">
        <ele>258.8</ele>
        <time>2012-02-04T14:04:38Z</time>
      </trkpt>
      <trkpt lat="48.56925" lon="-0.47901">
        <ele>259.2</ele>
        <time>2012-02-04T14:04:40Z</time>
      </trkpt>
      <trkpt lat="48.56924" lon="-0.47889">
        <ele>259.3</ele>
        <time>2012-02-04T14:04:42Z</time>
      </trkpt>
      <trkpt lat="48.56923" lon="-0.47878">
        <ele>259.5</ele>
        <time>2012-02-04T14:04:44Z</time>
      </trkpt>
      <trkpt lat="48.56922" lon="-0.47868">
        <ele>260</ele>
        <time>2012-02-04T14:04:46Z</time>
      </trkpt>
      <trkpt lat="48.56921" lon="-0.47857">
        <ele>260.4</ele>
        <time>2012-02-04T14:04:48Z</time>
      </trkpt>
      <trkpt lat="48.56919" lon="-0.47848">
        <ele>260.8</ele>
        <time>2012-02-04T14:04:50Z</time>
      </trkpt>
      <trkpt lat="48.56917" lon="-0.47837">
        <ele>261.1</ele>
        <time>2012-02-04T14:04:52Z</time>
      </trkpt>
      <trkpt lat="48.56913" lon="-0.47826">
        <ele>261.3</ele>
        <time>2012-02-04T14:04:54Z</time>
      </trkpt>
      <trkpt lat="48.5691" lon="-0.47814">
        <ele>261.5</ele>
        <time>2012-02-04T14:04:56Z</time>
      </trkpt>
      <trkpt lat="48.56908" lon="-0.47807">
        <ele>261.1</ele>
        <time>2012-02-04T14:04:57Z</time>
      </trkpt>
      <trkpt lat="48.56905" lon="-0.47799">
        <ele>260.7</ele>
        <time>2012-02-04T14:04:58Z</time>
      </trkpt>
      <trkpt lat="48.56903" lon="-0.47792">
        <ele>260.4</ele>
        <time>2012-02-04T14:04:59Z</time>
      </trkpt>
      <trkpt lat="48.56901" lon="-0.47785">
        <ele>260.2</ele>
        <time>2012-02-04T14:05:00Z</time>
      </trkpt>
      <trkpt lat="48.56898" lon="-0.47778">
        <ele>260</ele>
        <time>2012-02-04T14:05:01Z</time>
      </trkpt>
      <trkpt lat="48.56896" lon="-0.47772">
        <ele>259.9</ele>
        <time>2012-02-04T14:05:02Z</time>
      </trkpt>
      <trkpt lat="48.56894" lon="-0.47766">
        <ele>259.8</ele>
        <time>2012-02-04T14:05:03Z</time>
      </trkpt>
      <trkpt lat="48.56892" lon="-0.47759">
        <ele>259.5</ele>
        <time>2012-02-04T14:05:04Z</time>
      </trkpt>
      <trkpt lat="48.56889" lon="-0.47747">
        <ele>259.2</ele>
        <time>2012-02-04T14:05:06Z</time>
      </trkpt>
      <trkpt lat="48.56887" lon="-0.47741">
        <ele>259</ele>
        <time>2012-02-04T14:05:07Z</time>
      </trkpt>
      <trkpt lat="48.56885" lon="-0.47734">
        <ele>258.9</ele>
        <time>2012-02-04T14:05:08Z</time>
      </trkpt>
      <trkpt lat="48.56884" lon="-0.47728">
        <ele>258.9</ele>
        <time>2012-02-04T14:05:09Z</time>
      </trkpt>
      <trkpt lat="48.56882" lon="-0.47721">
        <ele>258.9</ele>
        <time>2012-02-04T14:05:10Z</time>
      </trkpt>
      <trkpt lat="48.5688" lon="-0.47714">
        <ele>259.2</ele>
        <time>2012-02-04T14:05:11Z</time>
      </trkpt>
      <trkpt lat="48.56878" lon="-0.47706">
        <ele>259.3</ele>
        <time>2012-02-04T14:05:12Z</time>
      </trkpt>
      <trkpt lat="48.56876" lon="-0.47699">
        <ele>259.5</ele>
        <time>2012-02-04T14:05:13Z</time>
      </trkpt>
      <trkpt lat="48.56874" lon="-0.47692">
        <ele>259.1</ele>
        <time>2012-02-04T14:05:14Z</time>
      </trkpt>
      <trkpt lat="48.56871" lon="-0.47679">
        <ele>259.2</ele>
        <time>2012-02-04T14:05:16Z</time>
      </trkpt>
      <trkpt lat="48.56868" lon="-0.47672">
        <ele>259.4</ele>
        <time>2012-02-04T14:05:17Z</time>
      </trkpt>
      <trkpt lat="48.56867" lon="-0.47666">
        <ele>259.6</ele>
        <time>2012-02-04T14:05:18Z</time>
      </trkpt>
      <trkpt lat="48.56864" lon="-0.47659">
        <ele>259.8</ele>
        <time>2012-02-04T14:05:19Z</time>
      </trkpt>
      <trkpt lat="48.56862" lon="-0.47652">
        <ele>259.9</ele>
        <time>2012-02-04T14:05:20Z</time>
      </trkpt>
      <trkpt lat="48.5686" lon="-0.47646">
        <ele>259.9</ele>
        <time>2012-02-04T14:05:21Z</time>
      </trkpt>
      <trkpt lat="48.56858" lon="-0.47638">
        <ele>259.9</ele>
        <time>2012-02-04T14:05:22Z</time>
      </trkpt>
      <trkpt lat="48.56856" lon="-0.4763">
        <ele>259.8</ele>
        <time>2012-02-04T14:05:23Z</time>
      </trkpt>
      <trkpt lat="48.56854" lon="-0.47623">
        <ele>259.6</ele>
        <time>2012-02-04T14:05:24Z</time>
      </trkpt>
      <trkpt lat="48.56852" lon="-0.47616">
        <ele>259.6</ele>
        <time>2012-02-04T14:05:25Z</time>
      </trkpt>
      <trkpt lat="48.56849" lon="-0.47609">
        <ele>260</ele>
        <time>2012-02-04T14:05:26Z</time>
      </trkpt>
      <trkpt lat="48.56847" lon="-0.47602">
        <ele>260.3</ele>
        <time>2012-02-04T14:05:27Z</time>
      </trkpt>
      <trkpt lat="48.56845" lon="-0.47595">
        <ele>260.1</ele>
        <time>2012-02-04T14:05:28Z</time>
      </trkpt>
      <trkpt lat="48.56841" lon="-0.47583">
        <ele>259.9</ele>
        <time>2012-02-04T14:05:30Z</time>
      </trkpt>
      <trkpt lat="48.56838" lon="-0.4757">
        <ele>260</ele>
        <time>2012-02-04T14:05:32Z</time>
      </trkpt>
      <trkpt lat="48.56836" lon="-0.47564">
        <ele>259.7</ele>
        <time>2012-02-04T14:05:33Z</time>
      </trkpt>
      <trkpt lat="48.56834" lon="-0.47557">
        <ele>259.5</ele>
        <time>2012-02-04T14:05:34Z</time>
      </trkpt>
      <trkpt lat="48.56832" lon="-0.47551">
        <ele>259.6</ele>
        <time>2012-02-04T14:05:35Z</time>
      </trkpt>
      <trkpt lat="48.56829" lon="-0.47543">
        <ele>259.6</ele>
        <time>2012-02-04T14:05:36Z</time>
      </trkpt>
      <trkpt lat="48.56826" lon="-0.47536">
        <ele>259.7</ele>
        <time>2012-02-04T14:05:37Z</time>
      </trkpt>
      <trkpt lat="48.56824" lon="-0.47528">
        <ele>259.8</ele>
        <time>2012-02-04T14:05:38Z</time>
      </trkpt>
      <trkpt lat="48.56822" lon="-0.47521">
        <ele>259.8</ele>
        <time>2012-02-04T14:05:39Z</time>
      </trkpt>
      <trkpt lat="48.5682" lon="-0.47514">
        <ele>259.9</ele>
        <time>2012-02-04T14:05:40Z</time>
      </trkpt>
      <trkpt lat="48.56818" lon="-0.47507">
        <ele>260</ele>
        <time>2012-02-04T14:05:41Z</time>
      </trkpt>
      <trkpt lat="48.56816" lon="-0.475">
        <ele>259.9</ele>
        <time>2012-02-04T14:05:42Z</time>
      </trkpt>
      <trkpt lat="48.56813" lon="-0.47492">
        <ele>259.9</ele>
        <time>2012-02-04T14:05:43Z</time>
      </trkpt>
      <trkpt lat="48.56811" lon="-0.47485">
        <ele>259.8</ele>
        <time>2012-02-04T14:05:44Z</time>
      </trkpt>
      <trkpt lat="48.56808" lon="-0.47477">
        <ele>259.6</ele>
        <time>2012-02-04T14:05:45Z</time>
      </trkpt>
      <trkpt lat="48.56806" lon="-0.47469">
        <ele>259.5</ele>
        <time>2012-02-04T14:05:46Z</time>
      </trkpt>
      <trkpt lat="48.56803" lon="-0.47462">
        <ele>259.5</ele>
        <time>2012-02-04T14:05:47Z</time>
      </trkpt>
      <trkpt lat="48.56801" lon="-0.47454">
        <ele>259.5</ele>
        <time>2012-02-04T14:05:48Z</time>
      </trkpt>
      <trkpt lat="48.56799" lon="-0.47447">
        <ele>259.4</ele>
        <time>2012-02-04T14:05:49Z</time>
      </trkpt>
      <trkpt lat="48.56797" lon="-0.47439">
        <ele>259.4</ele>
        <time>2012-02-04T14:05:50Z</time>
      </trkpt>
      <trkpt lat="48.56795" lon="-0.47431">
        <ele>259.3</ele>
        <time>2012-02-04T14:05:51Z</time>
      </trkpt>
      <trkpt lat="48.56793" lon="-0.47425">
        <ele>259.4</ele>
        <time>2012-02-04T14:05:52Z</time>
      </trkpt>
      <trkpt lat="48.56791" lon="-0.47417">
        <ele>259.4</ele>
        <time>2012-02-04T14:05:53Z</time>
      </trkpt>
      <trkpt lat="48.56789" lon="-0.47409">
        <ele>259.3</ele>
        <time>2012-02-04T14:05:54Z</time>
      </trkpt>
      <trkpt lat="48.56786" lon="-0.47402">
        <ele>259.3</ele>
        <time>2012-02-04T14:05:55Z</time>
      </trkpt>
      <trkpt lat="48.56784" lon="-0.47394">
        <ele>259.2</ele>
        <time>2012-02-04T14:05:56Z</time>
      </trkpt>
      <trkpt lat="48.56782" lon="-0.47387">
        <ele>259.1</ele>
        <time>2012-02-04T14:05:57Z</time>
      </trkpt>
      <trkpt lat="48.5678" lon="-0.4738">
        <ele>259</ele>
        <time>2012-02-04T14:05:58Z</time>
      </trkpt>
      <trkpt lat="48.56778" lon="-0.47372">
        <ele>259.2</ele>
        <time>2012-02-04T14:05:59Z</time>
      </trkpt>
      <trkpt lat="48.56776" lon="-0.47365">
        <ele>259.2</ele>
        <time>2012-02-04T14:06:00Z</time>
      </trkpt>
      <trkpt lat="48.56774" lon="-0.47357">
        <ele>259.1</ele>
        <time>2012-02-04T14:06:01Z</time>
      </trkpt>
      <trkpt lat="48.56772" lon="-0.4735">
        <ele>259.1</ele>
        <time>2012-02-04T14:06:02Z</time>
      </trkpt>
      <trkpt lat="48.5677" lon="-0.47343">
        <ele>259</ele>
        <time>2012-02-04T14:06:03Z</time>
      </trkpt>
      <trkpt lat="48.56769" lon="-0.47336">
        <ele>259</ele>
        <time>2012-02-04T14:06:04Z</time>
      </trkpt>
      <trkpt lat="48.56767" lon="-0.4733">
        <ele>258.9</ele>
        <time>2012-02-04T14:06:05Z</time>
      </trkpt>
      <trkpt lat="48.56764" lon="-0.47317">
        <ele>258.7</ele>
        <time>2012-02-04T14:06:07Z</time>
      </trkpt>
      <trkpt lat="48.56763" lon="-0.47311">
        <ele>258.8</ele>
        <time>2012-02-04T14:06:08Z</time>
      </trkpt>
      <trkpt lat="48.56761" lon="-0.47304">
        <ele>258.8</ele>
        <time>2012-02-04T14:06:09Z</time>
      </trkpt>
      <trkpt lat="48.56759" lon="-0.47298">
        <ele>258.9</ele>
        <time>2012-02-04T14:06:10Z</time>
      </trkpt>
      <trkpt lat="48.56756" lon="-0.47285">
        <ele>258.2</ele>
        <time>2012-02-04T14:06:12Z</time>
      </trkpt>
      <trkpt lat="48.56755" lon="-0.47279">
        <ele>258.3</ele>
        <time>2012-02-04T14:06:13Z</time>
      </trkpt>
      <trkpt lat="48.56752" lon="-0.47272">
        <ele>258.3</ele>
        <time>2012-02-04T14:06:14Z</time>
      </trkpt>
      <trkpt lat="48.5675" lon="-0.47265">
        <ele>258.3</ele>
        <time>2012-02-04T14:06:15Z</time>
      </trkpt>
      <trkpt lat="48.56749" lon="-0.47259">
        <ele>258.3</ele>
        <time>2012-02-04T14:06:16Z</time>
      </trkpt>
      <trkpt lat="48.56746" lon="-0.47247">
        <ele>258.6</ele>
        <time>2012-02-04T14:06:18Z</time>
      </trkpt>
      <trkpt lat="48.56743" lon="-0.4724">
        <ele>258.8</ele>
        <time>2012-02-04T14:06:19Z</time>
      </trkpt>
      <trkpt lat="48.56742" lon="-0.47233">
        <ele>258.6</ele>
        <time>2012-02-04T14:06:20Z</time>
      </trkpt>
      <trkpt lat="48.56739" lon="-0.47226">
        <ele>258.4</ele>
        <time>2012-02-04T14:06:21Z</time>
      </trkpt>
      <trkpt lat="48.56737" lon="-0.47219">
        <ele>258.3</ele>
        <time>2012-02-04T14:06:22Z</time>
      </trkpt>
      <trkpt lat="48.56736" lon="-0.47213">
        <ele>258.3</ele>
        <time>2012-02-04T14:06:23Z</time>
      </trkpt>
      <trkpt lat="48.56732" lon="-0.47201">
        <ele>258.3</ele>
        <time>2012-02-04T14:06:25Z</time>
      </trkpt>
      <trkpt lat="48.56729" lon="-0.47189">
        <ele>258.4</ele>
        <time>2012-02-04T14:06:27Z</time>
      </trkpt>
      <trkpt lat="48.56728" lon="-0.47183">
        <ele>258.5</ele>
        <time>2012-02-04T14:06:28Z</time>
      </trkpt>
      <trkpt lat="48.56724" lon="-0.47171">
        <ele>258.5</ele>
        <time>2012-02-04T14:06:30Z</time>
      </trkpt>
      <trkpt lat="48.56721" lon="-0.47159">
        <ele>258.5</ele>
        <time>2012-02-04T14:06:32Z</time>
      </trkpt>
      <trkpt lat="48.56719" lon="-0.47152">
        <ele>258.6</ele>
        <time>2012-02-04T14:06:33Z</time>
      </trkpt>
      <trkpt lat="48.56716" lon="-0.4714">
        <ele>258.5</ele>
        <time>2012-02-04T14:06:35Z</time>
      </trkpt>
      <trkpt lat="48.56713" lon="-0.47128">
        <ele>258.5</ele>
        <time>2012-02-04T14:06:37Z</time>
      </trkpt>
      <trkpt lat="48.56711" lon="-0.47121">
        <ele>258.5</ele>
        <time>2012-02-04T14:06:38Z</time>
      </trkpt>
      <trkpt lat="48.5671" lon="-0.47114">
        <ele>258.4</ele>
        <time>2012-02-04T14:06:39Z</time>
      </trkpt>
      <trkpt lat="48.56708" lon="-0.47107">
        <ele>258.3</ele>
        <time>2012-02-04T14:06:40Z</time>
      </trkpt>
      <trkpt lat="48.56706" lon="-0.47099">
        <ele>258.3</ele>
        <time>2012-02-04T14:06:41Z</time>
      </trkpt>
      <trkpt lat="48.56704" lon="-0.47092">
        <ele>258.4</ele>
        <time>2012-02-04T14:06:42Z</time>
      </trkpt>
      <trkpt lat="48.56701" lon="-0.47086">
        <ele>258.4</ele>
        <time>2012-02-04T14:06:43Z</time>
      </trkpt>
      <trkpt lat="48.56698" lon="-0.47079">
        <ele>258.5</ele>
        <time>2012-02-04T14:06:44Z</time>
      </trkpt>
      <trkpt lat="48.56696" lon="-0.47072">
        <ele>258.6</ele>
        <time>2012-02-04T14:06:45Z</time>
      </trkpt>
      <trkpt lat="48.56694" lon="-0.47066">
        <ele>258.6</ele>
        <time>2012-02-04T14:06:46Z</time>
      </trkpt>
      <trkpt lat="48.56692" lon="-0.47059">
        <ele>258.6</ele>
        <time>2012-02-04T14:06:47Z</time>
      </trkpt>
      <trkpt lat="48.56689" lon="-0.47051">
        <ele>258.5</ele>
        <time>2012-02-04T14:06:48Z</time>
      </trkpt>
      <trkpt lat="48.56686" lon="-0.47043">
        <ele>258.6</ele>
        <time>2012-02-04T14:06:49Z</time>
      </trkpt>
      <trkpt lat="48.56684" lon="-0.47036">
        <ele>258.6</ele>
        <time>2012-02-04T14:06:50Z</time>
      </trkpt>
      <trkpt lat="48.56682" lon="-0.47028">
        <ele>258.7</ele>
        <time>2012-02-04T14:06:51Z</time>
      </trkpt>
      <trkpt lat="48.5668" lon="-0.47021">
        <ele>258.7</ele>
        <time>2012-02-04T14:06:52Z</time>
      </trkpt>
      <trkpt lat="48.56677" lon="-0.47013">
        <ele>258.7</ele>
        <time>2012-02-04T14:06:53Z</time>
      </trkpt>
      <trkpt lat="48.56675" lon="-0.47006">
        <ele>258.7</ele>
        <time>2012-02-04T14:06:54Z</time>
      </trkpt>
      <trkpt lat="48.56673" lon="-0.46999">
        <ele>258.6</ele>
        <time>2012-02-04T14:06:55Z</time>
      </trkpt>
      <trkpt lat="48.56671" lon="-0.46991">
        <ele>258.5</ele>
        <time>2012-02-04T14:06:56Z</time>
      </trkpt>
      <trkpt lat="48.56669" lon="-0.46982">
        <ele>258.4</ele>
        <time>2012-02-04T14:06:57Z</time>
      </trkpt>
      <trkpt lat="48.56666" lon="-0.46975">
        <ele>258.5</ele>
        <time>2012-02-04T14:06:58Z</time>
      </trkpt>
      <trkpt lat="48.56664" lon="-0.46968">
        <ele>258.5</ele>
        <time>2012-02-04T14:06:59Z</time>
      </trkpt>
      <trkpt lat="48.56661" lon="-0.46961">
        <ele>258.7</ele>
        <time>2012-02-04T14:07:00Z</time>
      </trkpt>
      <trkpt lat="48.56659" lon="-0.46954">
        <ele>258.9</ele>
        <time>2012-02-04T14:07:01Z</time>
      </trkpt>
      <trkpt lat="48.56657" lon="-0.46946">
        <ele>259.1</ele>
        <time>2012-02-04T14:07:02Z</time>
      </trkpt>
      <trkpt lat="48.56654" lon="-0.46939">
        <ele>258.6</ele>
        <time>2012-02-04T14:07:03Z</time>
      </trkpt>
      <trkpt lat="48.56652" lon="-0.46931">
        <ele>258.3</ele>
        <time>2012-02-04T14:07:04Z</time>
      </trkpt>
      <trkpt lat="48.5665" lon="-0.46923">
        <ele>258.2</ele>
        <time>2012-02-04T14:07:05Z</time>
      </trkpt>
      <trkpt lat="48.56647" lon="-0.46915">
        <ele>258.1</ele>
        <time>2012-02-04T14:07:06Z</time>
      </trkpt>
      <trkpt lat="48.56644" lon="-0.46907">
        <ele>258.1</ele>
        <time>2012-02-04T14:07:07Z</time>
      </trkpt>
      <trkpt lat="48.56642" lon="-0.46898">
        <ele>258.2</ele>
        <time>2012-02-04T14:07:08Z</time>
      </trkpt>
      <trkpt lat="48.5664" lon="-0.46889">
        <ele>258.2</ele>
        <time>2012-02-04T14:07:09Z</time>
      </trkpt>
      <trkpt lat="48.56638" lon="-0.46881">
        <ele>258.1</ele>
        <time>2012-02-04T14:07:10Z</time>
      </trkpt>
      <trkpt lat="48.56636" lon="-0.46873">
        <ele>258</ele>
        <time>2012-02-04T14:07:11Z</time>
      </trkpt>
      <trkpt lat="48.56634" lon="-0.46864">
        <ele>258</ele>
        <time>2012-02-04T14:07:12Z</time>
      </trkpt>
      <trkpt lat="48.56631" lon="-0.46856">
        <ele>257.9</ele>
        <time>2012-02-04T14:07:13Z</time>
      </trkpt>
      <trkpt lat="48.56629" lon="-0.46847">
        <ele>257.9</ele>
        <time>2012-02-04T14:07:14Z</time>
      </trkpt>
      <trkpt lat="48.56627" lon="-0.46838">
        <ele>257.6</ele>
        <time>2012-02-04T14:07:15Z</time>
      </trkpt>
      <trkpt lat="48.56624" lon="-0.4683">
        <ele>257.5</ele>
        <time>2012-02-04T14:07:16Z</time>
      </trkpt>
      <trkpt lat="48.56622" lon="-0.46821">
        <ele>257.4</ele>
        <time>2012-02-04T14:07:17Z</time>
      </trkpt>
      <trkpt lat="48.5662" lon="-0.46813">
        <ele>257.4</ele>
        <time>2012-02-04T14:07:18Z</time>
      </trkpt>
      <trkpt lat="48.56618" lon="-0.46805">
        <ele>257.3</ele>
        <time>2012-02-04T14:07:19Z</time>
      </trkpt>
      <trkpt lat="48.56616" lon="-0.46796">
        <ele>256.9</ele>
        <time>2012-02-04T14:07:20Z</time>
      </trkpt>
      <trkpt lat="48.56614" lon="-0.46788">
        <ele>256.5</ele>
        <time>2012-02-04T14:07:21Z</time>
      </trkpt>
      <trkpt lat="48.56612" lon="-0.46779">
        <ele>256.2</ele>
        <time>2012-02-04T14:07:22Z</time>
      </trkpt>
      <trkpt lat="48.5661" lon="-0.46769">
        <ele>256</ele>
        <time>2012-02-04T14:07:23Z</time>
      </trkpt>
      <trkpt lat="48.56608" lon="-0.4676">
        <ele>255.8</ele>
        <time>2012-02-04T14:07:24Z</time>
      </trkpt>
      <trkpt lat="48.56606" lon="-0.46751">
        <ele>255.7</ele>
        <time>2012-02-04T14:07:25Z</time>
      </trkpt>
      <trkpt lat="48.56603" lon="-0.46742">
        <ele>255.6</ele>
        <time>2012-02-04T14:07:26Z</time>
      </trkpt>
      <trkpt lat="48.566" lon="-0.46733">
        <ele>255.5</ele>
        <time>2012-02-04T14:07:27Z</time>
      </trkpt>
      <trkpt lat="48.56598" lon="-0.46725">
        <ele>255.4</ele>
        <time>2012-02-04T14:07:28Z</time>
      </trkpt>
      <trkpt lat="48.56596" lon="-0.46716">
        <ele>255.3</ele>
        <time>2012-02-04T14:07:29Z</time>
      </trkpt>
      <trkpt lat="48.56593" lon="-0.46707">
        <ele>255.2</ele>
        <time>2012-02-04T14:07:30Z</time>
      </trkpt>
      <trkpt lat="48.5659" lon="-0.46698">
        <ele>255</ele>
        <time>2012-02-04T14:07:31Z</time>
      </trkpt>
      <trkpt lat="48.56588" lon="-0.46689">
        <ele>254.8</ele>
        <time>2012-02-04T14:07:32Z</time>
      </trkpt>
      <trkpt lat="48.56586" lon="-0.4668">
        <ele>254.7</ele>
        <time>2012-02-04T14:07:33Z</time>
      </trkpt>
      <trkpt lat="48.56584" lon="-0.46671">
        <ele>254.2</ele>
        <time>2012-02-04T14:07:34Z</time>
      </trkpt>
      <trkpt lat="48.56582" lon="-0.46662">
        <ele>253.9</ele>
        <time>2012-02-04T14:07:35Z</time>
      </trkpt>
      <trkpt lat="48.56579" lon="-0.46653">
        <ele>253.8</ele>
        <time>2012-02-04T14:07:36Z</time>
      </trkpt>
      <trkpt lat="48.56577" lon="-0.46644">
        <ele>253.7</ele>
        <time>2012-02-04T14:07:37Z</time>
      </trkpt>
      <trkpt lat="48.56575" lon="-0.46636">
        <ele>253.7</ele>
        <time>2012-02-04T14:07:38Z</time>
      </trkpt>
      <trkpt lat="48.56573" lon="-0.46627">
        <ele>253.7</ele>
        <time>2012-02-04T14:07:39Z</time>
      </trkpt>
      <trkpt lat="48.56571" lon="-0.46618">
        <ele>253.7</ele>
        <time>2012-02-04T14:07:40Z</time>
      </trkpt>
      <trkpt lat="48.56569" lon="-0.46608">
        <ele>253.5</ele>
        <time>2012-02-04T14:07:41Z</time>
      </trkpt>
      <trkpt lat="48.56568" lon="-0.46599">
        <ele>253.3</ele>
        <time>2012-02-04T14:07:42Z</time>
      </trkpt>
      <trkpt lat="48.56566" lon="-0.4659">
        <ele>253.4</ele>
        <time>2012-02-04T14:07:43Z</time>
      </trkpt>
      <trkpt lat="48.56564" lon="-0.46581">
        <ele>253.4</ele>
        <time>2012-02-04T14:07:44Z</time>
      </trkpt>
      <trkpt lat="48.56562" lon="-0.46573">
        <ele>253.5</ele>
        <time>2012-02-04T14:07:45Z</time>
      </trkpt>
      <trkpt lat="48.5656" lon="-0.46566">
        <ele>253.4</ele>
        <time>2012-02-04T14:07:46Z</time>
      </trkpt>
      <trkpt lat="48.56558" lon="-0.46557">
        <ele>253.4</ele>
        <time>2012-02-04T14:07:47Z</time>
      </trkpt>
      <trkpt lat="48.56556" lon="-0.46549">
        <ele>253</ele>
        <time>2012-02-04T14:07:48Z</time>
      </trkpt>
      <trkpt lat="48.56554" lon="-0.46541">
        <ele>252.7</ele>
        <time>2012-02-04T14:07:49Z</time>
      </trkpt>
      <trkpt lat="48.56552" lon="-0.46533">
        <ele>252.4</ele>
        <time>2012-02-04T14:07:50Z</time>
      </trkpt>
      <trkpt lat="48.56551" lon="-0.46526">
        <ele>252.2</ele>
        <time>2012-02-04T14:07:51Z</time>
      </trkpt>
      <trkpt lat="48.56549" lon="-0.46517">
        <ele>252.1</ele>
        <time>2012-02-04T14:07:52Z</time>
      </trkpt>
      <trkpt lat="48.56547" lon="-0.46509">
        <ele>251.9</ele>
        <time>2012-02-04T14:07:53Z</time>
      </trkpt>
      <trkpt lat="48.56546" lon="-0.46501">
        <ele>251.7</ele>
        <time>2012-02-04T14:07:54Z</time>
      </trkpt>
      <trkpt lat="48.56544" lon="-0.46493">
        <ele>251.6</ele>
        <time>2012-02-04T14:07:55Z</time>
      </trkpt>
      <trkpt lat="48.56542" lon="-0.46485">
        <ele>251.5</ele>
        <time>2012-02-04T14:07:56Z</time>
      </trkpt>
      <trkpt lat="48.5654" lon="-0.46477">
        <ele>251.4</ele>
        <time>2012-02-04T14:07:57Z</time>
      </trkpt>
      <trkpt lat="48.56539" lon="-0.46469">
        <ele>251.3</ele>
        <time>2012-02-04T14:07:58Z</time>
      </trkpt>
      <trkpt lat="48.56537" lon="-0.46461">
        <ele>251.3</ele>
        <time>2012-02-04T14:07:59Z</time>
      </trkpt>
      <trkpt lat="48.56535" lon="-0.46454">
        <ele>251.5</ele>
        <time>2012-02-04T14:08:00Z</time>
      </trkpt>
      <trkpt lat="48.56534" lon="-0.46446">
        <ele>251.7</ele>
        <time>2012-02-04T14:08:01Z</time>
      </trkpt>
      <trkpt lat="48.56532" lon="-0.46438">
        <ele>251.4</ele>
        <time>2012-02-04T14:08:02Z</time>
      </trkpt>
      <trkpt lat="48.5653" lon="-0.4643">
        <ele>251.2</ele>
        <time>2012-02-04T14:08:03Z</time>
      </trkpt>
      <trkpt lat="48.56529" lon="-0.46422">
        <ele>251</ele>
        <time>2012-02-04T14:08:04Z</time>
      </trkpt>
      <trkpt lat="48.56527" lon="-0.46414">
        <ele>251</ele>
        <time>2012-02-04T14:08:05Z</time>
      </trkpt>
      <trkpt lat="48.56525" lon="-0.46406">
        <ele>251</ele>
        <time>2012-02-04T14:08:06Z</time>
      </trkpt>
      <trkpt lat="48.56523" lon="-0.46399">
        <ele>250.9</ele>
        <time>2012-02-04T14:08:07Z</time>
      </trkpt>
      <trkpt lat="48.56521" lon="-0.46391">
        <ele>250.9</ele>
        <time>2012-02-04T14:08:08Z</time>
      </trkpt>
      <trkpt lat="48.56519" lon="-0.46383">
        <ele>250.8</ele>
        <time>2012-02-04T14:08:09Z</time>
      </trkpt>
      <trkpt lat="48.56517" lon="-0.46376">
        <ele>250.7</ele>
        <time>2012-02-04T14:08:10Z</time>
      </trkpt>
      <trkpt lat="48.56515" lon="-0.46369">
        <ele>250.6</ele>
        <time>2012-02-04T14:08:11Z</time>
      </trkpt>
      <trkpt lat="48.56513" lon="-0.46361">
        <ele>250.6</ele>
        <time>2012-02-04T14:08:12Z</time>
      </trkpt>
      <trkpt lat="48.56512" lon="-0.46354">
        <ele>250.6</ele>
        <time>2012-02-04T14:08:13Z</time>
      </trkpt>
      <trkpt lat="48.56511" lon="-0.46347">
        <ele>250.7</ele>
        <time>2012-02-04T14:08:14Z</time>
      </trkpt>
      <trkpt lat="48.56509" lon="-0.46334">
        <ele>250.9</ele>
        <time>2012-02-04T14:08:16Z</time>
      </trkpt>
      <trkpt lat="48.56507" lon="-0.46322">
        <ele>251</ele>
        <time>2012-02-04T14:08:18Z</time>
      </trkpt>
      <trkpt lat="48.56504" lon="-0.4631">
        <ele>250.9</ele>
        <time>2012-02-04T14:08:20Z</time>
      </trkpt>
      <trkpt lat="48.56501" lon="-0.46298">
        <ele>250.2</ele>
        <time>2012-02-04T14:08:22Z</time>
      </trkpt>
      <trkpt lat="48.56499" lon="-0.46291">
        <ele>250</ele>
        <time>2012-02-04T14:08:23Z</time>
      </trkpt>
      <trkpt lat="48.56498" lon="-0.46284">
        <ele>249.7</ele>
        <time>2012-02-04T14:08:24Z</time>
      </trkpt>
      <trkpt lat="48.56497" lon="-0.46277">
        <ele>249.5</ele>
        <time>2012-02-04T14:08:25Z</time>
      </trkpt>
      <trkpt lat="48.56495" lon="-0.4627">
        <ele>249.5</ele>
        <time>2012-02-04T14:08:26Z</time>
      </trkpt>
      <trkpt lat="48.56494" lon="-0.46263">
        <ele>249.5</ele>
        <time>2012-02-04T14:08:27Z</time>
      </trkpt>
      <trkpt lat="48.56492" lon="-0.46256">
        <ele>249.4</ele>
        <time>2012-02-04T14:08:28Z</time>
      </trkpt>
      <trkpt lat="48.56491" lon="-0.46249">
        <ele>249.3</ele>
        <time>2012-02-04T14:08:29Z</time>
      </trkpt>
      <trkpt lat="48.56489" lon="-0.46242">
        <ele>249.2</ele>
        <time>2012-02-04T14:08:30Z</time>
      </trkpt>
      <trkpt lat="48.56488" lon="-0.46235">
        <ele>249.1</ele>
        <time>2012-02-04T14:08:31Z</time>
      </trkpt>
      <trkpt lat="48.56487" lon="-0.46228">
        <ele>249.1</ele>
        <time>2012-02-04T14:08:32Z</time>
      </trkpt>
      <trkpt lat="48.56485" lon="-0.4622">
        <ele>249.1</ele>
        <time>2012-02-04T14:08:33Z</time>
      </trkpt>
      <trkpt lat="48.56484" lon="-0.46213">
        <ele>249.1</ele>
        <time>2012-02-04T14:08:34Z</time>
      </trkpt>
      <trkpt lat="48.56482" lon="-0.46205">
        <ele>249</ele>
        <time>2012-02-04T14:08:35Z</time>
      </trkpt>
      <trkpt lat="48.5648" lon="-0.46197">
        <ele>248.9</ele>
        <time>2012-02-04T14:08:36Z</time>
      </trkpt>
      <trkpt lat="48.56479" lon="-0.4619">
        <ele>248.9</ele>
        <time>2012-02-04T14:08:37Z</time>
      </trkpt>
      <trkpt lat="48.56477" lon="-0.46182">
        <ele>248.8</ele>
        <time>2012-02-04T14:08:38Z</time>
      </trkpt>
      <trkpt lat="48.56476" lon="-0.46175">
        <ele>248.8</ele>
        <time>2012-02-04T14:08:39Z</time>
      </trkpt>
      <trkpt lat="48.56474" lon="-0.46168">
        <ele>249</ele>
        <time>2012-02-04T14:08:40Z</time>
      </trkpt>
      <trkpt lat="48.56472" lon="-0.46161">
        <ele>249.1</ele>
        <time>2012-02-04T14:08:41Z</time>
      </trkpt>
      <trkpt lat="48.56471" lon="-0.46154">
        <ele>249.2</ele>
        <time>2012-02-04T14:08:42Z</time>
      </trkpt>
      <trkpt lat="48.56469" lon="-0.46147">
        <ele>248.9</ele>
        <time>2012-02-04T14:08:43Z</time>
      </trkpt>
      <trkpt lat="48.56467" lon="-0.4614">
        <ele>248.6</ele>
        <time>2012-02-04T14:08:44Z</time>
      </trkpt>
      <trkpt lat="48.56465" lon="-0.46133">
        <ele>248.4</ele>
        <time>2012-02-04T14:08:45Z</time>
      </trkpt>
      <trkpt lat="48.56464" lon="-0.46126">
        <ele>248.3</ele>
        <time>2012-02-04T14:08:46Z</time>
      </trkpt>
      <trkpt lat="48.56463" lon="-0.46119">
        <ele>248.5</ele>
        <time>2012-02-04T14:08:47Z</time>
      </trkpt>
      <trkpt lat="48.56461" lon="-0.46112">
        <ele>248.6</ele>
        <time>2012-02-04T14:08:48Z</time>
      </trkpt>
      <trkpt lat="48.5646" lon="-0.46105">
        <ele>248.7</ele>
        <time>2012-02-04T14:08:49Z</time>
      </trkpt>
      <trkpt lat="48.56458" lon="-0.46097">
        <ele>249</ele>
        <time>2012-02-04T14:08:50Z</time>
      </trkpt>
      <trkpt lat="48.56456" lon="-0.4609">
        <ele>249.2</ele>
        <time>2012-02-04T14:08:51Z</time>
      </trkpt>
      <trkpt lat="48.56455" lon="-0.46082">
        <ele>249.1</ele>
        <time>2012-02-04T14:08:52Z</time>
      </trkpt>
      <trkpt lat="48.56453" lon="-0.46075">
        <ele>249</ele>
        <time>2012-02-04T14:08:53Z</time>
      </trkpt>
      <trkpt lat="48.56451" lon="-0.46067">
        <ele>249.2</ele>
        <time>2012-02-04T14:08:54Z</time>
      </trkpt>
      <trkpt lat="48.56449" lon="-0.4606">
        <ele>249.4</ele>
        <time>2012-02-04T14:08:55Z</time>
      </trkpt>
      <trkpt lat="48.56447" lon="-0.46053">
        <ele>249.5</ele>
        <time>2012-02-04T14:08:56Z</time>
      </trkpt>
      <trkpt lat="48.56446" lon="-0.46045">
        <ele>249.2</ele>
        <time>2012-02-04T14:08:57Z</time>
      </trkpt>
      <trkpt lat="48.56444" lon="-0.46038">
        <ele>249</ele>
        <time>2012-02-04T14:08:58Z</time>
      </trkpt>
      <trkpt lat="48.56443" lon="-0.46032">
        <ele>248.6</ele>
        <time>2012-02-04T14:08:59Z</time>
      </trkpt>
      <trkpt lat="48.56441" lon="-0.46025">
        <ele>248.3</ele>
        <time>2012-02-04T14:09:00Z</time>
      </trkpt>
      <trkpt lat="48.56439" lon="-0.46018">
        <ele>248.1</ele>
        <time>2012-02-04T14:09:01Z</time>
      </trkpt>
      <trkpt lat="48.56435" lon="-0.46006">
        <ele>247.8</ele>
        <time>2012-02-04T14:09:03Z</time>
      </trkpt>
      <trkpt lat="48.56434" lon="-0.45999">
        <ele>247.8</ele>
        <time>2012-02-04T14:09:04Z</time>
      </trkpt>
      <trkpt lat="48.56433" lon="-0.45992">
        <ele>247.7</ele>
        <time>2012-02-04T14:09:05Z</time>
      </trkpt>
      <trkpt lat="48.56431" lon="-0.45985">
        <ele>247.4</ele>
        <time>2012-02-04T14:09:06Z</time>
      </trkpt>
      <trkpt lat="48.5643" lon="-0.45978">
        <ele>247.2</ele>
        <time>2012-02-04T14:09:07Z</time>
      </trkpt>
      <trkpt lat="48.56429" lon="-0.45971">
        <ele>247</ele>
        <time>2012-02-04T14:09:08Z</time>
      </trkpt>
      <trkpt lat="48.56427" lon="-0.45965">
        <ele>247.1</ele>
        <time>2012-02-04T14:09:09Z</time>
      </trkpt>
      <trkpt lat="48.56425" lon="-0.45958">
        <ele>247.2</ele>
        <time>2012-02-04T14:09:10Z</time>
      </trkpt>
      <trkpt lat="48.56424" lon="-0.45952">
        <ele>246.9</ele>
        <time>2012-02-04T14:09:11Z</time>
      </trkpt>
      <trkpt lat="48.56423" lon="-0.45945">
        <ele>246.7</ele>
        <time>2012-02-04T14:09:12Z</time>
      </trkpt>
      <trkpt lat="48.56422" lon="-0.45938">
        <ele>246.8</ele>
        <time>2012-02-04T14:09:13Z</time>
      </trkpt>
      <trkpt lat="48.56419" lon="-0.45925">
        <ele>246.9</ele>
        <time>2012-02-04T14:09:15Z</time>
      </trkpt>
      <trkpt lat="48.56417" lon="-0.45912">
        <ele>246.6</ele>
        <time>2012-02-04T14:09:17Z</time>
      </trkpt>
      <trkpt lat="48.56414" lon="-0.459">
        <ele>246.3</ele>
        <time>2012-02-04T14:09:19Z</time>
      </trkpt>
      <trkpt lat="48.56412" lon="-0.45887">
        <ele>246.2</ele>
        <time>2012-02-04T14:09:21Z</time>
      </trkpt>
      <trkpt lat="48.56409" lon="-0.45875">
        <ele>246.3</ele>
        <time>2012-02-04T14:09:23Z</time>
      </trkpt>
      <trkpt lat="48.56407" lon="-0.45861">
        <ele>246.7</ele>
        <time>2012-02-04T14:09:25Z</time>
      </trkpt>
      <trkpt lat="48.56405" lon="-0.45849">
        <ele>247</ele>
        <time>2012-02-04T14:09:27Z</time>
      </trkpt>
      <trkpt lat="48.56402" lon="-0.45837">
        <ele>246.7</ele>
        <time>2012-02-04T14:09:29Z</time>
      </trkpt>
      <trkpt lat="48.56399" lon="-0.45825">
        <ele>247</ele>
        <time>2012-02-04T14:09:31Z</time>
      </trkpt>
      <trkpt lat="48.56397" lon="-0.45819">
        <ele>246.8</ele>
        <time>2012-02-04T14:09:32Z</time>
      </trkpt>
      <trkpt lat="48.56395" lon="-0.45813">
        <ele>246.8</ele>
        <time>2012-02-04T14:09:33Z</time>
      </trkpt>
      <trkpt lat="48.56394" lon="-0.45805">
        <ele>246.7</ele>
        <time>2012-02-04T14:09:34Z</time>
      </trkpt>
      <trkpt lat="48.56392" lon="-0.45798">
        <ele>246.7</ele>
        <time>2012-02-04T14:09:35Z</time>
      </trkpt>
      <trkpt lat="48.5639" lon="-0.45791">
        <ele>246.7</ele>
        <time>2012-02-04T14:09:36Z</time>
      </trkpt>
      <trkpt lat="48.5639" lon="-0.45778">
        <ele>246.3</ele>
        <time>2012-02-04T14:09:38Z</time>
      </trkpt>
      <trkpt lat="48.5639" lon="-0.45766">
        <ele>246.4</ele>
        <time>2012-02-04T14:09:40Z</time>
      </trkpt>
      <trkpt lat="48.56389" lon="-0.4576">
        <ele>246.4</ele>
        <time>2012-02-04T14:09:41Z</time>
      </trkpt>
      <trkpt lat="48.56389" lon="-0.45752">
        <ele>246</ele>
        <time>2012-02-04T14:09:42Z</time>
      </trkpt>
      <trkpt lat="48.56386" lon="-0.45746">
        <ele>245.8</ele>
        <time>2012-02-04T14:09:43Z</time>
      </trkpt>
      <trkpt lat="48.56385" lon="-0.45739">
        <ele>245.6</ele>
        <time>2012-02-04T14:09:44Z</time>
      </trkpt>
      <trkpt lat="48.56383" lon="-0.45731">
        <ele>245.5</ele>
        <time>2012-02-04T14:09:45Z</time>
      </trkpt>
      <trkpt lat="48.56382" lon="-0.45724">
        <ele>245.4</ele>
        <time>2012-02-04T14:09:46Z</time>
      </trkpt>
      <trkpt lat="48.5638" lon="-0.45716">
        <ele>245.3</ele>
        <time>2012-02-04T14:09:47Z</time>
      </trkpt>
      <trkpt lat="48.56378" lon="-0.45708">
        <ele>245.2</ele>
        <time>2012-02-04T14:09:48Z</time>
      </trkpt>
      <trkpt lat="48.56376" lon="-0.45699">
        <ele>245.3</ele>
        <time>2012-02-04T14:09:49Z</time>
      </trkpt>
      <trkpt lat="48.56374" lon="-0.4569">
        <ele>245.3</ele>
        <time>2012-02-04T14:09:50Z</time>
      </trkpt>
      <trkpt lat="48.56372" lon="-0.45681">
        <ele>245.3</ele>
        <time>2012-02-04T14:09:51Z</time>
      </trkpt>
      <trkpt lat="48.56369" lon="-0.45671">
        <ele>245.2</ele>
        <time>2012-02-04T14:09:52Z</time>
      </trkpt>
      <trkpt lat="48.56366" lon="-0.45662">
        <ele>245.2</ele>
        <time>2012-02-04T14:09:53Z</time>
      </trkpt>
      <trkpt lat="48.56364" lon="-0.45652">
        <ele>245</ele>
        <time>2012-02-04T14:09:54Z</time>
      </trkpt>
      <trkpt lat="48.56361" lon="-0.45643">
        <ele>244.8</ele>
        <time>2012-02-04T14:09:55Z</time>
      </trkpt>
      <trkpt lat="48.56358" lon="-0.45633">
        <ele>244.8</ele>
        <time>2012-02-04T14:09:56Z</time>
      </trkpt>
      <trkpt lat="48.56355" lon="-0.45624">
        <ele>244.8</ele>
        <time>2012-02-04T14:09:57Z</time>
      </trkpt>
      <trkpt lat="48.56353" lon="-0.45615">
        <ele>245</ele>
        <time>2012-02-04T14:09:58Z</time>
      </trkpt>
      <trkpt lat="48.5635" lon="-0.45605">
        <ele>245.2</ele>
        <time>2012-02-04T14:09:59Z</time>
      </trkpt>
      <trkpt lat="48.56348" lon="-0.45596">
        <ele>245.4</ele>
        <time>2012-02-04T14:10:00Z</time>
      </trkpt>
      <trkpt lat="48.56345" lon="-0.45587">
        <ele>245</ele>
        <time>2012-02-04T14:10:01Z</time>
      </trkpt>
      <trkpt lat="48.56342" lon="-0.45578">
        <ele>244.6</ele>
        <time>2012-02-04T14:10:02Z</time>
      </trkpt>
      <trkpt lat="48.5634" lon="-0.45569">
        <ele>244.6</ele>
        <time>2012-02-04T14:10:03Z</time>
      </trkpt>
      <trkpt lat="48.56338" lon="-0.4556">
        <ele>244.6</ele>
        <time>2012-02-04T14:10:04Z</time>
      </trkpt>
      <trkpt lat="48.56335" lon="-0.45551">
        <ele>244.6</ele>
        <time>2012-02-04T14:10:05Z</time>
      </trkpt>
      <trkpt lat="48.56333" lon="-0.45542">
        <ele>244.7</ele>
        <time>2012-02-04T14:10:06Z</time>
      </trkpt>
      <trkpt lat="48.56331" lon="-0.45533">
        <ele>244.8</ele>
        <time>2012-02-04T14:10:07Z</time>
      </trkpt>
      <trkpt lat="48.56329" lon="-0.45524">
        <ele>244.8</ele>
        <time>2012-02-04T14:10:08Z</time>
      </trkpt>
      <trkpt lat="48.56326" lon="-0.45515">
        <ele>244.8</ele>
        <time>2012-02-04T14:10:09Z</time>
      </trkpt>
      <trkpt lat="48.56324" lon="-0.45507">
        <ele>244.8</ele>
        <time>2012-02-04T14:10:10Z</time>
      </trkpt>
      <trkpt lat="48.56322" lon="-0.45497">
        <ele>244.8</ele>
        <time>2012-02-04T14:10:11Z</time>
      </trkpt>
      <trkpt lat="48.5632" lon="-0.45488">
        <ele>244.7</ele>
        <time>2012-02-04T14:10:12Z</time>
      </trkpt>
      <trkpt lat="48.56318" lon="-0.4548">
        <ele>244.8</ele>
        <time>2012-02-04T14:10:13Z</time>
      </trkpt>
      <trkpt lat="48.56316" lon="-0.45472">
        <ele>244.8</ele>
        <time>2012-02-04T14:10:14Z</time>
      </trkpt>
      <trkpt lat="48.56313" lon="-0.45463">
        <ele>244.1</ele>
        <time>2012-02-04T14:10:15Z</time>
      </trkpt>
      <trkpt lat="48.56311" lon="-0.45454">
        <ele>243.7</ele>
        <time>2012-02-04T14:10:16Z</time>
      </trkpt>
      <trkpt lat="48.56309" lon="-0.45446">
        <ele>243.9</ele>
        <time>2012-02-04T14:10:17Z</time>
      </trkpt>
      <trkpt lat="48.56307" lon="-0.45437">
        <ele>244.1</ele>
        <time>2012-02-04T14:10:18Z</time>
      </trkpt>
      <trkpt lat="48.56305" lon="-0.45429">
        <ele>244.3</ele>
        <time>2012-02-04T14:10:19Z</time>
      </trkpt>
      <trkpt lat="48.56303" lon="-0.4542">
        <ele>244.1</ele>
        <time>2012-02-04T14:10:20Z</time>
      </trkpt>
      <trkpt lat="48.56301" lon="-0.45412">
        <ele>244</ele>
        <time>2012-02-04T14:10:21Z</time>
      </trkpt>
      <trkpt lat="48.56299" lon="-0.45404">
        <ele>243.6</ele>
        <time>2012-02-04T14:10:22Z</time>
      </trkpt>
      <trkpt lat="48.56297" lon="-0.45395">
        <ele>243.4</ele>
        <time>2012-02-04T14:10:23Z</time>
      </trkpt>
      <trkpt lat="48.56295" lon="-0.45387">
        <ele>243.2</ele>
        <time>2012-02-04T14:10:24Z</time>
      </trkpt>
      <trkpt lat="48.56293" lon="-0.45379">
        <ele>243.3</ele>
        <time>2012-02-04T14:10:25Z</time>
      </trkpt>
      <trkpt lat="48.56291" lon="-0.45371">
        <ele>243.5</ele>
        <time>2012-02-04T14:10:26Z</time>
      </trkpt>
      <trkpt lat="48.56289" lon="-0.45363">
        <ele>243.4</ele>
        <time>2012-02-04T14:10:27Z</time>
      </trkpt>
      <trkpt lat="48.56288" lon="-0.45355">
        <ele>243.4</ele>
        <time>2012-02-04T14:10:28Z</time>
      </trkpt>
      <trkpt lat="48.56286" lon="-0.45347">
        <ele>243.1</ele>
        <time>2012-02-04T14:10:29Z</time>
      </trkpt>
      <trkpt lat="48.56284" lon="-0.45339">
        <ele>242.8</ele>
        <time>2012-02-04T14:10:30Z</time>
      </trkpt>
      <trkpt lat="48.56283" lon="-0.45331">
        <ele>242.6</ele>
        <time>2012-02-04T14:10:31Z</time>
      </trkpt>
      <trkpt lat="48.56281" lon="-0.45323">
        <ele>242.9</ele>
        <time>2012-02-04T14:10:32Z</time>
      </trkpt>
      <trkpt lat="48.56279" lon="-0.45315">
        <ele>243.2</ele>
        <time>2012-02-04T14:10:33Z</time>
      </trkpt>
      <trkpt lat="48.56277" lon="-0.45307">
        <ele>243</ele>
        <time>2012-02-04T14:10:34Z</time>
      </trkpt>
      <trkpt lat="48.56276" lon="-0.45299">
        <ele>242.9</ele>
        <time>2012-02-04T14:10:35Z</time>
      </trkpt>
      <trkpt lat="48.56274" lon="-0.45291">
        <ele>242.8</ele>
        <time>2012-02-04T14:10:36Z</time>
      </trkpt>
      <trkpt lat="48.56272" lon="-0.45282">
        <ele>242.8</ele>
        <time>2012-02-04T14:10:37Z</time>
      </trkpt>
      <trkpt lat="48.5627" lon="-0.45274">
        <ele>242.8</ele>
        <time>2012-02-04T14:10:38Z</time>
      </trkpt>
      <trkpt lat="48.56268" lon="-0.45265">
        <ele>242.8</ele>
        <time>2012-02-04T14:10:39Z</time>
      </trkpt>
      <trkpt lat="48.56266" lon="-0.45257">
        <ele>242.8</ele>
        <time>2012-02-04T14:10:40Z</time>
      </trkpt>
      <trkpt lat="48.56264" lon="-0.45249">
        <ele>243</ele>
        <time>2012-02-04T14:10:41Z</time>
      </trkpt>
      <trkpt lat="48.56263" lon="-0.4524">
        <ele>243.1</ele>
        <time>2012-02-04T14:10:42Z</time>
      </trkpt>
      <trkpt lat="48.56261" lon="-0.45232">
        <ele>243.2</ele>
        <time>2012-02-04T14:10:43Z</time>
      </trkpt>
      <trkpt lat="48.56259" lon="-0.45224">
        <ele>243.3</ele>
        <time>2012-02-04T14:10:44Z</time>
      </trkpt>
      <trkpt lat="48.56257" lon="-0.45216">
        <ele>243.4</ele>
        <time>2012-02-04T14:10:45Z</time>
      </trkpt>
      <trkpt lat="48.56255" lon="-0.45207">
        <ele>243.3</ele>
        <time>2012-02-04T14:10:46Z</time>
      </trkpt>
      <trkpt lat="48.56254" lon="-0.45199">
        <ele>243.3</ele>
        <time>2012-02-04T14:10:47Z</time>
      </trkpt>
      <trkpt lat="48.56252" lon="-0.45191">
        <ele>243.5</ele>
        <time>2012-02-04T14:10:48Z</time>
      </trkpt>
      <trkpt lat="48.5625" lon="-0.45183">
        <ele>243.6</ele>
        <time>2012-02-04T14:10:49Z</time>
      </trkpt>
      <trkpt lat="48.56248" lon="-0.45175">
        <ele>243.7</ele>
        <time>2012-02-04T14:10:50Z</time>
      </trkpt>
      <trkpt lat="48.56247" lon="-0.45167">
        <ele>243.4</ele>
        <time>2012-02-04T14:10:51Z</time>
      </trkpt>
      <trkpt lat="48.56245" lon="-0.45158">
        <ele>243.1</ele>
        <time>2012-02-04T14:10:52Z</time>
      </trkpt>
      <trkpt lat="48.56243" lon="-0.4515">
        <ele>242.9</ele>
        <time>2012-02-04T14:10:53Z</time>
      </trkpt>
      <trkpt lat="48.56241" lon="-0.45142">
        <ele>242.7</ele>
        <time>2012-02-04T14:10:54Z</time>
      </trkpt>
      <trkpt lat="48.5624" lon="-0.45134">
        <ele>242.6</ele>
        <time>2012-02-04T14:10:55Z</time>
      </trkpt>
      <trkpt lat="48.56238" lon="-0.45125">
        <ele>242.5</ele>
        <time>2012-02-04T14:10:56Z</time>
      </trkpt>
      <trkpt lat="48.56236" lon="-0.45117">
        <ele>242.5</ele>
        <time>2012-02-04T14:10:57Z</time>
      </trkpt>
      <trkpt lat="48.56234" lon="-0.45109">
        <ele>242.2</ele>
        <time>2012-02-04T14:10:58Z</time>
      </trkpt>
      <trkpt lat="48.56232" lon="-0.45101">
        <ele>242.1</ele>
        <time>2012-02-04T14:10:59Z</time>
      </trkpt>
      <trkpt lat="48.56231" lon="-0.45093">
        <ele>241.9</ele>
        <time>2012-02-04T14:11:00Z</time>
      </trkpt>
      <trkpt lat="48.56229" lon="-0.45085">
        <ele>241.8</ele>
        <time>2012-02-04T14:11:01Z</time>
      </trkpt>
      <trkpt lat="48.56227" lon="-0.45077">
        <ele>241.7</ele>
        <time>2012-02-04T14:11:02Z</time>
      </trkpt>
      <trkpt lat="48.56226" lon="-0.45069">
        <ele>241.8</ele>
        <time>2012-02-04T14:11:03Z</time>
      </trkpt>
      <trkpt lat="48.56224" lon="-0.45061">
        <ele>241.8</ele>
        <time>2012-02-04T14:11:04Z</time>
      </trkpt>
      <trkpt lat="48.56222" lon="-0.45053">
        <ele>242.1</ele>
        <time>2012-02-04T14:11:05Z</time>
      </trkpt>
      <trkpt lat="48.5622" lon="-0.45045">
        <ele>242.3</ele>
        <time>2012-02-04T14:11:06Z</time>
      </trkpt>
      <trkpt lat="48.56219" lon="-0.45038">
        <ele>242.3</ele>
        <time>2012-02-04T14:11:07Z</time>
      </trkpt>
      <trkpt lat="48.56217" lon="-0.4503">
        <ele>242.2</ele>
        <time>2012-02-04T14:11:08Z</time>
      </trkpt>
      <trkpt lat="48.56215" lon="-0.45022">
        <ele>242.2</ele>
        <time>2012-02-04T14:11:09Z</time>
      </trkpt>
      <trkpt lat="48.56213" lon="-0.45015">
        <ele>242.1</ele>
        <time>2012-02-04T14:11:10Z</time>
      </trkpt>
      <trkpt lat="48.56212" lon="-0.45007">
        <ele>242.1</ele>
        <time>2012-02-04T14:11:11Z</time>
      </trkpt>
      <trkpt lat="48.5621" lon="-0.44999">
        <ele>241.7</ele>
        <time>2012-02-04T14:11:12Z</time>
      </trkpt>
      <trkpt lat="48.56208" lon="-0.44992">
        <ele>241.4</ele>
        <time>2012-02-04T14:11:13Z</time>
      </trkpt>
      <trkpt lat="48.56207" lon="-0.44984">
        <ele>241.7</ele>
        <time>2012-02-04T14:11:14Z</time>
      </trkpt>
      <trkpt lat="48.56205" lon="-0.44977">
        <ele>241.9</ele>
        <time>2012-02-04T14:11:15Z</time>
      </trkpt>
      <trkpt lat="48.56203" lon="-0.44969">
        <ele>242.1</ele>
        <time>2012-02-04T14:11:16Z</time>
      </trkpt>
      <trkpt lat="48.56202" lon="-0.44961">
        <ele>242.4</ele>
        <time>2012-02-04T14:11:17Z</time>
      </trkpt>
      <trkpt lat="48.562" lon="-0.44954">
        <ele>242.7</ele>
        <time>2012-02-04T14:11:18Z</time>
      </trkpt>
      <trkpt lat="48.56198" lon="-0.44946">
        <ele>242.5</ele>
        <time>2012-02-04T14:11:19Z</time>
      </trkpt>
      <trkpt lat="48.56196" lon="-0.44938">
        <ele>242.3</ele>
        <time>2012-02-04T14:11:20Z</time>
      </trkpt>
      <trkpt lat="48.56195" lon="-0.44931">
        <ele>242.2</ele>
        <time>2012-02-04T14:11:21Z</time>
      </trkpt>
      <trkpt lat="48.56193" lon="-0.44924">
        <ele>242</ele>
        <time>2012-02-04T14:11:22Z</time>
      </trkpt>
      <trkpt lat="48.56192" lon="-0.44916">
        <ele>241.9</ele>
        <time>2012-02-04T14:11:23Z</time>
      </trkpt>
      <trkpt lat="48.5619" lon="-0.44909">
        <ele>241.6</ele>
        <time>2012-02-04T14:11:24Z</time>
      </trkpt>
      <trkpt lat="48.56188" lon="-0.44902">
        <ele>241.4</ele>
        <time>2012-02-04T14:11:25Z</time>
      </trkpt>
      <trkpt lat="48.56187" lon="-0.44895">
        <ele>241.5</ele>
        <time>2012-02-04T14:11:26Z</time>
      </trkpt>
      <trkpt lat="48.56185" lon="-0.44888">
        <ele>241.6</ele>
        <time>2012-02-04T14:11:27Z</time>
      </trkpt>
      <trkpt lat="48.56184" lon="-0.4488">
        <ele>241.7</ele>
        <time>2012-02-04T14:11:28Z</time>
      </trkpt>
      <trkpt lat="48.56182" lon="-0.44873">
        <ele>241.7</ele>
        <time>2012-02-04T14:11:29Z</time>
      </trkpt>
      <trkpt lat="48.5618" lon="-0.44866">
        <ele>241.7</ele>
        <time>2012-02-04T14:11:30Z</time>
      </trkpt>
      <trkpt lat="48.56178" lon="-0.44859">
        <ele>241.4</ele>
        <time>2012-02-04T14:11:31Z</time>
      </trkpt>
      <trkpt lat="48.56176" lon="-0.44852">
        <ele>241.2</ele>
        <time>2012-02-04T14:11:32Z</time>
      </trkpt>
      <trkpt lat="48.56175" lon="-0.44845">
        <ele>241.5</ele>
        <time>2012-02-04T14:11:33Z</time>
      </trkpt>
      <trkpt lat="48.56173" lon="-0.44837">
        <ele>241.7</ele>
        <time>2012-02-04T14:11:34Z</time>
      </trkpt>
      <trkpt lat="48.56171" lon="-0.4483">
        <ele>241.8</ele>
        <time>2012-02-04T14:11:35Z</time>
      </trkpt>
      <trkpt lat="48.5617" lon="-0.44823">
        <ele>242.1</ele>
        <time>2012-02-04T14:11:36Z</time>
      </trkpt>
      <trkpt lat="48.56168" lon="-0.44815">
        <ele>242.2</ele>
        <time>2012-02-04T14:11:37Z</time>
      </trkpt>
      <trkpt lat="48.56166" lon="-0.44808">
        <ele>242.2</ele>
        <time>2012-02-04T14:11:38Z</time>
      </trkpt>
      <trkpt lat="48.56165" lon="-0.44801">
        <ele>242.2</ele>
        <time>2012-02-04T14:11:39Z</time>
      </trkpt>
      <trkpt lat="48.56163" lon="-0.44794">
        <ele>242.2</ele>
        <time>2012-02-04T14:11:40Z</time>
      </trkpt>
      <trkpt lat="48.56161" lon="-0.44787">
        <ele>242.2</ele>
        <time>2012-02-04T14:11:41Z</time>
      </trkpt>
      <trkpt lat="48.5616" lon="-0.44781">
        <ele>242.2</ele>
        <time>2012-02-04T14:11:42Z</time>
      </trkpt>
      <trkpt lat="48.56158" lon="-0.44774">
        <ele>242.5</ele>
        <time>2012-02-04T14:11:43Z</time>
      </trkpt>
      <trkpt lat="48.56155" lon="-0.44761">
        <ele>242.7</ele>
        <time>2012-02-04T14:11:45Z</time>
      </trkpt>
      <trkpt lat="48.56154" lon="-0.44755">
        <ele>242.6</ele>
        <time>2012-02-04T14:11:46Z</time>
      </trkpt>
      <trkpt lat="48.56152" lon="-0.44748">
        <ele>242.5</ele>
        <time>2012-02-04T14:11:47Z</time>
      </trkpt>
      <trkpt lat="48.5615" lon="-0.44742">
        <ele>242.7</ele>
        <time>2012-02-04T14:11:48Z</time>
      </trkpt>
      <trkpt lat="48.56149" lon="-0.44735">
        <ele>242.8</ele>
        <time>2012-02-04T14:11:49Z</time>
      </trkpt>
      <trkpt lat="48.56147" lon="-0.44728">
        <ele>242.9</ele>
        <time>2012-02-04T14:11:50Z</time>
      </trkpt>
      <trkpt lat="48.56146" lon="-0.44721">
        <ele>243</ele>
        <time>2012-02-04T14:11:51Z</time>
      </trkpt>
      <trkpt lat="48.56144" lon="-0.44714">
        <ele>243.2</ele>
        <time>2012-02-04T14:11:52Z</time>
      </trkpt>
      <trkpt lat="48.56143" lon="-0.44707">
        <ele>243.3</ele>
        <time>2012-02-04T14:11:53Z</time>
      </trkpt>
      <trkpt lat="48.56141" lon="-0.447">
        <ele>243.4</ele>
        <time>2012-02-04T14:11:54Z</time>
      </trkpt>
      <trkpt lat="48.5614" lon="-0.44693">
        <ele>243.5</ele>
        <time>2012-02-04T14:11:55Z</time>
      </trkpt>
      <trkpt lat="48.56138" lon="-0.44686">
        <ele>243.5</ele>
        <time>2012-02-04T14:11:56Z</time>
      </trkpt>
      <trkpt lat="48.56137" lon="-0.44679">
        <ele>243.3</ele>
        <time>2012-02-04T14:11:57Z</time>
      </trkpt>
      <trkpt lat="48.56135" lon="-0.44673">
        <ele>243.1</ele>
        <time>2012-02-04T14:11:58Z</time>
      </trkpt>
      <trkpt lat="48.56134" lon="-0.44666">
        <ele>243</ele>
        <time>2012-02-04T14:11:59Z</time>
      </trkpt>
      <trkpt lat="48.56132" lon="-0.44659">
        <ele>242.9</ele>
        <time>2012-02-04T14:12:00Z</time>
      </trkpt>
      <trkpt lat="48.56131" lon="-0.44652">
        <ele>242.9</ele>
        <time>2012-02-04T14:12:01Z</time>
      </trkpt>
      <trkpt lat="48.56128" lon="-0.44639">
        <ele>242.9</ele>
        <time>2012-02-04T14:12:03Z</time>
      </trkpt>
      <trkpt lat="48.56126" lon="-0.44634">
        <ele>243.2</ele>
        <time>2012-02-04T14:12:04Z</time>
      </trkpt>
      <trkpt lat="48.56118" lon="-0.44621">
        <ele>243.3</ele>
        <time>2012-02-04T14:12:08Z</time>
      </trkpt>
      <trkpt lat="48.5611" lon="-0.44623">
        <ele>243.2</ele>
        <time>2012-02-04T14:12:11Z</time>
      </trkpt>
      <trkpt lat="48.56104" lon="-0.44627">
        <ele>243.3</ele>
        <time>2012-02-04T14:12:13Z</time>
      </trkpt>
      <trkpt lat="48.56097" lon="-0.44633">
        <ele>243.3</ele>
        <time>2012-02-04T14:12:15Z</time>
      </trkpt>
      <trkpt lat="48.5609" lon="-0.44638">
        <ele>242.8</ele>
        <time>2012-02-04T14:12:17Z</time>
      </trkpt>
      <trkpt lat="48.56083" lon="-0.44642">
        <ele>242.2</ele>
        <time>2012-02-04T14:12:19Z</time>
      </trkpt>
      <trkpt lat="48.56076" lon="-0.44647">
        <ele>242</ele>
        <time>2012-02-04T14:12:21Z</time>
      </trkpt>
      <trkpt lat="48.56068" lon="-0.44654">
        <ele>242.1</ele>
        <time>2012-02-04T14:12:23Z</time>
      </trkpt>
      <trkpt lat="48.5606" lon="-0.44658">
        <ele>242</ele>
        <time>2012-02-04T14:12:25Z</time>
      </trkpt>
      <trkpt lat="48.56053" lon="-0.44662">
        <ele>241.6</ele>
        <time>2012-02-04T14:12:27Z</time>
      </trkpt>
      <trkpt lat="48.56046" lon="-0.44667">
        <ele>240.3</ele>
        <time>2012-02-04T14:12:30Z</time>
      </trkpt>
      <trkpt lat="48.56039" lon="-0.4467">
        <ele>239.2</ele>
        <time>2012-02-04T14:12:34Z</time>
      </trkpt>
      <trkpt lat="48.56034" lon="-0.44662">
        <ele>238.4</ele>
        <time>2012-02-04T14:12:37Z</time>
      </trkpt>
      <trkpt lat="48.56032" lon="-0.44654">
        <ele>238.2</ele>
        <time>2012-02-04T14:12:39Z</time>
      </trkpt>
      <trkpt lat="48.5603" lon="-0.44645">
        <ele>238.3</ele>
        <time>2012-02-04T14:12:41Z</time>
      </trkpt>
      <trkpt lat="48.56027" lon="-0.44636">
        <ele>238.6</ele>
        <time>2012-02-04T14:12:43Z</time>
      </trkpt>
      <trkpt lat="48.56025" lon="-0.44628">
        <ele>238.6</ele>
        <time>2012-02-04T14:12:45Z</time>
      </trkpt>
      <trkpt lat="48.56022" lon="-0.44618">
        <ele>238.6</ele>
        <time>2012-02-04T14:12:47Z</time>
      </trkpt>
      <trkpt lat="48.5602" lon="-0.44608">
        <ele>239</ele>
        <time>2012-02-04T14:12:49Z</time>
      </trkpt>
      <trkpt lat="48.56018" lon="-0.44597">
        <ele>239.5</ele>
        <time>2012-02-04T14:12:51Z</time>
      </trkpt>
      <trkpt lat="48.56017" lon="-0.44587">
        <ele>240.1</ele>
        <time>2012-02-04T14:12:53Z</time>
      </trkpt>
      <trkpt lat="48.56016" lon="-0.44577">
        <ele>240.6</ele>
        <time>2012-02-04T14:12:55Z</time>
      </trkpt>
      <trkpt lat="48.56013" lon="-0.44567">
        <ele>240.8</ele>
        <time>2012-02-04T14:12:57Z</time>
      </trkpt>
      <trkpt lat="48.56011" lon="-0.44557">
        <ele>240.9</ele>
        <time>2012-02-04T14:12:59Z</time>
      </trkpt>
      <trkpt lat="48.56011" lon="-0.44547">
        <ele>241.3</ele>
        <time>2012-02-04T14:13:01Z</time>
      </trkpt>
      <trkpt lat="48.56007" lon="-0.44536">
        <ele>241.8</ele>
        <time>2012-02-04T14:13:04Z</time>
      </trkpt>
      <trkpt lat="48.56005" lon="-0.44532">
        <ele>241.7</ele>
        <time>2012-02-04T14:13:05Z</time>
      </trkpt>
      <trkpt lat="48.56002" lon="-0.44518">
        <ele>241.7</ele>
        <time>2012-02-04T14:13:08Z</time>
      </trkpt>
      <trkpt lat="48.56" lon="-0.44508">
        <ele>241.7</ele>
        <time>2012-02-04T14:13:10Z</time>
      </trkpt>
      <trkpt lat="48.55997" lon="-0.44499">
        <ele>242.2</ele>
        <time>2012-02-04T14:13:12Z</time>
      </trkpt>
      <trkpt lat="48.55996" lon="-0.44489">
        <ele>241.5</ele>
        <time>2012-02-04T14:13:14Z</time>
      </trkpt>
      <trkpt lat="48.55993" lon="-0.44479">
        <ele>241.4</ele>
        <time>2012-02-04T14:13:16Z</time>
      </trkpt>
      <trkpt lat="48.55991" lon="-0.4447">
        <ele>241.8</ele>
        <time>2012-02-04T14:13:18Z</time>
      </trkpt>
      <trkpt lat="48.55989" lon="-0.4446">
        <ele>242</ele>
        <time>2012-02-04T14:13:20Z</time>
      </trkpt>
      <trkpt lat="48.55987" lon="-0.4445">
        <ele>241.9</ele>
        <time>2012-02-04T14:13:22Z</time>
      </trkpt>
      <trkpt lat="48.55984" lon="-0.44438">
        <ele>241.8</ele>
        <time>2012-02-04T14:13:24Z</time>
      </trkpt>
      <trkpt lat="48.55981" lon="-0.44432">
        <ele>241.8</ele>
        <time>2012-02-04T14:13:25Z</time>
      </trkpt>
      <trkpt lat="48.55979" lon="-0.44426">
        <ele>241.7</ele>
        <time>2012-02-04T14:13:26Z</time>
      </trkpt>
      <trkpt lat="48.55976" lon="-0.44421">
        <ele>241.5</ele>
        <time>2012-02-04T14:13:27Z</time>
      </trkpt>
      <trkpt lat="48.55973" lon="-0.44414">
        <ele>241.3</ele>
        <time>2012-02-04T14:13:28Z</time>
      </trkpt>
      <trkpt lat="48.55972" lon="-0.44408">
        <ele>241.1</ele>
        <time>2012-02-04T14:13:29Z</time>
      </trkpt>
      <trkpt lat="48.55971" lon="-0.44401">
        <ele>241</ele>
        <time>2012-02-04T14:13:30Z</time>
      </trkpt>
      <trkpt lat="48.5597" lon="-0.44394">
        <ele>240.9</ele>
        <time>2012-02-04T14:13:31Z</time>
      </trkpt>
      <trkpt lat="48.55967" lon="-0.44382">
        <ele>241.2</ele>
        <time>2012-02-04T14:13:33Z</time>
      </trkpt>
      <trkpt lat="48.55966" lon="-0.44369">
        <ele>241.2</ele>
        <time>2012-02-04T14:13:35Z</time>
      </trkpt>
      <trkpt lat="48.55966" lon="-0.44361">
        <ele>241.3</ele>
        <time>2012-02-04T14:13:36Z</time>
      </trkpt>
      <trkpt lat="48.55965" lon="-0.44354">
        <ele>241.1</ele>
        <time>2012-02-04T14:13:37Z</time>
      </trkpt>
      <trkpt lat="48.55965" lon="-0.44346">
        <ele>241</ele>
        <time>2012-02-04T14:13:38Z</time>
      </trkpt>
      <trkpt lat="48.55965" lon="-0.44339">
        <ele>240.7</ele>
        <time>2012-02-04T14:13:39Z</time>
      </trkpt>
      <trkpt lat="48.55965" lon="-0.44331">
        <ele>240.4</ele>
        <time>2012-02-04T14:13:40Z</time>
      </trkpt>
      <trkpt lat="48.55964" lon="-0.44323">
        <ele>240.3</ele>
        <time>2012-02-04T14:13:41Z</time>
      </trkpt>
      <trkpt lat="48.55963" lon="-0.44316">
        <ele>240.4</ele>
        <time>2012-02-04T14:13:42Z</time>
      </trkpt>
      <trkpt lat="48.55961" lon="-0.44308">
        <ele>240.5</ele>
        <time>2012-02-04T14:13:43Z</time>
      </trkpt>
      <trkpt lat="48.5596" lon="-0.44301">
        <ele>240.4</ele>
        <time>2012-02-04T14:13:44Z</time>
      </trkpt>
      <trkpt lat="48.55958" lon="-0.44294">
        <ele>240.4</ele>
        <time>2012-02-04T14:13:45Z</time>
      </trkpt>
      <trkpt lat="48.55956" lon="-0.44287">
        <ele>240.3</ele>
        <time>2012-02-04T14:13:46Z</time>
      </trkpt>
      <trkpt lat="48.55955" lon="-0.4428">
        <ele>240.3</ele>
        <time>2012-02-04T14:13:47Z</time>
      </trkpt>
      <trkpt lat="48.55954" lon="-0.44273">
        <ele>240.2</ele>
        <time>2012-02-04T14:13:48Z</time>
      </trkpt>
      <trkpt lat="48.55953" lon="-0.44266">
        <ele>240.1</ele>
        <time>2012-02-04T14:13:49Z</time>
      </trkpt>
      <trkpt lat="48.55951" lon="-0.44259">
        <ele>240</ele>
        <time>2012-02-04T14:13:50Z</time>
      </trkpt>
      <trkpt lat="48.5595" lon="-0.44251">
        <ele>240</ele>
        <time>2012-02-04T14:13:51Z</time>
      </trkpt>
      <trkpt lat="48.55949" lon="-0.44244">
        <ele>240</ele>
        <time>2012-02-04T14:13:52Z</time>
      </trkpt>
      <trkpt lat="48.55948" lon="-0.44237">
        <ele>239.8</ele>
        <time>2012-02-04T14:13:53Z</time>
      </trkpt>
      <trkpt lat="48.55947" lon="-0.4423">
        <ele>239.6</ele>
        <time>2012-02-04T14:13:54Z</time>
      </trkpt>
      <trkpt lat="48.55946" lon="-0.44222">
        <ele>239.5</ele>
        <time>2012-02-04T14:13:55Z</time>
      </trkpt>
      <trkpt lat="48.55944" lon="-0.44215">
        <ele>239.3</ele>
        <time>2012-02-04T14:13:56Z</time>
      </trkpt>
      <trkpt lat="48.55943" lon="-0.44208">
        <ele>239.2</ele>
        <time>2012-02-04T14:13:57Z</time>
      </trkpt>
      <trkpt lat="48.55941" lon="-0.44201">
        <ele>239.5</ele>
        <time>2012-02-04T14:13:58Z</time>
      </trkpt>
      <trkpt lat="48.55939" lon="-0.44194">
        <ele>239.8</ele>
        <time>2012-02-04T14:13:59Z</time>
      </trkpt>
      <trkpt lat="48.55938" lon="-0.44187">
        <ele>240</ele>
        <time>2012-02-04T14:14:00Z</time>
      </trkpt>
      <trkpt lat="48.55935" lon="-0.44176">
        <ele>240.1</ele>
        <time>2012-02-04T14:14:02Z</time>
      </trkpt>
      <trkpt lat="48.55931" lon="-0.44164">
        <ele>238.6</ele>
        <time>2012-02-04T14:14:17Z</time>
      </trkpt>
      <trkpt lat="48.55931" lon="-0.44163">
        <ele>238.8</ele>
        <time>2012-02-04T14:14:18Z</time>
      </trkpt>
      <trkpt lat="48.55929" lon="-0.4414">
        <ele>239</ele>
        <time>2012-02-04T14:14:43Z</time>
      </trkpt>
      <trkpt lat="48.55927" lon="-0.44129">
        <ele>239.2</ele>
        <time>2012-02-04T14:14:45Z</time>
      </trkpt>
      <trkpt lat="48.55925" lon="-0.44117">
        <ele>239</ele>
        <time>2012-02-04T14:14:47Z</time>
      </trkpt>
      <trkpt lat="48.55922" lon="-0.44105">
        <ele>238.7</ele>
        <time>2012-02-04T14:14:49Z</time>
      </trkpt>
      <trkpt lat="48.5592" lon="-0.44092">
        <ele>238.4</ele>
        <time>2012-02-04T14:14:51Z</time>
      </trkpt>
      <trkpt lat="48.55918" lon="-0.44081">
        <ele>238.5</ele>
        <time>2012-02-04T14:14:53Z</time>
      </trkpt>
      <trkpt lat="48.55917" lon="-0.4407">
        <ele>238.4</ele>
        <time>2012-02-04T14:14:55Z</time>
      </trkpt>
      <trkpt lat="48.55915" lon="-0.44057">
        <ele>238.1</ele>
        <time>2012-02-04T14:14:57Z</time>
      </trkpt>
      <trkpt lat="48.55913" lon="-0.44045">
        <ele>238</ele>
        <time>2012-02-04T14:14:59Z</time>
      </trkpt>
      <trkpt lat="48.55911" lon="-0.44031">
        <ele>237.8</ele>
        <time>2012-02-04T14:15:01Z</time>
      </trkpt>
      <trkpt lat="48.5591" lon="-0.44025">
        <ele>237.6</ele>
        <time>2012-02-04T14:15:02Z</time>
      </trkpt>
      <trkpt lat="48.55909" lon="-0.44018">
        <ele>237.4</ele>
        <time>2012-02-04T14:15:03Z</time>
      </trkpt>
      <trkpt lat="48.55907" lon="-0.44012">
        <ele>237.3</ele>
        <time>2012-02-04T14:15:04Z</time>
      </trkpt>
      <trkpt lat="48.55906" lon="-0.44005">
        <ele>237</ele>
        <time>2012-02-04T14:15:05Z</time>
      </trkpt>
      <trkpt lat="48.55905" lon="-0.43998">
        <ele>236.8</ele>
        <time>2012-02-04T14:15:06Z</time>
      </trkpt>
      <trkpt lat="48.55904" lon="-0.43991">
        <ele>237</ele>
        <time>2012-02-04T14:15:07Z</time>
      </trkpt>
      <trkpt lat="48.55902" lon="-0.43984">
        <ele>237.2</ele>
        <time>2012-02-04T14:15:08Z</time>
      </trkpt>
      <trkpt lat="48.55901" lon="-0.43977">
        <ele>237.8</ele>
        <time>2012-02-04T14:15:09Z</time>
      </trkpt>
      <trkpt lat="48.559" lon="-0.43969">
        <ele>238.3</ele>
        <time>2012-02-04T14:15:10Z</time>
      </trkpt>
      <trkpt lat="48.55898" lon="-0.43962">
        <ele>238.6</ele>
        <time>2012-02-04T14:15:11Z</time>
      </trkpt>
      <trkpt lat="48.55897" lon="-0.43954">
        <ele>238.5</ele>
        <time>2012-02-04T14:15:12Z</time>
      </trkpt>
      <trkpt lat="48.55895" lon="-0.43947">
        <ele>238.4</ele>
        <time>2012-02-04T14:15:13Z</time>
      </trkpt>
      <trkpt lat="48.55894" lon="-0.4394">
        <ele>238</ele>
        <time>2012-02-04T14:15:14Z</time>
      </trkpt>
      <trkpt lat="48.55892" lon="-0.43933">
        <ele>237.8</ele>
        <time>2012-02-04T14:15:15Z</time>
      </trkpt>
      <trkpt lat="48.55891" lon="-0.43926">
        <ele>237.8</ele>
        <time>2012-02-04T14:15:16Z</time>
      </trkpt>
      <trkpt lat="48.5589" lon="-0.4392">
        <ele>237.8</ele>
        <time>2012-02-04T14:15:17Z</time>
      </trkpt>
      <trkpt lat="48.55889" lon="-0.43913">
        <ele>237.9</ele>
        <time>2012-02-04T14:15:18Z</time>
      </trkpt>
      <trkpt lat="48.55888" lon="-0.43906">
        <ele>237.6</ele>
        <time>2012-02-04T14:15:19Z</time>
      </trkpt>
      <trkpt lat="48.55886" lon="-0.43893">
        <ele>237.7</ele>
        <time>2012-02-04T14:15:21Z</time>
      </trkpt>
      <trkpt lat="48.55884" lon="-0.43886">
        <ele>237.9</ele>
        <time>2012-02-04T14:15:22Z</time>
      </trkpt>
      <trkpt lat="48.55883" lon="-0.43879">
        <ele>238</ele>
        <time>2012-02-04T14:15:23Z</time>
      </trkpt>
      <trkpt lat="48.55882" lon="-0.43873">
        <ele>238.1</ele>
        <time>2012-02-04T14:15:24Z</time>
      </trkpt>
      <trkpt lat="48.55881" lon="-0.43866">
        <ele>238.2</ele>
        <time>2012-02-04T14:15:25Z</time>
      </trkpt>
      <trkpt lat="48.5588" lon="-0.43859">
        <ele>238.3</ele>
        <time>2012-02-04T14:15:26Z</time>
      </trkpt>
      <trkpt lat="48.55878" lon="-0.43852">
        <ele>238.4</ele>
        <time>2012-02-04T14:15:27Z</time>
      </trkpt>
      <trkpt lat="48.55877" lon="-0.43846">
        <ele>238.4</ele>
        <time>2012-02-04T14:15:28Z</time>
      </trkpt>
      <trkpt lat="48.55876" lon="-0.43839">
        <ele>238.3</ele>
        <time>2012-02-04T14:15:29Z</time>
      </trkpt>
      <trkpt lat="48.55875" lon="-0.43832">
        <ele>238.3</ele>
        <time>2012-02-04T14:15:30Z</time>
      </trkpt>
      <trkpt lat="48.55873" lon="-0.43825">
        <ele>238.7</ele>
        <time>2012-02-04T14:15:31Z</time>
      </trkpt>
      <trkpt lat="48.55872" lon="-0.43818">
        <ele>239</ele>
        <time>2012-02-04T14:15:32Z</time>
      </trkpt>
      <trkpt lat="48.55871" lon="-0.43812">
        <ele>238.8</ele>
        <time>2012-02-04T14:15:33Z</time>
      </trkpt>
      <trkpt lat="48.5587" lon="-0.43805">
        <ele>238.7</ele>
        <time>2012-02-04T14:15:34Z</time>
      </trkpt>
      <trkpt lat="48.55868" lon="-0.43798">
        <ele>238.8</ele>
        <time>2012-02-04T14:15:35Z</time>
      </trkpt>
      <trkpt lat="48.55866" lon="-0.43792">
        <ele>239</ele>
        <time>2012-02-04T14:15:36Z</time>
      </trkpt>
      <trkpt lat="48.55865" lon="-0.43785">
        <ele>239.1</ele>
        <time>2012-02-04T14:15:37Z</time>
      </trkpt>
      <trkpt lat="48.55864" lon="-0.43778">
        <ele>239.5</ele>
        <time>2012-02-04T14:15:38Z</time>
      </trkpt>
      <trkpt lat="48.55863" lon="-0.43772">
        <ele>239.7</ele>
        <time>2012-02-04T14:15:39Z</time>
      </trkpt>
      <trkpt lat="48.55861" lon="-0.43765">
        <ele>239.7</ele>
        <time>2012-02-04T14:15:40Z</time>
      </trkpt>
      <trkpt lat="48.5586" lon="-0.43758">
        <ele>239.7</ele>
        <time>2012-02-04T14:15:41Z</time>
      </trkpt>
      <trkpt lat="48.55859" lon="-0.43751">
        <ele>239.7</ele>
        <time>2012-02-04T14:15:42Z</time>
      </trkpt>
      <trkpt lat="48.55856" lon="-0.43739">
        <ele>239.9</ele>
        <time>2012-02-04T14:15:44Z</time>
      </trkpt>
      <trkpt lat="48.55854" lon="-0.43729">
        <ele>239.8</ele>
        <time>2012-02-04T14:15:46Z</time>
      </trkpt>
      <trkpt lat="48.55852" lon="-0.43719">
        <ele>239.2</ele>
        <time>2012-02-04T14:15:49Z</time>
      </trkpt>
      <trkpt lat="48.55851" lon="-0.43709">
        <ele>239.1</ele>
        <time>2012-02-04T14:15:51Z</time>
      </trkpt>
      <trkpt lat="48.55849" lon="-0.43698">
        <ele>239.2</ele>
        <time>2012-02-04T14:15:53Z</time>
      </trkpt>
      <trkpt lat="48.55847" lon="-0.43687">
        <ele>239.4</ele>
        <time>2012-02-04T14:15:55Z</time>
      </trkpt>
      <trkpt lat="48.55845" lon="-0.43675">
        <ele>239.3</ele>
        <time>2012-02-04T14:15:57Z</time>
      </trkpt>
      <trkpt lat="48.55842" lon="-0.43663">
        <ele>239.1</ele>
        <time>2012-02-04T14:15:59Z</time>
      </trkpt>
      <trkpt lat="48.5584" lon="-0.43651">
        <ele>239.1</ele>
        <time>2012-02-04T14:16:01Z</time>
      </trkpt>
      <trkpt lat="48.55838" lon="-0.43639">
        <ele>239</ele>
        <time>2012-02-04T14:16:03Z</time>
      </trkpt>
      <trkpt lat="48.55836" lon="-0.43628">
        <ele>238.5</ele>
        <time>2012-02-04T14:16:05Z</time>
      </trkpt>
      <trkpt lat="48.55834" lon="-0.43617">
        <ele>237.7</ele>
        <time>2012-02-04T14:16:07Z</time>
      </trkpt>
      <trkpt lat="48.55831" lon="-0.43606">
        <ele>237.3</ele>
        <time>2012-02-04T14:16:09Z</time>
      </trkpt>
      <trkpt lat="48.5583" lon="-0.43595">
        <ele>236.8</ele>
        <time>2012-02-04T14:16:11Z</time>
      </trkpt>
      <trkpt lat="48.55827" lon="-0.43584">
        <ele>236.3</ele>
        <time>2012-02-04T14:16:13Z</time>
      </trkpt>
      <trkpt lat="48.55826" lon="-0.43572">
        <ele>236.2</ele>
        <time>2012-02-04T14:16:15Z</time>
      </trkpt>
      <trkpt lat="48.55824" lon="-0.43561">
        <ele>236.2</ele>
        <time>2012-02-04T14:16:17Z</time>
      </trkpt>
      <trkpt lat="48.55823" lon="-0.4355">
        <ele>236</ele>
        <time>2012-02-04T14:16:19Z</time>
      </trkpt>
      <trkpt lat="48.55823" lon="-0.43547">
        <ele>235.9</ele>
        <time>2012-02-04T14:16:20Z</time>
      </trkpt>
      <trkpt lat="48.55833" lon="-0.43535">
        <ele>235.2</ele>
        <time>2012-02-04T14:16:29Z</time>
      </trkpt>
      <trkpt lat="48.55839" lon="-0.43533">
        <ele>234.4</ele>
        <time>2012-02-04T14:16:31Z</time>
      </trkpt>
      <trkpt lat="48.55846" lon="-0.43531">
        <ele>234.9</ele>
        <time>2012-02-04T14:16:33Z</time>
      </trkpt>
      <trkpt lat="48.55853" lon="-0.43529">
        <ele>234.9</ele>
        <time>2012-02-04T14:16:35Z</time>
      </trkpt>
      <trkpt lat="48.55859" lon="-0.43527">
        <ele>234.1</ele>
        <time>2012-02-04T14:16:37Z</time>
      </trkpt>
      <trkpt lat="48.55867" lon="-0.43525">
        <ele>233.3</ele>
        <time>2012-02-04T14:16:39Z</time>
      </trkpt>
      <trkpt lat="48.55874" lon="-0.43523">
        <ele>233.4</ele>
        <time>2012-02-04T14:16:41Z</time>
      </trkpt>
      <trkpt lat="48.55882" lon="-0.43521">
        <ele>233.2</ele>
        <time>2012-02-04T14:16:44Z</time>
      </trkpt>
      <trkpt lat="48.5589" lon="-0.43513">
        <ele>232.6</ele>
        <time>2012-02-04T14:16:51Z</time>
      </trkpt>
      <trkpt lat="48.55891" lon="-0.43501">
        <ele>232.2</ele>
        <time>2012-02-04T14:16:57Z</time>
      </trkpt>
      <trkpt lat="48.55889" lon="-0.4349">
        <ele>232</ele>
        <time>2012-02-04T14:17:00Z</time>
      </trkpt>
      <trkpt lat="48.55887" lon="-0.43477">
        <ele>232.3</ele>
        <time>2012-02-04T14:17:03Z</time>
      </trkpt>
      <trkpt lat="48.55885" lon="-0.43468">
        <ele>231.8</ele>
        <time>2012-02-04T14:17:05Z</time>
      </trkpt>
      <trkpt lat="48.55883" lon="-0.43459">
        <ele>232.2</ele>
        <time>2012-02-04T14:17:07Z</time>
      </trkpt>
      <trkpt lat="48.55881" lon="-0.4345">
        <ele>232.8</ele>
        <time>2012-02-04T14:17:09Z</time>
      </trkpt>
      <trkpt lat="48.55878" lon="-0.43441">
        <ele>232.4</ele>
        <time>2012-02-04T14:17:11Z</time>
      </trkpt>
      <trkpt lat="48.55875" lon="-0.43431">
        <ele>232.3</ele>
        <time>2012-02-04T14:17:13Z</time>
      </trkpt>
      <trkpt lat="48.55872" lon="-0.43421">
        <ele>232.6</ele>
        <time>2012-02-04T14:17:15Z</time>
      </trkpt>
      <trkpt lat="48.55869" lon="-0.43411">
        <ele>233.1</ele>
        <time>2012-02-04T14:17:17Z</time>
      </trkpt>
      <trkpt lat="48.55865" lon="-0.434">
        <ele>233.3</ele>
        <time>2012-02-04T14:17:19Z</time>
      </trkpt>
      <trkpt lat="48.55861" lon="-0.4339">
        <ele>233.5</ele>
        <time>2012-02-04T14:17:21Z</time>
      </trkpt>
      <trkpt lat="48.55859" lon="-0.43385">
        <ele>233.6</ele>
        <time>2012-02-04T14:17:22Z</time>
      </trkpt>
      <trkpt lat="48.55854" lon="-0.43369">
        <ele>233.9</ele>
        <time>2012-02-04T14:17:25Z</time>
      </trkpt>
      <trkpt lat="48.55849" lon="-0.43359">
        <ele>233.8</ele>
        <time>2012-02-04T14:17:27Z</time>
      </trkpt>
      <trkpt lat="48.55844" lon="-0.4335">
        <ele>233.5</ele>
        <time>2012-02-04T14:17:29Z</time>
      </trkpt>
      <trkpt lat="48.5584" lon="-0.43339">
        <ele>233.4</ele>
        <time>2012-02-04T14:17:31Z</time>
      </trkpt>
      <trkpt lat="48.55836" lon="-0.43328">
        <ele>233.3</ele>
        <time>2012-02-04T14:17:33Z</time>
      </trkpt>
      <trkpt lat="48.55832" lon="-0.43317">
        <ele>233.4</ele>
        <time>2012-02-04T14:17:35Z</time>
      </trkpt>
      <trkpt lat="48.55827" lon="-0.43305">
        <ele>233.4</ele>
        <time>2012-02-04T14:17:37Z</time>
      </trkpt>
      <trkpt lat="48.55823" lon="-0.43294">
        <ele>233.6</ele>
        <time>2012-02-04T14:17:39Z</time>
      </trkpt>
      <trkpt lat="48.55818" lon="-0.43283">
        <ele>234</ele>
        <time>2012-02-04T14:17:41Z</time>
      </trkpt>
      <trkpt lat="48.55814" lon="-0.43272">
        <ele>234.4</ele>
        <time>2012-02-04T14:17:43Z</time>
      </trkpt>
      <trkpt lat="48.5581" lon="-0.43261">
        <ele>234.8</ele>
        <time>2012-02-04T14:17:45Z</time>
      </trkpt>
      <trkpt lat="48.55806" lon="-0.43251">
        <ele>234.9</ele>
        <time>2012-02-04T14:17:47Z</time>
      </trkpt>
      <trkpt lat="48.55802" lon="-0.4324">
        <ele>235.1</ele>
        <time>2012-02-04T14:17:49Z</time>
      </trkpt>
      <trkpt lat="48.55797" lon="-0.43231">
        <ele>235.1</ele>
        <time>2012-02-04T14:17:51Z</time>
      </trkpt>
      <trkpt lat="48.55794" lon="-0.43222">
        <ele>235.1</ele>
        <time>2012-02-04T14:17:53Z</time>
      </trkpt>
      <trkpt lat="48.5579" lon="-0.43212">
        <ele>235.1</ele>
        <time>2012-02-04T14:17:55Z</time>
      </trkpt>
      <trkpt lat="48.55787" lon="-0.43203">
        <ele>235.2</ele>
        <time>2012-02-04T14:17:57Z</time>
      </trkpt>
      <trkpt lat="48.55783" lon="-0.43192">
        <ele>235.1</ele>
        <time>2012-02-04T14:17:59Z</time>
      </trkpt>
      <trkpt lat="48.55779" lon="-0.43182">
        <ele>235.4</ele>
        <time>2012-02-04T14:18:01Z</time>
      </trkpt>
      <trkpt lat="48.55775" lon="-0.4317">
        <ele>236.1</ele>
        <time>2012-02-04T14:18:03Z</time>
      </trkpt>
      <trkpt lat="48.55772" lon="-0.43158">
        <ele>236.2</ele>
        <time>2012-02-04T14:18:05Z</time>
      </trkpt>
      <trkpt lat="48.55769" lon="-0.43147">
        <ele>236.1</ele>
        <time>2012-02-04T14:18:07Z</time>
      </trkpt>
      <trkpt lat="48.55765" lon="-0.43137">
        <ele>236.1</ele>
        <time>2012-02-04T14:18:09Z</time>
      </trkpt>
      <trkpt lat="48.55762" lon="-0.43127">
        <ele>236.3</ele>
        <time>2012-02-04T14:18:11Z</time>
      </trkpt>
      <trkpt lat="48.55758" lon="-0.43117">
        <ele>236.6</ele>
        <time>2012-02-04T14:18:13Z</time>
      </trkpt>
      <trkpt lat="48.55755" lon="-0.43107">
        <ele>236.6</ele>
        <time>2012-02-04T14:18:15Z</time>
      </trkpt>
      <trkpt lat="48.55751" lon="-0.43098">
        <ele>236.9</ele>
        <time>2012-02-04T14:18:17Z</time>
      </trkpt>
      <trkpt lat="48.55747" lon="-0.43087">
        <ele>237</ele>
        <time>2012-02-04T14:18:19Z</time>
      </trkpt>
      <trkpt lat="48.55743" lon="-0.43077">
        <ele>236.8</ele>
        <time>2012-02-04T14:18:21Z</time>
      </trkpt>
      <trkpt lat="48.5574" lon="-0.43067">
        <ele>237</ele>
        <time>2012-02-04T14:18:23Z</time>
      </trkpt>
      <trkpt lat="48.55738" lon="-0.43062">
        <ele>237.2</ele>
        <time>2012-02-04T14:18:24Z</time>
      </trkpt>
      <trkpt lat="48.55733" lon="-0.43047">
        <ele>237.7</ele>
        <time>2012-02-04T14:18:27Z</time>
      </trkpt>
      <trkpt lat="48.55729" lon="-0.43037">
        <ele>237.6</ele>
        <time>2012-02-04T14:18:29Z</time>
      </trkpt>
      <trkpt lat="48.55726" lon="-0.43027">
        <ele>237.5</ele>
        <time>2012-02-04T14:18:31Z</time>
      </trkpt>
      <trkpt lat="48.55722" lon="-0.43017">
        <ele>237.4</ele>
        <time>2012-02-04T14:18:33Z</time>
      </trkpt>
      <trkpt lat="48.55719" lon="-0.43006">
        <ele>237.1</ele>
        <time>2012-02-04T14:18:35Z</time>
      </trkpt>
      <trkpt lat="48.55715" lon="-0.42996">
        <ele>236.7</ele>
        <time>2012-02-04T14:18:37Z</time>
      </trkpt>
      <trkpt lat="48.55711" lon="-0.42986">
        <ele>236.8</ele>
        <time>2012-02-04T14:18:39Z</time>
      </trkpt>
      <trkpt lat="48.55707" lon="-0.42976">
        <ele>236.7</ele>
        <time>2012-02-04T14:18:41Z</time>
      </trkpt>
      <trkpt lat="48.55704" lon="-0.42967">
        <ele>236.6</ele>
        <time>2012-02-04T14:18:43Z</time>
      </trkpt>
      <trkpt lat="48.557" lon="-0.42957">
        <ele>236.1</ele>
        <time>2012-02-04T14:18:45Z</time>
      </trkpt>
      <trkpt lat="48.55697" lon="-0.42946">
        <ele>235.7</ele>
        <time>2012-02-04T14:18:47Z</time>
      </trkpt>
      <trkpt lat="48.55695" lon="-0.42935">
        <ele>235.2</ele>
        <time>2012-02-04T14:18:49Z</time>
      </trkpt>
      <trkpt lat="48.55694" lon="-0.42924">
        <ele>235.1</ele>
        <time>2012-02-04T14:18:51Z</time>
      </trkpt>
      <trkpt lat="48.55693" lon="-0.42914">
        <ele>234.6</ele>
        <time>2012-02-04T14:18:53Z</time>
      </trkpt>
      <trkpt lat="48.55691" lon="-0.42903">
        <ele>234.5</ele>
        <time>2012-02-04T14:18:55Z</time>
      </trkpt>
      <trkpt lat="48.55689" lon="-0.42897">
        <ele>234.5</ele>
        <time>2012-02-04T14:18:56Z</time>
      </trkpt>
      <trkpt lat="48.55687" lon="-0.4289">
        <ele>234.5</ele>
        <time>2012-02-04T14:18:57Z</time>
      </trkpt>
      <trkpt lat="48.55684" lon="-0.42878">
        <ele>234.4</ele>
        <time>2012-02-04T14:18:59Z</time>
      </trkpt>
      <trkpt lat="48.55683" lon="-0.42871">
        <ele>234.3</ele>
        <time>2012-02-04T14:19:00Z</time>
      </trkpt>
      <trkpt lat="48.55681" lon="-0.42865">
        <ele>234.3</ele>
        <time>2012-02-04T14:19:01Z</time>
      </trkpt>
      <trkpt lat="48.5568" lon="-0.42858">
        <ele>234.4</ele>
        <time>2012-02-04T14:19:02Z</time>
      </trkpt>
      <trkpt lat="48.55677" lon="-0.42845">
        <ele>234.5</ele>
        <time>2012-02-04T14:19:04Z</time>
      </trkpt>
      <trkpt lat="48.55675" lon="-0.42832">
        <ele>234.5</ele>
        <time>2012-02-04T14:19:06Z</time>
      </trkpt>
      <trkpt lat="48.55672" lon="-0.4282">
        <ele>234</ele>
        <time>2012-02-04T14:19:08Z</time>
      </trkpt>
      <trkpt lat="48.5567" lon="-0.42807">
        <ele>234.2</ele>
        <time>2012-02-04T14:19:10Z</time>
      </trkpt>
      <trkpt lat="48.55667" lon="-0.42795">
        <ele>234.5</ele>
        <time>2012-02-04T14:19:12Z</time>
      </trkpt>
      <trkpt lat="48.55664" lon="-0.42783">
        <ele>234.1</ele>
        <time>2012-02-04T14:19:14Z</time>
      </trkpt>
      <trkpt lat="48.55662" lon="-0.42773">
        <ele>234</ele>
        <time>2012-02-04T14:19:16Z</time>
      </trkpt>
      <trkpt lat="48.55659" lon="-0.4276">
        <ele>233.7</ele>
        <time>2012-02-04T14:19:18Z</time>
      </trkpt>
      <trkpt lat="48.55658" lon="-0.42753">
        <ele>233.5</ele>
        <time>2012-02-04T14:19:19Z</time>
      </trkpt>
      <trkpt lat="48.55656" lon="-0.42746">
        <ele>233.3</ele>
        <time>2012-02-04T14:19:20Z</time>
      </trkpt>
      <trkpt lat="48.55655" lon="-0.42739">
        <ele>233.2</ele>
        <time>2012-02-04T14:19:21Z</time>
      </trkpt>
      <trkpt lat="48.55653" lon="-0.42732">
        <ele>233.1</ele>
        <time>2012-02-04T14:19:22Z</time>
      </trkpt>
      <trkpt lat="48.55652" lon="-0.42725">
        <ele>232.9</ele>
        <time>2012-02-04T14:19:23Z</time>
      </trkpt>
      <trkpt lat="48.5565" lon="-0.42718">
        <ele>232.7</ele>
        <time>2012-02-04T14:19:24Z</time>
      </trkpt>
      <trkpt lat="48.55648" lon="-0.42711">
        <ele>232.6</ele>
        <time>2012-02-04T14:19:25Z</time>
      </trkpt>
      <trkpt lat="48.55647" lon="-0.42703">
        <ele>232.5</ele>
        <time>2012-02-04T14:19:26Z</time>
      </trkpt>
      <trkpt lat="48.55645" lon="-0.42697">
        <ele>232.5</ele>
        <time>2012-02-04T14:19:27Z</time>
      </trkpt>
      <trkpt lat="48.55644" lon="-0.4269">
        <ele>232.3</ele>
        <time>2012-02-04T14:19:28Z</time>
      </trkpt>
      <trkpt lat="48.55642" lon="-0.42683">
        <ele>232.2</ele>
        <time>2012-02-04T14:19:29Z</time>
      </trkpt>
      <trkpt lat="48.55641" lon="-0.42676">
        <ele>232.5</ele>
        <time>2012-02-04T14:19:30Z</time>
      </trkpt>
      <trkpt lat="48.55639" lon="-0.42668">
        <ele>232.7</ele>
        <time>2012-02-04T14:19:31Z</time>
      </trkpt>
      <trkpt lat="48.55638" lon="-0.42661">
        <ele>232.9</ele>
        <time>2012-02-04T14:19:32Z</time>
      </trkpt>
      <trkpt lat="48.55636" lon="-0.42654">
        <ele>232.6</ele>
        <time>2012-02-04T14:19:33Z</time>
      </trkpt>
      <trkpt lat="48.55634" lon="-0.42647">
        <ele>232.3</ele>
        <time>2012-02-04T14:19:34Z</time>
      </trkpt>
      <trkpt lat="48.55633" lon="-0.42639">
        <ele>232.2</ele>
        <time>2012-02-04T14:19:35Z</time>
      </trkpt>
      <trkpt lat="48.55631" lon="-0.42632">
        <ele>232.1</ele>
        <time>2012-02-04T14:19:36Z</time>
      </trkpt>
      <trkpt lat="48.5563" lon="-0.42624">
        <ele>231.8</ele>
        <time>2012-02-04T14:19:37Z</time>
      </trkpt>
      <trkpt lat="48.55628" lon="-0.42616">
        <ele>231.5</ele>
        <time>2012-02-04T14:19:38Z</time>
      </trkpt>
      <trkpt lat="48.55626" lon="-0.42609">
        <ele>231.4</ele>
        <time>2012-02-04T14:19:39Z</time>
      </trkpt>
      <trkpt lat="48.55624" lon="-0.42601">
        <ele>231.2</ele>
        <time>2012-02-04T14:19:40Z</time>
      </trkpt>
      <trkpt lat="48.55623" lon="-0.42593">
        <ele>231.1</ele>
        <time>2012-02-04T14:19:41Z</time>
      </trkpt>
      <trkpt lat="48.55621" lon="-0.42585">
        <ele>231</ele>
        <time>2012-02-04T14:19:42Z</time>
      </trkpt>
      <trkpt lat="48.55619" lon="-0.42577">
        <ele>230.9</ele>
        <time>2012-02-04T14:19:43Z</time>
      </trkpt>
      <trkpt lat="48.55617" lon="-0.42569">
        <ele>230.9</ele>
        <time>2012-02-04T14:19:44Z</time>
      </trkpt>
      <trkpt lat="48.55616" lon="-0.42561">
        <ele>230.8</ele>
        <time>2012-02-04T14:19:45Z</time>
      </trkpt>
      <trkpt lat="48.55614" lon="-0.42553">
        <ele>230.8</ele>
        <time>2012-02-04T14:19:46Z</time>
      </trkpt>
      <trkpt lat="48.55612" lon="-0.42545">
        <ele>230.5</ele>
        <time>2012-02-04T14:19:47Z</time>
      </trkpt>
      <trkpt lat="48.5561" lon="-0.42536">
        <ele>230.4</ele>
        <time>2012-02-04T14:19:48Z</time>
      </trkpt>
      <trkpt lat="48.55608" lon="-0.42528">
        <ele>230.1</ele>
        <time>2012-02-04T14:19:49Z</time>
      </trkpt>
      <trkpt lat="48.55606" lon="-0.4252">
        <ele>229.8</ele>
        <time>2012-02-04T14:19:50Z</time>
      </trkpt>
      <trkpt lat="48.55604" lon="-0.42512">
        <ele>229.7</ele>
        <time>2012-02-04T14:19:51Z</time>
      </trkpt>
      <trkpt lat="48.55602" lon="-0.42505">
        <ele>229.2</ele>
        <time>2012-02-04T14:19:52Z</time>
      </trkpt>
      <trkpt lat="48.556" lon="-0.42497">
        <ele>228.9</ele>
        <time>2012-02-04T14:19:53Z</time>
      </trkpt>
      <trkpt lat="48.55599" lon="-0.4249">
        <ele>228.7</ele>
        <time>2012-02-04T14:19:54Z</time>
      </trkpt>
      <trkpt lat="48.55597" lon="-0.42484">
        <ele>228.5</ele>
        <time>2012-02-04T14:19:55Z</time>
      </trkpt>
      <trkpt lat="48.55596" lon="-0.42477">
        <ele>228.9</ele>
        <time>2012-02-04T14:19:56Z</time>
      </trkpt>
      <trkpt lat="48.55595" lon="-0.4247">
        <ele>229.2</ele>
        <time>2012-02-04T14:19:57Z</time>
      </trkpt>
      <trkpt lat="48.55594" lon="-0.42463">
        <ele>229.4</ele>
        <time>2012-02-04T14:19:58Z</time>
      </trkpt>
      <trkpt lat="48.55593" lon="-0.42456">
        <ele>229.1</ele>
        <time>2012-02-04T14:19:59Z</time>
      </trkpt>
      <trkpt lat="48.55592" lon="-0.4245">
        <ele>228.8</ele>
        <time>2012-02-04T14:20:00Z</time>
      </trkpt>
      <trkpt lat="48.5559" lon="-0.42436">
        <ele>229</ele>
        <time>2012-02-04T14:20:02Z</time>
      </trkpt>
      <trkpt lat="48.55589" lon="-0.42429">
        <ele>229.1</ele>
        <time>2012-02-04T14:20:03Z</time>
      </trkpt>
      <trkpt lat="48.55588" lon="-0.42423">
        <ele>229</ele>
        <time>2012-02-04T14:20:04Z</time>
      </trkpt>
      <trkpt lat="48.55587" lon="-0.42416">
        <ele>228.9</ele>
        <time>2012-02-04T14:20:05Z</time>
      </trkpt>
      <trkpt lat="48.55587" lon="-0.42409">
        <ele>229.1</ele>
        <time>2012-02-04T14:20:06Z</time>
      </trkpt>
      <trkpt lat="48.55586" lon="-0.42402">
        <ele>229.2</ele>
        <time>2012-02-04T14:20:07Z</time>
      </trkpt>
      <trkpt lat="48.55585" lon="-0.42395">
        <ele>229.4</ele>
        <time>2012-02-04T14:20:08Z</time>
      </trkpt>
      <trkpt lat="48.55584" lon="-0.42388">
        <ele>229.5</ele>
        <time>2012-02-04T14:20:09Z</time>
      </trkpt>
      <trkpt lat="48.55582" lon="-0.42375">
        <ele>229.3</ele>
        <time>2012-02-04T14:20:11Z</time>
      </trkpt>
      <trkpt lat="48.55581" lon="-0.42364">
        <ele>229.6</ele>
        <time>2012-02-04T14:20:13Z</time>
      </trkpt>
      <trkpt lat="48.5558" lon="-0.42351">
        <ele>230.4</ele>
        <time>2012-02-04T14:20:16Z</time>
      </trkpt>
      <trkpt lat="48.5558" lon="-0.42338">
        <ele>230.5</ele>
        <time>2012-02-04T14:20:18Z</time>
      </trkpt>
      <trkpt lat="48.55581" lon="-0.42324">
        <ele>230.5</ele>
        <time>2012-02-04T14:20:20Z</time>
      </trkpt>
      <trkpt lat="48.5558" lon="-0.42311">
        <ele>230.4</ele>
        <time>2012-02-04T14:20:22Z</time>
      </trkpt>
      <trkpt lat="48.55579" lon="-0.42298">
        <ele>230.2</ele>
        <time>2012-02-04T14:20:24Z</time>
      </trkpt>
      <trkpt lat="48.55579" lon="-0.42284">
        <ele>230.4</ele>
        <time>2012-02-04T14:20:26Z</time>
      </trkpt>
      <trkpt lat="48.55578" lon="-0.42278">
        <ele>230.5</ele>
        <time>2012-02-04T14:20:27Z</time>
      </trkpt>
      <trkpt lat="48.55577" lon="-0.42258">
        <ele>230.8</ele>
        <time>2012-02-04T14:20:30Z</time>
      </trkpt>
      <trkpt lat="48.55576" lon="-0.42245">
        <ele>230.9</ele>
        <time>2012-02-04T14:20:32Z</time>
      </trkpt>
      <trkpt lat="48.55574" lon="-0.42232">
        <ele>230.7</ele>
        <time>2012-02-04T14:20:34Z</time>
      </trkpt>
      <trkpt lat="48.55573" lon="-0.42219">
        <ele>230.5</ele>
        <time>2012-02-04T14:20:36Z</time>
      </trkpt>
      <trkpt lat="48.55572" lon="-0.42206">
        <ele>230.4</ele>
        <time>2012-02-04T14:20:38Z</time>
      </trkpt>
      <trkpt lat="48.5557" lon="-0.42194">
        <ele>230.7</ele>
        <time>2012-02-04T14:20:40Z</time>
      </trkpt>
      <trkpt lat="48.55567" lon="-0.42183">
        <ele>230</ele>
        <time>2012-02-04T14:20:42Z</time>
      </trkpt>
      <trkpt lat="48.55561" lon="-0.42176">
        <ele>230.4</ele>
        <time>2012-02-04T14:20:45Z</time>
      </trkpt>
      <trkpt lat="48.55554" lon="-0.42179">
        <ele>230.3</ele>
        <time>2012-02-04T14:20:48Z</time>
      </trkpt>
      <trkpt lat="48.55548" lon="-0.42186">
        <ele>230.1</ele>
        <time>2012-02-04T14:20:50Z</time>
      </trkpt>
      <trkpt lat="48.55541" lon="-0.42194">
        <ele>230.3</ele>
        <time>2012-02-04T14:20:52Z</time>
      </trkpt>
      <trkpt lat="48.55534" lon="-0.42202">
        <ele>230.3</ele>
        <time>2012-02-04T14:20:54Z</time>
      </trkpt>
      <trkpt lat="48.55527" lon="-0.42209">
        <ele>230.2</ele>
        <time>2012-02-04T14:20:56Z</time>
      </trkpt>
      <trkpt lat="48.55521" lon="-0.42215">
        <ele>230.4</ele>
        <time>2012-02-04T14:20:58Z</time>
      </trkpt>
      <trkpt lat="48.55514" lon="-0.4222">
        <ele>230.7</ele>
        <time>2012-02-04T14:21:00Z</time>
      </trkpt>
      <trkpt lat="48.55507" lon="-0.42226">
        <ele>231.1</ele>
        <time>2012-02-04T14:21:03Z</time>
      </trkpt>
      <trkpt lat="48.55501" lon="-0.4223">
        <ele>231</ele>
        <time>2012-02-04T14:21:05Z</time>
      </trkpt>
      <trkpt lat="48.55494" lon="-0.42234">
        <ele>231</ele>
        <time>2012-02-04T14:21:07Z</time>
      </trkpt>
      <trkpt lat="48.55488" lon="-0.42238">
        <ele>230.8</ele>
        <time>2012-02-04T14:21:09Z</time>
      </trkpt>
      <trkpt lat="48.55481" lon="-0.42241">
        <ele>230.7</ele>
        <time>2012-02-04T14:21:11Z</time>
      </trkpt>
      <trkpt lat="48.55473" lon="-0.42239">
        <ele>229.4</ele>
        <time>2012-02-04T14:21:14Z</time>
      </trkpt>
      <trkpt lat="48.55465" lon="-0.42241">
        <ele>228</ele>
        <time>2012-02-04T14:21:17Z</time>
      </trkpt>
      <trkpt lat="48.55458" lon="-0.42243">
        <ele>226.8</ele>
        <time>2012-02-04T14:21:19Z</time>
      </trkpt>
      <trkpt lat="48.55452" lon="-0.42248">
        <ele>225.1</ele>
        <time>2012-02-04T14:21:22Z</time>
      </trkpt>
      <trkpt lat="48.55444" lon="-0.42255">
        <ele>222.5</ele>
        <time>2012-02-04T14:21:27Z</time>
      </trkpt>
      <trkpt lat="48.55442" lon="-0.42256">
        <ele>222.2</ele>
        <time>2012-02-04T14:21:28Z</time>
      </trkpt>
      <trkpt lat="48.55431" lon="-0.42261">
        <ele>220.2</ele>
        <time>2012-02-04T14:21:31Z</time>
      </trkpt>
      <trkpt lat="48.55426" lon="-0.42262">
        <ele>219.6</ele>
        <time>2012-02-04T14:21:32Z</time>
      </trkpt>
      <trkpt lat="48.55422" lon="-0.42263">
        <ele>219.1</ele>
        <time>2012-02-04T14:21:33Z</time>
      </trkpt>
      <trkpt lat="48.55417" lon="-0.42264">
        <ele>219.1</ele>
        <time>2012-02-04T14:21:34Z</time>
      </trkpt>
      <trkpt lat="48.55412" lon="-0.42265">
        <ele>219.1</ele>
        <time>2012-02-04T14:21:35Z</time>
      </trkpt>
      <trkpt lat="48.55407" lon="-0.42268">
        <ele>218.7</ele>
        <time>2012-02-04T14:21:36Z</time>
      </trkpt>
      <trkpt lat="48.55402" lon="-0.42271">
        <ele>218.4</ele>
        <time>2012-02-04T14:21:37Z</time>
      </trkpt>
      <trkpt lat="48.55397" lon="-0.42276">
        <ele>218</ele>
        <time>2012-02-04T14:21:38Z</time>
      </trkpt>
      <trkpt lat="48.55392" lon="-0.4228">
        <ele>217.8</ele>
        <time>2012-02-04T14:21:39Z</time>
      </trkpt>
      <trkpt lat="48.55388" lon="-0.42284">
        <ele>217.6</ele>
        <time>2012-02-04T14:21:40Z</time>
      </trkpt>
      <trkpt lat="48.55383" lon="-0.42287">
        <ele>216.9</ele>
        <time>2012-02-04T14:21:41Z</time>
      </trkpt>
      <trkpt lat="48.55376" lon="-0.4229">
        <ele>215.6</ele>
        <time>2012-02-04T14:21:43Z</time>
      </trkpt>
      <trkpt lat="48.5537" lon="-0.42288">
        <ele>214.5</ele>
        <time>2012-02-04T14:21:45Z</time>
      </trkpt>
      <trkpt lat="48.55365" lon="-0.4228">
        <ele>213.7</ele>
        <time>2012-02-04T14:21:47Z</time>
      </trkpt>
      <trkpt lat="48.55361" lon="-0.42269">
        <ele>213.3</ele>
        <time>2012-02-04T14:21:49Z</time>
      </trkpt>
      <trkpt lat="48.55358" lon="-0.42257">
        <ele>213.2</ele>
        <time>2012-02-04T14:21:51Z</time>
      </trkpt>
      <trkpt lat="48.55356" lon="-0.4225">
        <ele>213.1</ele>
        <time>2012-02-04T14:21:52Z</time>
      </trkpt>
      <trkpt lat="48.55354" lon="-0.42244">
        <ele>212.9</ele>
        <time>2012-02-04T14:21:53Z</time>
      </trkpt>
      <trkpt lat="48.5535" lon="-0.42232">
        <ele>212.4</ele>
        <time>2012-02-04T14:21:55Z</time>
      </trkpt>
      <trkpt lat="48.55347" lon="-0.42221">
        <ele>212.1</ele>
        <time>2012-02-04T14:21:57Z</time>
      </trkpt>
      <trkpt lat="48.55344" lon="-0.42211">
        <ele>211.9</ele>
        <time>2012-02-04T14:21:59Z</time>
      </trkpt>
      <trkpt lat="48.55341" lon="-0.42201">
        <ele>211.6</ele>
        <time>2012-02-04T14:22:01Z</time>
      </trkpt>
      <trkpt lat="48.55338" lon="-0.42191">
        <ele>211.4</ele>
        <time>2012-02-04T14:22:03Z</time>
      </trkpt>
      <trkpt lat="48.55335" lon="-0.42183">
        <ele>211.3</ele>
        <time>2012-02-04T14:22:05Z</time>
      </trkpt>
      <trkpt lat="48.55331" lon="-0.42171">
        <ele>211.1</ele>
        <time>2012-02-04T14:22:09Z</time>
      </trkpt>
      <trkpt lat="48.55336" lon="-0.42161">
        <ele>210.5</ele>
        <time>2012-02-04T14:22:15Z</time>
      </trkpt>
      <trkpt lat="48.5534" lon="-0.42154">
        <ele>211</ele>
        <time>2012-02-04T14:22:18Z</time>
      </trkpt>
      <trkpt lat="48.55342" lon="-0.42142">
        <ele>212</ele>
        <time>2012-02-04T14:22:21Z</time>
      </trkpt>
      <trkpt lat="48.55341" lon="-0.42132">
        <ele>212.6</ele>
        <time>2012-02-04T14:22:24Z</time>
      </trkpt>
      <trkpt lat="48.55339" lon="-0.42119">
        <ele>213.1</ele>
        <time>2012-02-04T14:22:28Z</time>
      </trkpt>
      <trkpt lat="48.55339" lon="-0.42116">
        <ele>213.3</ele>
        <time>2012-02-04T14:22:29Z</time>
      </trkpt>
      <trkpt lat="48.55354" lon="-0.42114">
        <ele>214.5</ele>
        <time>2012-02-04T14:22:39Z</time>
      </trkpt>
      <trkpt lat="48.55361" lon="-0.42119">
        <ele>215.9</ele>
        <time>2012-02-04T14:22:43Z</time>
      </trkpt>
      <trkpt lat="48.55368" lon="-0.42123">
        <ele>217.1</ele>
        <time>2012-02-04T14:22:46Z</time>
      </trkpt>
      <trkpt lat="48.55375" lon="-0.42128">
        <ele>217.8</ele>
        <time>2012-02-04T14:22:49Z</time>
      </trkpt>
      <trkpt lat="48.55381" lon="-0.42132">
        <ele>219.1</ele>
        <time>2012-02-04T14:22:52Z</time>
      </trkpt>
      <trkpt lat="48.55388" lon="-0.42136">
        <ele>219.8</ele>
        <time>2012-02-04T14:22:55Z</time>
      </trkpt>
      <trkpt lat="48.55396" lon="-0.42132">
        <ele>221.1</ele>
        <time>2012-02-04T14:23:00Z</time>
      </trkpt>
      <trkpt lat="48.55391" lon="-0.42124">
        <ele>222.2</ele>
        <time>2012-02-04T14:23:05Z</time>
      </trkpt>
      <trkpt lat="48.55385" lon="-0.42114">
        <ele>222.6</ele>
        <time>2012-02-04T14:23:13Z</time>
      </trkpt>
      <trkpt lat="48.55392" lon="-0.42121">
        <ele>223</ele>
        <time>2012-02-04T14:23:33Z</time>
      </trkpt>
      <trkpt lat="48.55393" lon="-0.42121">
        <ele>223</ele>
        <time>2012-02-04T14:23:34Z</time>
      </trkpt>
      <trkpt lat="48.55407" lon="-0.42125">
        <ele>222.5</ele>
        <time>2012-02-04T14:23:45Z</time>
      </trkpt>
      <trkpt lat="48.55413" lon="-0.42116">
        <ele>222.6</ele>
        <time>2012-02-04T14:23:48Z</time>
      </trkpt>
      <trkpt lat="48.55418" lon="-0.42107">
        <ele>223.3</ele>
        <time>2012-02-04T14:23:51Z</time>
      </trkpt>
      <trkpt lat="48.55422" lon="-0.42098">
        <ele>224.2</ele>
        <time>2012-02-04T14:23:54Z</time>
      </trkpt>
      <trkpt lat="48.55425" lon="-0.42088">
        <ele>225.1</ele>
        <time>2012-02-04T14:23:57Z</time>
      </trkpt>
      <trkpt lat="48.55427" lon="-0.42076">
        <ele>225.6</ele>
        <time>2012-02-04T14:24:01Z</time>
      </trkpt>
      <trkpt lat="48.5543" lon="-0.42065">
        <ele>226</ele>
        <time>2012-02-04T14:24:04Z</time>
      </trkpt>
      <trkpt lat="48.55432" lon="-0.42053">
        <ele>226.1</ele>
        <time>2012-02-04T14:24:07Z</time>
      </trkpt>
      <trkpt lat="48.55435" lon="-0.42043">
        <ele>226.5</ele>
        <time>2012-02-04T14:24:10Z</time>
      </trkpt>
      <trkpt lat="48.5544" lon="-0.42032">
        <ele>226.2</ele>
        <time>2012-02-04T14:24:16Z</time>
      </trkpt>
      <trkpt lat="48.55441" lon="-0.42019">
        <ele>226.6</ele>
        <time>2012-02-04T14:25:01Z</time>
      </trkpt>
      <trkpt lat="48.55442" lon="-0.42018">
        <ele>226.6</ele>
        <time>2012-02-04T14:25:02Z</time>
      </trkpt>
      <trkpt lat="48.55453" lon="-0.42007">
        <ele>226.3</ele>
        <time>2012-02-04T14:25:07Z</time>
      </trkpt>
      <trkpt lat="48.55461" lon="-0.42002">
        <ele>226.1</ele>
        <time>2012-02-04T14:25:10Z</time>
      </trkpt>
      <trkpt lat="48.55469" lon="-0.41997">
        <ele>225.9</ele>
        <time>2012-02-04T14:25:13Z</time>
      </trkpt>
      <trkpt lat="48.55477" lon="-0.41993">
        <ele>224.8</ele>
        <time>2012-02-04T14:25:16Z</time>
      </trkpt>
      <trkpt lat="48.55479" lon="-0.41982">
        <ele>224.2</ele>
        <time>2012-02-04T14:25:30Z</time>
      </trkpt>
      <trkpt lat="48.55472" lon="-0.41974">
        <ele>224.3</ele>
        <time>2012-02-04T14:25:33Z</time>
      </trkpt>
      <trkpt lat="48.55467" lon="-0.41967">
        <ele>223.9</ele>
        <time>2012-02-04T14:25:35Z</time>
      </trkpt>
      <trkpt lat="48.55464" lon="-0.41959">
        <ele>223.7</ele>
        <time>2012-02-04T14:25:37Z</time>
      </trkpt>
      <trkpt lat="48.55461" lon="-0.41949">
        <ele>223.2</ele>
        <time>2012-02-04T14:25:39Z</time>
      </trkpt>
      <trkpt lat="48.55457" lon="-0.41939">
        <ele>222.4</ele>
        <time>2012-02-04T14:25:42Z</time>
      </trkpt>
      <trkpt lat="48.55456" lon="-0.41926">
        <ele>221.6</ele>
        <time>2012-02-04T14:25:45Z</time>
      </trkpt>
      <trkpt lat="48.55457" lon="-0.41914">
        <ele>221.5</ele>
        <time>2012-02-04T14:25:47Z</time>
      </trkpt>
      <trkpt lat="48.55456" lon="-0.41903">
        <ele>220.8</ele>
        <time>2012-02-04T14:25:49Z</time>
      </trkpt>
      <trkpt lat="48.55457" lon="-0.4189">
        <ele>220.7</ele>
        <time>2012-02-04T14:25:52Z</time>
      </trkpt>
      <trkpt lat="48.55458" lon="-0.41877">
        <ele>218.9</ele>
        <time>2012-02-04T14:26:01Z</time>
      </trkpt>
      <trkpt lat="48.55451" lon="-0.41869">
        <ele>219.1</ele>
        <time>2012-02-04T14:26:56Z</time>
      </trkpt>
      <trkpt lat="48.55451" lon="-0.41869">
        <ele>219.1</ele>
        <time>2012-02-04T14:26:57Z</time>
      </trkpt>
      <trkpt lat="48.55448" lon="-0.41881">
        <ele>219</ele>
        <time>2012-02-04T14:28:35Z</time>
      </trkpt>
      <trkpt lat="48.55436" lon="-0.41861">
        <ele>214.2</ele>
        <time>2012-02-04T14:29:22Z</time>
      </trkpt>
      <trkpt lat="48.55431" lon="-0.41851">
        <ele>213.8</ele>
        <time>2012-02-04T14:29:51Z</time>
      </trkpt>
      <trkpt lat="48.5543" lon="-0.41851">
        <ele>213.6</ele>
        <time>2012-02-04T14:29:52Z</time>
      </trkpt>
      <trkpt lat="48.55417" lon="-0.41844">
        <ele>212.7</ele>
        <time>2012-02-04T14:30:00Z</time>
      </trkpt>
      <trkpt lat="48.55425" lon="-0.41843">
        <ele>210.7</ele>
        <time>2012-02-04T14:30:13Z</time>
      </trkpt>
      <trkpt lat="48.55432" lon="-0.41835">
        <ele>206.3</ele>
        <time>2012-02-04T14:30:23Z</time>
      </trkpt>
      <trkpt lat="48.55433" lon="-0.41822">
        <ele>202.8</ele>
        <time>2012-02-04T14:30:33Z</time>
      </trkpt>
      <trkpt lat="48.5543" lon="-0.41812">
        <ele>200.9</ele>
        <time>2012-02-04T14:30:37Z</time>
      </trkpt>
      <trkpt lat="48.55427" lon="-0.41802">
        <ele>199.6</ele>
        <time>2012-02-04T14:30:40Z</time>
      </trkpt>
      <trkpt lat="48.55421" lon="-0.41793">
        <ele>198.3</ele>
        <time>2012-02-04T14:30:43Z</time>
      </trkpt>
      <trkpt lat="48.55416" lon="-0.41785">
        <ele>198.3</ele>
        <time>2012-02-04T14:30:46Z</time>
      </trkpt>
      <trkpt lat="48.55412" lon="-0.41775">
        <ele>197.3</ele>
        <time>2012-02-04T14:30:49Z</time>
      </trkpt>
      <trkpt lat="48.5541" lon="-0.41763">
        <ele>195.6</ele>
        <time>2012-02-04T14:30:53Z</time>
      </trkpt>
      <trkpt lat="48.55409" lon="-0.4176">
        <ele>195.2</ele>
        <time>2012-02-04T14:30:54Z</time>
      </trkpt>
      <trkpt lat="48.55401" lon="-0.41742">
        <ele>192.4</ele>
        <time>2012-02-04T14:31:02Z</time>
      </trkpt>
      <trkpt lat="48.55394" lon="-0.41733">
        <ele>191.2</ele>
        <time>2012-02-04T14:31:07Z</time>
      </trkpt>
      <trkpt lat="48.55401" lon="-0.41724">
        <ele>185.8</ele>
        <time>2012-02-04T14:31:42Z</time>
      </trkpt>
      <trkpt lat="48.55399" lon="-0.41711">
        <ele>182.2</ele>
        <time>2012-02-04T14:31:56Z</time>
      </trkpt>
      <trkpt lat="48.55399" lon="-0.4171">
        <ele>181.9</ele>
        <time>2012-02-04T14:31:57Z</time>
      </trkpt>
      <trkpt lat="48.55401" lon="-0.41706">
        <ele>178.7</ele>
        <time>2012-02-04T14:32:16Z</time>
      </trkpt>
      <trkpt lat="48.55408" lon="-0.41714">
        <ele>179.1</ele>
        <time>2012-02-04T14:32:19Z</time>
      </trkpt>
      <trkpt lat="48.55413" lon="-0.4172">
        <ele>179.4</ele>
        <time>2012-02-04T14:32:21Z</time>
      </trkpt>
      <trkpt lat="48.55419" lon="-0.41726">
        <ele>179.5</ele>
        <time>2012-02-04T14:32:23Z</time>
      </trkpt>
      <trkpt lat="48.55425" lon="-0.41732">
        <ele>179.4</ele>
        <time>2012-02-04T14:32:25Z</time>
      </trkpt>
      <trkpt lat="48.55431" lon="-0.41739">
        <ele>179.1</ele>
        <time>2012-02-04T14:32:27Z</time>
      </trkpt>
      <trkpt lat="48.55437" lon="-0.41747">
        <ele>179.4</ele>
        <time>2012-02-04T14:32:30Z</time>
      </trkpt>
      <trkpt lat="48.55442" lon="-0.41755">
        <ele>179.1</ele>
        <time>2012-02-04T14:32:33Z</time>
      </trkpt>
      <trkpt lat="48.5545" lon="-0.4176">
        <ele>179.1</ele>
        <time>2012-02-04T14:32:36Z</time>
      </trkpt>
      <trkpt lat="48.55455" lon="-0.41766">
        <ele>179.1</ele>
        <time>2012-02-04T14:32:38Z</time>
      </trkpt>
      <trkpt lat="48.55461" lon="-0.41772">
        <ele>179.2</ele>
        <time>2012-02-04T14:32:40Z</time>
      </trkpt>
      <trkpt lat="48.55467" lon="-0.41779">
        <ele>179</ele>
        <time>2012-02-04T14:32:42Z</time>
      </trkpt>
      <trkpt lat="48.55473" lon="-0.41786">
        <ele>178.7</ele>
        <time>2012-02-04T14:32:44Z</time>
      </trkpt>
      <trkpt lat="48.55479" lon="-0.41793">
        <ele>178.6</ele>
        <time>2012-02-04T14:32:46Z</time>
      </trkpt>
      <trkpt lat="48.55486" lon="-0.41801">
        <ele>178.6</ele>
        <time>2012-02-04T14:32:48Z</time>
      </trkpt>
      <trkpt lat="48.55492" lon="-0.4181">
        <ele>178.4</ele>
        <time>2012-02-04T14:32:50Z</time>
      </trkpt>
      <trkpt lat="48.55497" lon="-0.41817">
        <ele>178.1</ele>
        <time>2012-02-04T14:32:52Z</time>
      </trkpt>
      <trkpt lat="48.55503" lon="-0.41823">
        <ele>178</ele>
        <time>2012-02-04T14:32:54Z</time>
      </trkpt>
      <trkpt lat="48.5551" lon="-0.4183">
        <ele>178</ele>
        <time>2012-02-04T14:32:57Z</time>
      </trkpt>
      <trkpt lat="48.55511" lon="-0.41831">
        <ele>177.6</ele>
        <time>2012-02-04T14:32:58Z</time>
      </trkpt>
      <trkpt lat="48.55523" lon="-0.41829">
        <ele>176.8</ele>
        <time>2012-02-04T14:33:08Z</time>
      </trkpt>
      <trkpt lat="48.55528" lon="-0.41824">
        <ele>177</ele>
        <time>2012-02-04T14:33:10Z</time>
      </trkpt>
      <trkpt lat="48.55534" lon="-0.41822">
        <ele>176.7</ele>
        <time>2012-02-04T14:33:12Z</time>
      </trkpt>
      <trkpt lat="48.55541" lon="-0.41823">
        <ele>176.6</ele>
        <time>2012-02-04T14:33:14Z</time>
      </trkpt>
      <trkpt lat="48.55548" lon="-0.41824">
        <ele>177.1</ele>
        <time>2012-02-04T14:33:16Z</time>
      </trkpt>
      <trkpt lat="48.55555" lon="-0.41824">
        <ele>177.9</ele>
        <time>2012-02-04T14:33:18Z</time>
      </trkpt>
      <trkpt lat="48.55562" lon="-0.41822">
        <ele>178</ele>
        <time>2012-02-04T14:33:20Z</time>
      </trkpt>
      <trkpt lat="48.55568" lon="-0.4182">
        <ele>177.6</ele>
        <time>2012-02-04T14:33:22Z</time>
      </trkpt>
      <trkpt lat="48.55575" lon="-0.41816">
        <ele>178.3</ele>
        <time>2012-02-04T14:33:24Z</time>
      </trkpt>
      <trkpt lat="48.55582" lon="-0.41812">
        <ele>178.5</ele>
        <time>2012-02-04T14:33:26Z</time>
      </trkpt>
      <trkpt lat="48.55589" lon="-0.41808">
        <ele>178.4</ele>
        <time>2012-02-04T14:33:28Z</time>
      </trkpt>
      <trkpt lat="48.55596" lon="-0.41804">
        <ele>178.4</ele>
        <time>2012-02-04T14:33:30Z</time>
      </trkpt>
      <trkpt lat="48.55603" lon="-0.41799">
        <ele>178.5</ele>
        <time>2012-02-04T14:33:32Z</time>
      </trkpt>
      <trkpt lat="48.5561" lon="-0.41795">
        <ele>178.3</ele>
        <time>2012-02-04T14:33:34Z</time>
      </trkpt>
      <trkpt lat="48.55617" lon="-0.4179">
        <ele>179</ele>
        <time>2012-02-04T14:33:36Z</time>
      </trkpt>
      <trkpt lat="48.55624" lon="-0.41786">
        <ele>179.4</ele>
        <time>2012-02-04T14:33:38Z</time>
      </trkpt>
      <trkpt lat="48.55631" lon="-0.41781">
        <ele>179.3</ele>
        <time>2012-02-04T14:33:40Z</time>
      </trkpt>
      <trkpt lat="48.55638" lon="-0.41776">
        <ele>179.3</ele>
        <time>2012-02-04T14:33:42Z</time>
      </trkpt>
      <trkpt lat="48.55644" lon="-0.41772">
        <ele>179.6</ele>
        <time>2012-02-04T14:33:44Z</time>
      </trkpt>
      <trkpt lat="48.55651" lon="-0.41768">
        <ele>179.9</ele>
        <time>2012-02-04T14:33:46Z</time>
      </trkpt>
      <trkpt lat="48.55658" lon="-0.41763">
        <ele>179.9</ele>
        <time>2012-02-04T14:33:48Z</time>
      </trkpt>
      <trkpt lat="48.55663" lon="-0.41758">
        <ele>181</ele>
        <time>2012-02-04T14:33:50Z</time>
      </trkpt>
      <trkpt lat="48.55669" lon="-0.41753">
        <ele>181.6</ele>
        <time>2012-02-04T14:33:52Z</time>
      </trkpt>
      <trkpt lat="48.55674" lon="-0.41747">
        <ele>181.9</ele>
        <time>2012-02-04T14:33:54Z</time>
      </trkpt>
      <trkpt lat="48.55678" lon="-0.4174">
        <ele>182.3</ele>
        <time>2012-02-04T14:33:56Z</time>
      </trkpt>
      <trkpt lat="48.55681" lon="-0.41732">
        <ele>182.8</ele>
        <time>2012-02-04T14:33:58Z</time>
      </trkpt>
      <trkpt lat="48.55682" lon="-0.41728">
        <ele>183.1</ele>
        <time>2012-02-04T14:33:59Z</time>
      </trkpt>
      <trkpt lat="48.55684" lon="-0.41714">
        <ele>183.1</ele>
        <time>2012-02-04T14:34:02Z</time>
      </trkpt>
      <trkpt lat="48.55684" lon="-0.41701">
        <ele>183.8</ele>
        <time>2012-02-04T14:34:05Z</time>
      </trkpt>
      <trkpt lat="48.55681" lon="-0.41689">
        <ele>184.2</ele>
        <time>2012-02-04T14:34:08Z</time>
      </trkpt>
      <trkpt lat="48.55682" lon="-0.41676">
        <ele>184.9</ele>
        <time>2012-02-04T14:34:15Z</time>
      </trkpt>
      <trkpt lat="48.55684" lon="-0.41665">
        <ele>185.5</ele>
        <time>2012-02-04T14:34:20Z</time>
      </trkpt>
      <trkpt lat="48.55684" lon="-0.41654">
        <ele>185.4</ele>
        <time>2012-02-04T14:34:22Z</time>
      </trkpt>
      <trkpt lat="48.55685" lon="-0.41642">
        <ele>185.4</ele>
        <time>2012-02-04T14:34:24Z</time>
      </trkpt>
      <trkpt lat="48.55686" lon="-0.41631">
        <ele>185.8</ele>
        <time>2012-02-04T14:34:26Z</time>
      </trkpt>
      <trkpt lat="48.55689" lon="-0.41621">
        <ele>185.9</ele>
        <time>2012-02-04T14:34:28Z</time>
      </trkpt>
      <trkpt lat="48.55692" lon="-0.41611">
        <ele>185.8</ele>
        <time>2012-02-04T14:34:30Z</time>
      </trkpt>
      <trkpt lat="48.55695" lon="-0.416">
        <ele>185.9</ele>
        <time>2012-02-04T14:34:32Z</time>
      </trkpt>
      <trkpt lat="48.55698" lon="-0.41589">
        <ele>186.6</ele>
        <time>2012-02-04T14:34:34Z</time>
      </trkpt>
      <trkpt lat="48.55701" lon="-0.41578">
        <ele>187.1</ele>
        <time>2012-02-04T14:34:36Z</time>
      </trkpt>
      <trkpt lat="48.55705" lon="-0.41566">
        <ele>187.1</ele>
        <time>2012-02-04T14:34:38Z</time>
      </trkpt>
      <trkpt lat="48.55708" lon="-0.41555">
        <ele>187.2</ele>
        <time>2012-02-04T14:34:40Z</time>
      </trkpt>
      <trkpt lat="48.55711" lon="-0.41543">
        <ele>187.4</ele>
        <time>2012-02-04T14:34:42Z</time>
      </trkpt>
      <trkpt lat="48.55714" lon="-0.41531">
        <ele>187.9</ele>
        <time>2012-02-04T14:34:44Z</time>
      </trkpt>
      <trkpt lat="48.55716" lon="-0.41518">
        <ele>188.4</ele>
        <time>2012-02-04T14:34:46Z</time>
      </trkpt>
      <trkpt lat="48.55717" lon="-0.41506">
        <ele>188.7</ele>
        <time>2012-02-04T14:34:48Z</time>
      </trkpt>
      <trkpt lat="48.55718" lon="-0.41493">
        <ele>188.6</ele>
        <time>2012-02-04T14:34:50Z</time>
      </trkpt>
      <trkpt lat="48.5572" lon="-0.4148">
        <ele>188.5</ele>
        <time>2012-02-04T14:34:52Z</time>
      </trkpt>
      <trkpt lat="48.55721" lon="-0.41468">
        <ele>188.9</ele>
        <time>2012-02-04T14:34:54Z</time>
      </trkpt>
      <trkpt lat="48.55721" lon="-0.41455">
        <ele>189.1</ele>
        <time>2012-02-04T14:34:56Z</time>
      </trkpt>
      <trkpt lat="48.55722" lon="-0.41442">
        <ele>189.7</ele>
        <time>2012-02-04T14:34:58Z</time>
      </trkpt>
      <trkpt lat="48.55722" lon="-0.41429">
        <ele>189.9</ele>
        <time>2012-02-04T14:35:00Z</time>
      </trkpt>
      <trkpt lat="48.55722" lon="-0.41423">
        <ele>189.8</ele>
        <time>2012-02-04T14:35:01Z</time>
      </trkpt>
      <trkpt lat="48.55721" lon="-0.41404">
        <ele>190.1</ele>
        <time>2012-02-04T14:35:04Z</time>
      </trkpt>
      <trkpt lat="48.55721" lon="-0.41391">
        <ele>189.9</ele>
        <time>2012-02-04T14:35:06Z</time>
      </trkpt>
      <trkpt lat="48.55718" lon="-0.41379">
        <ele>190</ele>
        <time>2012-02-04T14:35:08Z</time>
      </trkpt>
      <trkpt lat="48.55716" lon="-0.41373">
        <ele>190.1</ele>
        <time>2012-02-04T14:35:09Z</time>
      </trkpt>
      <trkpt lat="48.55714" lon="-0.41367">
        <ele>190.4</ele>
        <time>2012-02-04T14:35:10Z</time>
      </trkpt>
      <trkpt lat="48.55714" lon="-0.41359">
        <ele>190.6</ele>
        <time>2012-02-04T14:35:11Z</time>
      </trkpt>
      <trkpt lat="48.55714" lon="-0.41352">
        <ele>190.8</ele>
        <time>2012-02-04T14:35:12Z</time>
      </trkpt>
      <trkpt lat="48.55714" lon="-0.41344">
        <ele>191</ele>
        <time>2012-02-04T14:35:13Z</time>
      </trkpt>
      <trkpt lat="48.55713" lon="-0.41336">
        <ele>191.1</ele>
        <time>2012-02-04T14:35:14Z</time>
      </trkpt>
      <trkpt lat="48.55713" lon="-0.41328">
        <ele>191.2</ele>
        <time>2012-02-04T14:35:15Z</time>
      </trkpt>
      <trkpt lat="48.55712" lon="-0.4132">
        <ele>191.2</ele>
        <time>2012-02-04T14:35:16Z</time>
      </trkpt>
      <trkpt lat="48.55711" lon="-0.41313">
        <ele>191.1</ele>
        <time>2012-02-04T14:35:17Z</time>
      </trkpt>
      <trkpt lat="48.5571" lon="-0.41305">
        <ele>191.1</ele>
        <time>2012-02-04T14:35:18Z</time>
      </trkpt>
      <trkpt lat="48.55709" lon="-0.41297">
        <ele>191</ele>
        <time>2012-02-04T14:35:19Z</time>
      </trkpt>
      <trkpt lat="48.55708" lon="-0.4129">
        <ele>190.7</ele>
        <time>2012-02-04T14:35:20Z</time>
      </trkpt>
      <trkpt lat="48.55706" lon="-0.41283">
        <ele>190.4</ele>
        <time>2012-02-04T14:35:21Z</time>
      </trkpt>
      <trkpt lat="48.55705" lon="-0.41275">
        <ele>190.6</ele>
        <time>2012-02-04T14:35:22Z</time>
      </trkpt>
      <trkpt lat="48.55704" lon="-0.41268">
        <ele>190.8</ele>
        <time>2012-02-04T14:35:23Z</time>
      </trkpt>
      <trkpt lat="48.55703" lon="-0.41261">
        <ele>191</ele>
        <time>2012-02-04T14:35:24Z</time>
      </trkpt>
      <trkpt lat="48.55702" lon="-0.41255">
        <ele>191.1</ele>
        <time>2012-02-04T14:35:25Z</time>
      </trkpt>
      <trkpt lat="48.55699" lon="-0.41242">
        <ele>191.7</ele>
        <time>2012-02-04T14:35:27Z</time>
      </trkpt>
      <trkpt lat="48.55695" lon="-0.41231">
        <ele>191.8</ele>
        <time>2012-02-04T14:35:29Z</time>
      </trkpt>
      <trkpt lat="48.55692" lon="-0.41219">
        <ele>192</ele>
        <time>2012-02-04T14:35:31Z</time>
      </trkpt>
      <trkpt lat="48.55693" lon="-0.41209">
        <ele>192.6</ele>
        <time>2012-02-04T14:35:33Z</time>
      </trkpt>
      <trkpt lat="48.55698" lon="-0.41203">
        <ele>192.5</ele>
        <time>2012-02-04T14:35:35Z</time>
      </trkpt>
      <trkpt lat="48.55706" lon="-0.41204">
        <ele>192.3</ele>
        <time>2012-02-04T14:35:37Z</time>
      </trkpt>
      <trkpt lat="48.5571" lon="-0.41205">
        <ele>192.3</ele>
        <time>2012-02-04T14:35:38Z</time>
      </trkpt>
      <trkpt lat="48.55715" lon="-0.41207">
        <ele>192.3</ele>
        <time>2012-02-04T14:35:39Z</time>
      </trkpt>
      <trkpt lat="48.55719" lon="-0.41209">
        <ele>192.3</ele>
        <time>2012-02-04T14:35:40Z</time>
      </trkpt>
      <trkpt lat="48.55724" lon="-0.4121">
        <ele>192.5</ele>
        <time>2012-02-04T14:35:41Z</time>
      </trkpt>
      <trkpt lat="48.55729" lon="-0.41212">
        <ele>192.7</ele>
        <time>2012-02-04T14:35:42Z</time>
      </trkpt>
      <trkpt lat="48.55733" lon="-0.41214">
        <ele>192.6</ele>
        <time>2012-02-04T14:35:43Z</time>
      </trkpt>
      <trkpt lat="48.55738" lon="-0.41216">
        <ele>192.5</ele>
        <time>2012-02-04T14:35:44Z</time>
      </trkpt>
      <trkpt lat="48.55742" lon="-0.41219">
        <ele>192.5</ele>
        <time>2012-02-04T14:35:45Z</time>
      </trkpt>
      <trkpt lat="48.5575" lon="-0.41225">
        <ele>193</ele>
        <time>2012-02-04T14:35:47Z</time>
      </trkpt>
      <trkpt lat="48.55757" lon="-0.41231">
        <ele>193</ele>
        <time>2012-02-04T14:35:49Z</time>
      </trkpt>
      <trkpt lat="48.55764" lon="-0.41237">
        <ele>192.8</ele>
        <time>2012-02-04T14:35:51Z</time>
      </trkpt>
      <trkpt lat="48.55771" lon="-0.41242">
        <ele>193.1</ele>
        <time>2012-02-04T14:35:53Z</time>
      </trkpt>
      <trkpt lat="48.55778" lon="-0.41239">
        <ele>193.7</ele>
        <time>2012-02-04T14:35:55Z</time>
      </trkpt>
      <trkpt lat="48.55782" lon="-0.4123">
        <ele>194.3</ele>
        <time>2012-02-04T14:35:57Z</time>
      </trkpt>
      <trkpt lat="48.55785" lon="-0.4122">
        <ele>194.6</ele>
        <time>2012-02-04T14:35:59Z</time>
      </trkpt>
      <trkpt lat="48.55787" lon="-0.41211">
        <ele>195.5</ele>
        <time>2012-02-04T14:36:01Z</time>
      </trkpt>
      <trkpt lat="48.55789" lon="-0.41206">
        <ele>196.1</ele>
        <time>2012-02-04T14:36:02Z</time>
      </trkpt>
      <trkpt lat="48.55792" lon="-0.41189">
        <ele>197.6</ele>
        <time>2012-02-04T14:36:06Z</time>
      </trkpt>
      <trkpt lat="48.55796" lon="-0.4118">
        <ele>197.9</ele>
        <time>2012-02-04T14:36:08Z</time>
      </trkpt>
      <trkpt lat="48.55798" lon="-0.41171">
        <ele>198.3</ele>
        <time>2012-02-04T14:36:10Z</time>
      </trkpt>
      <trkpt lat="48.55801" lon="-0.41161">
        <ele>198.9</ele>
        <time>2012-02-04T14:36:12Z</time>
      </trkpt>
      <trkpt lat="48.55807" lon="-0.41154">
        <ele>200.1</ele>
        <time>2012-02-04T14:36:15Z</time>
      </trkpt>
      <trkpt lat="48.55814" lon="-0.4115">
        <ele>200.8</ele>
        <time>2012-02-04T14:36:17Z</time>
      </trkpt>
      <trkpt lat="48.5582" lon="-0.41147">
        <ele>201.5</ele>
        <time>2012-02-04T14:36:19Z</time>
      </trkpt>
      <trkpt lat="48.55826" lon="-0.41146">
        <ele>201.8</ele>
        <time>2012-02-04T14:36:21Z</time>
      </trkpt>
      <trkpt lat="48.55832" lon="-0.41142">
        <ele>201.9</ele>
        <time>2012-02-04T14:36:23Z</time>
      </trkpt>
      <trkpt lat="48.55838" lon="-0.41139">
        <ele>202.1</ele>
        <time>2012-02-04T14:36:25Z</time>
      </trkpt>
      <trkpt lat="48.55846" lon="-0.41134">
        <ele>203.4</ele>
        <time>2012-02-04T14:36:28Z</time>
      </trkpt>
      <trkpt lat="48.55854" lon="-0.41135">
        <ele>204.2</ele>
        <time>2012-02-04T14:36:31Z</time>
      </trkpt>
      <trkpt lat="48.5586" lon="-0.41138">
        <ele>205</ele>
        <time>2012-02-04T14:36:33Z</time>
      </trkpt>
      <trkpt lat="48.55866" lon="-0.4114">
        <ele>205.3</ele>
        <time>2012-02-04T14:36:35Z</time>
      </trkpt>
      <trkpt lat="48.55872" lon="-0.41141">
        <ele>205.3</ele>
        <time>2012-02-04T14:36:37Z</time>
      </trkpt>
      <trkpt lat="48.55879" lon="-0.4114">
        <ele>205.8</ele>
        <time>2012-02-04T14:36:39Z</time>
      </trkpt>
      <trkpt lat="48.55886" lon="-0.41134">
        <ele>206.4</ele>
        <time>2012-02-04T14:36:42Z</time>
      </trkpt>
      <trkpt lat="48.5589" lon="-0.41124">
        <ele>207.8</ele>
        <time>2012-02-04T14:36:45Z</time>
      </trkpt>
      <trkpt lat="48.55893" lon="-0.41115">
        <ele>208.6</ele>
        <time>2012-02-04T14:36:47Z</time>
      </trkpt>
      <trkpt lat="48.55897" lon="-0.41106">
        <ele>209.2</ele>
        <time>2012-02-04T14:36:49Z</time>
      </trkpt>
      <trkpt lat="48.55899" lon="-0.41098">
        <ele>209.7</ele>
        <time>2012-02-04T14:36:51Z</time>
      </trkpt>
      <trkpt lat="48.55903" lon="-0.41086">
        <ele>210.2</ele>
        <time>2012-02-04T14:36:54Z</time>
      </trkpt>
      <trkpt lat="48.55906" lon="-0.41078">
        <ele>210.3</ele>
        <time>2012-02-04T14:36:56Z</time>
      </trkpt>
      <trkpt lat="48.5591" lon="-0.4107">
        <ele>210.6</ele>
        <time>2012-02-04T14:36:58Z</time>
      </trkpt>
      <trkpt lat="48.55915" lon="-0.41061">
        <ele>210.9</ele>
        <time>2012-02-04T14:37:00Z</time>
      </trkpt>
      <trkpt lat="48.55919" lon="-0.41053">
        <ele>211.6</ele>
        <time>2012-02-04T14:37:02Z</time>
      </trkpt>
      <trkpt lat="48.55921" lon="-0.41049">
        <ele>212</ele>
        <time>2012-02-04T14:37:03Z</time>
      </trkpt>
      <trkpt lat="48.5593" lon="-0.41038">
        <ele>213.3</ele>
        <time>2012-02-04T14:37:07Z</time>
      </trkpt>
      <trkpt lat="48.55935" lon="-0.41031">
        <ele>213.6</ele>
        <time>2012-02-04T14:37:09Z</time>
      </trkpt>
      <trkpt lat="48.55938" lon="-0.41023">
        <ele>213.9</ele>
        <time>2012-02-04T14:37:11Z</time>
      </trkpt>
      <trkpt lat="48.55943" lon="-0.41017">
        <ele>214.5</ele>
        <time>2012-02-04T14:37:13Z</time>
      </trkpt>
      <trkpt lat="48.55948" lon="-0.4101">
        <ele>215</ele>
        <time>2012-02-04T14:37:15Z</time>
      </trkpt>
      <trkpt lat="48.55951" lon="-0.41002">
        <ele>215.5</ele>
        <time>2012-02-04T14:37:17Z</time>
      </trkpt>
      <trkpt lat="48.55955" lon="-0.40993">
        <ele>216</ele>
        <time>2012-02-04T14:37:19Z</time>
      </trkpt>
      <trkpt lat="48.55959" lon="-0.40984">
        <ele>215.8</ele>
        <time>2012-02-04T14:37:21Z</time>
      </trkpt>
      <trkpt lat="48.55964" lon="-0.40975">
        <ele>216.2</ele>
        <time>2012-02-04T14:37:23Z</time>
      </trkpt>
      <trkpt lat="48.55968" lon="-0.40968">
        <ele>216.6</ele>
        <time>2012-02-04T14:37:25Z</time>
      </trkpt>
      <trkpt lat="48.55973" lon="-0.40961">
        <ele>216.6</ele>
        <time>2012-02-04T14:37:27Z</time>
      </trkpt>
      <trkpt lat="48.5598" lon="-0.40957">
        <ele>217</ele>
        <time>2012-02-04T14:37:29Z</time>
      </trkpt>
      <trkpt lat="48.55988" lon="-0.40956">
        <ele>217.6</ele>
        <time>2012-02-04T14:37:31Z</time>
      </trkpt>
      <trkpt lat="48.55995" lon="-0.40955">
        <ele>218.4</ele>
        <time>2012-02-04T14:37:33Z</time>
      </trkpt>
      <trkpt lat="48.55999" lon="-0.40947">
        <ele>218.5</ele>
        <time>2012-02-04T14:37:36Z</time>
      </trkpt>
      <trkpt lat="48.56001" lon="-0.40939">
        <ele>219.7</ele>
        <time>2012-02-04T14:37:38Z</time>
      </trkpt>
      <trkpt lat="48.56003" lon="-0.40929">
        <ele>220.2</ele>
        <time>2012-02-04T14:37:40Z</time>
      </trkpt>
      <trkpt lat="48.56005" lon="-0.4092">
        <ele>220.7</ele>
        <time>2012-02-04T14:37:42Z</time>
      </trkpt>
      <trkpt lat="48.56008" lon="-0.40911">
        <ele>221.2</ele>
        <time>2012-02-04T14:37:44Z</time>
      </trkpt>
      <trkpt lat="48.56011" lon="-0.40903">
        <ele>221.5</ele>
        <time>2012-02-04T14:37:46Z</time>
      </trkpt>
      <trkpt lat="48.56016" lon="-0.40895">
        <ele>222.1</ele>
        <time>2012-02-04T14:37:48Z</time>
      </trkpt>
      <trkpt lat="48.56023" lon="-0.40892">
        <ele>222.4</ele>
        <time>2012-02-04T14:37:50Z</time>
      </trkpt>
      <trkpt lat="48.5603" lon="-0.40891">
        <ele>222.6</ele>
        <time>2012-02-04T14:37:52Z</time>
      </trkpt>
      <trkpt lat="48.56037" lon="-0.40894">
        <ele>222.7</ele>
        <time>2012-02-04T14:37:54Z</time>
      </trkpt>
      <trkpt lat="48.56044" lon="-0.40897">
        <ele>222.9</ele>
        <time>2012-02-04T14:37:56Z</time>
      </trkpt>
      <trkpt lat="48.56051" lon="-0.40901">
        <ele>223.4</ele>
        <time>2012-02-04T14:37:58Z</time>
      </trkpt>
      <trkpt lat="48.56057" lon="-0.40905">
        <ele>224</ele>
        <time>2012-02-04T14:38:00Z</time>
      </trkpt>
      <trkpt lat="48.56065" lon="-0.40908">
        <ele>223.8</ele>
        <time>2012-02-04T14:38:02Z</time>
      </trkpt>
      <trkpt lat="48.56072" lon="-0.40914">
        <ele>224.3</ele>
        <time>2012-02-04T14:38:04Z</time>
      </trkpt>
      <trkpt lat="48.56075" lon="-0.40917">
        <ele>224.4</ele>
        <time>2012-02-04T14:38:05Z</time>
      </trkpt>
      <trkpt lat="48.56083" lon="-0.40927">
        <ele>224.4</ele>
        <time>2012-02-04T14:38:08Z</time>
      </trkpt>
      <trkpt lat="48.56088" lon="-0.40935">
        <ele>224.8</ele>
        <time>2012-02-04T14:38:10Z</time>
      </trkpt>
      <trkpt lat="48.56093" lon="-0.40943">
        <ele>225</ele>
        <time>2012-02-04T14:38:12Z</time>
      </trkpt>
      <trkpt lat="48.56096" lon="-0.40954">
        <ele>224.7</ele>
        <time>2012-02-04T14:38:14Z</time>
      </trkpt>
      <trkpt lat="48.56099" lon="-0.40964">
        <ele>225.1</ele>
        <time>2012-02-04T14:38:16Z</time>
      </trkpt>
      <trkpt lat="48.56104" lon="-0.40973">
        <ele>224.9</ele>
        <time>2012-02-04T14:38:18Z</time>
      </trkpt>
      <trkpt lat="48.56108" lon="-0.40985">
        <ele>225.5</ele>
        <time>2012-02-04T14:38:21Z</time>
      </trkpt>
      <trkpt lat="48.56112" lon="-0.40995">
        <ele>225.5</ele>
        <time>2012-02-04T14:38:24Z</time>
      </trkpt>
      <trkpt lat="48.56117" lon="-0.41003">
        <ele>225.8</ele>
        <time>2012-02-04T14:38:26Z</time>
      </trkpt>
      <trkpt lat="48.56123" lon="-0.41012">
        <ele>226</ele>
        <time>2012-02-04T14:38:28Z</time>
      </trkpt>
      <trkpt lat="48.56129" lon="-0.41021">
        <ele>226</ele>
        <time>2012-02-04T14:38:30Z</time>
      </trkpt>
      <trkpt lat="48.56135" lon="-0.41029">
        <ele>226</ele>
        <time>2012-02-04T14:38:32Z</time>
      </trkpt>
      <trkpt lat="48.56141" lon="-0.41036">
        <ele>226.1</ele>
        <time>2012-02-04T14:38:34Z</time>
      </trkpt>
      <trkpt lat="48.56147" lon="-0.41044">
        <ele>226.1</ele>
        <time>2012-02-04T14:38:36Z</time>
      </trkpt>
      <trkpt lat="48.56154" lon="-0.4105">
        <ele>226.1</ele>
        <time>2012-02-04T14:38:38Z</time>
      </trkpt>
      <trkpt lat="48.56161" lon="-0.41055">
        <ele>226.7</ele>
        <time>2012-02-04T14:38:40Z</time>
      </trkpt>
      <trkpt lat="48.56168" lon="-0.41061">
        <ele>226.5</ele>
        <time>2012-02-04T14:38:42Z</time>
      </trkpt>
      <trkpt lat="48.56173" lon="-0.41067">
        <ele>226.5</ele>
        <time>2012-02-04T14:38:44Z</time>
      </trkpt>
      <trkpt lat="48.5618" lon="-0.4107">
        <ele>226.2</ele>
        <time>2012-02-04T14:38:46Z</time>
      </trkpt>
      <trkpt lat="48.56186" lon="-0.41075">
        <ele>225.8</ele>
        <time>2012-02-04T14:38:48Z</time>
      </trkpt>
      <trkpt lat="48.5619" lon="-0.41083">
        <ele>225.4</ele>
        <time>2012-02-04T14:38:50Z</time>
      </trkpt>
      <trkpt lat="48.56192" lon="-0.41094">
        <ele>225.5</ele>
        <time>2012-02-04T14:38:52Z</time>
      </trkpt>
      <trkpt lat="48.56193" lon="-0.41105">
        <ele>225.5</ele>
        <time>2012-02-04T14:38:54Z</time>
      </trkpt>
      <trkpt lat="48.56193" lon="-0.41116">
        <ele>225.3</ele>
        <time>2012-02-04T14:38:56Z</time>
      </trkpt>
      <trkpt lat="48.56194" lon="-0.41126">
        <ele>225.3</ele>
        <time>2012-02-04T14:38:58Z</time>
      </trkpt>
      <trkpt lat="48.56195" lon="-0.41138">
        <ele>225.2</ele>
        <time>2012-02-04T14:39:00Z</time>
      </trkpt>
      <trkpt lat="48.56193" lon="-0.41148">
        <ele>225</ele>
        <time>2012-02-04T14:39:02Z</time>
      </trkpt>
      <trkpt lat="48.56189" lon="-0.41156">
        <ele>226</ele>
        <time>2012-02-04T14:39:04Z</time>
      </trkpt>
      <trkpt lat="48.56185" lon="-0.41165">
        <ele>226.5</ele>
        <time>2012-02-04T14:39:06Z</time>
      </trkpt>
      <trkpt lat="48.56182" lon="-0.41169">
        <ele>226.3</ele>
        <time>2012-02-04T14:39:07Z</time>
      </trkpt>
      <trkpt lat="48.56183" lon="-0.41186">
        <ele>225.8</ele>
        <time>2012-02-04T14:39:14Z</time>
      </trkpt>
      <trkpt lat="48.5619" lon="-0.41189">
        <ele>225.9</ele>
        <time>2012-02-04T14:39:16Z</time>
      </trkpt>
      <trkpt lat="48.56198" lon="-0.41191">
        <ele>226.2</ele>
        <time>2012-02-04T14:39:18Z</time>
      </trkpt>
      <trkpt lat="48.56207" lon="-0.41192">
        <ele>226.6</ele>
        <time>2012-02-04T14:39:20Z</time>
      </trkpt>
      <trkpt lat="48.56215" lon="-0.41192">
        <ele>226.5</ele>
        <time>2012-02-04T14:39:22Z</time>
      </trkpt>
      <trkpt lat="48.56224" lon="-0.41191">
        <ele>226.3</ele>
        <time>2012-02-04T14:39:24Z</time>
      </trkpt>
      <trkpt lat="48.56228" lon="-0.41192">
        <ele>226.2</ele>
        <time>2012-02-04T14:39:25Z</time>
      </trkpt>
      <trkpt lat="48.56237" lon="-0.41193">
        <ele>226.1</ele>
        <time>2012-02-04T14:39:27Z</time>
      </trkpt>
      <trkpt lat="48.56245" lon="-0.41193">
        <ele>226</ele>
        <time>2012-02-04T14:39:29Z</time>
      </trkpt>
      <trkpt lat="48.56252" lon="-0.41193">
        <ele>226.1</ele>
        <time>2012-02-04T14:39:31Z</time>
      </trkpt>
      <trkpt lat="48.5626" lon="-0.41192">
        <ele>225.9</ele>
        <time>2012-02-04T14:39:33Z</time>
      </trkpt>
      <trkpt lat="48.56268" lon="-0.41192">
        <ele>225.3</ele>
        <time>2012-02-04T14:39:35Z</time>
      </trkpt>
      <trkpt lat="48.56275" lon="-0.41193">
        <ele>225</ele>
        <time>2012-02-04T14:39:37Z</time>
      </trkpt>
      <trkpt lat="48.56283" lon="-0.41191">
        <ele>225.1</ele>
        <time>2012-02-04T14:39:39Z</time>
      </trkpt>
      <trkpt lat="48.5629" lon="-0.41189">
        <ele>224.5</ele>
        <time>2012-02-04T14:39:41Z</time>
      </trkpt>
      <trkpt lat="48.56297" lon="-0.41188">
        <ele>224.5</ele>
        <time>2012-02-04T14:39:43Z</time>
      </trkpt>
      <trkpt lat="48.56303" lon="-0.41183">
        <ele>224.6</ele>
        <time>2012-02-04T14:39:45Z</time>
      </trkpt>
      <trkpt lat="48.56308" lon="-0.41176">
        <ele>224.5</ele>
        <time>2012-02-04T14:39:47Z</time>
      </trkpt>
      <trkpt lat="48.56313" lon="-0.4117">
        <ele>223.9</ele>
        <time>2012-02-04T14:39:49Z</time>
      </trkpt>
      <trkpt lat="48.56319" lon="-0.41162">
        <ele>223.5</ele>
        <time>2012-02-04T14:39:51Z</time>
      </trkpt>
      <trkpt lat="48.56324" lon="-0.41153">
        <ele>223.2</ele>
        <time>2012-02-04T14:39:53Z</time>
      </trkpt>
      <trkpt lat="48.56329" lon="-0.41144">
        <ele>222.6</ele>
        <time>2012-02-04T14:39:55Z</time>
      </trkpt>
      <trkpt lat="48.56334" lon="-0.41136">
        <ele>221.5</ele>
        <time>2012-02-04T14:39:57Z</time>
      </trkpt>
      <trkpt lat="48.56339" lon="-0.41129">
        <ele>220.5</ele>
        <time>2012-02-04T14:39:59Z</time>
      </trkpt>
      <trkpt lat="48.56344" lon="-0.41122">
        <ele>219</ele>
        <time>2012-02-04T14:40:01Z</time>
      </trkpt>
      <trkpt lat="48.56349" lon="-0.41116">
        <ele>216.8</ele>
        <time>2012-02-04T14:40:03Z</time>
      </trkpt>
      <trkpt lat="48.56352" lon="-0.41108">
        <ele>214.9</ele>
        <time>2012-02-04T14:40:05Z</time>
      </trkpt>
      <trkpt lat="48.56354" lon="-0.41095">
        <ele>213.4</ele>
        <time>2012-02-04T14:40:08Z</time>
      </trkpt>
      <trkpt lat="48.56353" lon="-0.4109">
        <ele>213</ele>
        <time>2012-02-04T14:40:09Z</time>
      </trkpt>
      <trkpt lat="48.56349" lon="-0.41077">
        <ele>212.6</ele>
        <time>2012-02-04T14:40:12Z</time>
      </trkpt>
      <trkpt lat="48.56349" lon="-0.41065">
        <ele>212.5</ele>
        <time>2012-02-04T14:40:14Z</time>
      </trkpt>
      <trkpt lat="48.56352" lon="-0.41053">
        <ele>212.5</ele>
        <time>2012-02-04T14:40:16Z</time>
      </trkpt>
      <trkpt lat="48.56354" lon="-0.41045">
        <ele>212.5</ele>
        <time>2012-02-04T14:40:17Z</time>
      </trkpt>
      <trkpt lat="48.56356" lon="-0.41038">
        <ele>211.9</ele>
        <time>2012-02-04T14:40:18Z</time>
      </trkpt>
      <trkpt lat="48.56357" lon="-0.4103">
        <ele>211.5</ele>
        <time>2012-02-04T14:40:19Z</time>
      </trkpt>
      <trkpt lat="48.56358" lon="-0.41023">
        <ele>211.1</ele>
        <time>2012-02-04T14:40:20Z</time>
      </trkpt>
      <trkpt lat="48.5636" lon="-0.41016">
        <ele>211.3</ele>
        <time>2012-02-04T14:40:21Z</time>
      </trkpt>
      <trkpt lat="48.56361" lon="-0.41009">
        <ele>211.4</ele>
        <time>2012-02-04T14:40:22Z</time>
      </trkpt>
      <trkpt lat="48.56362" lon="-0.41002">
        <ele>211</ele>
        <time>2012-02-04T14:40:23Z</time>
      </trkpt>
      <trkpt lat="48.56365" lon="-0.4099">
        <ele>210.4</ele>
        <time>2012-02-04T14:40:25Z</time>
      </trkpt>
      <trkpt lat="48.5637" lon="-0.40985">
        <ele>210.2</ele>
        <time>2012-02-04T14:40:27Z</time>
      </trkpt>
      <trkpt lat="48.56378" lon="-0.40981">
        <ele>209.9</ele>
        <time>2012-02-04T14:40:29Z</time>
      </trkpt>
      <trkpt lat="48.56383" lon="-0.40979">
        <ele>209.8</ele>
        <time>2012-02-04T14:40:30Z</time>
      </trkpt>
      <trkpt lat="48.56387" lon="-0.40977">
        <ele>209.7</ele>
        <time>2012-02-04T14:40:31Z</time>
      </trkpt>
      <trkpt lat="48.56391" lon="-0.40974">
        <ele>209.6</ele>
        <time>2012-02-04T14:40:32Z</time>
      </trkpt>
      <trkpt lat="48.56396" lon="-0.40972">
        <ele>209</ele>
        <time>2012-02-04T14:40:33Z</time>
      </trkpt>
      <trkpt lat="48.56401" lon="-0.40971">
        <ele>208.6</ele>
        <time>2012-02-04T14:40:34Z</time>
      </trkpt>
      <trkpt lat="48.56406" lon="-0.40969">
        <ele>208.2</ele>
        <time>2012-02-04T14:40:35Z</time>
      </trkpt>
      <trkpt lat="48.5641" lon="-0.40968">
        <ele>207.8</ele>
        <time>2012-02-04T14:40:36Z</time>
      </trkpt>
      <trkpt lat="48.56415" lon="-0.40966">
        <ele>207.5</ele>
        <time>2012-02-04T14:40:37Z</time>
      </trkpt>
      <trkpt lat="48.56424" lon="-0.40963">
        <ele>207</ele>
        <time>2012-02-04T14:40:39Z</time>
      </trkpt>
      <trkpt lat="48.56428" lon="-0.4096">
        <ele>206.3</ele>
        <time>2012-02-04T14:40:40Z</time>
      </trkpt>
      <trkpt lat="48.56432" lon="-0.40956">
        <ele>205.8</ele>
        <time>2012-02-04T14:40:41Z</time>
      </trkpt>
      <trkpt lat="48.56438" lon="-0.40948">
        <ele>205.3</ele>
        <time>2012-02-04T14:40:43Z</time>
      </trkpt>
      <trkpt lat="48.56446" lon="-0.40945">
        <ele>204.6</ele>
        <time>2012-02-04T14:40:45Z</time>
      </trkpt>
      <trkpt lat="48.56452" lon="-0.40944">
        <ele>204</ele>
        <time>2012-02-04T14:40:47Z</time>
      </trkpt>
      <trkpt lat="48.56459" lon="-0.4094">
        <ele>203.5</ele>
        <time>2012-02-04T14:40:49Z</time>
      </trkpt>
      <trkpt lat="48.56465" lon="-0.40932">
        <ele>203.1</ele>
        <time>2012-02-04T14:40:51Z</time>
      </trkpt>
      <trkpt lat="48.56471" lon="-0.40926">
        <ele>202.5</ele>
        <time>2012-02-04T14:40:53Z</time>
      </trkpt>
      <trkpt lat="48.56478" lon="-0.40918">
        <ele>201.5</ele>
        <time>2012-02-04T14:40:55Z</time>
      </trkpt>
      <trkpt lat="48.56482" lon="-0.40914">
        <ele>201.5</ele>
        <time>2012-02-04T14:40:56Z</time>
      </trkpt>
      <trkpt lat="48.56486" lon="-0.4091">
        <ele>201.5</ele>
        <time>2012-02-04T14:40:57Z</time>
      </trkpt>
      <trkpt lat="48.5649" lon="-0.40907">
        <ele>201.5</ele>
        <time>2012-02-04T14:40:58Z</time>
      </trkpt>
      <trkpt lat="48.56498" lon="-0.40903">
        <ele>200.4</ele>
        <time>2012-02-04T14:41:00Z</time>
      </trkpt>
      <trkpt lat="48.56504" lon="-0.40897">
        <ele>199.3</ele>
        <time>2012-02-04T14:41:02Z</time>
      </trkpt>
      <trkpt lat="48.56511" lon="-0.40891">
        <ele>198.6</ele>
        <time>2012-02-04T14:41:04Z</time>
      </trkpt>
      <trkpt lat="48.56516" lon="-0.40888">
        <ele>198.3</ele>
        <time>2012-02-04T14:41:05Z</time>
      </trkpt>
      <trkpt lat="48.56521" lon="-0.40886">
        <ele>198.1</ele>
        <time>2012-02-04T14:41:06Z</time>
      </trkpt>
      <trkpt lat="48.56526" lon="-0.40885">
        <ele>198</ele>
        <time>2012-02-04T14:41:07Z</time>
      </trkpt>
      <trkpt lat="48.56531" lon="-0.40884">
        <ele>197.6</ele>
        <time>2012-02-04T14:41:08Z</time>
      </trkpt>
      <trkpt lat="48.56539" lon="-0.40882">
        <ele>197</ele>
        <time>2012-02-04T14:41:10Z</time>
      </trkpt>
      <trkpt lat="48.56543" lon="-0.40882">
        <ele>196.9</ele>
        <time>2012-02-04T14:41:11Z</time>
      </trkpt>
      <trkpt lat="48.56554" lon="-0.4088">
        <ele>196.5</ele>
        <time>2012-02-04T14:41:14Z</time>
      </trkpt>
      <trkpt lat="48.56562" lon="-0.40877">
        <ele>196.4</ele>
        <time>2012-02-04T14:41:16Z</time>
      </trkpt>
      <trkpt lat="48.5657" lon="-0.40877">
        <ele>196.6</ele>
        <time>2012-02-04T14:41:18Z</time>
      </trkpt>
      <trkpt lat="48.56577" lon="-0.40878">
        <ele>196.9</ele>
        <time>2012-02-04T14:41:20Z</time>
      </trkpt>
      <trkpt lat="48.56583" lon="-0.40881">
        <ele>197.1</ele>
        <time>2012-02-04T14:41:22Z</time>
      </trkpt>
      <trkpt lat="48.5659" lon="-0.40883">
        <ele>197.4</ele>
        <time>2012-02-04T14:41:24Z</time>
      </trkpt>
      <trkpt lat="48.56595" lon="-0.40886">
        <ele>197.9</ele>
        <time>2012-02-04T14:41:26Z</time>
      </trkpt>
      <trkpt lat="48.56601" lon="-0.40891">
        <ele>197.5</ele>
        <time>2012-02-04T14:41:28Z</time>
      </trkpt>
      <trkpt lat="48.56605" lon="-0.40898">
        <ele>197.9</ele>
        <time>2012-02-04T14:41:30Z</time>
      </trkpt>
      <trkpt lat="48.56609" lon="-0.40905">
        <ele>198.3</ele>
        <time>2012-02-04T14:41:32Z</time>
      </trkpt>
      <trkpt lat="48.56612" lon="-0.40914">
        <ele>198.3</ele>
        <time>2012-02-04T14:41:34Z</time>
      </trkpt>
      <trkpt lat="48.56621" lon="-0.40915">
        <ele>197.6</ele>
        <time>2012-02-04T14:41:41Z</time>
      </trkpt>
      <trkpt lat="48.56626" lon="-0.40907">
        <ele>198.6</ele>
        <time>2012-02-04T14:41:44Z</time>
      </trkpt>
      <trkpt lat="48.5663" lon="-0.40899">
        <ele>199.2</ele>
        <time>2012-02-04T14:41:46Z</time>
      </trkpt>
      <trkpt lat="48.56634" lon="-0.40891">
        <ele>199.4</ele>
        <time>2012-02-04T14:41:48Z</time>
      </trkpt>
      <trkpt lat="48.56637" lon="-0.40882">
        <ele>199.9</ele>
        <time>2012-02-04T14:41:50Z</time>
      </trkpt>
      <trkpt lat="48.5664" lon="-0.40874">
        <ele>200.2</ele>
        <time>2012-02-04T14:41:52Z</time>
      </trkpt>
      <trkpt lat="48.56643" lon="-0.40866">
        <ele>201</ele>
        <time>2012-02-04T14:41:54Z</time>
      </trkpt>
      <trkpt lat="48.56647" lon="-0.40858">
        <ele>201.7</ele>
        <time>2012-02-04T14:41:56Z</time>
      </trkpt>
      <trkpt lat="48.5665" lon="-0.4085">
        <ele>202</ele>
        <time>2012-02-04T14:41:58Z</time>
      </trkpt>
      <trkpt lat="48.56654" lon="-0.40842">
        <ele>202.1</ele>
        <time>2012-02-04T14:42:00Z</time>
      </trkpt>
      <trkpt lat="48.56658" lon="-0.40833">
        <ele>202.6</ele>
        <time>2012-02-04T14:42:02Z</time>
      </trkpt>
      <trkpt lat="48.56661" lon="-0.40825">
        <ele>203.1</ele>
        <time>2012-02-04T14:42:04Z</time>
      </trkpt>
      <trkpt lat="48.56665" lon="-0.40816">
        <ele>203.1</ele>
        <time>2012-02-04T14:42:06Z</time>
      </trkpt>
      <trkpt lat="48.56668" lon="-0.40807">
        <ele>203</ele>
        <time>2012-02-04T14:42:08Z</time>
      </trkpt>
      <trkpt lat="48.56672" lon="-0.40798">
        <ele>203.3</ele>
        <time>2012-02-04T14:42:10Z</time>
      </trkpt>
      <trkpt lat="48.56677" lon="-0.4079">
        <ele>203.6</ele>
        <time>2012-02-04T14:42:12Z</time>
      </trkpt>
      <trkpt lat="48.56678" lon="-0.40786">
        <ele>203.6</ele>
        <time>2012-02-04T14:42:13Z</time>
      </trkpt>
      <trkpt lat="48.56683" lon="-0.40773">
        <ele>204.4</ele>
        <time>2012-02-04T14:42:16Z</time>
      </trkpt>
      <trkpt lat="48.56686" lon="-0.40764">
        <ele>205</ele>
        <time>2012-02-04T14:42:18Z</time>
      </trkpt>
      <trkpt lat="48.5669" lon="-0.40755">
        <ele>204.4</ele>
        <time>2012-02-04T14:42:20Z</time>
      </trkpt>
      <trkpt lat="48.56694" lon="-0.40745">
        <ele>204.8</ele>
        <time>2012-02-04T14:42:22Z</time>
      </trkpt>
      <trkpt lat="48.56698" lon="-0.40735">
        <ele>205.2</ele>
        <time>2012-02-04T14:42:24Z</time>
      </trkpt>
      <trkpt lat="48.56702" lon="-0.40726">
        <ele>205.1</ele>
        <time>2012-02-04T14:42:26Z</time>
      </trkpt>
      <trkpt lat="48.56705" lon="-0.40718">
        <ele>205</ele>
        <time>2012-02-04T14:42:28Z</time>
      </trkpt>
      <trkpt lat="48.56709" lon="-0.40707">
        <ele>205.7</ele>
        <time>2012-02-04T14:42:31Z</time>
      </trkpt>
      <trkpt lat="48.56714" lon="-0.40699">
        <ele>206</ele>
        <time>2012-02-04T14:42:35Z</time>
      </trkpt>
      <trkpt lat="48.56718" lon="-0.40689">
        <ele>205.9</ele>
        <time>2012-02-04T14:42:38Z</time>
      </trkpt>
      <trkpt lat="48.56722" lon="-0.40679">
        <ele>205.9</ele>
        <time>2012-02-04T14:42:41Z</time>
      </trkpt>
      <trkpt lat="48.56726" lon="-0.40669">
        <ele>205.9</ele>
        <time>2012-02-04T14:42:44Z</time>
      </trkpt>
      <trkpt lat="48.5673" lon="-0.4066">
        <ele>206.2</ele>
        <time>2012-02-04T14:42:47Z</time>
      </trkpt>
      <trkpt lat="48.56732" lon="-0.40652">
        <ele>205.5</ele>
        <time>2012-02-04T14:42:49Z</time>
      </trkpt>
      <trkpt lat="48.56736" lon="-0.40643">
        <ele>205.3</ele>
        <time>2012-02-04T14:42:51Z</time>
      </trkpt>
      <trkpt lat="48.56741" lon="-0.40634">
        <ele>205.1</ele>
        <time>2012-02-04T14:42:53Z</time>
      </trkpt>
      <trkpt lat="48.56745" lon="-0.40623">
        <ele>204.8</ele>
        <time>2012-02-04T14:42:55Z</time>
      </trkpt>
      <trkpt lat="48.56749" lon="-0.40612">
        <ele>204.8</ele>
        <time>2012-02-04T14:42:57Z</time>
      </trkpt>
      <trkpt lat="48.56753" lon="-0.406">
        <ele>204.8</ele>
        <time>2012-02-04T14:42:59Z</time>
      </trkpt>
      <trkpt lat="48.56758" lon="-0.40589">
        <ele>204.3</ele>
        <time>2012-02-04T14:43:01Z</time>
      </trkpt>
      <trkpt lat="48.56761" lon="-0.40583">
        <ele>204.3</ele>
        <time>2012-02-04T14:43:02Z</time>
      </trkpt>
      <trkpt lat="48.56764" lon="-0.40577">
        <ele>204.3</ele>
        <time>2012-02-04T14:43:03Z</time>
      </trkpt>
      <trkpt lat="48.56766" lon="-0.4057">
        <ele>204.3</ele>
        <time>2012-02-04T14:43:04Z</time>
      </trkpt>
      <trkpt lat="48.56768" lon="-0.40564">
        <ele>203.8</ele>
        <time>2012-02-04T14:43:05Z</time>
      </trkpt>
      <trkpt lat="48.5677" lon="-0.40557">
        <ele>203.5</ele>
        <time>2012-02-04T14:43:06Z</time>
      </trkpt>
      <trkpt lat="48.56772" lon="-0.40551">
        <ele>203.6</ele>
        <time>2012-02-04T14:43:07Z</time>
      </trkpt>
      <trkpt lat="48.56774" lon="-0.40544">
        <ele>203.7</ele>
        <time>2012-02-04T14:43:08Z</time>
      </trkpt>
      <trkpt lat="48.56776" lon="-0.40538">
        <ele>203.5</ele>
        <time>2012-02-04T14:43:09Z</time>
      </trkpt>
      <trkpt lat="48.56778" lon="-0.40532">
        <ele>203.3</ele>
        <time>2012-02-04T14:43:10Z</time>
      </trkpt>
      <trkpt lat="48.56781" lon="-0.40526">
        <ele>203.2</ele>
        <time>2012-02-04T14:43:11Z</time>
      </trkpt>
      <trkpt lat="48.56783" lon="-0.4052">
        <ele>202.9</ele>
        <time>2012-02-04T14:43:12Z</time>
      </trkpt>
      <trkpt lat="48.56786" lon="-0.40514">
        <ele>202.7</ele>
        <time>2012-02-04T14:43:13Z</time>
      </trkpt>
      <trkpt lat="48.56789" lon="-0.40507">
        <ele>202.5</ele>
        <time>2012-02-04T14:43:14Z</time>
      </trkpt>
      <trkpt lat="48.56792" lon="-0.40501">
        <ele>202.4</ele>
        <time>2012-02-04T14:43:15Z</time>
      </trkpt>
      <trkpt lat="48.56794" lon="-0.40495">
        <ele>201.9</ele>
        <time>2012-02-04T14:43:16Z</time>
      </trkpt>
      <trkpt lat="48.56797" lon="-0.4049">
        <ele>201.5</ele>
        <time>2012-02-04T14:43:17Z</time>
      </trkpt>
      <trkpt lat="48.56799" lon="-0.40483">
        <ele>201.3</ele>
        <time>2012-02-04T14:43:18Z</time>
      </trkpt>
      <trkpt lat="48.56804" lon="-0.40472">
        <ele>199.9</ele>
        <time>2012-02-04T14:43:20Z</time>
      </trkpt>
      <trkpt lat="48.56812" lon="-0.40466">
        <ele>200</ele>
        <time>2012-02-04T14:43:23Z</time>
      </trkpt>
      <trkpt lat="48.56818" lon="-0.4047">
        <ele>199.7</ele>
        <time>2012-02-04T14:43:26Z</time>
      </trkpt>
      <trkpt lat="48.56825" lon="-0.40474">
        <ele>199.6</ele>
        <time>2012-02-04T14:43:28Z</time>
      </trkpt>
      <trkpt lat="48.56832" lon="-0.40481">
        <ele>199.6</ele>
        <time>2012-02-04T14:43:30Z</time>
      </trkpt>
      <trkpt lat="48.56836" lon="-0.40486">
        <ele>199.5</ele>
        <time>2012-02-04T14:43:31Z</time>
      </trkpt>
      <trkpt lat="48.56839" lon="-0.40491">
        <ele>199.4</ele>
        <time>2012-02-04T14:43:32Z</time>
      </trkpt>
      <trkpt lat="48.56841" lon="-0.40497">
        <ele>199.4</ele>
        <time>2012-02-04T14:43:33Z</time>
      </trkpt>
      <trkpt lat="48.56844" lon="-0.40504">
        <ele>199.4</ele>
        <time>2012-02-04T14:43:34Z</time>
      </trkpt>
      <trkpt lat="48.56845" lon="-0.40511">
        <ele>199.6</ele>
        <time>2012-02-04T14:43:35Z</time>
      </trkpt>
      <trkpt lat="48.56846" lon="-0.40524">
        <ele>199.8</ele>
        <time>2012-02-04T14:43:37Z</time>
      </trkpt>
      <trkpt lat="48.56845" lon="-0.40537">
        <ele>199.9</ele>
        <time>2012-02-04T14:43:39Z</time>
      </trkpt>
      <trkpt lat="48.56842" lon="-0.40549">
        <ele>200.3</ele>
        <time>2012-02-04T14:43:41Z</time>
      </trkpt>
      <trkpt lat="48.56838" lon="-0.4056">
        <ele>200.8</ele>
        <time>2012-02-04T14:43:43Z</time>
      </trkpt>
      <trkpt lat="48.56834" lon="-0.40571">
        <ele>201</ele>
        <time>2012-02-04T14:43:45Z</time>
      </trkpt>
      <trkpt lat="48.5683" lon="-0.40582">
        <ele>201.1</ele>
        <time>2012-02-04T14:43:47Z</time>
      </trkpt>
      <trkpt lat="48.56826" lon="-0.40593">
        <ele>201.2</ele>
        <time>2012-02-04T14:43:49Z</time>
      </trkpt>
      <trkpt lat="48.56822" lon="-0.40604">
        <ele>201.4</ele>
        <time>2012-02-04T14:43:51Z</time>
      </trkpt>
      <trkpt lat="48.56818" lon="-0.40615">
        <ele>201.8</ele>
        <time>2012-02-04T14:43:53Z</time>
      </trkpt>
      <trkpt lat="48.56814" lon="-0.40626">
        <ele>202.8</ele>
        <time>2012-02-04T14:43:55Z</time>
      </trkpt>
      <trkpt lat="48.56809" lon="-0.40637">
        <ele>203.3</ele>
        <time>2012-02-04T14:43:57Z</time>
      </trkpt>
      <trkpt lat="48.56805" lon="-0.40648">
        <ele>203.7</ele>
        <time>2012-02-04T14:43:59Z</time>
      </trkpt>
      <trkpt lat="48.56801" lon="-0.40659">
        <ele>203.9</ele>
        <time>2012-02-04T14:44:01Z</time>
      </trkpt>
      <trkpt lat="48.56796" lon="-0.4067">
        <ele>204.6</ele>
        <time>2012-02-04T14:44:03Z</time>
      </trkpt>
      <trkpt lat="48.56793" lon="-0.40681">
        <ele>204.6</ele>
        <time>2012-02-04T14:44:05Z</time>
      </trkpt>
      <trkpt lat="48.5679" lon="-0.40692">
        <ele>204.7</ele>
        <time>2012-02-04T14:44:07Z</time>
      </trkpt>
      <trkpt lat="48.56788" lon="-0.40702">
        <ele>204.9</ele>
        <time>2012-02-04T14:44:09Z</time>
      </trkpt>
      <trkpt lat="48.56788" lon="-0.40714">
        <ele>205.2</ele>
        <time>2012-02-04T14:44:11Z</time>
      </trkpt>
      <trkpt lat="48.5679" lon="-0.40725">
        <ele>205.2</ele>
        <time>2012-02-04T14:44:13Z</time>
      </trkpt>
      <trkpt lat="48.56794" lon="-0.40735">
        <ele>205</ele>
        <time>2012-02-04T14:44:15Z</time>
      </trkpt>
      <trkpt lat="48.56796" lon="-0.4074">
        <ele>204.9</ele>
        <time>2012-02-04T14:44:16Z</time>
      </trkpt>
      <trkpt lat="48.56803" lon="-0.40753">
        <ele>205.1</ele>
        <time>2012-02-04T14:44:19Z</time>
      </trkpt>
      <trkpt lat="48.56808" lon="-0.40763">
        <ele>205.2</ele>
        <time>2012-02-04T14:44:21Z</time>
      </trkpt>
      <trkpt lat="48.56813" lon="-0.40772">
        <ele>205.6</ele>
        <time>2012-02-04T14:44:23Z</time>
      </trkpt>
      <trkpt lat="48.56818" lon="-0.40781">
        <ele>205.8</ele>
        <time>2012-02-04T14:44:25Z</time>
      </trkpt>
      <trkpt lat="48.56824" lon="-0.4079">
        <ele>205.9</ele>
        <time>2012-02-04T14:44:27Z</time>
      </trkpt>
      <trkpt lat="48.56829" lon="-0.408">
        <ele>206.1</ele>
        <time>2012-02-04T14:44:29Z</time>
      </trkpt>
      <trkpt lat="48.56834" lon="-0.4081">
        <ele>206.1</ele>
        <time>2012-02-04T14:44:31Z</time>
      </trkpt>
      <trkpt lat="48.5684" lon="-0.40819">
        <ele>205.6</ele>
        <time>2012-02-04T14:44:33Z</time>
      </trkpt>
      <trkpt lat="48.56845" lon="-0.40828">
        <ele>205.6</ele>
        <time>2012-02-04T14:44:35Z</time>
      </trkpt>
      <trkpt lat="48.56849" lon="-0.40836">
        <ele>205.9</ele>
        <time>2012-02-04T14:44:37Z</time>
      </trkpt>
      <trkpt lat="48.56855" lon="-0.40846">
        <ele>206.4</ele>
        <time>2012-02-04T14:44:40Z</time>
      </trkpt>
      <trkpt lat="48.56862" lon="-0.40847">
        <ele>207</ele>
        <time>2012-02-04T14:44:43Z</time>
      </trkpt>
      <trkpt lat="48.56867" lon="-0.40842">
        <ele>206.9</ele>
        <time>2012-02-04T14:44:45Z</time>
      </trkpt>
      <trkpt lat="48.56872" lon="-0.40836">
        <ele>206.5</ele>
        <time>2012-02-04T14:44:47Z</time>
      </trkpt>
      <trkpt lat="48.56876" lon="-0.40829">
        <ele>206</ele>
        <time>2012-02-04T14:44:49Z</time>
      </trkpt>
      <trkpt lat="48.56882" lon="-0.40822">
        <ele>205.7</ele>
        <time>2012-02-04T14:44:51Z</time>
      </trkpt>
      <trkpt lat="48.56888" lon="-0.40814">
        <ele>205.4</ele>
        <time>2012-02-04T14:44:53Z</time>
      </trkpt>
      <trkpt lat="48.56895" lon="-0.40808">
        <ele>205</ele>
        <time>2012-02-04T14:44:55Z</time>
      </trkpt>
      <trkpt lat="48.56902" lon="-0.408">
        <ele>204.8</ele>
        <time>2012-02-04T14:44:57Z</time>
      </trkpt>
      <trkpt lat="48.56907" lon="-0.40793">
        <ele>204.8</ele>
        <time>2012-02-04T14:44:59Z</time>
      </trkpt>
      <trkpt lat="48.56913" lon="-0.40785">
        <ele>204.7</ele>
        <time>2012-02-04T14:45:01Z</time>
      </trkpt>
      <trkpt lat="48.56918" lon="-0.40778">
        <ele>204.3</ele>
        <time>2012-02-04T14:45:03Z</time>
      </trkpt>
      <trkpt lat="48.56925" lon="-0.40771">
        <ele>203.9</ele>
        <time>2012-02-04T14:45:05Z</time>
      </trkpt>
      <trkpt lat="48.5693" lon="-0.40763">
        <ele>203.9</ele>
        <time>2012-02-04T14:45:07Z</time>
      </trkpt>
      <trkpt lat="48.56936" lon="-0.40754">
        <ele>203.9</ele>
        <time>2012-02-04T14:45:09Z</time>
      </trkpt>
      <trkpt lat="48.56941" lon="-0.40747">
        <ele>203.2</ele>
        <time>2012-02-04T14:45:11Z</time>
      </trkpt>
      <trkpt lat="48.56948" lon="-0.4074">
        <ele>202.4</ele>
        <time>2012-02-04T14:45:13Z</time>
      </trkpt>
      <trkpt lat="48.56955" lon="-0.40732">
        <ele>201.8</ele>
        <time>2012-02-04T14:45:15Z</time>
      </trkpt>
      <trkpt lat="48.56961" lon="-0.40723">
        <ele>201.6</ele>
        <time>2012-02-04T14:45:17Z</time>
      </trkpt>
      <trkpt lat="48.56964" lon="-0.40719">
        <ele>201.4</ele>
        <time>2012-02-04T14:45:18Z</time>
      </trkpt>
      <trkpt lat="48.56974" lon="-0.40707">
        <ele>201.4</ele>
        <time>2012-02-04T14:45:21Z</time>
      </trkpt>
      <trkpt lat="48.56981" lon="-0.40699">
        <ele>201</ele>
        <time>2012-02-04T14:45:23Z</time>
      </trkpt>
      <trkpt lat="48.56987" lon="-0.4069">
        <ele>200.7</ele>
        <time>2012-02-04T14:45:25Z</time>
      </trkpt>
      <trkpt lat="48.56993" lon="-0.40681">
        <ele>200.2</ele>
        <time>2012-02-04T14:45:27Z</time>
      </trkpt>
      <trkpt lat="48.56998" lon="-0.40672">
        <ele>200</ele>
        <time>2012-02-04T14:45:29Z</time>
      </trkpt>
      <trkpt lat="48.57004" lon="-0.40666">
        <ele>200.1</ele>
        <time>2012-02-04T14:45:31Z</time>
      </trkpt>
      <trkpt lat="48.57011" lon="-0.4066">
        <ele>199.6</ele>
        <time>2012-02-04T14:45:33Z</time>
      </trkpt>
      <trkpt lat="48.57016" lon="-0.40654">
        <ele>199.5</ele>
        <time>2012-02-04T14:45:35Z</time>
      </trkpt>
      <trkpt lat="48.57023" lon="-0.40647">
        <ele>198.4</ele>
        <time>2012-02-04T14:45:38Z</time>
      </trkpt>
      <trkpt lat="48.5703" lon="-0.4064">
        <ele>198.9</ele>
        <time>2012-02-04T14:45:41Z</time>
      </trkpt>
      <trkpt lat="48.57036" lon="-0.40632">
        <ele>199.3</ele>
        <time>2012-02-04T14:45:43Z</time>
      </trkpt>
      <trkpt lat="48.57042" lon="-0.40624">
        <ele>199.1</ele>
        <time>2012-02-04T14:45:45Z</time>
      </trkpt>
      <trkpt lat="48.57048" lon="-0.40616">
        <ele>199.2</ele>
        <time>2012-02-04T14:45:47Z</time>
      </trkpt>
      <trkpt lat="48.57054" lon="-0.40608">
        <ele>198.8</ele>
        <time>2012-02-04T14:45:49Z</time>
      </trkpt>
      <trkpt lat="48.57061" lon="-0.40599">
        <ele>199.1</ele>
        <time>2012-02-04T14:45:51Z</time>
      </trkpt>
      <trkpt lat="48.57068" lon="-0.40591">
        <ele>199.2</ele>
        <time>2012-02-04T14:45:53Z</time>
      </trkpt>
      <trkpt lat="48.57075" lon="-0.40583">
        <ele>199.2</ele>
        <time>2012-02-04T14:45:55Z</time>
      </trkpt>
      <trkpt lat="48.57081" lon="-0.40575">
        <ele>199.4</ele>
        <time>2012-02-04T14:45:57Z</time>
      </trkpt>
      <trkpt lat="48.57087" lon="-0.40567">
        <ele>199.5</ele>
        <time>2012-02-04T14:45:59Z</time>
      </trkpt>
      <trkpt lat="48.57093" lon="-0.40558">
        <ele>199.4</ele>
        <time>2012-02-04T14:46:01Z</time>
      </trkpt>
      <trkpt lat="48.57099" lon="-0.40551">
        <ele>199.3</ele>
        <time>2012-02-04T14:46:03Z</time>
      </trkpt>
      <trkpt lat="48.57106" lon="-0.40543">
        <ele>199.3</ele>
        <time>2012-02-04T14:46:05Z</time>
      </trkpt>
      <trkpt lat="48.57113" lon="-0.40535">
        <ele>199.5</ele>
        <time>2012-02-04T14:46:07Z</time>
      </trkpt>
      <trkpt lat="48.57119" lon="-0.40527">
        <ele>199.9</ele>
        <time>2012-02-04T14:46:09Z</time>
      </trkpt>
      <trkpt lat="48.57125" lon="-0.40518">
        <ele>199.8</ele>
        <time>2012-02-04T14:46:11Z</time>
      </trkpt>
      <trkpt lat="48.57131" lon="-0.40509">
        <ele>199.9</ele>
        <time>2012-02-04T14:46:13Z</time>
      </trkpt>
      <trkpt lat="48.57137" lon="-0.40501">
        <ele>200.1</ele>
        <time>2012-02-04T14:46:15Z</time>
      </trkpt>
      <trkpt lat="48.57143" lon="-0.40493">
        <ele>200.1</ele>
        <time>2012-02-04T14:46:17Z</time>
      </trkpt>
      <trkpt lat="48.5715" lon="-0.40485">
        <ele>200</ele>
        <time>2012-02-04T14:46:19Z</time>
      </trkpt>
      <trkpt lat="48.57152" lon="-0.40481">
        <ele>200</ele>
        <time>2012-02-04T14:46:20Z</time>
      </trkpt>
      <trkpt lat="48.57161" lon="-0.40469">
        <ele>199.6</ele>
        <time>2012-02-04T14:46:24Z</time>
      </trkpt>
      <trkpt lat="48.57166" lon="-0.40463">
        <ele>199.9</ele>
        <time>2012-02-04T14:46:27Z</time>
      </trkpt>
      <trkpt lat="48.57174" lon="-0.40456">
        <ele>200.3</ele>
        <time>2012-02-04T14:46:30Z</time>
      </trkpt>
      <trkpt lat="48.5718" lon="-0.4045">
        <ele>200.3</ele>
        <time>2012-02-04T14:46:32Z</time>
      </trkpt>
      <trkpt lat="48.57185" lon="-0.40445">
        <ele>200.2</ele>
        <time>2012-02-04T14:46:34Z</time>
      </trkpt>
      <trkpt lat="48.57193" lon="-0.40443">
        <ele>200.4</ele>
        <time>2012-02-04T14:46:37Z</time>
      </trkpt>
      <trkpt lat="48.57202" lon="-0.40445">
        <ele>201</ele>
        <time>2012-02-04T14:46:44Z</time>
      </trkpt>
      <trkpt lat="48.5721" lon="-0.40442">
        <ele>200.5</ele>
        <time>2012-02-04T14:46:58Z</time>
      </trkpt>
      <trkpt lat="48.57218" lon="-0.40437">
        <ele>200.6</ele>
        <time>2012-02-04T14:47:15Z</time>
      </trkpt>
      <trkpt lat="48.57226" lon="-0.4044">
        <ele>201.7</ele>
        <time>2012-02-04T14:47:41Z</time>
      </trkpt>
      <trkpt lat="48.57227" lon="-0.40443">
        <ele>201.7</ele>
        <time>2012-02-04T14:47:42Z</time>
      </trkpt>
      <trkpt lat="48.57235" lon="-0.40458">
        <ele>201.3</ele>
        <time>2012-02-04T14:47:47Z</time>
      </trkpt>
      <trkpt lat="48.57239" lon="-0.40465">
        <ele>201.4</ele>
        <time>2012-02-04T14:47:49Z</time>
      </trkpt>
      <trkpt lat="48.57246" lon="-0.40466">
        <ele>201</ele>
        <time>2012-02-04T14:47:56Z</time>
      </trkpt>
      <trkpt lat="48.57253" lon="-0.40457">
        <ele>201</ele>
        <time>2012-02-04T14:47:59Z</time>
      </trkpt>
      <trkpt lat="48.57257" lon="-0.40451">
        <ele>201.3</ele>
        <time>2012-02-04T14:48:01Z</time>
      </trkpt>
      <trkpt lat="48.57262" lon="-0.40445">
        <ele>201.6</ele>
        <time>2012-02-04T14:48:03Z</time>
      </trkpt>
      <trkpt lat="48.57266" lon="-0.40439">
        <ele>201.3</ele>
        <time>2012-02-04T14:48:05Z</time>
      </trkpt>
      <trkpt lat="48.57272" lon="-0.40432">
        <ele>201.5</ele>
        <time>2012-02-04T14:48:07Z</time>
      </trkpt>
      <trkpt lat="48.57276" lon="-0.40424">
        <ele>201.6</ele>
        <time>2012-02-04T14:48:09Z</time>
      </trkpt>
      <trkpt lat="48.57281" lon="-0.40417">
        <ele>202</ele>
        <time>2012-02-04T14:48:11Z</time>
      </trkpt>
      <trkpt lat="48.57286" lon="-0.4041">
        <ele>202.4</ele>
        <time>2012-02-04T14:48:13Z</time>
      </trkpt>
      <trkpt lat="48.57292" lon="-0.40404">
        <ele>202.5</ele>
        <time>2012-02-04T14:48:15Z</time>
      </trkpt>
      <trkpt lat="48.57296" lon="-0.40398">
        <ele>202.6</ele>
        <time>2012-02-04T14:48:17Z</time>
      </trkpt>
      <trkpt lat="48.57302" lon="-0.40392">
        <ele>203.1</ele>
        <time>2012-02-04T14:48:19Z</time>
      </trkpt>
      <trkpt lat="48.57307" lon="-0.40386">
        <ele>203.3</ele>
        <time>2012-02-04T14:48:21Z</time>
      </trkpt>
      <trkpt lat="48.57312" lon="-0.40379">
        <ele>203.1</ele>
        <time>2012-02-04T14:48:23Z</time>
      </trkpt>
      <trkpt lat="48.57317" lon="-0.40373">
        <ele>202.5</ele>
        <time>2012-02-04T14:48:25Z</time>
      </trkpt>
      <trkpt lat="48.5732" lon="-0.40365">
        <ele>202.3</ele>
        <time>2012-02-04T14:48:27Z</time>
      </trkpt>
      <trkpt lat="48.57326" lon="-0.40356">
        <ele>202.2</ele>
        <time>2012-02-04T14:48:30Z</time>
      </trkpt>
      <trkpt lat="48.57333" lon="-0.40351">
        <ele>202.8</ele>
        <time>2012-02-04T14:48:38Z</time>
      </trkpt>
      <trkpt lat="48.5734" lon="-0.40344">
        <ele>202.5</ele>
        <time>2012-02-04T14:48:45Z</time>
      </trkpt>
      <trkpt lat="48.57342" lon="-0.40342">
        <ele>202.4</ele>
        <time>2012-02-04T14:48:46Z</time>
      </trkpt>
      <trkpt lat="48.57354" lon="-0.40332">
        <ele>202.9</ele>
        <time>2012-02-04T14:48:52Z</time>
      </trkpt>
      <trkpt lat="48.57361" lon="-0.40326">
        <ele>202.5</ele>
        <time>2012-02-04T14:48:55Z</time>
      </trkpt>
      <trkpt lat="48.57365" lon="-0.40318">
        <ele>202.5</ele>
        <time>2012-02-04T14:48:57Z</time>
      </trkpt>
      <trkpt lat="48.57371" lon="-0.40309">
        <ele>202.9</ele>
        <time>2012-02-04T14:49:00Z</time>
      </trkpt>
      <trkpt lat="48.57377" lon="-0.40304">
        <ele>202.5</ele>
        <time>2012-02-04T14:49:02Z</time>
      </trkpt>
      <trkpt lat="48.57382" lon="-0.40294">
        <ele>202.3</ele>
        <time>2012-02-04T14:49:05Z</time>
      </trkpt>
      <trkpt lat="48.57387" lon="-0.40286">
        <ele>202.3</ele>
        <time>2012-02-04T14:49:08Z</time>
      </trkpt>
      <trkpt lat="48.57394" lon="-0.40279">
        <ele>202.3</ele>
        <time>2012-02-04T14:49:12Z</time>
      </trkpt>
      <trkpt lat="48.57401" lon="-0.4027">
        <ele>202.2</ele>
        <time>2012-02-04T14:49:15Z</time>
      </trkpt>
      <trkpt lat="48.57406" lon="-0.40261">
        <ele>202.5</ele>
        <time>2012-02-04T14:49:18Z</time>
      </trkpt>
      <trkpt lat="48.5741" lon="-0.40253">
        <ele>203.3</ele>
        <time>2012-02-04T14:49:21Z</time>
      </trkpt>
      <trkpt lat="48.57417" lon="-0.40246">
        <ele>203.4</ele>
        <time>2012-02-04T14:49:24Z</time>
      </trkpt>
      <trkpt lat="48.57423" lon="-0.40237">
        <ele>202.7</ele>
        <time>2012-02-04T14:49:27Z</time>
      </trkpt>
      <trkpt lat="48.57431" lon="-0.40231">
        <ele>202.6</ele>
        <time>2012-02-04T14:49:30Z</time>
      </trkpt>
      <trkpt lat="48.57436" lon="-0.40228">
        <ele>202.9</ele>
        <time>2012-02-04T14:49:32Z</time>
      </trkpt>
      <trkpt lat="48.57441" lon="-0.40221">
        <ele>203.3</ele>
        <time>2012-02-04T14:49:34Z</time>
      </trkpt>
      <trkpt lat="48.57447" lon="-0.40215">
        <ele>203.3</ele>
        <time>2012-02-04T14:49:36Z</time>
      </trkpt>
      <trkpt lat="48.57452" lon="-0.40208">
        <ele>203.2</ele>
        <time>2012-02-04T14:49:38Z</time>
      </trkpt>
      <trkpt lat="48.57457" lon="-0.40202">
        <ele>203.2</ele>
        <time>2012-02-04T14:49:40Z</time>
      </trkpt>
      <trkpt lat="48.57462" lon="-0.40195">
        <ele>203.2</ele>
        <time>2012-02-04T14:49:42Z</time>
      </trkpt>
      <trkpt lat="48.57467" lon="-0.40188">
        <ele>203</ele>
        <time>2012-02-04T14:49:44Z</time>
      </trkpt>
      <trkpt lat="48.57472" lon="-0.4018">
        <ele>203</ele>
        <time>2012-02-04T14:49:46Z</time>
      </trkpt>
      <trkpt lat="48.57474" lon="-0.40177">
        <ele>203.1</ele>
        <time>2012-02-04T14:49:47Z</time>
      </trkpt>
      <trkpt lat="48.57483" lon="-0.40167">
        <ele>203.9</ele>
        <time>2012-02-04T14:49:50Z</time>
      </trkpt>
      <trkpt lat="48.57489" lon="-0.40162">
        <ele>204.4</ele>
        <time>2012-02-04T14:49:52Z</time>
      </trkpt>
      <trkpt lat="48.57497" lon="-0.40157">
        <ele>204.5</ele>
        <time>2012-02-04T14:49:55Z</time>
      </trkpt>
      <trkpt lat="48.57503" lon="-0.40163">
        <ele>204.7</ele>
        <time>2012-02-04T14:49:58Z</time>
      </trkpt>
      <trkpt lat="48.57509" lon="-0.40172">
        <ele>204.5</ele>
        <time>2012-02-04T14:50:01Z</time>
      </trkpt>
      <trkpt lat="48.57514" lon="-0.40179">
        <ele>204.4</ele>
        <time>2012-02-04T14:50:03Z</time>
      </trkpt>
      <trkpt lat="48.57519" lon="-0.40186">
        <ele>204.2</ele>
        <time>2012-02-04T14:50:05Z</time>
      </trkpt>
      <trkpt lat="48.57524" lon="-0.40194">
        <ele>204.5</ele>
        <time>2012-02-04T14:50:07Z</time>
      </trkpt>
      <trkpt lat="48.57529" lon="-0.40203">
        <ele>204.6</ele>
        <time>2012-02-04T14:50:09Z</time>
      </trkpt>
      <trkpt lat="48.57535" lon="-0.40211">
        <ele>204.5</ele>
        <time>2012-02-04T14:50:11Z</time>
      </trkpt>
      <trkpt lat="48.5754" lon="-0.40219">
        <ele>204.3</ele>
        <time>2012-02-04T14:50:13Z</time>
      </trkpt>
      <trkpt lat="48.57545" lon="-0.40226">
        <ele>204</ele>
        <time>2012-02-04T14:50:15Z</time>
      </trkpt>
      <trkpt lat="48.57552" lon="-0.4023">
        <ele>203.8</ele>
        <time>2012-02-04T14:50:18Z</time>
      </trkpt>
      <trkpt lat="48.57559" lon="-0.40225">
        <ele>203.5</ele>
        <time>2012-02-04T14:50:21Z</time>
      </trkpt>
      <trkpt lat="48.57564" lon="-0.4022">
        <ele>203.9</ele>
        <time>2012-02-04T14:50:23Z</time>
      </trkpt>
      <trkpt lat="48.57569" lon="-0.40214">
        <ele>204</ele>
        <time>2012-02-04T14:50:25Z</time>
      </trkpt>
      <trkpt lat="48.57574" lon="-0.40208">
        <ele>204.1</ele>
        <time>2012-02-04T14:50:27Z</time>
      </trkpt>
      <trkpt lat="48.5758" lon="-0.40203">
        <ele>204.7</ele>
        <time>2012-02-04T14:50:29Z</time>
      </trkpt>
      <trkpt lat="48.57585" lon="-0.40197">
        <ele>204.7</ele>
        <time>2012-02-04T14:50:31Z</time>
      </trkpt>
      <trkpt lat="48.5759" lon="-0.40191">
        <ele>204.5</ele>
        <time>2012-02-04T14:50:33Z</time>
      </trkpt>
      <trkpt lat="48.57597" lon="-0.40183">
        <ele>204.5</ele>
        <time>2012-02-04T14:50:36Z</time>
      </trkpt>
      <trkpt lat="48.57604" lon="-0.40175">
        <ele>205.3</ele>
        <time>2012-02-04T14:50:39Z</time>
      </trkpt>
      <trkpt lat="48.57609" lon="-0.4017">
        <ele>206.1</ele>
        <time>2012-02-04T14:50:41Z</time>
      </trkpt>
      <trkpt lat="48.57616" lon="-0.40161">
        <ele>206.6</ele>
        <time>2012-02-04T14:50:44Z</time>
      </trkpt>
      <trkpt lat="48.57623" lon="-0.40153">
        <ele>207.3</ele>
        <time>2012-02-04T14:50:47Z</time>
      </trkpt>
      <trkpt lat="48.57625" lon="-0.4015">
        <ele>207.3</ele>
        <time>2012-02-04T14:50:48Z</time>
      </trkpt>
      <trkpt lat="48.57636" lon="-0.40135">
        <ele>207.7</ele>
        <time>2012-02-04T14:50:53Z</time>
      </trkpt>
      <trkpt lat="48.57641" lon="-0.4013">
        <ele>207.6</ele>
        <time>2012-02-04T14:50:55Z</time>
      </trkpt>
      <trkpt lat="48.57646" lon="-0.40124">
        <ele>208.1</ele>
        <time>2012-02-04T14:50:57Z</time>
      </trkpt>
      <trkpt lat="48.5765" lon="-0.40119">
        <ele>208.6</ele>
        <time>2012-02-04T14:50:59Z</time>
      </trkpt>
      <trkpt lat="48.57657" lon="-0.4011">
        <ele>209</ele>
        <time>2012-02-04T14:51:02Z</time>
      </trkpt>
      <trkpt lat="48.57662" lon="-0.40105">
        <ele>208.9</ele>
        <time>2012-02-04T14:51:04Z</time>
      </trkpt>
      <trkpt lat="48.57669" lon="-0.40097">
        <ele>209.7</ele>
        <time>2012-02-04T14:51:07Z</time>
      </trkpt>
      <trkpt lat="48.57676" lon="-0.40089">
        <ele>210.3</ele>
        <time>2012-02-04T14:51:10Z</time>
      </trkpt>
      <trkpt lat="48.57683" lon="-0.4008">
        <ele>211.6</ele>
        <time>2012-02-04T14:51:13Z</time>
      </trkpt>
      <trkpt lat="48.57689" lon="-0.40073">
        <ele>212.3</ele>
        <time>2012-02-04T14:51:16Z</time>
      </trkpt>
      <trkpt lat="48.57694" lon="-0.40065">
        <ele>212.7</ele>
        <time>2012-02-04T14:51:19Z</time>
      </trkpt>
      <trkpt lat="48.577" lon="-0.40057">
        <ele>213.2</ele>
        <time>2012-02-04T14:51:22Z</time>
      </trkpt>
      <trkpt lat="48.57706" lon="-0.40049">
        <ele>214.3</ele>
        <time>2012-02-04T14:51:25Z</time>
      </trkpt>
      <trkpt lat="48.57712" lon="-0.40042">
        <ele>214.8</ele>
        <time>2012-02-04T14:51:28Z</time>
      </trkpt>
      <trkpt lat="48.57718" lon="-0.40034">
        <ele>215</ele>
        <time>2012-02-04T14:51:31Z</time>
      </trkpt>
      <trkpt lat="48.57725" lon="-0.40027">
        <ele>216</ele>
        <time>2012-02-04T14:51:34Z</time>
      </trkpt>
      <trkpt lat="48.57731" lon="-0.4002">
        <ele>216.2</ele>
        <time>2012-02-04T14:51:37Z</time>
      </trkpt>
      <trkpt lat="48.57737" lon="-0.40013">
        <ele>216.8</ele>
        <time>2012-02-04T14:51:40Z</time>
      </trkpt>
      <trkpt lat="48.57743" lon="-0.40006">
        <ele>217.9</ele>
        <time>2012-02-04T14:51:43Z</time>
      </trkpt>
      <trkpt lat="48.57749" lon="-0.39998">
        <ele>217.5</ele>
        <time>2012-02-04T14:51:46Z</time>
      </trkpt>
      <trkpt lat="48.57755" lon="-0.3999">
        <ele>218</ele>
        <time>2012-02-04T14:51:49Z</time>
      </trkpt>
      <trkpt lat="48.57757" lon="-0.39988">
        <ele>218</ele>
        <time>2012-02-04T14:51:50Z</time>
      </trkpt>
      <trkpt lat="48.57768" lon="-0.39976">
        <ele>219.6</ele>
        <time>2012-02-04T14:51:55Z</time>
      </trkpt>
      <trkpt lat="48.57774" lon="-0.39968">
        <ele>220</ele>
        <time>2012-02-04T14:51:58Z</time>
      </trkpt>
      <trkpt lat="48.57779" lon="-0.3996">
        <ele>220.3</ele>
        <time>2012-02-04T14:52:01Z</time>
      </trkpt>
      <trkpt lat="48.57785" lon="-0.39953">
        <ele>220.9</ele>
        <time>2012-02-04T14:52:04Z</time>
      </trkpt>
      <trkpt lat="48.57791" lon="-0.39943">
        <ele>222</ele>
        <time>2012-02-04T14:52:08Z</time>
      </trkpt>
      <trkpt lat="48.57796" lon="-0.39936">
        <ele>222.3</ele>
        <time>2012-02-04T14:52:11Z</time>
      </trkpt>
      <trkpt lat="48.57803" lon="-0.39928">
        <ele>222.6</ele>
        <time>2012-02-04T14:52:14Z</time>
      </trkpt>
      <trkpt lat="48.5781" lon="-0.39921">
        <ele>223.3</ele>
        <time>2012-02-04T14:52:17Z</time>
      </trkpt>
      <trkpt lat="48.57817" lon="-0.39914">
        <ele>223.6</ele>
        <time>2012-02-04T14:52:20Z</time>
      </trkpt>
      <trkpt lat="48.57824" lon="-0.39906">
        <ele>224</ele>
        <time>2012-02-04T14:52:23Z</time>
      </trkpt>
      <trkpt lat="48.5783" lon="-0.39898">
        <ele>225.2</ele>
        <time>2012-02-04T14:52:26Z</time>
      </trkpt>
      <trkpt lat="48.57836" lon="-0.3989">
        <ele>225.8</ele>
        <time>2012-02-04T14:52:29Z</time>
      </trkpt>
      <trkpt lat="48.57843" lon="-0.39884">
        <ele>226.2</ele>
        <time>2012-02-04T14:52:32Z</time>
      </trkpt>
      <trkpt lat="48.57849" lon="-0.39877">
        <ele>226.8</ele>
        <time>2012-02-04T14:52:35Z</time>
      </trkpt>
      <trkpt lat="48.57857" lon="-0.39874">
        <ele>227.1</ele>
        <time>2012-02-04T14:52:51Z</time>
      </trkpt>
      <trkpt lat="48.57858" lon="-0.39874">
        <ele>227</ele>
        <time>2012-02-04T14:52:52Z</time>
      </trkpt>
      <trkpt lat="48.5787" lon="-0.39866">
        <ele>227.6</ele>
        <time>2012-02-04T14:53:53Z</time>
      </trkpt>
      <trkpt lat="48.57872" lon="-0.39864">
        <ele>227.7</ele>
        <time>2012-02-04T14:53:54Z</time>
      </trkpt>
      <trkpt lat="48.57882" lon="-0.3985">
        <ele>229.5</ele>
        <time>2012-02-04T14:54:01Z</time>
      </trkpt>
      <trkpt lat="48.57888" lon="-0.39841">
        <ele>233.1</ele>
        <time>2012-02-04T14:54:08Z</time>
      </trkpt>
      <trkpt lat="48.57893" lon="-0.39833">
        <ele>235</ele>
        <time>2012-02-04T14:54:13Z</time>
      </trkpt>
      <trkpt lat="48.57899" lon="-0.39824">
        <ele>236.6</ele>
        <time>2012-02-04T14:54:18Z</time>
      </trkpt>
      <trkpt lat="48.57902" lon="-0.39811">
        <ele>236.8</ele>
        <time>2012-02-04T14:54:23Z</time>
      </trkpt>
      <trkpt lat="48.57899" lon="-0.39802">
        <ele>237</ele>
        <time>2012-02-04T14:54:26Z</time>
      </trkpt>
      <trkpt lat="48.57896" lon="-0.39794">
        <ele>237.1</ele>
        <time>2012-02-04T14:54:28Z</time>
      </trkpt>
      <trkpt lat="48.57892" lon="-0.39785">
        <ele>237.1</ele>
        <time>2012-02-04T14:54:30Z</time>
      </trkpt>
      <trkpt lat="48.57887" lon="-0.39778">
        <ele>237.1</ele>
        <time>2012-02-04T14:54:32Z</time>
      </trkpt>
      <trkpt lat="48.57884" lon="-0.3977">
        <ele>236.4</ele>
        <time>2012-02-04T14:54:34Z</time>
      </trkpt>
      <trkpt lat="48.5788" lon="-0.39761">
        <ele>236</ele>
        <time>2012-02-04T14:54:36Z</time>
      </trkpt>
      <trkpt lat="48.57876" lon="-0.39751">
        <ele>235.6</ele>
        <time>2012-02-04T14:54:38Z</time>
      </trkpt>
      <trkpt lat="48.57871" lon="-0.39741">
        <ele>235.3</ele>
        <time>2012-02-04T14:54:40Z</time>
      </trkpt>
      <trkpt lat="48.57867" lon="-0.3973">
        <ele>235.4</ele>
        <time>2012-02-04T14:54:42Z</time>
      </trkpt>
      <trkpt lat="48.57863" lon="-0.39721">
        <ele>235.5</ele>
        <time>2012-02-04T14:54:44Z</time>
      </trkpt>
      <trkpt lat="48.57857" lon="-0.39712">
        <ele>235.2</ele>
        <time>2012-02-04T14:54:46Z</time>
      </trkpt>
      <trkpt lat="48.57853" lon="-0.39703">
        <ele>234.9</ele>
        <time>2012-02-04T14:54:48Z</time>
      </trkpt>
      <trkpt lat="48.57848" lon="-0.39694">
        <ele>235.3</ele>
        <time>2012-02-04T14:54:50Z</time>
      </trkpt>
      <trkpt lat="48.57844" lon="-0.39683">
        <ele>235.2</ele>
        <time>2012-02-04T14:54:52Z</time>
      </trkpt>
      <trkpt lat="48.57841" lon="-0.39672">
        <ele>234.9</ele>
        <time>2012-02-04T14:54:54Z</time>
      </trkpt>
      <trkpt lat="48.5784" lon="-0.39666">
        <ele>234.8</ele>
        <time>2012-02-04T14:54:55Z</time>
      </trkpt>
      <trkpt lat="48.57838" lon="-0.39647">
        <ele>235.1</ele>
        <time>2012-02-04T14:54:58Z</time>
      </trkpt>
      <trkpt lat="48.57836" lon="-0.39636">
        <ele>235.2</ele>
        <time>2012-02-04T14:55:00Z</time>
      </trkpt>
      <trkpt lat="48.57836" lon="-0.39624">
        <ele>235.2</ele>
        <time>2012-02-04T14:55:02Z</time>
      </trkpt>
      <trkpt lat="48.57835" lon="-0.39612">
        <ele>235.6</ele>
        <time>2012-02-04T14:55:04Z</time>
      </trkpt>
      <trkpt lat="48.57832" lon="-0.39602">
        <ele>236.1</ele>
        <time>2012-02-04T14:55:06Z</time>
      </trkpt>
      <trkpt lat="48.57829" lon="-0.39591">
        <ele>236.5</ele>
        <time>2012-02-04T14:55:08Z</time>
      </trkpt>
      <trkpt lat="48.57826" lon="-0.3958">
        <ele>236.7</ele>
        <time>2012-02-04T14:55:10Z</time>
      </trkpt>
      <trkpt lat="48.57823" lon="-0.3957">
        <ele>237.1</ele>
        <time>2012-02-04T14:55:12Z</time>
      </trkpt>
      <trkpt lat="48.5782" lon="-0.39561">
        <ele>237.5</ele>
        <time>2012-02-04T14:55:14Z</time>
      </trkpt>
      <trkpt lat="48.57816" lon="-0.39554">
        <ele>237.9</ele>
        <time>2012-02-04T14:55:16Z</time>
      </trkpt>
      <trkpt lat="48.57811" lon="-0.39548">
        <ele>238.1</ele>
        <time>2012-02-04T14:55:18Z</time>
      </trkpt>
      <trkpt lat="48.57805" lon="-0.39542">
        <ele>238.6</ele>
        <time>2012-02-04T14:55:20Z</time>
      </trkpt>
      <trkpt lat="48.57799" lon="-0.39536">
        <ele>239</ele>
        <time>2012-02-04T14:55:22Z</time>
      </trkpt>
      <trkpt lat="48.57792" lon="-0.3953">
        <ele>239.4</ele>
        <time>2012-02-04T14:55:24Z</time>
      </trkpt>
      <trkpt lat="48.57784" lon="-0.39524">
        <ele>239.3</ele>
        <time>2012-02-04T14:55:26Z</time>
      </trkpt>
      <trkpt lat="48.57781" lon="-0.3952">
        <ele>239</ele>
        <time>2012-02-04T14:55:27Z</time>
      </trkpt>
      <trkpt lat="48.57777" lon="-0.39515">
        <ele>238.8</ele>
        <time>2012-02-04T14:55:28Z</time>
      </trkpt>
      <trkpt lat="48.57774" lon="-0.3951">
        <ele>238.7</ele>
        <time>2012-02-04T14:55:29Z</time>
      </trkpt>
      <trkpt lat="48.5777" lon="-0.39504">
        <ele>238.7</ele>
        <time>2012-02-04T14:55:30Z</time>
      </trkpt>
      <trkpt lat="48.57766" lon="-0.39493">
        <ele>238.5</ele>
        <time>2012-02-04T14:55:32Z</time>
      </trkpt>
      <trkpt lat="48.57761" lon="-0.39481">
        <ele>238.2</ele>
        <time>2012-02-04T14:55:34Z</time>
      </trkpt>
      <trkpt lat="48.57757" lon="-0.3947">
        <ele>238</ele>
        <time>2012-02-04T14:55:36Z</time>
      </trkpt>
      <trkpt lat="48.57752" lon="-0.3946">
        <ele>238.1</ele>
        <time>2012-02-04T14:55:38Z</time>
      </trkpt>
      <trkpt lat="48.57748" lon="-0.39449">
        <ele>238.8</ele>
        <time>2012-02-04T14:55:40Z</time>
      </trkpt>
      <trkpt lat="48.57744" lon="-0.39439">
        <ele>239</ele>
        <time>2012-02-04T14:55:42Z</time>
      </trkpt>
      <trkpt lat="48.5774" lon="-0.39428">
        <ele>238.9</ele>
        <time>2012-02-04T14:55:44Z</time>
      </trkpt>
      <trkpt lat="48.57735" lon="-0.39416">
        <ele>238.5</ele>
        <time>2012-02-04T14:55:46Z</time>
      </trkpt>
      <trkpt lat="48.57733" lon="-0.3941">
        <ele>238.4</ele>
        <time>2012-02-04T14:55:47Z</time>
      </trkpt>
      <trkpt lat="48.57732" lon="-0.39403">
        <ele>238.3</ele>
        <time>2012-02-04T14:55:48Z</time>
      </trkpt>
      <trkpt lat="48.57729" lon="-0.3939">
        <ele>238.7</ele>
        <time>2012-02-04T14:55:50Z</time>
      </trkpt>
      <trkpt lat="48.57725" lon="-0.39378">
        <ele>239</ele>
        <time>2012-02-04T14:55:52Z</time>
      </trkpt>
      <trkpt lat="48.57722" lon="-0.39366">
        <ele>239.1</ele>
        <time>2012-02-04T14:55:54Z</time>
      </trkpt>
      <trkpt lat="48.57719" lon="-0.39353">
        <ele>239.3</ele>
        <time>2012-02-04T14:55:56Z</time>
      </trkpt>
      <trkpt lat="48.57717" lon="-0.39348">
        <ele>239.4</ele>
        <time>2012-02-04T14:55:57Z</time>
      </trkpt>
      <trkpt lat="48.57712" lon="-0.3933">
        <ele>239.7</ele>
        <time>2012-02-04T14:56:00Z</time>
      </trkpt>
      <trkpt lat="48.57709" lon="-0.39324">
        <ele>239.6</ele>
        <time>2012-02-04T14:56:01Z</time>
      </trkpt>
      <trkpt lat="48.57707" lon="-0.39317">
        <ele>239.5</ele>
        <time>2012-02-04T14:56:02Z</time>
      </trkpt>
      <trkpt lat="48.57705" lon="-0.39311">
        <ele>239.5</ele>
        <time>2012-02-04T14:56:03Z</time>
      </trkpt>
      <trkpt lat="48.57704" lon="-0.39304">
        <ele>239.5</ele>
        <time>2012-02-04T14:56:04Z</time>
      </trkpt>
      <trkpt lat="48.57702" lon="-0.39297">
        <ele>238.7</ele>
        <time>2012-02-04T14:56:05Z</time>
      </trkpt>
      <trkpt lat="48.577" lon="-0.39289">
        <ele>238.2</ele>
        <time>2012-02-04T14:56:06Z</time>
      </trkpt>
      <trkpt lat="48.57697" lon="-0.39282">
        <ele>237.8</ele>
        <time>2012-02-04T14:56:07Z</time>
      </trkpt>
      <trkpt lat="48.57694" lon="-0.39275">
        <ele>237.5</ele>
        <time>2012-02-04T14:56:08Z</time>
      </trkpt>
      <trkpt lat="48.5769" lon="-0.39268">
        <ele>237.3</ele>
        <time>2012-02-04T14:56:09Z</time>
      </trkpt>
      <trkpt lat="48.57686" lon="-0.39262">
        <ele>236.4</ele>
        <time>2012-02-04T14:56:10Z</time>
      </trkpt>
      <trkpt lat="48.57682" lon="-0.39257">
        <ele>235.7</ele>
        <time>2012-02-04T14:56:11Z</time>
      </trkpt>
      <trkpt lat="48.57679" lon="-0.3925">
        <ele>234.9</ele>
        <time>2012-02-04T14:56:12Z</time>
      </trkpt>
      <trkpt lat="48.57676" lon="-0.39241">
        <ele>234.4</ele>
        <time>2012-02-04T14:56:13Z</time>
      </trkpt>
      <trkpt lat="48.57673" lon="-0.39232">
        <ele>234</ele>
        <time>2012-02-04T14:56:14Z</time>
      </trkpt>
      <trkpt lat="48.57671" lon="-0.39223">
        <ele>232.7</ele>
        <time>2012-02-04T14:56:15Z</time>
      </trkpt>
      <trkpt lat="48.57669" lon="-0.39214">
        <ele>231.8</ele>
        <time>2012-02-04T14:56:16Z</time>
      </trkpt>
      <trkpt lat="48.57668" lon="-0.39204">
        <ele>231</ele>
        <time>2012-02-04T14:56:17Z</time>
      </trkpt>
      <trkpt lat="48.57668" lon="-0.39194">
        <ele>230.5</ele>
        <time>2012-02-04T14:56:18Z</time>
      </trkpt>
      <trkpt lat="48.57668" lon="-0.39184">
        <ele>230.1</ele>
        <time>2012-02-04T14:56:19Z</time>
      </trkpt>
      <trkpt lat="48.57669" lon="-0.39175">
        <ele>229.9</ele>
        <time>2012-02-04T14:56:20Z</time>
      </trkpt>
      <trkpt lat="48.57671" lon="-0.39166">
        <ele>229.8</ele>
        <time>2012-02-04T14:56:21Z</time>
      </trkpt>
      <trkpt lat="48.57672" lon="-0.39157">
        <ele>229.2</ele>
        <time>2012-02-04T14:56:22Z</time>
      </trkpt>
      <trkpt lat="48.57674" lon="-0.39149">
        <ele>228.8</ele>
        <time>2012-02-04T14:56:23Z</time>
      </trkpt>
      <trkpt lat="48.57676" lon="-0.39141">
        <ele>228.2</ele>
        <time>2012-02-04T14:56:24Z</time>
      </trkpt>
      <trkpt lat="48.57678" lon="-0.3913">
        <ele>227.6</ele>
        <time>2012-02-04T14:56:26Z</time>
      </trkpt>
      <trkpt lat="48.57679" lon="-0.39117">
        <ele>224.8</ele>
        <time>2012-02-04T14:56:40Z</time>
      </trkpt>
      <trkpt lat="48.57683" lon="-0.39108">
        <ele>224.7</ele>
        <time>2012-02-04T14:57:47Z</time>
      </trkpt>
      <trkpt lat="48.57684" lon="-0.39105">
        <ele>224.6</ele>
        <time>2012-02-04T14:57:48Z</time>
      </trkpt>
      <trkpt lat="48.57688" lon="-0.39087">
        <ele>224.5</ele>
        <time>2012-02-04T14:57:52Z</time>
      </trkpt>
      <trkpt lat="48.57689" lon="-0.3908">
        <ele>224.3</ele>
        <time>2012-02-04T14:57:53Z</time>
      </trkpt>
      <trkpt lat="48.57691" lon="-0.39074">
        <ele>223.9</ele>
        <time>2012-02-04T14:57:54Z</time>
      </trkpt>
      <trkpt lat="48.57693" lon="-0.39068">
        <ele>223.6</ele>
        <time>2012-02-04T14:57:55Z</time>
      </trkpt>
      <trkpt lat="48.57697" lon="-0.39062">
        <ele>223.4</ele>
        <time>2012-02-04T14:57:56Z</time>
      </trkpt>
      <trkpt lat="48.577" lon="-0.39057">
        <ele>223.1</ele>
        <time>2012-02-04T14:57:57Z</time>
      </trkpt>
      <trkpt lat="48.57704" lon="-0.39052">
        <ele>222.9</ele>
        <time>2012-02-04T14:57:58Z</time>
      </trkpt>
      <trkpt lat="48.57709" lon="-0.39047">
        <ele>222.9</ele>
        <time>2012-02-04T14:57:59Z</time>
      </trkpt>
      <trkpt lat="48.57713" lon="-0.39042">
        <ele>222.9</ele>
        <time>2012-02-04T14:58:00Z</time>
      </trkpt>
      <trkpt lat="48.57718" lon="-0.39037">
        <ele>223</ele>
        <time>2012-02-04T14:58:01Z</time>
      </trkpt>
      <trkpt lat="48.57722" lon="-0.39031">
        <ele>222.6</ele>
        <time>2012-02-04T14:58:02Z</time>
      </trkpt>
      <trkpt lat="48.57726" lon="-0.39026">
        <ele>222.4</ele>
        <time>2012-02-04T14:58:03Z</time>
      </trkpt>
      <trkpt lat="48.57731" lon="-0.3902">
        <ele>222.1</ele>
        <time>2012-02-04T14:58:04Z</time>
      </trkpt>
      <trkpt lat="48.57736" lon="-0.39014">
        <ele>222</ele>
        <time>2012-02-04T14:58:05Z</time>
      </trkpt>
      <trkpt lat="48.57741" lon="-0.39008">
        <ele>221.3</ele>
        <time>2012-02-04T14:58:06Z</time>
      </trkpt>
      <trkpt lat="48.57746" lon="-0.39001">
        <ele>220.8</ele>
        <time>2012-02-04T14:58:07Z</time>
      </trkpt>
      <trkpt lat="48.57751" lon="-0.38995">
        <ele>220.5</ele>
        <time>2012-02-04T14:58:08Z</time>
      </trkpt>
      <trkpt lat="48.57756" lon="-0.38989">
        <ele>220.3</ele>
        <time>2012-02-04T14:58:09Z</time>
      </trkpt>
      <trkpt lat="48.57762" lon="-0.38983">
        <ele>220.2</ele>
        <time>2012-02-04T14:58:10Z</time>
      </trkpt>
      <trkpt lat="48.57768" lon="-0.38977">
        <ele>219.7</ele>
        <time>2012-02-04T14:58:11Z</time>
      </trkpt>
      <trkpt lat="48.57773" lon="-0.38971">
        <ele>219.3</ele>
        <time>2012-02-04T14:58:12Z</time>
      </trkpt>
      <trkpt lat="48.57779" lon="-0.38965">
        <ele>218.9</ele>
        <time>2012-02-04T14:58:13Z</time>
      </trkpt>
      <trkpt lat="48.57785" lon="-0.3896">
        <ele>218.5</ele>
        <time>2012-02-04T14:58:14Z</time>
      </trkpt>
      <trkpt lat="48.57791" lon="-0.38954">
        <ele>218.3</ele>
        <time>2012-02-04T14:58:15Z</time>
      </trkpt>
      <trkpt lat="48.57796" lon="-0.38949">
        <ele>218</ele>
        <time>2012-02-04T14:58:16Z</time>
      </trkpt>
      <trkpt lat="48.57802" lon="-0.38944">
        <ele>217.9</ele>
        <time>2012-02-04T14:58:17Z</time>
      </trkpt>
      <trkpt lat="48.57808" lon="-0.38939">
        <ele>217.5</ele>
        <time>2012-02-04T14:58:18Z</time>
      </trkpt>
      <trkpt lat="48.57813" lon="-0.38934">
        <ele>217.2</ele>
        <time>2012-02-04T14:58:19Z</time>
      </trkpt>
      <trkpt lat="48.57819" lon="-0.38929">
        <ele>217</ele>
        <time>2012-02-04T14:58:20Z</time>
      </trkpt>
      <trkpt lat="48.57824" lon="-0.38924">
        <ele>216.8</ele>
        <time>2012-02-04T14:58:21Z</time>
      </trkpt>
      <trkpt lat="48.5783" lon="-0.38918">
        <ele>216.6</ele>
        <time>2012-02-04T14:58:22Z</time>
      </trkpt>
      <trkpt lat="48.57835" lon="-0.38913">
        <ele>216.7</ele>
        <time>2012-02-04T14:58:23Z</time>
      </trkpt>
      <trkpt lat="48.5784" lon="-0.38908">
        <ele>216.7</ele>
        <time>2012-02-04T14:58:24Z</time>
      </trkpt>
      <trkpt lat="48.57845" lon="-0.38902">
        <ele>216.2</ele>
        <time>2012-02-04T14:58:25Z</time>
      </trkpt>
      <trkpt lat="48.5785" lon="-0.38896">
        <ele>215.9</ele>
        <time>2012-02-04T14:58:26Z</time>
      </trkpt>
      <trkpt lat="48.57855" lon="-0.3889">
        <ele>215.7</ele>
        <time>2012-02-04T14:58:27Z</time>
      </trkpt>
      <trkpt lat="48.57859" lon="-0.38883">
        <ele>215.3</ele>
        <time>2012-02-04T14:58:28Z</time>
      </trkpt>
      <trkpt lat="48.57863" lon="-0.38877">
        <ele>215</ele>
        <time>2012-02-04T14:58:29Z</time>
      </trkpt>
      <trkpt lat="48.57866" lon="-0.38871">
        <ele>215</ele>
        <time>2012-02-04T14:58:30Z</time>
      </trkpt>
      <trkpt lat="48.57869" lon="-0.38865">
        <ele>215</ele>
        <time>2012-02-04T14:58:31Z</time>
      </trkpt>
      <trkpt lat="48.57872" lon="-0.38859">
        <ele>214.3</ele>
        <time>2012-02-04T14:58:32Z</time>
      </trkpt>
      <trkpt lat="48.57877" lon="-0.38848">
        <ele>213.5</ele>
        <time>2012-02-04T14:58:34Z</time>
      </trkpt>
      <trkpt lat="48.57881" lon="-0.38838">
        <ele>212.6</ele>
        <time>2012-02-04T14:58:36Z</time>
      </trkpt>
      <trkpt lat="48.57885" lon="-0.38828">
        <ele>212.1</ele>
        <time>2012-02-04T14:58:38Z</time>
      </trkpt>
      <trkpt lat="48.57889" lon="-0.38818">
        <ele>211.4</ele>
        <time>2012-02-04T14:58:40Z</time>
      </trkpt>
      <trkpt lat="48.57894" lon="-0.38808">
        <ele>210.5</ele>
        <time>2012-02-04T14:58:42Z</time>
      </trkpt>
      <trkpt lat="48.57898" lon="-0.38797">
        <ele>209.8</ele>
        <time>2012-02-04T14:58:44Z</time>
      </trkpt>
      <trkpt lat="48.57903" lon="-0.38786">
        <ele>209.3</ele>
        <time>2012-02-04T14:58:46Z</time>
      </trkpt>
      <trkpt lat="48.57908" lon="-0.38776">
        <ele>208.2</ele>
        <time>2012-02-04T14:58:48Z</time>
      </trkpt>
      <trkpt lat="48.57913" lon="-0.38765">
        <ele>207.6</ele>
        <time>2012-02-04T14:58:50Z</time>
      </trkpt>
      <trkpt lat="48.57915" lon="-0.38759">
        <ele>207.2</ele>
        <time>2012-02-04T14:58:51Z</time>
      </trkpt>
      <trkpt lat="48.57921" lon="-0.38742">
        <ele>206.3</ele>
        <time>2012-02-04T14:58:54Z</time>
      </trkpt>
      <trkpt lat="48.57926" lon="-0.38731">
        <ele>205.4</ele>
        <time>2012-02-04T14:58:56Z</time>
      </trkpt>
      <trkpt lat="48.57928" lon="-0.38725">
        <ele>204.9</ele>
        <time>2012-02-04T14:58:57Z</time>
      </trkpt>
      <trkpt lat="48.5793" lon="-0.38718">
        <ele>204.3</ele>
        <time>2012-02-04T14:58:58Z</time>
      </trkpt>
      <trkpt lat="48.57932" lon="-0.38711">
        <ele>203.8</ele>
        <time>2012-02-04T14:58:59Z</time>
      </trkpt>
      <trkpt lat="48.57935" lon="-0.38704">
        <ele>203.4</ele>
        <time>2012-02-04T14:59:00Z</time>
      </trkpt>
      <trkpt lat="48.57937" lon="-0.38697">
        <ele>203.2</ele>
        <time>2012-02-04T14:59:01Z</time>
      </trkpt>
      <trkpt lat="48.57939" lon="-0.38689">
        <ele>203</ele>
        <time>2012-02-04T14:59:02Z</time>
      </trkpt>
      <trkpt lat="48.57942" lon="-0.38682">
        <ele>202.7</ele>
        <time>2012-02-04T14:59:03Z</time>
      </trkpt>
      <trkpt lat="48.57944" lon="-0.38674">
        <ele>202.4</ele>
        <time>2012-02-04T14:59:04Z</time>
      </trkpt>
      <trkpt lat="48.57947" lon="-0.38667">
        <ele>202.2</ele>
        <time>2012-02-04T14:59:05Z</time>
      </trkpt>
      <trkpt lat="48.57949" lon="-0.3866">
        <ele>202</ele>
        <time>2012-02-04T14:59:06Z</time>
      </trkpt>
      <trkpt lat="48.57952" lon="-0.38653">
        <ele>201.9</ele>
        <time>2012-02-04T14:59:07Z</time>
      </trkpt>
      <trkpt lat="48.57955" lon="-0.38646">
        <ele>201.6</ele>
        <time>2012-02-04T14:59:08Z</time>
      </trkpt>
      <trkpt lat="48.57958" lon="-0.38639">
        <ele>201.4</ele>
        <time>2012-02-04T14:59:09Z</time>
      </trkpt>
      <trkpt lat="48.5796" lon="-0.38632">
        <ele>201.6</ele>
        <time>2012-02-04T14:59:10Z</time>
      </trkpt>
      <trkpt lat="48.57963" lon="-0.38626">
        <ele>201.7</ele>
        <time>2012-02-04T14:59:11Z</time>
      </trkpt>
      <trkpt lat="48.57966" lon="-0.38619">
        <ele>201.8</ele>
        <time>2012-02-04T14:59:12Z</time>
      </trkpt>
      <trkpt lat="48.57969" lon="-0.38612">
        <ele>201.6</ele>
        <time>2012-02-04T14:59:13Z</time>
      </trkpt>
      <trkpt lat="48.57972" lon="-0.38606">
        <ele>201.5</ele>
        <time>2012-02-04T14:59:14Z</time>
      </trkpt>
      <trkpt lat="48.57975" lon="-0.386">
        <ele>201.6</ele>
        <time>2012-02-04T14:59:15Z</time>
      </trkpt>
      <trkpt lat="48.57979" lon="-0.38594">
        <ele>201.7</ele>
        <time>2012-02-04T14:59:16Z</time>
      </trkpt>
      <trkpt lat="48.57983" lon="-0.38588">
        <ele>201.7</ele>
        <time>2012-02-04T14:59:17Z</time>
      </trkpt>
      <trkpt lat="48.57986" lon="-0.38582">
        <ele>201.7</ele>
        <time>2012-02-04T14:59:18Z</time>
      </trkpt>
      <trkpt lat="48.5799" lon="-0.38577">
        <ele>201.7</ele>
        <time>2012-02-04T14:59:19Z</time>
      </trkpt>
      <trkpt lat="48.57993" lon="-0.38571">
        <ele>201.3</ele>
        <time>2012-02-04T14:59:20Z</time>
      </trkpt>
      <trkpt lat="48.57996" lon="-0.38565">
        <ele>201.1</ele>
        <time>2012-02-04T14:59:21Z</time>
      </trkpt>
      <trkpt lat="48.57999" lon="-0.38559">
        <ele>200.8</ele>
        <time>2012-02-04T14:59:22Z</time>
      </trkpt>
      <trkpt lat="48.58002" lon="-0.38553">
        <ele>200.5</ele>
        <time>2012-02-04T14:59:23Z</time>
      </trkpt>
      <trkpt lat="48.58004" lon="-0.38547">
        <ele>200.3</ele>
        <time>2012-02-04T14:59:24Z</time>
      </trkpt>
      <trkpt lat="48.58006" lon="-0.3854">
        <ele>200.3</ele>
        <time>2012-02-04T14:59:25Z</time>
      </trkpt>
      <trkpt lat="48.58008" lon="-0.38534">
        <ele>200.3</ele>
        <time>2012-02-04T14:59:26Z</time>
      </trkpt>
      <trkpt lat="48.58011" lon="-0.38521">
        <ele>200.4</ele>
        <time>2012-02-04T14:59:28Z</time>
      </trkpt>
      <trkpt lat="48.58013" lon="-0.38509">
        <ele>200.5</ele>
        <time>2012-02-04T14:59:30Z</time>
      </trkpt>
      <trkpt lat="48.58014" lon="-0.38496">
        <ele>200.8</ele>
        <time>2012-02-04T14:59:32Z</time>
      </trkpt>
      <trkpt lat="48.58014" lon="-0.38484">
        <ele>201.5</ele>
        <time>2012-02-04T14:59:34Z</time>
      </trkpt>
      <trkpt lat="48.58012" lon="-0.38471">
        <ele>202.4</ele>
        <time>2012-02-04T14:59:36Z</time>
      </trkpt>
      <trkpt lat="48.58012" lon="-0.38459">
        <ele>203.2</ele>
        <time>2012-02-04T14:59:38Z</time>
      </trkpt>
      <trkpt lat="48.58013" lon="-0.38447">
        <ele>203.7</ele>
        <time>2012-02-04T14:59:40Z</time>
      </trkpt>
      <trkpt lat="48.58017" lon="-0.38436">
        <ele>203.8</ele>
        <time>2012-02-04T14:59:42Z</time>
      </trkpt>
      <trkpt lat="48.58021" lon="-0.38426">
        <ele>204.4</ele>
        <time>2012-02-04T14:59:44Z</time>
      </trkpt>
      <trkpt lat="48.58027" lon="-0.38418">
        <ele>205.5</ele>
        <time>2012-02-04T14:59:46Z</time>
      </trkpt>
      <trkpt lat="48.58035" lon="-0.3841">
        <ele>206.5</ele>
        <time>2012-02-04T14:59:48Z</time>
      </trkpt>
      <trkpt lat="48.58042" lon="-0.38403">
        <ele>207.3</ele>
        <time>2012-02-04T14:59:50Z</time>
      </trkpt>
      <trkpt lat="48.5805" lon="-0.38397">
        <ele>207.7</ele>
        <time>2012-02-04T14:59:52Z</time>
      </trkpt>
      <trkpt lat="48.58053" lon="-0.38395">
        <ele>208.2</ele>
        <time>2012-02-04T14:59:53Z</time>
      </trkpt>
      <trkpt lat="48.58064" lon="-0.38385">
        <ele>208.8</ele>
        <time>2012-02-04T14:59:56Z</time>
      </trkpt>
      <trkpt lat="48.5807" lon="-0.38378">
        <ele>209</ele>
        <time>2012-02-04T14:59:58Z</time>
      </trkpt>
      <trkpt lat="48.58076" lon="-0.3837">
        <ele>209.2</ele>
        <time>2012-02-04T15:00:00Z</time>
      </trkpt>
      <trkpt lat="48.58081" lon="-0.38362">
        <ele>209.4</ele>
        <time>2012-02-04T15:00:02Z</time>
      </trkpt>
      <trkpt lat="48.58086" lon="-0.38354">
        <ele>209.7</ele>
        <time>2012-02-04T15:00:04Z</time>
      </trkpt>
      <trkpt lat="48.58091" lon="-0.38346">
        <ele>209.8</ele>
        <time>2012-02-04T15:00:06Z</time>
      </trkpt>
      <trkpt lat="48.58095" lon="-0.38337">
        <ele>210.6</ele>
        <time>2012-02-04T15:00:08Z</time>
      </trkpt>
      <trkpt lat="48.58099" lon="-0.38327">
        <ele>211</ele>
        <time>2012-02-04T15:00:10Z</time>
      </trkpt>
      <trkpt lat="48.58102" lon="-0.38318">
        <ele>211.8</ele>
        <time>2012-02-04T15:00:12Z</time>
      </trkpt>
      <trkpt lat="48.58104" lon="-0.38308">
        <ele>212.5</ele>
        <time>2012-02-04T15:00:14Z</time>
      </trkpt>
      <trkpt lat="48.58106" lon="-0.38299">
        <ele>213</ele>
        <time>2012-02-04T15:00:16Z</time>
      </trkpt>
      <trkpt lat="48.58109" lon="-0.3829">
        <ele>213.9</ele>
        <time>2012-02-04T15:00:18Z</time>
      </trkpt>
      <trkpt lat="48.5811" lon="-0.3828">
        <ele>214.8</ele>
        <time>2012-02-04T15:00:20Z</time>
      </trkpt>
      <trkpt lat="48.58112" lon="-0.3827">
        <ele>215.4</ele>
        <time>2012-02-04T15:00:22Z</time>
      </trkpt>
      <trkpt lat="48.58113" lon="-0.38261">
        <ele>216.2</ele>
        <time>2012-02-04T15:00:24Z</time>
      </trkpt>
      <trkpt lat="48.58114" lon="-0.38252">
        <ele>217.3</ele>
        <time>2012-02-04T15:00:26Z</time>
      </trkpt>
      <trkpt lat="48.58115" lon="-0.38243">
        <ele>218.2</ele>
        <time>2012-02-04T15:00:28Z</time>
      </trkpt>
      <trkpt lat="48.58117" lon="-0.38233">
        <ele>218.6</ele>
        <time>2012-02-04T15:00:30Z</time>
      </trkpt>
      <trkpt lat="48.58118" lon="-0.38224">
        <ele>219.5</ele>
        <time>2012-02-04T15:00:32Z</time>
      </trkpt>
      <trkpt lat="48.58119" lon="-0.38211">
        <ele>219.2</ele>
        <time>2012-02-04T15:00:35Z</time>
      </trkpt>
      <trkpt lat="48.58121" lon="-0.38202">
        <ele>220.4</ele>
        <time>2012-02-04T15:00:37Z</time>
      </trkpt>
      <trkpt lat="48.58124" lon="-0.38193">
        <ele>221</ele>
        <time>2012-02-04T15:00:39Z</time>
      </trkpt>
      <trkpt lat="48.58126" lon="-0.38184">
        <ele>221.6</ele>
        <time>2012-02-04T15:00:41Z</time>
      </trkpt>
      <trkpt lat="48.58128" lon="-0.38174">
        <ele>221.7</ele>
        <time>2012-02-04T15:00:43Z</time>
      </trkpt>
      <trkpt lat="48.58131" lon="-0.38165">
        <ele>221.8</ele>
        <time>2012-02-04T15:00:45Z</time>
      </trkpt>
      <trkpt lat="48.58134" lon="-0.38155">
        <ele>222.1</ele>
        <time>2012-02-04T15:00:47Z</time>
      </trkpt>
      <trkpt lat="48.58137" lon="-0.38146">
        <ele>222.1</ele>
        <time>2012-02-04T15:00:49Z</time>
      </trkpt>
      <trkpt lat="48.5814" lon="-0.38136">
        <ele>222.5</ele>
        <time>2012-02-04T15:00:51Z</time>
      </trkpt>
      <trkpt lat="48.58144" lon="-0.38126">
        <ele>222.8</ele>
        <time>2012-02-04T15:00:53Z</time>
      </trkpt>
      <trkpt lat="48.58147" lon="-0.38116">
        <ele>222.7</ele>
        <time>2012-02-04T15:00:55Z</time>
      </trkpt>
      <trkpt lat="48.58149" lon="-0.38111">
        <ele>222.6</ele>
        <time>2012-02-04T15:00:56Z</time>
      </trkpt>
      <trkpt lat="48.58156" lon="-0.38095">
        <ele>222.3</ele>
        <time>2012-02-04T15:00:59Z</time>
      </trkpt>
      <trkpt lat="48.5816" lon="-0.38085">
        <ele>223</ele>
        <time>2012-02-04T15:01:01Z</time>
      </trkpt>
      <trkpt lat="48.58165" lon="-0.38074">
        <ele>223.4</ele>
        <time>2012-02-04T15:01:03Z</time>
      </trkpt>
      <trkpt lat="48.58169" lon="-0.38064">
        <ele>224.1</ele>
        <time>2012-02-04T15:01:05Z</time>
      </trkpt>
      <trkpt lat="48.58174" lon="-0.38054">
        <ele>224.1</ele>
        <time>2012-02-04T15:01:07Z</time>
      </trkpt>
      <trkpt lat="48.58179" lon="-0.38043">
        <ele>224.1</ele>
        <time>2012-02-04T15:01:09Z</time>
      </trkpt>
      <trkpt lat="48.58182" lon="-0.38037">
        <ele>224.1</ele>
        <time>2012-02-04T15:01:10Z</time>
      </trkpt>
      <trkpt lat="48.58185" lon="-0.38032">
        <ele>223.9</ele>
        <time>2012-02-04T15:01:11Z</time>
      </trkpt>
      <trkpt lat="48.58188" lon="-0.38026">
        <ele>223.8</ele>
        <time>2012-02-04T15:01:12Z</time>
      </trkpt>
      <trkpt lat="48.58191" lon="-0.3802">
        <ele>223.6</ele>
        <time>2012-02-04T15:01:13Z</time>
      </trkpt>
      <trkpt lat="48.58194" lon="-0.38014">
        <ele>223.4</ele>
        <time>2012-02-04T15:01:14Z</time>
      </trkpt>
      <trkpt lat="48.58197" lon="-0.38007">
        <ele>223.2</ele>
        <time>2012-02-04T15:01:15Z</time>
      </trkpt>
      <trkpt lat="48.58201" lon="-0.38">
        <ele>223</ele>
        <time>2012-02-04T15:01:16Z</time>
      </trkpt>
      <trkpt lat="48.58204" lon="-0.37993">
        <ele>222.9</ele>
        <time>2012-02-04T15:01:17Z</time>
      </trkpt>
      <trkpt lat="48.58208" lon="-0.37986">
        <ele>222.4</ele>
        <time>2012-02-04T15:01:18Z</time>
      </trkpt>
      <trkpt lat="48.58212" lon="-0.37978">
        <ele>222.1</ele>
        <time>2012-02-04T15:01:19Z</time>
      </trkpt>
      <trkpt lat="48.58216" lon="-0.3797">
        <ele>221.8</ele>
        <time>2012-02-04T15:01:20Z</time>
      </trkpt>
      <trkpt lat="48.58219" lon="-0.37962">
        <ele>221.6</ele>
        <time>2012-02-04T15:01:21Z</time>
      </trkpt>
      <trkpt lat="48.58223" lon="-0.37953">
        <ele>221.4</ele>
        <time>2012-02-04T15:01:22Z</time>
      </trkpt>
      <trkpt lat="48.58227" lon="-0.37944">
        <ele>221</ele>
        <time>2012-02-04T15:01:23Z</time>
      </trkpt>
      <trkpt lat="48.5823" lon="-0.37935">
        <ele>220.6</ele>
        <time>2012-02-04T15:01:24Z</time>
      </trkpt>
      <trkpt lat="48.58234" lon="-0.37927">
        <ele>220.3</ele>
        <time>2012-02-04T15:01:25Z</time>
      </trkpt>
      <trkpt lat="48.58238" lon="-0.37918">
        <ele>219.8</ele>
        <time>2012-02-04T15:01:26Z</time>
      </trkpt>
      <trkpt lat="48.58242" lon="-0.3791">
        <ele>219.4</ele>
        <time>2012-02-04T15:01:27Z</time>
      </trkpt>
      <trkpt lat="48.58246" lon="-0.37902">
        <ele>219</ele>
        <time>2012-02-04T15:01:28Z</time>
      </trkpt>
      <trkpt lat="48.5825" lon="-0.37895">
        <ele>218.8</ele>
        <time>2012-02-04T15:01:29Z</time>
      </trkpt>
      <trkpt lat="48.58254" lon="-0.37888">
        <ele>218.5</ele>
        <time>2012-02-04T15:01:30Z</time>
      </trkpt>
      <trkpt lat="48.58259" lon="-0.37881">
        <ele>218.3</ele>
        <time>2012-02-04T15:01:31Z</time>
      </trkpt>
      <trkpt lat="48.58263" lon="-0.37874">
        <ele>218.1</ele>
        <time>2012-02-04T15:01:32Z</time>
      </trkpt>
      <trkpt lat="48.58267" lon="-0.37867">
        <ele>217.7</ele>
        <time>2012-02-04T15:01:33Z</time>
      </trkpt>
      <trkpt lat="48.58271" lon="-0.3786">
        <ele>217.4</ele>
        <time>2012-02-04T15:01:34Z</time>
      </trkpt>
      <trkpt lat="48.58275" lon="-0.37854">
        <ele>217.1</ele>
        <time>2012-02-04T15:01:35Z</time>
      </trkpt>
      <trkpt lat="48.58279" lon="-0.37847">
        <ele>217</ele>
        <time>2012-02-04T15:01:36Z</time>
      </trkpt>
      <trkpt lat="48.58283" lon="-0.37841">
        <ele>216.8</ele>
        <time>2012-02-04T15:01:37Z</time>
      </trkpt>
      <trkpt lat="48.58287" lon="-0.37834">
        <ele>216.7</ele>
        <time>2012-02-04T15:01:38Z</time>
      </trkpt>
      <trkpt lat="48.58291" lon="-0.37828">
        <ele>216.7</ele>
        <time>2012-02-04T15:01:39Z</time>
      </trkpt>
      <trkpt lat="48.58295" lon="-0.37821">
        <ele>216</ele>
        <time>2012-02-04T15:01:40Z</time>
      </trkpt>
      <trkpt lat="48.58299" lon="-0.37815">
        <ele>215.5</ele>
        <time>2012-02-04T15:01:41Z</time>
      </trkpt>
      <trkpt lat="48.58301" lon="-0.37808">
        <ele>216</ele>
        <time>2012-02-04T15:01:42Z</time>
      </trkpt>
      <trkpt lat="48.58303" lon="-0.37801">
        <ele>216.4</ele>
        <time>2012-02-04T15:01:43Z</time>
      </trkpt>
      <trkpt lat="48.58305" lon="-0.37794">
        <ele>216.7</ele>
        <time>2012-02-04T15:01:44Z</time>
      </trkpt>
      <trkpt lat="48.58308" lon="-0.37782">
        <ele>216</ele>
        <time>2012-02-04T15:01:46Z</time>
      </trkpt>
      <trkpt lat="48.58311" lon="-0.3777">
        <ele>215.9</ele>
        <time>2012-02-04T15:01:48Z</time>
      </trkpt>
      <trkpt lat="48.58313" lon="-0.37757">
        <ele>216</ele>
        <time>2012-02-04T15:01:50Z</time>
      </trkpt>
      <trkpt lat="48.58314" lon="-0.37746">
        <ele>216.1</ele>
        <time>2012-02-04T15:01:52Z</time>
      </trkpt>
      <trkpt lat="48.58315" lon="-0.37734">
        <ele>216.3</ele>
        <time>2012-02-04T15:01:54Z</time>
      </trkpt>
      <trkpt lat="48.58317" lon="-0.37722">
        <ele>216.6</ele>
        <time>2012-02-04T15:01:56Z</time>
      </trkpt>
      <trkpt lat="48.58318" lon="-0.37716">
        <ele>216.6</ele>
        <time>2012-02-04T15:01:57Z</time>
      </trkpt>
      <trkpt lat="48.58324" lon="-0.37699">
        <ele>216.5</ele>
        <time>2012-02-04T15:02:00Z</time>
      </trkpt>
      <trkpt lat="48.58329" lon="-0.37689">
        <ele>216.7</ele>
        <time>2012-02-04T15:02:02Z</time>
      </trkpt>
      <trkpt lat="48.58335" lon="-0.37678">
        <ele>216.6</ele>
        <time>2012-02-04T15:02:04Z</time>
      </trkpt>
      <trkpt lat="48.58338" lon="-0.37673">
        <ele>216.4</ele>
        <time>2012-02-04T15:02:05Z</time>
      </trkpt>
      <trkpt lat="48.58341" lon="-0.37668">
        <ele>216.6</ele>
        <time>2012-02-04T15:02:06Z</time>
      </trkpt>
      <trkpt lat="48.58343" lon="-0.37662">
        <ele>216.7</ele>
        <time>2012-02-04T15:02:07Z</time>
      </trkpt>
      <trkpt lat="48.58346" lon="-0.37656">
        <ele>216.6</ele>
        <time>2012-02-04T15:02:08Z</time>
      </trkpt>
      <trkpt lat="48.58349" lon="-0.37651">
        <ele>216.4</ele>
        <time>2012-02-04T15:02:09Z</time>
      </trkpt>
      <trkpt lat="48.58354" lon="-0.3764">
        <ele>216.3</ele>
        <time>2012-02-04T15:02:11Z</time>
      </trkpt>
      <trkpt lat="48.58356" lon="-0.37634">
        <ele>216.2</ele>
        <time>2012-02-04T15:02:12Z</time>
      </trkpt>
      <trkpt lat="48.58359" lon="-0.37628">
        <ele>216</ele>
        <time>2012-02-04T15:02:13Z</time>
      </trkpt>
      <trkpt lat="48.58361" lon="-0.37622">
        <ele>215.9</ele>
        <time>2012-02-04T15:02:14Z</time>
      </trkpt>
      <trkpt lat="48.58364" lon="-0.37615">
        <ele>215.8</ele>
        <time>2012-02-04T15:02:15Z</time>
      </trkpt>
      <trkpt lat="48.58367" lon="-0.37609">
        <ele>215.7</ele>
        <time>2012-02-04T15:02:16Z</time>
      </trkpt>
      <trkpt lat="48.5837" lon="-0.37603">
        <ele>215.7</ele>
        <time>2012-02-04T15:02:17Z</time>
      </trkpt>
      <trkpt lat="48.58374" lon="-0.37596">
        <ele>215.5</ele>
        <time>2012-02-04T15:02:18Z</time>
      </trkpt>
      <trkpt lat="48.58377" lon="-0.3759">
        <ele>215.4</ele>
        <time>2012-02-04T15:02:19Z</time>
      </trkpt>
      <trkpt lat="48.5838" lon="-0.37584">
        <ele>215</ele>
        <time>2012-02-04T15:02:20Z</time>
      </trkpt>
      <trkpt lat="48.58384" lon="-0.37578">
        <ele>214.7</ele>
        <time>2012-02-04T15:02:21Z</time>
      </trkpt>
      <trkpt lat="48.58388" lon="-0.37573">
        <ele>214.6</ele>
        <time>2012-02-04T15:02:22Z</time>
      </trkpt>
      <trkpt lat="48.58391" lon="-0.37569">
        <ele>214.9</ele>
        <time>2012-02-04T15:02:23Z</time>
      </trkpt>
      <trkpt lat="48.58395" lon="-0.37564">
        <ele>215.1</ele>
        <time>2012-02-04T15:02:24Z</time>
      </trkpt>
      <trkpt lat="48.58403" lon="-0.37557">
        <ele>215.6</ele>
        <time>2012-02-04T15:02:26Z</time>
      </trkpt>
      <trkpt lat="48.58406" lon="-0.37553">
        <ele>216</ele>
        <time>2012-02-04T15:02:27Z</time>
      </trkpt>
      <trkpt lat="48.5841" lon="-0.37548">
        <ele>216.2</ele>
        <time>2012-02-04T15:02:28Z</time>
      </trkpt>
      <trkpt lat="48.58416" lon="-0.37539">
        <ele>216.2</ele>
        <time>2012-02-04T15:02:30Z</time>
      </trkpt>
      <trkpt lat="48.58421" lon="-0.37528">
        <ele>216.9</ele>
        <time>2012-02-04T15:02:33Z</time>
      </trkpt>
      <trkpt lat="48.58425" lon="-0.37517">
        <ele>217.5</ele>
        <time>2012-02-04T15:02:36Z</time>
      </trkpt>
      <trkpt lat="48.58429" lon="-0.37508">
        <ele>218.1</ele>
        <time>2012-02-04T15:02:38Z</time>
      </trkpt>
      <trkpt lat="48.58433" lon="-0.37498">
        <ele>218</ele>
        <time>2012-02-04T15:02:40Z</time>
      </trkpt>
      <trkpt lat="48.58436" lon="-0.37489">
        <ele>218.3</ele>
        <time>2012-02-04T15:02:42Z</time>
      </trkpt>
      <trkpt lat="48.58439" lon="-0.37477">
        <ele>218.7</ele>
        <time>2012-02-04T15:02:44Z</time>
      </trkpt>
      <trkpt lat="48.58443" lon="-0.37467">
        <ele>219.4</ele>
        <time>2012-02-04T15:02:46Z</time>
      </trkpt>
      <trkpt lat="48.58447" lon="-0.37456">
        <ele>220.2</ele>
        <time>2012-02-04T15:02:48Z</time>
      </trkpt>
      <trkpt lat="48.5845" lon="-0.37445">
        <ele>220.5</ele>
        <time>2012-02-04T15:02:50Z</time>
      </trkpt>
      <trkpt lat="48.58453" lon="-0.37433">
        <ele>221.5</ele>
        <time>2012-02-04T15:02:52Z</time>
      </trkpt>
      <trkpt lat="48.58456" lon="-0.37421">
        <ele>221.4</ele>
        <time>2012-02-04T15:02:54Z</time>
      </trkpt>
      <trkpt lat="48.5846" lon="-0.3741">
        <ele>221.4</ele>
        <time>2012-02-04T15:02:56Z</time>
      </trkpt>
      <trkpt lat="48.58463" lon="-0.37399">
        <ele>221.7</ele>
        <time>2012-02-04T15:02:58Z</time>
      </trkpt>
      <trkpt lat="48.58464" lon="-0.37394">
        <ele>222</ele>
        <time>2012-02-04T15:02:59Z</time>
      </trkpt>
      <trkpt lat="48.58468" lon="-0.37379">
        <ele>222.1</ele>
        <time>2012-02-04T15:03:02Z</time>
      </trkpt>
      <trkpt lat="48.5847" lon="-0.3737">
        <ele>222</ele>
        <time>2012-02-04T15:03:04Z</time>
      </trkpt>
      <trkpt lat="48.58472" lon="-0.37359">
        <ele>222.5</ele>
        <time>2012-02-04T15:03:06Z</time>
      </trkpt>
      <trkpt lat="48.58474" lon="-0.37348">
        <ele>222.7</ele>
        <time>2012-02-04T15:03:08Z</time>
      </trkpt>
      <trkpt lat="48.58476" lon="-0.37338">
        <ele>222.6</ele>
        <time>2012-02-04T15:03:10Z</time>
      </trkpt>
      <trkpt lat="48.58477" lon="-0.37327">
        <ele>222.5</ele>
        <time>2012-02-04T15:03:12Z</time>
      </trkpt>
      <trkpt lat="48.58478" lon="-0.37315">
        <ele>222.6</ele>
        <time>2012-02-04T15:03:14Z</time>
      </trkpt>
      <trkpt lat="48.58479" lon="-0.37303">
        <ele>222.5</ele>
        <time>2012-02-04T15:03:16Z</time>
      </trkpt>
      <trkpt lat="48.58481" lon="-0.3729">
        <ele>222.2</ele>
        <time>2012-02-04T15:03:18Z</time>
      </trkpt>
      <trkpt lat="48.58483" lon="-0.37284">
        <ele>222.1</ele>
        <time>2012-02-04T15:03:19Z</time>
      </trkpt>
      <trkpt lat="48.58484" lon="-0.37277">
        <ele>221.8</ele>
        <time>2012-02-04T15:03:20Z</time>
      </trkpt>
      <trkpt lat="48.58486" lon="-0.3727">
        <ele>221.5</ele>
        <time>2012-02-04T15:03:21Z</time>
      </trkpt>
      <trkpt lat="48.58487" lon="-0.37263">
        <ele>221.4</ele>
        <time>2012-02-04T15:03:22Z</time>
      </trkpt>
      <trkpt lat="48.58488" lon="-0.37255">
        <ele>221.3</ele>
        <time>2012-02-04T15:03:23Z</time>
      </trkpt>
      <trkpt lat="48.58488" lon="-0.37249">
        <ele>221</ele>
        <time>2012-02-04T15:03:24Z</time>
      </trkpt>
      <trkpt lat="48.58489" lon="-0.37242">
        <ele>220.8</ele>
        <time>2012-02-04T15:03:25Z</time>
      </trkpt>
      <trkpt lat="48.58489" lon="-0.37234">
        <ele>220.6</ele>
        <time>2012-02-04T15:03:26Z</time>
      </trkpt>
      <trkpt lat="48.5849" lon="-0.37221">
        <ele>220.2</ele>
        <time>2012-02-04T15:03:28Z</time>
      </trkpt>
      <trkpt lat="48.5849" lon="-0.37214">
        <ele>219.7</ele>
        <time>2012-02-04T15:03:29Z</time>
      </trkpt>
      <trkpt lat="48.5849" lon="-0.37206">
        <ele>219.4</ele>
        <time>2012-02-04T15:03:30Z</time>
      </trkpt>
      <trkpt lat="48.5849" lon="-0.37197">
        <ele>219.1</ele>
        <time>2012-02-04T15:03:31Z</time>
      </trkpt>
      <trkpt lat="48.58489" lon="-0.37189">
        <ele>218.8</ele>
        <time>2012-02-04T15:03:32Z</time>
      </trkpt>
      <trkpt lat="48.58489" lon="-0.37181">
        <ele>218.6</ele>
        <time>2012-02-04T15:03:33Z</time>
      </trkpt>
      <trkpt lat="48.58488" lon="-0.37172">
        <ele>218.3</ele>
        <time>2012-02-04T15:03:34Z</time>
      </trkpt>
      <trkpt lat="48.58488" lon="-0.37163">
        <ele>218.1</ele>
        <time>2012-02-04T15:03:35Z</time>
      </trkpt>
      <trkpt lat="48.58488" lon="-0.37154">
        <ele>217.5</ele>
        <time>2012-02-04T15:03:36Z</time>
      </trkpt>
      <trkpt lat="48.58488" lon="-0.37145">
        <ele>217.1</ele>
        <time>2012-02-04T15:03:37Z</time>
      </trkpt>
      <trkpt lat="48.58489" lon="-0.37135">
        <ele>216.7</ele>
        <time>2012-02-04T15:03:38Z</time>
      </trkpt>
      <trkpt lat="48.5849" lon="-0.37125">
        <ele>216.2</ele>
        <time>2012-02-04T15:03:39Z</time>
      </trkpt>
      <trkpt lat="48.58491" lon="-0.37116">
        <ele>215.7</ele>
        <time>2012-02-04T15:03:40Z</time>
      </trkpt>
      <trkpt lat="48.58492" lon="-0.37106">
        <ele>215.5</ele>
        <time>2012-02-04T15:03:41Z</time>
      </trkpt>
      <trkpt lat="48.58494" lon="-0.37097">
        <ele>215.3</ele>
        <time>2012-02-04T15:03:42Z</time>
      </trkpt>
      <trkpt lat="48.58496" lon="-0.37087">
        <ele>214.5</ele>
        <time>2012-02-04T15:03:43Z</time>
      </trkpt>
      <trkpt lat="48.58498" lon="-0.37078">
        <ele>213.9</ele>
        <time>2012-02-04T15:03:44Z</time>
      </trkpt>
      <trkpt lat="48.585" lon="-0.37068">
        <ele>213.5</ele>
        <time>2012-02-04T15:03:45Z</time>
      </trkpt>
      <trkpt lat="48.58503" lon="-0.37059">
        <ele>212.9</ele>
        <time>2012-02-04T15:03:46Z</time>
      </trkpt>
      <trkpt lat="48.58506" lon="-0.3705">
        <ele>212.5</ele>
        <time>2012-02-04T15:03:47Z</time>
      </trkpt>
      <trkpt lat="48.58508" lon="-0.37041">
        <ele>211.7</ele>
        <time>2012-02-04T15:03:48Z</time>
      </trkpt>
      <trkpt lat="48.58511" lon="-0.37032">
        <ele>211.1</ele>
        <time>2012-02-04T15:03:49Z</time>
      </trkpt>
      <trkpt lat="48.58513" lon="-0.37023">
        <ele>210.5</ele>
        <time>2012-02-04T15:03:50Z</time>
      </trkpt>
      <trkpt lat="48.58516" lon="-0.37015">
        <ele>210</ele>
        <time>2012-02-04T15:03:51Z</time>
      </trkpt>
      <trkpt lat="48.58519" lon="-0.37007">
        <ele>209.7</ele>
        <time>2012-02-04T15:03:52Z</time>
      </trkpt>
      <trkpt lat="48.58521" lon="-0.37001">
        <ele>209.3</ele>
        <time>2012-02-04T15:03:53Z</time>
      </trkpt>
      <trkpt lat="48.58525" lon="-0.36991">
        <ele>208.4</ele>
        <time>2012-02-04T15:03:55Z</time>
      </trkpt>
      <trkpt lat="48.58531" lon="-0.36982">
        <ele>207.4</ele>
        <time>2012-02-04T15:03:58Z</time>
      </trkpt>
      <trkpt lat="48.58538" lon="-0.36977">
        <ele>206.7</ele>
        <time>2012-02-04T15:04:02Z</time>
      </trkpt>
      <trkpt lat="48.5854" lon="-0.36978">
        <ele>206.7</ele>
        <time>2012-02-04T15:04:03Z</time>
      </trkpt>
      <trkpt lat="48.58543" lon="-0.36994">
        <ele>207.2</ele>
        <time>2012-02-04T15:04:07Z</time>
      </trkpt>
      <trkpt lat="48.58544" lon="-0.37">
        <ele>207.1</ele>
        <time>2012-02-04T15:04:08Z</time>
      </trkpt>
      <trkpt lat="48.58544" lon="-0.37008">
        <ele>207.5</ele>
        <time>2012-02-04T15:04:09Z</time>
      </trkpt>
      <trkpt lat="48.58545" lon="-0.37015">
        <ele>207.8</ele>
        <time>2012-02-04T15:04:10Z</time>
      </trkpt>
      <trkpt lat="48.58545" lon="-0.37028">
        <ele>208.1</ele>
        <time>2012-02-04T15:04:12Z</time>
      </trkpt>
      <trkpt lat="48.58545" lon="-0.3704">
        <ele>208.8</ele>
        <time>2012-02-04T15:04:14Z</time>
      </trkpt>
      <trkpt lat="48.58545" lon="-0.37053">
        <ele>209.6</ele>
        <time>2012-02-04T15:04:16Z</time>
      </trkpt>
      <trkpt lat="48.58546" lon="-0.37065">
        <ele>210</ele>
        <time>2012-02-04T15:04:18Z</time>
      </trkpt>
      <trkpt lat="48.58546" lon="-0.37077">
        <ele>210.3</ele>
        <time>2012-02-04T15:04:20Z</time>
      </trkpt>
      <trkpt lat="48.58546" lon="-0.37089">
        <ele>210.9</ele>
        <time>2012-02-04T15:04:22Z</time>
      </trkpt>
      <trkpt lat="48.58545" lon="-0.37101">
        <ele>211</ele>
        <time>2012-02-04T15:04:24Z</time>
      </trkpt>
      <trkpt lat="48.58545" lon="-0.37113">
        <ele>211.2</ele>
        <time>2012-02-04T15:04:26Z</time>
      </trkpt>
      <trkpt lat="48.58545" lon="-0.37125">
        <ele>211.7</ele>
        <time>2012-02-04T15:04:28Z</time>
      </trkpt>
      <trkpt lat="48.58545" lon="-0.37136">
        <ele>212.2</ele>
        <time>2012-02-04T15:04:30Z</time>
      </trkpt>
      <trkpt lat="48.58547" lon="-0.37147">
        <ele>212.7</ele>
        <time>2012-02-04T15:04:32Z</time>
      </trkpt>
      <trkpt lat="48.58552" lon="-0.37154">
        <ele>213.3</ele>
        <time>2012-02-04T15:04:34Z</time>
      </trkpt>
      <trkpt lat="48.58559" lon="-0.37159">
        <ele>213.3</ele>
        <time>2012-02-04T15:04:36Z</time>
      </trkpt>
      <trkpt lat="48.58567" lon="-0.37163">
        <ele>213.2</ele>
        <time>2012-02-04T15:04:38Z</time>
      </trkpt>
      <trkpt lat="48.58572" lon="-0.37166">
        <ele>213.2</ele>
        <time>2012-02-04T15:04:39Z</time>
      </trkpt>
      <trkpt lat="48.58576" lon="-0.37168">
        <ele>213.2</ele>
        <time>2012-02-04T15:04:40Z</time>
      </trkpt>
      <trkpt lat="48.58584" lon="-0.37172">
        <ele>213.2</ele>
        <time>2012-02-04T15:04:42Z</time>
      </trkpt>
      <trkpt lat="48.58591" lon="-0.37175">
        <ele>212.4</ele>
        <time>2012-02-04T15:04:44Z</time>
      </trkpt>
      <trkpt lat="48.58599" lon="-0.37172">
        <ele>211.8</ele>
        <time>2012-02-04T15:04:47Z</time>
      </trkpt>
      <trkpt lat="48.58602" lon="-0.37164">
        <ele>211.7</ele>
        <time>2012-02-04T15:04:49Z</time>
      </trkpt>
      <trkpt lat="48.58606" lon="-0.37157">
        <ele>211.1</ele>
        <time>2012-02-04T15:04:51Z</time>
      </trkpt>
      <trkpt lat="48.58611" lon="-0.37151">
        <ele>210.1</ele>
        <time>2012-02-04T15:04:53Z</time>
      </trkpt>
      <trkpt lat="48.58616" lon="-0.37145">
        <ele>209.3</ele>
        <time>2012-02-04T15:04:55Z</time>
      </trkpt>
      <trkpt lat="48.58622" lon="-0.37135">
        <ele>208</ele>
        <time>2012-02-04T15:04:57Z</time>
      </trkpt>
      <trkpt lat="48.58628" lon="-0.37126">
        <ele>206.2</ele>
        <time>2012-02-04T15:05:00Z</time>
      </trkpt>
      <trkpt lat="48.58634" lon="-0.3712">
        <ele>204.7</ele>
        <time>2012-02-04T15:05:03Z</time>
      </trkpt>
      <trkpt lat="48.58636" lon="-0.37116">
        <ele>204.1</ele>
        <time>2012-02-04T15:05:04Z</time>
      </trkpt>
      <trkpt lat="48.58643" lon="-0.37104">
        <ele>202</ele>
        <time>2012-02-04T15:05:07Z</time>
      </trkpt>
      <trkpt lat="48.58649" lon="-0.37098">
        <ele>200.7</ele>
        <time>2012-02-04T15:05:09Z</time>
      </trkpt>
      <trkpt lat="48.58654" lon="-0.37091">
        <ele>200</ele>
        <time>2012-02-04T15:05:11Z</time>
      </trkpt>
      <trkpt lat="48.58658" lon="-0.37083">
        <ele>199.7</ele>
        <time>2012-02-04T15:05:13Z</time>
      </trkpt>
      <trkpt lat="48.58662" lon="-0.37075">
        <ele>199.4</ele>
        <time>2012-02-04T15:05:15Z</time>
      </trkpt>
      <trkpt lat="48.58666" lon="-0.37068">
        <ele>198.8</ele>
        <time>2012-02-04T15:05:17Z</time>
      </trkpt>
      <trkpt lat="48.58671" lon="-0.3706">
        <ele>198.5</ele>
        <time>2012-02-04T15:05:19Z</time>
      </trkpt>
      <trkpt lat="48.58674" lon="-0.37055">
        <ele>198.4</ele>
        <time>2012-02-04T15:05:20Z</time>
      </trkpt>
      <trkpt lat="48.58677" lon="-0.3705">
        <ele>198.2</ele>
        <time>2012-02-04T15:05:21Z</time>
      </trkpt>
      <trkpt lat="48.5868" lon="-0.37043">
        <ele>198.1</ele>
        <time>2012-02-04T15:05:22Z</time>
      </trkpt>
      <trkpt lat="48.58683" lon="-0.37036">
        <ele>197.7</ele>
        <time>2012-02-04T15:05:23Z</time>
      </trkpt>
      <trkpt lat="48.58686" lon="-0.3703">
        <ele>197.4</ele>
        <time>2012-02-04T15:05:24Z</time>
      </trkpt>
      <trkpt lat="48.58689" lon="-0.37024">
        <ele>196.9</ele>
        <time>2012-02-04T15:05:25Z</time>
      </trkpt>
      <trkpt lat="48.58693" lon="-0.37013">
        <ele>196.3</ele>
        <time>2012-02-04T15:05:27Z</time>
      </trkpt>
      <trkpt lat="48.58698" lon="-0.37004">
        <ele>195.9</ele>
        <time>2012-02-04T15:05:29Z</time>
      </trkpt>
      <trkpt lat="48.58702" lon="-0.36993">
        <ele>195.5</ele>
        <time>2012-02-04T15:05:31Z</time>
      </trkpt>
      <trkpt lat="48.58707" lon="-0.36982">
        <ele>195.9</ele>
        <time>2012-02-04T15:05:33Z</time>
      </trkpt>
      <trkpt lat="48.58709" lon="-0.36977">
        <ele>196</ele>
        <time>2012-02-04T15:05:34Z</time>
      </trkpt>
      <trkpt lat="48.58712" lon="-0.36971">
        <ele>196.2</ele>
        <time>2012-02-04T15:05:35Z</time>
      </trkpt>
      <trkpt lat="48.58716" lon="-0.36959">
        <ele>196.2</ele>
        <time>2012-02-04T15:05:37Z</time>
      </trkpt>
      <trkpt lat="48.58721" lon="-0.36948">
        <ele>196</ele>
        <time>2012-02-04T15:05:39Z</time>
      </trkpt>
      <trkpt lat="48.58726" lon="-0.36937">
        <ele>196.2</ele>
        <time>2012-02-04T15:05:41Z</time>
      </trkpt>
      <trkpt lat="48.58731" lon="-0.36927">
        <ele>196.3</ele>
        <time>2012-02-04T15:05:43Z</time>
      </trkpt>
      <trkpt lat="48.58737" lon="-0.36918">
        <ele>196.4</ele>
        <time>2012-02-04T15:05:45Z</time>
      </trkpt>
      <trkpt lat="48.58743" lon="-0.3691">
        <ele>196.4</ele>
        <time>2012-02-04T15:05:47Z</time>
      </trkpt>
      <trkpt lat="48.58749" lon="-0.36903">
        <ele>196</ele>
        <time>2012-02-04T15:05:49Z</time>
      </trkpt>
      <trkpt lat="48.58756" lon="-0.36895">
        <ele>195.7</ele>
        <time>2012-02-04T15:05:52Z</time>
      </trkpt>
      <trkpt lat="48.58761" lon="-0.36889">
        <ele>196.2</ele>
        <time>2012-02-04T15:05:54Z</time>
      </trkpt>
      <trkpt lat="48.58767" lon="-0.36881">
        <ele>196.7</ele>
        <time>2012-02-04T15:05:56Z</time>
      </trkpt>
      <trkpt lat="48.58773" lon="-0.36873">
        <ele>196.6</ele>
        <time>2012-02-04T15:05:58Z</time>
      </trkpt>
      <trkpt lat="48.5878" lon="-0.36866">
        <ele>196.4</ele>
        <time>2012-02-04T15:06:00Z</time>
      </trkpt>
      <trkpt lat="48.58788" lon="-0.3686">
        <ele>196.5</ele>
        <time>2012-02-04T15:06:02Z</time>
      </trkpt>
      <trkpt lat="48.58795" lon="-0.36852">
        <ele>196.2</ele>
        <time>2012-02-04T15:06:04Z</time>
      </trkpt>
      <trkpt lat="48.58798" lon="-0.36849">
        <ele>196.1</ele>
        <time>2012-02-04T15:06:05Z</time>
      </trkpt>
      <trkpt lat="48.58809" lon="-0.36838">
        <ele>196.7</ele>
        <time>2012-02-04T15:06:08Z</time>
      </trkpt>
      <trkpt lat="48.58815" lon="-0.3683">
        <ele>196.3</ele>
        <time>2012-02-04T15:06:10Z</time>
      </trkpt>
      <trkpt lat="48.58822" lon="-0.36823">
        <ele>195.6</ele>
        <time>2012-02-04T15:06:12Z</time>
      </trkpt>
      <trkpt lat="48.58829" lon="-0.36815">
        <ele>196.2</ele>
        <time>2012-02-04T15:06:14Z</time>
      </trkpt>
      <trkpt lat="48.58836" lon="-0.36807">
        <ele>196.5</ele>
        <time>2012-02-04T15:06:16Z</time>
      </trkpt>
      <trkpt lat="48.58843" lon="-0.368">
        <ele>196.6</ele>
        <time>2012-02-04T15:06:18Z</time>
      </trkpt>
      <trkpt lat="48.5885" lon="-0.36793">
        <ele>196.5</ele>
        <time>2012-02-04T15:06:20Z</time>
      </trkpt>
      <trkpt lat="48.58857" lon="-0.36787">
        <ele>196.3</ele>
        <time>2012-02-04T15:06:22Z</time>
      </trkpt>
      <trkpt lat="48.58865" lon="-0.36781">
        <ele>196.2</ele>
        <time>2012-02-04T15:06:24Z</time>
      </trkpt>
      <trkpt lat="48.58872" lon="-0.36776">
        <ele>196</ele>
        <time>2012-02-04T15:06:26Z</time>
      </trkpt>
      <trkpt lat="48.58879" lon="-0.3677">
        <ele>196.3</ele>
        <time>2012-02-04T15:06:28Z</time>
      </trkpt>
      <trkpt lat="48.58887" lon="-0.36765">
        <ele>195.9</ele>
        <time>2012-02-04T15:06:30Z</time>
      </trkpt>
      <trkpt lat="48.58894" lon="-0.36761">
        <ele>195.7</ele>
        <time>2012-02-04T15:06:32Z</time>
      </trkpt>
      <trkpt lat="48.58902" lon="-0.36756">
        <ele>195.8</ele>
        <time>2012-02-04T15:06:34Z</time>
      </trkpt>
      <trkpt lat="48.5891" lon="-0.36751">
        <ele>196</ele>
        <time>2012-02-04T15:06:36Z</time>
      </trkpt>
      <trkpt lat="48.58918" lon="-0.36748">
        <ele>195.7</ele>
        <time>2012-02-04T15:06:38Z</time>
      </trkpt>
      <trkpt lat="48.58926" lon="-0.36744">
        <ele>195.9</ele>
        <time>2012-02-04T15:06:40Z</time>
      </trkpt>
      <trkpt lat="48.58934" lon="-0.36739">
        <ele>195.8</ele>
        <time>2012-02-04T15:06:42Z</time>
      </trkpt>
      <trkpt lat="48.58942" lon="-0.36735">
        <ele>195.6</ele>
        <time>2012-02-04T15:06:44Z</time>
      </trkpt>
      <trkpt lat="48.5895" lon="-0.3673">
        <ele>195.4</ele>
        <time>2012-02-04T15:06:46Z</time>
      </trkpt>
      <trkpt lat="48.58957" lon="-0.36726">
        <ele>195.7</ele>
        <time>2012-02-04T15:06:48Z</time>
      </trkpt>
      <trkpt lat="48.58964" lon="-0.36722">
        <ele>196.1</ele>
        <time>2012-02-04T15:06:50Z</time>
      </trkpt>
      <trkpt lat="48.58969" lon="-0.36715">
        <ele>195.6</ele>
        <time>2012-02-04T15:06:52Z</time>
      </trkpt>
      <trkpt lat="48.58969" lon="-0.36704">
        <ele>196</ele>
        <time>2012-02-04T15:06:55Z</time>
      </trkpt>
      <trkpt lat="48.58962" lon="-0.36696">
        <ele>196.1</ele>
        <time>2012-02-04T15:06:58Z</time>
      </trkpt>
      <trkpt lat="48.58955" lon="-0.3669">
        <ele>196.1</ele>
        <time>2012-02-04T15:07:00Z</time>
      </trkpt>
      <trkpt lat="48.58949" lon="-0.36681">
        <ele>196</ele>
        <time>2012-02-04T15:07:02Z</time>
      </trkpt>
      <trkpt lat="48.58944" lon="-0.36672">
        <ele>195.9</ele>
        <time>2012-02-04T15:07:04Z</time>
      </trkpt>
      <trkpt lat="48.58938" lon="-0.36663">
        <ele>195.2</ele>
        <time>2012-02-04T15:07:06Z</time>
      </trkpt>
      <trkpt lat="48.58936" lon="-0.36658">
        <ele>195.5</ele>
        <time>2012-02-04T15:07:07Z</time>
      </trkpt>
      <trkpt lat="48.5893" lon="-0.36644">
        <ele>195.8</ele>
        <time>2012-02-04T15:07:10Z</time>
      </trkpt>
      <trkpt lat="48.58925" lon="-0.36635">
        <ele>195.7</ele>
        <time>2012-02-04T15:07:12Z</time>
      </trkpt>
      <trkpt lat="48.5892" lon="-0.36626">
        <ele>195.6</ele>
        <time>2012-02-04T15:07:14Z</time>
      </trkpt>
      <trkpt lat="48.58915" lon="-0.36616">
        <ele>195.3</ele>
        <time>2012-02-04T15:07:16Z</time>
      </trkpt>
      <trkpt lat="48.58911" lon="-0.36605">
        <ele>195.5</ele>
        <time>2012-02-04T15:07:18Z</time>
      </trkpt>
      <trkpt lat="48.58907" lon="-0.36595">
        <ele>195.9</ele>
        <time>2012-02-04T15:07:20Z</time>
      </trkpt>
      <trkpt lat="48.58902" lon="-0.36587">
        <ele>195.8</ele>
        <time>2012-02-04T15:07:22Z</time>
      </trkpt>
      <trkpt lat="48.58895" lon="-0.36584">
        <ele>195.7</ele>
        <time>2012-02-04T15:07:24Z</time>
      </trkpt>
      <trkpt lat="48.58887" lon="-0.36583">
        <ele>195.7</ele>
        <time>2012-02-04T15:07:26Z</time>
      </trkpt>
      <trkpt lat="48.58878" lon="-0.36581">
        <ele>195.6</ele>
        <time>2012-02-04T15:07:28Z</time>
      </trkpt>
      <trkpt lat="48.58872" lon="-0.36578">
        <ele>195.6</ele>
        <time>2012-02-04T15:07:29Z</time>
      </trkpt>
      <trkpt lat="48.58868" lon="-0.36577">
        <ele>195.5</ele>
        <time>2012-02-04T15:07:30Z</time>
      </trkpt>
      <trkpt lat="48.58863" lon="-0.36576">
        <ele>195.6</ele>
        <time>2012-02-04T15:07:31Z</time>
      </trkpt>
      <trkpt lat="48.58858" lon="-0.36574">
        <ele>195.6</ele>
        <time>2012-02-04T15:07:32Z</time>
      </trkpt>
      <trkpt lat="48.58853" lon="-0.36573">
        <ele>195.4</ele>
        <time>2012-02-04T15:07:33Z</time>
      </trkpt>
      <trkpt lat="48.58848" lon="-0.36572">
        <ele>195.2</ele>
        <time>2012-02-04T15:07:34Z</time>
      </trkpt>
      <trkpt lat="48.58843" lon="-0.36571">
        <ele>195.1</ele>
        <time>2012-02-04T15:07:35Z</time>
      </trkpt>
      <trkpt lat="48.58838" lon="-0.3657">
        <ele>194.8</ele>
        <time>2012-02-04T15:07:36Z</time>
      </trkpt>
      <trkpt lat="48.58833" lon="-0.36569">
        <ele>194.5</ele>
        <time>2012-02-04T15:07:37Z</time>
      </trkpt>
      <trkpt lat="48.58828" lon="-0.36568">
        <ele>194.5</ele>
        <time>2012-02-04T15:07:38Z</time>
      </trkpt>
      <trkpt lat="48.58823" lon="-0.36567">
        <ele>194.4</ele>
        <time>2012-02-04T15:07:39Z</time>
      </trkpt>
      <trkpt lat="48.58818" lon="-0.36565">
        <ele>194.4</ele>
        <time>2012-02-04T15:07:40Z</time>
      </trkpt>
      <trkpt lat="48.58813" lon="-0.36564">
        <ele>194.2</ele>
        <time>2012-02-04T15:07:41Z</time>
      </trkpt>
      <trkpt lat="48.58808" lon="-0.36564">
        <ele>194.1</ele>
        <time>2012-02-04T15:07:42Z</time>
      </trkpt>
      <trkpt lat="48.58803" lon="-0.36563">
        <ele>193.9</ele>
        <time>2012-02-04T15:07:43Z</time>
      </trkpt>
      <trkpt lat="48.58799" lon="-0.36562">
        <ele>193.8</ele>
        <time>2012-02-04T15:07:44Z</time>
      </trkpt>
      <trkpt lat="48.58794" lon="-0.36561">
        <ele>193.6</ele>
        <time>2012-02-04T15:07:45Z</time>
      </trkpt>
      <trkpt lat="48.58789" lon="-0.3656">
        <ele>193.4</ele>
        <time>2012-02-04T15:07:46Z</time>
      </trkpt>
      <trkpt lat="48.58784" lon="-0.36558">
        <ele>193.3</ele>
        <time>2012-02-04T15:07:47Z</time>
      </trkpt>
      <trkpt lat="48.58779" lon="-0.36556">
        <ele>193.1</ele>
        <time>2012-02-04T15:07:48Z</time>
      </trkpt>
      <trkpt lat="48.58774" lon="-0.36554">
        <ele>193</ele>
        <time>2012-02-04T15:07:49Z</time>
      </trkpt>
      <trkpt lat="48.58769" lon="-0.36553">
        <ele>193</ele>
        <time>2012-02-04T15:07:50Z</time>
      </trkpt>
      <trkpt lat="48.58763" lon="-0.36551">
        <ele>193</ele>
        <time>2012-02-04T15:07:51Z</time>
      </trkpt>
      <trkpt lat="48.58758" lon="-0.36549">
        <ele>192.9</ele>
        <time>2012-02-04T15:07:52Z</time>
      </trkpt>
      <trkpt lat="48.58753" lon="-0.36547">
        <ele>192.8</ele>
        <time>2012-02-04T15:07:53Z</time>
      </trkpt>
      <trkpt lat="48.58747" lon="-0.36544">
        <ele>192.7</ele>
        <time>2012-02-04T15:07:54Z</time>
      </trkpt>
      <trkpt lat="48.58742" lon="-0.36542">
        <ele>192.5</ele>
        <time>2012-02-04T15:07:55Z</time>
      </trkpt>
      <trkpt lat="48.58737" lon="-0.36539">
        <ele>192.3</ele>
        <time>2012-02-04T15:07:56Z</time>
      </trkpt>
      <trkpt lat="48.58732" lon="-0.36537">
        <ele>192.2</ele>
        <time>2012-02-04T15:07:57Z</time>
      </trkpt>
      <trkpt lat="48.58727" lon="-0.36535">
        <ele>192</ele>
        <time>2012-02-04T15:07:58Z</time>
      </trkpt>
      <trkpt lat="48.58722" lon="-0.36535">
        <ele>192</ele>
        <time>2012-02-04T15:07:59Z</time>
      </trkpt>
      <trkpt lat="48.58718" lon="-0.36537">
        <ele>191.6</ele>
        <time>2012-02-04T15:08:00Z</time>
      </trkpt>
      <trkpt lat="48.58713" lon="-0.3654">
        <ele>191.4</ele>
        <time>2012-02-04T15:08:01Z</time>
      </trkpt>
      <trkpt lat="48.58709" lon="-0.36543">
        <ele>191</ele>
        <time>2012-02-04T15:08:02Z</time>
      </trkpt>
      <trkpt lat="48.58701" lon="-0.3655">
        <ele>190.6</ele>
        <time>2012-02-04T15:08:04Z</time>
      </trkpt>
      <trkpt lat="48.58696" lon="-0.3656">
        <ele>190.4</ele>
        <time>2012-02-04T15:08:06Z</time>
      </trkpt>
      <trkpt lat="48.58695" lon="-0.36573">
        <ele>189.7</ele>
        <time>2012-02-04T15:08:09Z</time>
      </trkpt>
      <trkpt lat="48.58696" lon="-0.36576">
        <ele>189.6</ele>
        <time>2012-02-04T15:08:10Z</time>
      </trkpt>
      <trkpt lat="48.58702" lon="-0.36584">
        <ele>189.3</ele>
        <time>2012-02-04T15:09:20Z</time>
      </trkpt>
      <trkpt lat="48.58702" lon="-0.36584">
        <ele>189.3</ele>
        <time>2012-02-04T15:09:20Z</time>
      </trkpt>
      <trkpt lat="48.58702" lon="-0.36587">
        <ele>189</ele>
        <time>2012-02-04T15:09:55Z</time>
      </trkpt>
      <trkpt lat="48.58702" lon="-0.36587">
        <ele>189.5</ele>
        <time>2012-02-04T15:09:56Z</time>
      </trkpt>
      <trkpt lat="48.58697" lon="-0.36579">
        <ele>189.9</ele>
        <time>2012-02-04T15:10:11Z</time>
      </trkpt>
      <trkpt lat="48.58695" lon="-0.36577">
        <ele>189.9</ele>
        <time>2012-02-04T15:10:12Z</time>
      </trkpt>
      <trkpt lat="48.58693" lon="-0.36559">
        <ele>189.6</ele>
        <time>2012-02-04T15:10:17Z</time>
      </trkpt>
      <trkpt lat="48.58695" lon="-0.36547">
        <ele>189.5</ele>
        <time>2012-02-04T15:10:19Z</time>
      </trkpt>
      <trkpt lat="48.58697" lon="-0.36537">
        <ele>189.7</ele>
        <time>2012-02-04T15:10:21Z</time>
      </trkpt>
      <trkpt lat="48.58699" lon="-0.36524">
        <ele>189.9</ele>
        <time>2012-02-04T15:10:24Z</time>
      </trkpt>
      <trkpt lat="48.58702" lon="-0.36512">
        <ele>190.8</ele>
        <time>2012-02-04T15:10:30Z</time>
      </trkpt>
      <trkpt lat="48.58708" lon="-0.36509">
        <ele>191.2</ele>
        <time>2012-02-04T15:10:32Z</time>
      </trkpt>
      <trkpt lat="48.58717" lon="-0.36511">
        <ele>191.4</ele>
        <time>2012-02-04T15:10:34Z</time>
      </trkpt>
      <trkpt lat="48.58721" lon="-0.36513">
        <ele>191.5</ele>
        <time>2012-02-04T15:10:35Z</time>
      </trkpt>
      <trkpt lat="48.58725" lon="-0.36516">
        <ele>191.4</ele>
        <time>2012-02-04T15:10:36Z</time>
      </trkpt>
      <trkpt lat="48.58729" lon="-0.36518">
        <ele>191.3</ele>
        <time>2012-02-04T15:10:37Z</time>
      </trkpt>
      <trkpt lat="48.58734" lon="-0.36521">
        <ele>191.3</ele>
        <time>2012-02-04T15:10:38Z</time>
      </trkpt>
      <trkpt lat="48.58738" lon="-0.36523">
        <ele>191.3</ele>
        <time>2012-02-04T15:10:39Z</time>
      </trkpt>
      <trkpt lat="48.58743" lon="-0.36525">
        <ele>191.3</ele>
        <time>2012-02-04T15:10:40Z</time>
      </trkpt>
      <trkpt lat="48.58747" lon="-0.36527">
        <ele>191.1</ele>
        <time>2012-02-04T15:10:41Z</time>
      </trkpt>
      <trkpt lat="48.58752" lon="-0.36529">
        <ele>191</ele>
        <time>2012-02-04T15:10:42Z</time>
      </trkpt>
      <trkpt lat="48.58756" lon="-0.36531">
        <ele>191.3</ele>
        <time>2012-02-04T15:10:43Z</time>
      </trkpt>
      <trkpt lat="48.58761" lon="-0.36533">
        <ele>191.5</ele>
        <time>2012-02-04T15:10:44Z</time>
      </trkpt>
      <trkpt lat="48.58765" lon="-0.36535">
        <ele>191.7</ele>
        <time>2012-02-04T15:10:45Z</time>
      </trkpt>
      <trkpt lat="48.58769" lon="-0.36536">
        <ele>192</ele>
        <time>2012-02-04T15:10:46Z</time>
      </trkpt>
      <trkpt lat="48.58774" lon="-0.36538">
        <ele>192.2</ele>
        <time>2012-02-04T15:10:47Z</time>
      </trkpt>
      <trkpt lat="48.58783" lon="-0.3654">
        <ele>192.2</ele>
        <time>2012-02-04T15:10:49Z</time>
      </trkpt>
      <trkpt lat="48.58791" lon="-0.36542">
        <ele>192.3</ele>
        <time>2012-02-04T15:10:51Z</time>
      </trkpt>
      <trkpt lat="48.588" lon="-0.36544">
        <ele>192.4</ele>
        <time>2012-02-04T15:10:53Z</time>
      </trkpt>
      <trkpt lat="48.58809" lon="-0.36546">
        <ele>192.5</ele>
        <time>2012-02-04T15:10:55Z</time>
      </trkpt>
      <trkpt lat="48.58818" lon="-0.36548">
        <ele>192.6</ele>
        <time>2012-02-04T15:10:57Z</time>
      </trkpt>
      <trkpt lat="48.58826" lon="-0.3655">
        <ele>192.7</ele>
        <time>2012-02-04T15:10:59Z</time>
      </trkpt>
      <trkpt lat="48.58834" lon="-0.36552">
        <ele>192.9</ele>
        <time>2012-02-04T15:11:01Z</time>
      </trkpt>
      <trkpt lat="48.58841" lon="-0.36545">
        <ele>193.5</ele>
        <time>2012-02-04T15:11:05Z</time>
      </trkpt>
      <trkpt lat="48.58843" lon="-0.36535">
        <ele>193.6</ele>
        <time>2012-02-04T15:11:07Z</time>
      </trkpt>
      <trkpt lat="48.58846" lon="-0.36523">
        <ele>194</ele>
        <time>2012-02-04T15:11:09Z</time>
      </trkpt>
      <trkpt lat="48.58846" lon="-0.36511">
        <ele>194.4</ele>
        <time>2012-02-04T15:11:11Z</time>
      </trkpt>
      <trkpt lat="48.58848" lon="-0.36498">
        <ele>194.6</ele>
        <time>2012-02-04T15:11:13Z</time>
      </trkpt>
      <trkpt lat="48.58848" lon="-0.36492">
        <ele>194.8</ele>
        <time>2012-02-04T15:11:14Z</time>
      </trkpt>
      <trkpt lat="48.58851" lon="-0.36478">
        <ele>194.9</ele>
        <time>2012-02-04T15:11:16Z</time>
      </trkpt>
      <trkpt lat="48.58852" lon="-0.36471">
        <ele>195.2</ele>
        <time>2012-02-04T15:11:17Z</time>
      </trkpt>
      <trkpt lat="48.58853" lon="-0.36464">
        <ele>195.3</ele>
        <time>2012-02-04T15:11:18Z</time>
      </trkpt>
      <trkpt lat="48.58856" lon="-0.36452">
        <ele>195.6</ele>
        <time>2012-02-04T15:11:20Z</time>
      </trkpt>
      <trkpt lat="48.58859" lon="-0.3644">
        <ele>196.1</ele>
        <time>2012-02-04T15:11:22Z</time>
      </trkpt>
      <trkpt lat="48.58862" lon="-0.36428">
        <ele>196.6</ele>
        <time>2012-02-04T15:11:24Z</time>
      </trkpt>
      <trkpt lat="48.58865" lon="-0.36417">
        <ele>197.6</ele>
        <time>2012-02-04T15:11:26Z</time>
      </trkpt>
      <trkpt lat="48.58867" lon="-0.36406">
        <ele>198.4</ele>
        <time>2012-02-04T15:11:28Z</time>
      </trkpt>
      <trkpt lat="48.5887" lon="-0.36396">
        <ele>198.4</ele>
        <time>2012-02-04T15:11:30Z</time>
      </trkpt>
      <trkpt lat="48.58867" lon="-0.36383">
        <ele>198.5</ele>
        <time>2012-02-04T15:11:33Z</time>
      </trkpt>
      <trkpt lat="48.58862" lon="-0.36378">
        <ele>198.8</ele>
        <time>2012-02-04T15:11:35Z</time>
      </trkpt>
      <trkpt lat="48.58857" lon="-0.36371">
        <ele>198.8</ele>
        <time>2012-02-04T15:11:37Z</time>
      </trkpt>
      <trkpt lat="48.58856" lon="-0.3636">
        <ele>198.4</ele>
        <time>2012-02-04T15:11:39Z</time>
      </trkpt>
      <trkpt lat="48.58857" lon="-0.3635">
        <ele>198.6</ele>
        <time>2012-02-04T15:11:41Z</time>
      </trkpt>
      <trkpt lat="48.58859" lon="-0.3634">
        <ele>198.9</ele>
        <time>2012-02-04T15:11:43Z</time>
      </trkpt>
      <trkpt lat="48.58861" lon="-0.3633">
        <ele>199.2</ele>
        <time>2012-02-04T15:11:45Z</time>
      </trkpt>
      <trkpt lat="48.58863" lon="-0.3632">
        <ele>200</ele>
        <time>2012-02-04T15:11:47Z</time>
      </trkpt>
      <trkpt lat="48.58865" lon="-0.36311">
        <ele>201.1</ele>
        <time>2012-02-04T15:11:49Z</time>
      </trkpt>
      <trkpt lat="48.58867" lon="-0.36301">
        <ele>201.8</ele>
        <time>2012-02-04T15:11:51Z</time>
      </trkpt>
      <trkpt lat="48.58868" lon="-0.36292">
        <ele>202.5</ele>
        <time>2012-02-04T15:11:53Z</time>
      </trkpt>
      <trkpt lat="48.58869" lon="-0.36282">
        <ele>203.2</ele>
        <time>2012-02-04T15:11:55Z</time>
      </trkpt>
      <trkpt lat="48.5887" lon="-0.36273">
        <ele>203.9</ele>
        <time>2012-02-04T15:11:57Z</time>
      </trkpt>
      <trkpt lat="48.58871" lon="-0.36259">
        <ele>204.6</ele>
        <time>2012-02-04T15:12:00Z</time>
      </trkpt>
      <trkpt lat="48.58873" lon="-0.36247">
        <ele>205.1</ele>
        <time>2012-02-04T15:12:03Z</time>
      </trkpt>
      <trkpt lat="48.58876" lon="-0.36238">
        <ele>206.4</ele>
        <time>2012-02-04T15:12:05Z</time>
      </trkpt>
      <trkpt lat="48.58879" lon="-0.3623">
        <ele>207.1</ele>
        <time>2012-02-04T15:12:07Z</time>
      </trkpt>
      <trkpt lat="48.58884" lon="-0.36223">
        <ele>208</ele>
        <time>2012-02-04T15:12:09Z</time>
      </trkpt>
      <trkpt lat="48.58888" lon="-0.36216">
        <ele>208.8</ele>
        <time>2012-02-04T15:12:11Z</time>
      </trkpt>
      <trkpt lat="48.58894" lon="-0.3621">
        <ele>209.3</ele>
        <time>2012-02-04T15:12:13Z</time>
      </trkpt>
      <trkpt lat="48.58899" lon="-0.36205">
        <ele>209.5</ele>
        <time>2012-02-04T15:12:15Z</time>
      </trkpt>
      <trkpt lat="48.58902" lon="-0.36203">
        <ele>210</ele>
        <time>2012-02-04T15:12:16Z</time>
      </trkpt>
      <trkpt lat="48.58915" lon="-0.36194">
        <ele>211.7</ele>
        <time>2012-02-04T15:12:21Z</time>
      </trkpt>
      <trkpt lat="48.58923" lon="-0.3619">
        <ele>213.1</ele>
        <time>2012-02-04T15:12:24Z</time>
      </trkpt>
      <trkpt lat="48.58931" lon="-0.36186">
        <ele>213.9</ele>
        <time>2012-02-04T15:12:27Z</time>
      </trkpt>
      <trkpt lat="48.5894" lon="-0.36183">
        <ele>215.1</ele>
        <time>2012-02-04T15:12:30Z</time>
      </trkpt>
      <trkpt lat="48.58948" lon="-0.36181">
        <ele>215.8</ele>
        <time>2012-02-04T15:12:33Z</time>
      </trkpt>
      <trkpt lat="48.58956" lon="-0.36176">
        <ele>216.2</ele>
        <time>2012-02-04T15:12:36Z</time>
      </trkpt>
      <trkpt lat="48.58963" lon="-0.3617">
        <ele>216.6</ele>
        <time>2012-02-04T15:12:39Z</time>
      </trkpt>
      <trkpt lat="48.58969" lon="-0.36162">
        <ele>218.3</ele>
        <time>2012-02-04T15:12:42Z</time>
      </trkpt>
      <trkpt lat="48.58976" lon="-0.36155">
        <ele>219.8</ele>
        <time>2012-02-04T15:12:45Z</time>
      </trkpt>
      <trkpt lat="48.58982" lon="-0.36148">
        <ele>220.5</ele>
        <time>2012-02-04T15:12:48Z</time>
      </trkpt>
      <trkpt lat="48.5899" lon="-0.36143">
        <ele>222.2</ele>
        <time>2012-02-04T15:12:51Z</time>
      </trkpt>
      <trkpt lat="48.58998" lon="-0.3614">
        <ele>222.9</ele>
        <time>2012-02-04T15:12:54Z</time>
      </trkpt>
      <trkpt lat="48.59006" lon="-0.36141">
        <ele>224</ele>
        <time>2012-02-04T15:12:57Z</time>
      </trkpt>
      <trkpt lat="48.59015" lon="-0.36143">
        <ele>225.2</ele>
        <time>2012-02-04T15:13:00Z</time>
      </trkpt>
      <trkpt lat="48.59023" lon="-0.36145">
        <ele>225.8</ele>
        <time>2012-02-04T15:13:03Z</time>
      </trkpt>
      <trkpt lat="48.59031" lon="-0.36144">
        <ele>226.7</ele>
        <time>2012-02-04T15:13:06Z</time>
      </trkpt>
      <trkpt lat="48.59037" lon="-0.36141">
        <ele>227.2</ele>
        <time>2012-02-04T15:13:08Z</time>
      </trkpt>
      <trkpt lat="48.59043" lon="-0.36139">
        <ele>227.7</ele>
        <time>2012-02-04T15:13:10Z</time>
      </trkpt>
      <trkpt lat="48.59049" lon="-0.36136">
        <ele>228.5</ele>
        <time>2012-02-04T15:13:12Z</time>
      </trkpt>
      <trkpt lat="48.59055" lon="-0.36134">
        <ele>228.6</ele>
        <time>2012-02-04T15:13:14Z</time>
      </trkpt>
      <trkpt lat="48.5906" lon="-0.36131">
        <ele>229.4</ele>
        <time>2012-02-04T15:13:16Z</time>
      </trkpt>
      <trkpt lat="48.59063" lon="-0.3613">
        <ele>229.7</ele>
        <time>2012-02-04T15:13:17Z</time>
      </trkpt>
      <trkpt lat="48.59072" lon="-0.36125">
        <ele>230.3</ele>
        <time>2012-02-04T15:13:20Z</time>
      </trkpt>
      <trkpt lat="48.59078" lon="-0.36123">
        <ele>230.7</ele>
        <time>2012-02-04T15:13:22Z</time>
      </trkpt>
      <trkpt lat="48.59086" lon="-0.36118">
        <ele>230.9</ele>
        <time>2012-02-04T15:13:25Z</time>
      </trkpt>
      <trkpt lat="48.59092" lon="-0.36114">
        <ele>230.9</ele>
        <time>2012-02-04T15:13:28Z</time>
      </trkpt>
      <trkpt lat="48.59097" lon="-0.36109">
        <ele>231</ele>
        <time>2012-02-04T15:13:30Z</time>
      </trkpt>
      <trkpt lat="48.59104" lon="-0.36104">
        <ele>231</ele>
        <time>2012-02-04T15:13:32Z</time>
      </trkpt>
      <trkpt lat="48.5911" lon="-0.36099">
        <ele>231.2</ele>
        <time>2012-02-04T15:13:34Z</time>
      </trkpt>
      <trkpt lat="48.59116" lon="-0.36093">
        <ele>231.4</ele>
        <time>2012-02-04T15:13:36Z</time>
      </trkpt>
      <trkpt lat="48.59119" lon="-0.36085">
        <ele>231.9</ele>
        <time>2012-02-04T15:13:38Z</time>
      </trkpt>
      <trkpt lat="48.59121" lon="-0.36074">
        <ele>231.9</ele>
        <time>2012-02-04T15:13:40Z</time>
      </trkpt>
      <trkpt lat="48.59122" lon="-0.36063">
        <ele>231.9</ele>
        <time>2012-02-04T15:13:42Z</time>
      </trkpt>
      <trkpt lat="48.59125" lon="-0.36053">
        <ele>232.2</ele>
        <time>2012-02-04T15:13:44Z</time>
      </trkpt>
      <trkpt lat="48.59128" lon="-0.36043">
        <ele>232.5</ele>
        <time>2012-02-04T15:13:46Z</time>
      </trkpt>
      <trkpt lat="48.59132" lon="-0.36032">
        <ele>232.6</ele>
        <time>2012-02-04T15:13:48Z</time>
      </trkpt>
      <trkpt lat="48.59133" lon="-0.36021">
        <ele>232.7</ele>
        <time>2012-02-04T15:13:50Z</time>
      </trkpt>
      <trkpt lat="48.59131" lon="-0.3601">
        <ele>232.1</ele>
        <time>2012-02-04T15:13:52Z</time>
      </trkpt>
      <trkpt lat="48.59128" lon="-0.35998">
        <ele>232.3</ele>
        <time>2012-02-04T15:13:54Z</time>
      </trkpt>
      <trkpt lat="48.59126" lon="-0.35992">
        <ele>232.4</ele>
        <time>2012-02-04T15:13:55Z</time>
      </trkpt>
      <trkpt lat="48.59124" lon="-0.35986">
        <ele>232.6</ele>
        <time>2012-02-04T15:13:56Z</time>
      </trkpt>
      <trkpt lat="48.59122" lon="-0.35979">
        <ele>232.7</ele>
        <time>2012-02-04T15:13:57Z</time>
      </trkpt>
      <trkpt lat="48.5912" lon="-0.35973">
        <ele>232.5</ele>
        <time>2012-02-04T15:13:58Z</time>
      </trkpt>
      <trkpt lat="48.59119" lon="-0.35966">
        <ele>232.4</ele>
        <time>2012-02-04T15:13:59Z</time>
      </trkpt>
      <trkpt lat="48.59115" lon="-0.35954">
        <ele>231.8</ele>
        <time>2012-02-04T15:14:01Z</time>
      </trkpt>
      <trkpt lat="48.59112" lon="-0.35942">
        <ele>231.9</ele>
        <time>2012-02-04T15:14:03Z</time>
      </trkpt>
      <trkpt lat="48.5911" lon="-0.35932">
        <ele>231.6</ele>
        <time>2012-02-04T15:14:05Z</time>
      </trkpt>
      <trkpt lat="48.59113" lon="-0.3592">
        <ele>231.1</ele>
        <time>2012-02-04T15:14:08Z</time>
      </trkpt>
      <trkpt lat="48.59119" lon="-0.35916">
        <ele>230.7</ele>
        <time>2012-02-04T15:14:10Z</time>
      </trkpt>
      <trkpt lat="48.59128" lon="-0.35917">
        <ele>230.6</ele>
        <time>2012-02-04T15:14:12Z</time>
      </trkpt>
      <trkpt lat="48.59132" lon="-0.35918">
        <ele>230.6</ele>
        <time>2012-02-04T15:14:13Z</time>
      </trkpt>
      <trkpt lat="48.59137" lon="-0.3592">
        <ele>230.7</ele>
        <time>2012-02-04T15:14:14Z</time>
      </trkpt>
      <trkpt lat="48.59142" lon="-0.35922">
        <ele>231</ele>
        <time>2012-02-04T15:14:15Z</time>
      </trkpt>
      <trkpt lat="48.5915" lon="-0.35926">
        <ele>231.5</ele>
        <time>2012-02-04T15:14:17Z</time>
      </trkpt>
      <trkpt lat="48.59154" lon="-0.35928">
        <ele>231.7</ele>
        <time>2012-02-04T15:14:18Z</time>
      </trkpt>
      <trkpt lat="48.59166" lon="-0.35935">
        <ele>232.4</ele>
        <time>2012-02-04T15:14:21Z</time>
      </trkpt>
      <trkpt lat="48.59174" lon="-0.3594">
        <ele>232.8</ele>
        <time>2012-02-04T15:14:23Z</time>
      </trkpt>
      <trkpt lat="48.59181" lon="-0.35945">
        <ele>233.4</ele>
        <time>2012-02-04T15:14:25Z</time>
      </trkpt>
      <trkpt lat="48.59188" lon="-0.3595">
        <ele>233.1</ele>
        <time>2012-02-04T15:14:27Z</time>
      </trkpt>
      <trkpt lat="48.59197" lon="-0.3595">
        <ele>233.4</ele>
        <time>2012-02-04T15:14:29Z</time>
      </trkpt>
      <trkpt lat="48.59204" lon="-0.35944">
        <ele>233.9</ele>
        <time>2012-02-04T15:14:31Z</time>
      </trkpt>
      <trkpt lat="48.59212" lon="-0.35936">
        <ele>234.4</ele>
        <time>2012-02-04T15:14:33Z</time>
      </trkpt>
      <trkpt lat="48.59219" lon="-0.35929">
        <ele>234.6</ele>
        <time>2012-02-04T15:14:35Z</time>
      </trkpt>
      <trkpt lat="48.59226" lon="-0.35922">
        <ele>234.7</ele>
        <time>2012-02-04T15:14:37Z</time>
      </trkpt>
      <trkpt lat="48.59234" lon="-0.35915">
        <ele>234.7</ele>
        <time>2012-02-04T15:14:39Z</time>
      </trkpt>
      <trkpt lat="48.59238" lon="-0.35912">
        <ele>234.7</ele>
        <time>2012-02-04T15:14:40Z</time>
      </trkpt>
      <trkpt lat="48.59242" lon="-0.35908">
        <ele>234.8</ele>
        <time>2012-02-04T15:14:41Z</time>
      </trkpt>
      <trkpt lat="48.59246" lon="-0.35905">
        <ele>235</ele>
        <time>2012-02-04T15:14:42Z</time>
      </trkpt>
      <trkpt lat="48.59253" lon="-0.35898">
        <ele>235</ele>
        <time>2012-02-04T15:14:44Z</time>
      </trkpt>
      <trkpt lat="48.59257" lon="-0.35894">
        <ele>234.8</ele>
        <time>2012-02-04T15:14:45Z</time>
      </trkpt>
      <trkpt lat="48.59261" lon="-0.3589">
        <ele>234.7</ele>
        <time>2012-02-04T15:14:46Z</time>
      </trkpt>
      <trkpt lat="48.59265" lon="-0.35887">
        <ele>234.6</ele>
        <time>2012-02-04T15:14:47Z</time>
      </trkpt>
      <trkpt lat="48.59273" lon="-0.3588">
        <ele>235.1</ele>
        <time>2012-02-04T15:14:49Z</time>
      </trkpt>
      <trkpt lat="48.59276" lon="-0.35876">
        <ele>235.5</ele>
        <time>2012-02-04T15:14:50Z</time>
      </trkpt>
      <trkpt lat="48.5928" lon="-0.35872">
        <ele>235.8</ele>
        <time>2012-02-04T15:14:51Z</time>
      </trkpt>
      <trkpt lat="48.59284" lon="-0.35869">
        <ele>236.1</ele>
        <time>2012-02-04T15:14:52Z</time>
      </trkpt>
      <trkpt lat="48.59289" lon="-0.35865">
        <ele>235.9</ele>
        <time>2012-02-04T15:14:53Z</time>
      </trkpt>
      <trkpt lat="48.59293" lon="-0.35861">
        <ele>235.7</ele>
        <time>2012-02-04T15:14:54Z</time>
      </trkpt>
      <trkpt lat="48.59297" lon="-0.35858">
        <ele>236.1</ele>
        <time>2012-02-04T15:14:55Z</time>
      </trkpt>
      <trkpt lat="48.59301" lon="-0.35854">
        <ele>236.4</ele>
        <time>2012-02-04T15:14:56Z</time>
      </trkpt>
      <trkpt lat="48.59305" lon="-0.3585">
        <ele>236.3</ele>
        <time>2012-02-04T15:14:57Z</time>
      </trkpt>
      <trkpt lat="48.59309" lon="-0.35846">
        <ele>236.1</ele>
        <time>2012-02-04T15:14:58Z</time>
      </trkpt>
      <trkpt lat="48.59313" lon="-0.35842">
        <ele>236</ele>
        <time>2012-02-04T15:14:59Z</time>
      </trkpt>
      <trkpt lat="48.59317" lon="-0.35838">
        <ele>236.3</ele>
        <time>2012-02-04T15:15:00Z</time>
      </trkpt>
      <trkpt lat="48.59321" lon="-0.35834">
        <ele>236.5</ele>
        <time>2012-02-04T15:15:01Z</time>
      </trkpt>
      <trkpt lat="48.59325" lon="-0.3583">
        <ele>236.2</ele>
        <time>2012-02-04T15:15:02Z</time>
      </trkpt>
      <trkpt lat="48.59329" lon="-0.35826">
        <ele>236.1</ele>
        <time>2012-02-04T15:15:03Z</time>
      </trkpt>
      <trkpt lat="48.59333" lon="-0.35823">
        <ele>236.4</ele>
        <time>2012-02-04T15:15:04Z</time>
      </trkpt>
      <trkpt lat="48.59337" lon="-0.3582">
        <ele>236.7</ele>
        <time>2012-02-04T15:15:05Z</time>
      </trkpt>
      <trkpt lat="48.59341" lon="-0.35816">
        <ele>236.9</ele>
        <time>2012-02-04T15:15:06Z</time>
      </trkpt>
      <trkpt lat="48.59345" lon="-0.35812">
        <ele>236.6</ele>
        <time>2012-02-04T15:15:07Z</time>
      </trkpt>
      <trkpt lat="48.59349" lon="-0.35808">
        <ele>236.4</ele>
        <time>2012-02-04T15:15:08Z</time>
      </trkpt>
      <trkpt lat="48.59353" lon="-0.35804">
        <ele>236.5</ele>
        <time>2012-02-04T15:15:09Z</time>
      </trkpt>
      <trkpt lat="48.59357" lon="-0.35801">
        <ele>236.6</ele>
        <time>2012-02-04T15:15:10Z</time>
      </trkpt>
      <trkpt lat="48.59361" lon="-0.35797">
        <ele>236.8</ele>
        <time>2012-02-04T15:15:11Z</time>
      </trkpt>
      <trkpt lat="48.59365" lon="-0.35793">
        <ele>236.9</ele>
        <time>2012-02-04T15:15:12Z</time>
      </trkpt>
      <trkpt lat="48.59369" lon="-0.3579">
        <ele>237</ele>
        <time>2012-02-04T15:15:13Z</time>
      </trkpt>
      <trkpt lat="48.59373" lon="-0.35786">
        <ele>236.7</ele>
        <time>2012-02-04T15:15:14Z</time>
      </trkpt>
      <trkpt lat="48.59377" lon="-0.35783">
        <ele>236.5</ele>
        <time>2012-02-04T15:15:15Z</time>
      </trkpt>
      <trkpt lat="48.59381" lon="-0.35779">
        <ele>236.5</ele>
        <time>2012-02-04T15:15:16Z</time>
      </trkpt>
      <trkpt lat="48.59385" lon="-0.35776">
        <ele>236.6</ele>
        <time>2012-02-04T15:15:17Z</time>
      </trkpt>
      <trkpt lat="48.59389" lon="-0.35772">
        <ele>236.6</ele>
        <time>2012-02-04T15:15:18Z</time>
      </trkpt>
      <trkpt lat="48.59393" lon="-0.35769">
        <ele>236.4</ele>
        <time>2012-02-04T15:15:19Z</time>
      </trkpt>
      <trkpt lat="48.59396" lon="-0.35765">
        <ele>236.3</ele>
        <time>2012-02-04T15:15:20Z</time>
      </trkpt>
      <trkpt lat="48.594" lon="-0.35761">
        <ele>236.3</ele>
        <time>2012-02-04T15:15:21Z</time>
      </trkpt>
      <trkpt lat="48.59405" lon="-0.35757">
        <ele>236.3</ele>
        <time>2012-02-04T15:15:22Z</time>
      </trkpt>
      <trkpt lat="48.59409" lon="-0.35753">
        <ele>236.6</ele>
        <time>2012-02-04T15:15:23Z</time>
      </trkpt>
      <trkpt lat="48.59413" lon="-0.3575">
        <ele>236.9</ele>
        <time>2012-02-04T15:15:24Z</time>
      </trkpt>
      <trkpt lat="48.59417" lon="-0.35746">
        <ele>237.2</ele>
        <time>2012-02-04T15:15:25Z</time>
      </trkpt>
      <trkpt lat="48.59421" lon="-0.35742">
        <ele>237.3</ele>
        <time>2012-02-04T15:15:26Z</time>
      </trkpt>
      <trkpt lat="48.59425" lon="-0.35739">
        <ele>237.5</ele>
        <time>2012-02-04T15:15:27Z</time>
      </trkpt>
      <trkpt lat="48.59429" lon="-0.35735">
        <ele>237.2</ele>
        <time>2012-02-04T15:15:28Z</time>
      </trkpt>
      <trkpt lat="48.59433" lon="-0.35731">
        <ele>237</ele>
        <time>2012-02-04T15:15:29Z</time>
      </trkpt>
      <trkpt lat="48.59437" lon="-0.35728">
        <ele>237.2</ele>
        <time>2012-02-04T15:15:30Z</time>
      </trkpt>
      <trkpt lat="48.59442" lon="-0.35725">
        <ele>237.4</ele>
        <time>2012-02-04T15:15:31Z</time>
      </trkpt>
      <trkpt lat="48.59446" lon="-0.35721">
        <ele>237.5</ele>
        <time>2012-02-04T15:15:32Z</time>
      </trkpt>
      <trkpt lat="48.5945" lon="-0.35718">
        <ele>237.4</ele>
        <time>2012-02-04T15:15:33Z</time>
      </trkpt>
      <trkpt lat="48.59454" lon="-0.35714">
        <ele>237.3</ele>
        <time>2012-02-04T15:15:34Z</time>
      </trkpt>
      <trkpt lat="48.59458" lon="-0.3571">
        <ele>237.4</ele>
        <time>2012-02-04T15:15:35Z</time>
      </trkpt>
      <trkpt lat="48.59462" lon="-0.35707">
        <ele>237.5</ele>
        <time>2012-02-04T15:15:36Z</time>
      </trkpt>
      <trkpt lat="48.59465" lon="-0.35703">
        <ele>237.5</ele>
        <time>2012-02-04T15:15:37Z</time>
      </trkpt>
      <trkpt lat="48.59472" lon="-0.35694">
        <ele>238</ele>
        <time>2012-02-04T15:15:39Z</time>
      </trkpt>
      <trkpt lat="48.59476" lon="-0.35683">
        <ele>237.7</ele>
        <time>2012-02-04T15:15:41Z</time>
      </trkpt>
      <trkpt lat="48.59478" lon="-0.35671">
        <ele>237.4</ele>
        <time>2012-02-04T15:15:43Z</time>
      </trkpt>
      <trkpt lat="48.59484" lon="-0.35664">
        <ele>237.6</ele>
        <time>2012-02-04T15:15:45Z</time>
      </trkpt>
      <trkpt lat="48.59492" lon="-0.35669">
        <ele>237.6</ele>
        <time>2012-02-04T15:15:48Z</time>
      </trkpt>
      <trkpt lat="48.59498" lon="-0.35675">
        <ele>237</ele>
        <time>2012-02-04T15:15:56Z</time>
      </trkpt>
      <trkpt lat="48.59503" lon="-0.35679">
        <ele>237.3</ele>
        <time>2012-02-04T15:15:58Z</time>
      </trkpt>
      <trkpt lat="48.59511" lon="-0.35681">
        <ele>237.2</ele>
        <time>2012-02-04T15:16:00Z</time>
      </trkpt>
      <trkpt lat="48.59519" lon="-0.35684">
        <ele>238</ele>
        <time>2012-02-04T15:16:02Z</time>
      </trkpt>
      <trkpt lat="48.59527" lon="-0.35688">
        <ele>238.3</ele>
        <time>2012-02-04T15:16:04Z</time>
      </trkpt>
      <trkpt lat="48.59535" lon="-0.35691">
        <ele>238.6</ele>
        <time>2012-02-04T15:16:06Z</time>
      </trkpt>
      <trkpt lat="48.59543" lon="-0.35694">
        <ele>238.6</ele>
        <time>2012-02-04T15:16:08Z</time>
      </trkpt>
      <trkpt lat="48.59551" lon="-0.35697">
        <ele>238.3</ele>
        <time>2012-02-04T15:16:10Z</time>
      </trkpt>
      <trkpt lat="48.5956" lon="-0.357">
        <ele>238.6</ele>
        <time>2012-02-04T15:16:12Z</time>
      </trkpt>
      <trkpt lat="48.59568" lon="-0.35703">
        <ele>238.8</ele>
        <time>2012-02-04T15:16:14Z</time>
      </trkpt>
      <trkpt lat="48.59575" lon="-0.35707">
        <ele>239.1</ele>
        <time>2012-02-04T15:16:16Z</time>
      </trkpt>
      <trkpt lat="48.59583" lon="-0.35711">
        <ele>239.1</ele>
        <time>2012-02-04T15:16:18Z</time>
      </trkpt>
      <trkpt lat="48.59591" lon="-0.35715">
        <ele>239.4</ele>
        <time>2012-02-04T15:16:20Z</time>
      </trkpt>
      <trkpt lat="48.59595" lon="-0.35717">
        <ele>239.7</ele>
        <time>2012-02-04T15:16:21Z</time>
      </trkpt>
      <trkpt lat="48.59608" lon="-0.35718">
        <ele>240.1</ele>
        <time>2012-02-04T15:16:24Z</time>
      </trkpt>
      <trkpt lat="48.59615" lon="-0.35712">
        <ele>240.8</ele>
        <time>2012-02-04T15:16:26Z</time>
      </trkpt>
      <trkpt lat="48.59623" lon="-0.35705">
        <ele>240.9</ele>
        <time>2012-02-04T15:16:28Z</time>
      </trkpt>
      <trkpt lat="48.59631" lon="-0.35701">
        <ele>241</ele>
        <time>2012-02-04T15:16:30Z</time>
      </trkpt>
      <trkpt lat="48.5964" lon="-0.35697">
        <ele>241.3</ele>
        <time>2012-02-04T15:16:32Z</time>
      </trkpt>
      <trkpt lat="48.59648" lon="-0.35693">
        <ele>241.6</ele>
        <time>2012-02-04T15:16:34Z</time>
      </trkpt>
      <trkpt lat="48.59656" lon="-0.3569">
        <ele>241.8</ele>
        <time>2012-02-04T15:16:36Z</time>
      </trkpt>
      <trkpt lat="48.59665" lon="-0.35688">
        <ele>241.8</ele>
        <time>2012-02-04T15:16:38Z</time>
      </trkpt>
      <trkpt lat="48.59673" lon="-0.35685">
        <ele>242.5</ele>
        <time>2012-02-04T15:16:40Z</time>
      </trkpt>
      <trkpt lat="48.59682" lon="-0.35682">
        <ele>242.7</ele>
        <time>2012-02-04T15:16:42Z</time>
      </trkpt>
      <trkpt lat="48.5969" lon="-0.35679">
        <ele>243.1</ele>
        <time>2012-02-04T15:16:44Z</time>
      </trkpt>
      <trkpt lat="48.59699" lon="-0.35676">
        <ele>243.5</ele>
        <time>2012-02-04T15:16:46Z</time>
      </trkpt>
      <trkpt lat="48.59707" lon="-0.35673">
        <ele>243.8</ele>
        <time>2012-02-04T15:16:48Z</time>
      </trkpt>
      <trkpt lat="48.59712" lon="-0.35671">
        <ele>243.8</ele>
        <time>2012-02-04T15:16:49Z</time>
      </trkpt>
      <trkpt lat="48.59716" lon="-0.35669">
        <ele>243.9</ele>
        <time>2012-02-04T15:16:50Z</time>
      </trkpt>
      <trkpt lat="48.59721" lon="-0.35666">
        <ele>243.9</ele>
        <time>2012-02-04T15:16:51Z</time>
      </trkpt>
      <trkpt lat="48.59726" lon="-0.35664">
        <ele>244</ele>
        <time>2012-02-04T15:16:52Z</time>
      </trkpt>
      <trkpt lat="48.59731" lon="-0.35661">
        <ele>243.8</ele>
        <time>2012-02-04T15:16:53Z</time>
      </trkpt>
      <trkpt lat="48.59736" lon="-0.35658">
        <ele>243.6</ele>
        <time>2012-02-04T15:16:54Z</time>
      </trkpt>
      <trkpt lat="48.59741" lon="-0.35655">
        <ele>243.5</ele>
        <time>2012-02-04T15:16:55Z</time>
      </trkpt>
      <trkpt lat="48.59746" lon="-0.35652">
        <ele>243.4</ele>
        <time>2012-02-04T15:16:56Z</time>
      </trkpt>
      <trkpt lat="48.59752" lon="-0.35649">
        <ele>243.3</ele>
        <time>2012-02-04T15:16:57Z</time>
      </trkpt>
      <trkpt lat="48.59757" lon="-0.35646">
        <ele>243</ele>
        <time>2012-02-04T15:16:58Z</time>
      </trkpt>
      <trkpt lat="48.59762" lon="-0.35642">
        <ele>242.8</ele>
        <time>2012-02-04T15:16:59Z</time>
      </trkpt>
      <trkpt lat="48.59768" lon="-0.35639">
        <ele>242.6</ele>
        <time>2012-02-04T15:17:00Z</time>
      </trkpt>
      <trkpt lat="48.59773" lon="-0.35635">
        <ele>242.4</ele>
        <time>2012-02-04T15:17:01Z</time>
      </trkpt>
      <trkpt lat="48.59779" lon="-0.35632">
        <ele>242.2</ele>
        <time>2012-02-04T15:17:02Z</time>
      </trkpt>
      <trkpt lat="48.59785" lon="-0.35628">
        <ele>242.1</ele>
        <time>2012-02-04T15:17:03Z</time>
      </trkpt>
      <trkpt lat="48.59791" lon="-0.35624">
        <ele>242.1</ele>
        <time>2012-02-04T15:17:04Z</time>
      </trkpt>
      <trkpt lat="48.59796" lon="-0.35621">
        <ele>241.5</ele>
        <time>2012-02-04T15:17:05Z</time>
      </trkpt>
      <trkpt lat="48.59802" lon="-0.35618">
        <ele>241</ele>
        <time>2012-02-04T15:17:06Z</time>
      </trkpt>
      <trkpt lat="48.59808" lon="-0.35614">
        <ele>240.7</ele>
        <time>2012-02-04T15:17:07Z</time>
      </trkpt>
      <trkpt lat="48.59813" lon="-0.3561">
        <ele>240.6</ele>
        <time>2012-02-04T15:17:08Z</time>
      </trkpt>
      <trkpt lat="48.59819" lon="-0.35606">
        <ele>240.5</ele>
        <time>2012-02-04T15:17:09Z</time>
      </trkpt>
      <trkpt lat="48.59824" lon="-0.35602">
        <ele>240.5</ele>
        <time>2012-02-04T15:17:10Z</time>
      </trkpt>
      <trkpt lat="48.59829" lon="-0.35597">
        <ele>240.4</ele>
        <time>2012-02-04T15:17:11Z</time>
      </trkpt>
      <trkpt lat="48.59834" lon="-0.35592">
        <ele>240.4</ele>
        <time>2012-02-04T15:17:12Z</time>
      </trkpt>
      <trkpt lat="48.59839" lon="-0.35587">
        <ele>240</ele>
        <time>2012-02-04T15:17:13Z</time>
      </trkpt>
      <trkpt lat="48.59844" lon="-0.35582">
        <ele>239.6</ele>
        <time>2012-02-04T15:17:14Z</time>
      </trkpt>
      <trkpt lat="48.59849" lon="-0.35576">
        <ele>239.4</ele>
        <time>2012-02-04T15:17:15Z</time>
      </trkpt>
      <trkpt lat="48.59853" lon="-0.35571">
        <ele>239.2</ele>
        <time>2012-02-04T15:17:16Z</time>
      </trkpt>
      <trkpt lat="48.59858" lon="-0.35566">
        <ele>239.1</ele>
        <time>2012-02-04T15:17:17Z</time>
      </trkpt>
      <trkpt lat="48.59863" lon="-0.35561">
        <ele>239</ele>
        <time>2012-02-04T15:17:18Z</time>
      </trkpt>
      <trkpt lat="48.59867" lon="-0.35556">
        <ele>238.9</ele>
        <time>2012-02-04T15:17:19Z</time>
      </trkpt>
      <trkpt lat="48.59872" lon="-0.35551">
        <ele>238.8</ele>
        <time>2012-02-04T15:17:20Z</time>
      </trkpt>
      <trkpt lat="48.59877" lon="-0.35547">
        <ele>238.6</ele>
        <time>2012-02-04T15:17:21Z</time>
      </trkpt>
      <trkpt lat="48.59882" lon="-0.35543">
        <ele>238.6</ele>
        <time>2012-02-04T15:17:22Z</time>
      </trkpt>
      <trkpt lat="48.59887" lon="-0.3554">
        <ele>238.6</ele>
        <time>2012-02-04T15:17:23Z</time>
      </trkpt>
      <trkpt lat="48.59892" lon="-0.35538">
        <ele>238.7</ele>
        <time>2012-02-04T15:17:24Z</time>
      </trkpt>
      <trkpt lat="48.59898" lon="-0.35537">
        <ele>238.7</ele>
        <time>2012-02-04T15:17:25Z</time>
      </trkpt>
      <trkpt lat="48.59903" lon="-0.35537">
        <ele>238.8</ele>
        <time>2012-02-04T15:17:26Z</time>
      </trkpt>
      <trkpt lat="48.59908" lon="-0.35536">
        <ele>238.7</ele>
        <time>2012-02-04T15:17:27Z</time>
      </trkpt>
      <trkpt lat="48.59914" lon="-0.35536">
        <ele>238.7</ele>
        <time>2012-02-04T15:17:28Z</time>
      </trkpt>
      <trkpt lat="48.59919" lon="-0.35535">
        <ele>238.7</ele>
        <time>2012-02-04T15:17:29Z</time>
      </trkpt>
      <trkpt lat="48.59925" lon="-0.35535">
        <ele>238.7</ele>
        <time>2012-02-04T15:17:30Z</time>
      </trkpt>
      <trkpt lat="48.5993" lon="-0.35535">
        <ele>238.8</ele>
        <time>2012-02-04T15:17:31Z</time>
      </trkpt>
      <trkpt lat="48.59935" lon="-0.35535">
        <ele>238.8</ele>
        <time>2012-02-04T15:17:32Z</time>
      </trkpt>
      <trkpt lat="48.59941" lon="-0.35535">
        <ele>238.9</ele>
        <time>2012-02-04T15:17:33Z</time>
      </trkpt>
      <trkpt lat="48.59946" lon="-0.35535">
        <ele>239.1</ele>
        <time>2012-02-04T15:17:34Z</time>
      </trkpt>
      <trkpt lat="48.59951" lon="-0.35534">
        <ele>239.2</ele>
        <time>2012-02-04T15:17:35Z</time>
      </trkpt>
      <trkpt lat="48.59955" lon="-0.35534">
        <ele>239.5</ele>
        <time>2012-02-04T15:17:36Z</time>
      </trkpt>
      <trkpt lat="48.5996" lon="-0.35534">
        <ele>239.8</ele>
        <time>2012-02-04T15:17:37Z</time>
      </trkpt>
      <trkpt lat="48.59965" lon="-0.35534">
        <ele>240</ele>
        <time>2012-02-04T15:17:38Z</time>
      </trkpt>
      <trkpt lat="48.59969" lon="-0.35534">
        <ele>240</ele>
        <time>2012-02-04T15:17:39Z</time>
      </trkpt>
      <trkpt lat="48.59974" lon="-0.35534">
        <ele>240</ele>
        <time>2012-02-04T15:17:40Z</time>
      </trkpt>
      <trkpt lat="48.59979" lon="-0.35534">
        <ele>240.2</ele>
        <time>2012-02-04T15:17:41Z</time>
      </trkpt>
      <trkpt lat="48.59987" lon="-0.35534">
        <ele>240.6</ele>
        <time>2012-02-04T15:17:43Z</time>
      </trkpt>
      <trkpt lat="48.59996" lon="-0.35534">
        <ele>240.8</ele>
        <time>2012-02-04T15:17:45Z</time>
      </trkpt>
      <trkpt lat="48.60005" lon="-0.35535">
        <ele>240.7</ele>
        <time>2012-02-04T15:17:47Z</time>
      </trkpt>
      <trkpt lat="48.60014" lon="-0.35534">
        <ele>241.1</ele>
        <time>2012-02-04T15:17:49Z</time>
      </trkpt>
      <trkpt lat="48.60022" lon="-0.35535">
        <ele>241.4</ele>
        <time>2012-02-04T15:17:51Z</time>
      </trkpt>
      <trkpt lat="48.60031" lon="-0.35535">
        <ele>241.6</ele>
        <time>2012-02-04T15:17:53Z</time>
      </trkpt>
      <trkpt lat="48.60039" lon="-0.35536">
        <ele>241.5</ele>
        <time>2012-02-04T15:17:55Z</time>
      </trkpt>
      <trkpt lat="48.60048" lon="-0.35537">
        <ele>241.1</ele>
        <time>2012-02-04T15:17:57Z</time>
      </trkpt>
      <trkpt lat="48.60056" lon="-0.35538">
        <ele>241.9</ele>
        <time>2012-02-04T15:17:59Z</time>
      </trkpt>
      <trkpt lat="48.60065" lon="-0.35539">
        <ele>241.9</ele>
        <time>2012-02-04T15:18:01Z</time>
      </trkpt>
      <trkpt lat="48.60073" lon="-0.35541">
        <ele>242</ele>
        <time>2012-02-04T15:18:03Z</time>
      </trkpt>
      <trkpt lat="48.60081" lon="-0.35542">
        <ele>241.8</ele>
        <time>2012-02-04T15:18:05Z</time>
      </trkpt>
      <trkpt lat="48.6009" lon="-0.35543">
        <ele>241.9</ele>
        <time>2012-02-04T15:18:07Z</time>
      </trkpt>
      <trkpt lat="48.60098" lon="-0.35544">
        <ele>242.1</ele>
        <time>2012-02-04T15:18:09Z</time>
      </trkpt>
      <trkpt lat="48.60107" lon="-0.35547">
        <ele>242.4</ele>
        <time>2012-02-04T15:18:11Z</time>
      </trkpt>
      <trkpt lat="48.60115" lon="-0.35549">
        <ele>242.3</ele>
        <time>2012-02-04T15:18:13Z</time>
      </trkpt>
      <trkpt lat="48.60123" lon="-0.35551">
        <ele>242.9</ele>
        <time>2012-02-04T15:18:15Z</time>
      </trkpt>
      <trkpt lat="48.60132" lon="-0.35552">
        <ele>243</ele>
        <time>2012-02-04T15:18:17Z</time>
      </trkpt>
      <trkpt lat="48.60139" lon="-0.35546">
        <ele>243.3</ele>
        <time>2012-02-04T15:18:19Z</time>
      </trkpt>
      <trkpt lat="48.60143" lon="-0.35535">
        <ele>243.4</ele>
        <time>2012-02-04T15:18:21Z</time>
      </trkpt>
      <trkpt lat="48.60145" lon="-0.35523">
        <ele>243.3</ele>
        <time>2012-02-04T15:18:23Z</time>
      </trkpt>
      <trkpt lat="48.60145" lon="-0.35517">
        <ele>243.2</ele>
        <time>2012-02-04T15:18:24Z</time>
      </trkpt>
      <trkpt lat="48.60146" lon="-0.35497">
        <ele>243.1</ele>
        <time>2012-02-04T15:18:27Z</time>
      </trkpt>
      <trkpt lat="48.60146" lon="-0.3549">
        <ele>242.8</ele>
        <time>2012-02-04T15:18:28Z</time>
      </trkpt>
      <trkpt lat="48.60145" lon="-0.35483">
        <ele>242.6</ele>
        <time>2012-02-04T15:18:29Z</time>
      </trkpt>
      <trkpt lat="48.60145" lon="-0.35475">
        <ele>242.5</ele>
        <time>2012-02-04T15:18:30Z</time>
      </trkpt>
      <trkpt lat="48.60144" lon="-0.35468">
        <ele>242.3</ele>
        <time>2012-02-04T15:18:31Z</time>
      </trkpt>
      <trkpt lat="48.60141" lon="-0.35456">
        <ele>242.1</ele>
        <time>2012-02-04T15:18:33Z</time>
      </trkpt>
      <trkpt lat="48.60138" lon="-0.35445">
        <ele>241.9</ele>
        <time>2012-02-04T15:18:35Z</time>
      </trkpt>
      <trkpt lat="48.60134" lon="-0.35433">
        <ele>241.2</ele>
        <time>2012-02-04T15:18:37Z</time>
      </trkpt>
      <trkpt lat="48.60132" lon="-0.35428">
        <ele>240.5</ele>
        <time>2012-02-04T15:18:38Z</time>
      </trkpt>
      <trkpt lat="48.60129" lon="-0.35421">
        <ele>240</ele>
        <time>2012-02-04T15:18:39Z</time>
      </trkpt>
      <trkpt lat="48.60126" lon="-0.35414">
        <ele>239.5</ele>
        <time>2012-02-04T15:18:40Z</time>
      </trkpt>
      <trkpt lat="48.60123" lon="-0.35407">
        <ele>239.1</ele>
        <time>2012-02-04T15:18:41Z</time>
      </trkpt>
      <trkpt lat="48.6012" lon="-0.35399">
        <ele>238.8</ele>
        <time>2012-02-04T15:18:42Z</time>
      </trkpt>
      <trkpt lat="48.60117" lon="-0.35391">
        <ele>238.4</ele>
        <time>2012-02-04T15:18:43Z</time>
      </trkpt>
      <trkpt lat="48.60115" lon="-0.35383">
        <ele>238.1</ele>
        <time>2012-02-04T15:18:44Z</time>
      </trkpt>
      <trkpt lat="48.60112" lon="-0.35375">
        <ele>237.6</ele>
        <time>2012-02-04T15:18:45Z</time>
      </trkpt>
      <trkpt lat="48.6011" lon="-0.35366">
        <ele>237.3</ele>
        <time>2012-02-04T15:18:46Z</time>
      </trkpt>
      <trkpt lat="48.60108" lon="-0.35357">
        <ele>236.5</ele>
        <time>2012-02-04T15:18:47Z</time>
      </trkpt>
      <trkpt lat="48.60106" lon="-0.35348">
        <ele>235.9</ele>
        <time>2012-02-04T15:18:48Z</time>
      </trkpt>
      <trkpt lat="48.60104" lon="-0.35339">
        <ele>235.5</ele>
        <time>2012-02-04T15:18:49Z</time>
      </trkpt>
      <trkpt lat="48.60102" lon="-0.35331">
        <ele>234.9</ele>
        <time>2012-02-04T15:18:50Z</time>
      </trkpt>
      <trkpt lat="48.601" lon="-0.35324">
        <ele>234.6</ele>
        <time>2012-02-04T15:18:51Z</time>
      </trkpt>
      <trkpt lat="48.60098" lon="-0.35316">
        <ele>234.3</ele>
        <time>2012-02-04T15:18:52Z</time>
      </trkpt>
      <trkpt lat="48.60096" lon="-0.35303">
        <ele>234</ele>
        <time>2012-02-04T15:18:54Z</time>
      </trkpt>
      <trkpt lat="48.60095" lon="-0.35291">
        <ele>234.3</ele>
        <time>2012-02-04T15:18:56Z</time>
      </trkpt>
      <trkpt lat="48.60094" lon="-0.3528">
        <ele>234.6</ele>
        <time>2012-02-04T15:18:58Z</time>
      </trkpt>
      <trkpt lat="48.60093" lon="-0.35269">
        <ele>235.4</ele>
        <time>2012-02-04T15:19:00Z</time>
      </trkpt>
      <trkpt lat="48.60092" lon="-0.35258">
        <ele>235.6</ele>
        <time>2012-02-04T15:19:02Z</time>
      </trkpt>
      <trkpt lat="48.60091" lon="-0.35247">
        <ele>235.4</ele>
        <time>2012-02-04T15:19:04Z</time>
      </trkpt>
      <trkpt lat="48.60089" lon="-0.35237">
        <ele>235.7</ele>
        <time>2012-02-04T15:19:06Z</time>
      </trkpt>
      <trkpt lat="48.60088" lon="-0.35228">
        <ele>236.2</ele>
        <time>2012-02-04T15:19:08Z</time>
      </trkpt>
      <trkpt lat="48.60086" lon="-0.35219">
        <ele>236.6</ele>
        <time>2012-02-04T15:19:10Z</time>
      </trkpt>
      <trkpt lat="48.60084" lon="-0.35209">
        <ele>236.6</ele>
        <time>2012-02-04T15:19:12Z</time>
      </trkpt>
      <trkpt lat="48.60081" lon="-0.35201">
        <ele>237</ele>
        <time>2012-02-04T15:19:14Z</time>
      </trkpt>
      <trkpt lat="48.60078" lon="-0.35188">
        <ele>238</ele>
        <time>2012-02-04T15:19:17Z</time>
      </trkpt>
      <trkpt lat="48.60077" lon="-0.35178">
        <ele>238.1</ele>
        <time>2012-02-04T15:19:19Z</time>
      </trkpt>
      <trkpt lat="48.60075" lon="-0.35168">
        <ele>238.1</ele>
        <time>2012-02-04T15:19:21Z</time>
      </trkpt>
      <trkpt lat="48.60072" lon="-0.35158">
        <ele>238.1</ele>
        <time>2012-02-04T15:19:23Z</time>
      </trkpt>
      <trkpt lat="48.60069" lon="-0.35148">
        <ele>238.4</ele>
        <time>2012-02-04T15:19:25Z</time>
      </trkpt>
      <trkpt lat="48.60068" lon="-0.35144">
        <ele>238.6</ele>
        <time>2012-02-04T15:19:26Z</time>
      </trkpt>
      <trkpt lat="48.6006" lon="-0.3513">
        <ele>239</ele>
        <time>2012-02-04T15:19:30Z</time>
      </trkpt>
      <trkpt lat="48.60056" lon="-0.35125">
        <ele>239.1</ele>
        <time>2012-02-04T15:19:32Z</time>
      </trkpt>
      <trkpt lat="48.6005" lon="-0.35119">
        <ele>239</ele>
        <time>2012-02-04T15:19:34Z</time>
      </trkpt>
      <trkpt lat="48.60045" lon="-0.35112">
        <ele>239.1</ele>
        <time>2012-02-04T15:19:36Z</time>
      </trkpt>
      <trkpt lat="48.6004" lon="-0.35104">
        <ele>239.3</ele>
        <time>2012-02-04T15:19:38Z</time>
      </trkpt>
      <trkpt lat="48.60035" lon="-0.35097">
        <ele>239.5</ele>
        <time>2012-02-04T15:19:40Z</time>
      </trkpt>
      <trkpt lat="48.6003" lon="-0.35091">
        <ele>239.6</ele>
        <time>2012-02-04T15:19:42Z</time>
      </trkpt>
      <trkpt lat="48.60023" lon="-0.35082">
        <ele>239.1</ele>
        <time>2012-02-04T15:19:45Z</time>
      </trkpt>
      <trkpt lat="48.6002" lon="-0.3507">
        <ele>238.6</ele>
        <time>2012-02-04T15:19:49Z</time>
      </trkpt>
      <trkpt lat="48.60026" lon="-0.35064">
        <ele>238.6</ele>
        <time>2012-02-04T15:19:53Z</time>
      </trkpt>
      <trkpt lat="48.60022" lon="-0.35051">
        <ele>238.9</ele>
        <time>2012-02-04T15:20:09Z</time>
      </trkpt>
      <trkpt lat="48.60022" lon="-0.35051">
        <ele>238.9</ele>
        <time>2012-02-04T15:20:09Z</time>
      </trkpt>
    </trkseg>
  </trk>
</gpx>